<?xml version="1.0" encoding="UTF-8" standalone="no" ?>
<gpx xmlns="http://www.topografix.com/GPX/1/1" xmlns:xsi="http://www.w3.org/2001/XMLSchema-instance" xsi:schemaLocation="http://www.topografix.com/GPX/1/1 http://www.topografix.com/GPX/1/1/gpx.xsd" version="1.1" creator="VisuGPX - https://www.visugpx.com">
  <metadata>
    <name>Circuit Rouge n°13 le Val des Nymphes gpx</name>
  </metadata>
  <trk>
    <name><![CDATA[Circuit Rouge n°13 le Val des Nymphes gpx]]></name>
    <trkseg>
      <trkpt lat="44.34783" lon="4.7699">
        <ele>92.5</ele>
        <time>2018-03-26T10:45:33Z</time>
      </trkpt>
      <trkpt lat="44.34784" lon="4.7699">
        <ele>92.5</ele>
        <time>2018-03-26T10:45:34Z</time>
      </trkpt>
      <trkpt lat="44.3479" lon="4.76979">
        <ele>92.4</ele>
        <time>2018-03-26T10:45:41Z</time>
      </trkpt>
      <trkpt lat="44.34797" lon="4.76968">
        <ele>92.6</ele>
        <time>2018-03-26T10:45:46Z</time>
      </trkpt>
      <trkpt lat="44.34806" lon="4.76973">
        <ele>92.9</ele>
        <time>2018-03-26T10:45:50Z</time>
      </trkpt>
      <trkpt lat="44.34813" lon="4.76984">
        <ele>92.8</ele>
        <time>2018-03-26T10:45:53Z</time>
      </trkpt>
      <trkpt lat="44.34821" lon="4.76994">
        <ele>92.8</ele>
        <time>2018-03-26T10:45:56Z</time>
      </trkpt>
      <trkpt lat="44.34828" lon="4.77006">
        <ele>92.9</ele>
        <time>2018-03-26T10:45:59Z</time>
      </trkpt>
      <trkpt lat="44.34837" lon="4.77018">
        <ele>93.1</ele>
        <time>2018-03-26T10:46:02Z</time>
      </trkpt>
      <trkpt lat="44.34844" lon="4.77031">
        <ele>93.3</ele>
        <time>2018-03-26T10:46:05Z</time>
      </trkpt>
      <trkpt lat="44.34847" lon="4.77048">
        <ele>93.7</ele>
        <time>2018-03-26T10:46:08Z</time>
      </trkpt>
      <trkpt lat="44.34854" lon="4.77061">
        <ele>93.7</ele>
        <time>2018-03-26T10:46:11Z</time>
      </trkpt>
      <trkpt lat="44.34866" lon="4.77065">
        <ele>93.7</ele>
        <time>2018-03-26T10:46:14Z</time>
      </trkpt>
      <trkpt lat="44.34888" lon="4.77068">
        <ele>93.7</ele>
        <time>2018-03-26T10:46:19Z</time>
      </trkpt>
      <trkpt lat="44.34897" lon="4.7707">
        <ele>93.4</ele>
        <time>2018-03-26T10:46:21Z</time>
      </trkpt>
      <trkpt lat="44.34907" lon="4.77071">
        <ele>93.4</ele>
        <time>2018-03-26T10:46:23Z</time>
      </trkpt>
      <trkpt lat="44.34915" lon="4.77079">
        <ele>93.5</ele>
        <time>2018-03-26T10:46:26Z</time>
      </trkpt>
      <trkpt lat="44.34913" lon="4.77096">
        <ele>93.4</ele>
        <time>2018-03-26T10:46:29Z</time>
      </trkpt>
      <trkpt lat="44.34918" lon="4.7711">
        <ele>92.8</ele>
        <time>2018-03-26T10:46:32Z</time>
      </trkpt>
      <trkpt lat="44.34931" lon="4.77111">
        <ele>92</ele>
        <time>2018-03-26T10:46:35Z</time>
      </trkpt>
      <trkpt lat="44.34942" lon="4.77119">
        <ele>91.3</ele>
        <time>2018-03-26T10:46:38Z</time>
      </trkpt>
      <trkpt lat="44.34948" lon="4.7713">
        <ele>90.8</ele>
        <time>2018-03-26T10:46:40Z</time>
      </trkpt>
      <trkpt lat="44.34954" lon="4.77143">
        <ele>90.2</ele>
        <time>2018-03-26T10:46:43Z</time>
      </trkpt>
      <trkpt lat="44.34951" lon="4.77155">
        <ele>89.2</ele>
        <time>2018-03-26T10:46:46Z</time>
      </trkpt>
      <trkpt lat="44.34952" lon="4.77169">
        <ele>88.5</ele>
        <time>2018-03-26T10:46:50Z</time>
      </trkpt>
      <trkpt lat="44.34962" lon="4.77177">
        <ele>88.3</ele>
        <time>2018-03-26T10:46:53Z</time>
      </trkpt>
      <trkpt lat="44.34971" lon="4.77184">
        <ele>88.2</ele>
        <time>2018-03-26T10:46:55Z</time>
      </trkpt>
      <trkpt lat="44.34979" lon="4.77192">
        <ele>87.9</ele>
        <time>2018-03-26T10:46:57Z</time>
      </trkpt>
      <trkpt lat="44.34986" lon="4.77201">
        <ele>87.6</ele>
        <time>2018-03-26T10:46:59Z</time>
      </trkpt>
      <trkpt lat="44.34995" lon="4.77212">
        <ele>87.3</ele>
        <time>2018-03-26T10:47:02Z</time>
      </trkpt>
      <trkpt lat="44.35004" lon="4.77218">
        <ele>87.1</ele>
        <time>2018-03-26T10:47:06Z</time>
      </trkpt>
      <trkpt lat="44.35009" lon="4.77206">
        <ele>87.2</ele>
        <time>2018-03-26T10:47:10Z</time>
      </trkpt>
      <trkpt lat="44.35015" lon="4.77191">
        <ele>87.3</ele>
        <time>2018-03-26T10:47:13Z</time>
      </trkpt>
      <trkpt lat="44.35019" lon="4.77179">
        <ele>87.3</ele>
        <time>2018-03-26T10:47:15Z</time>
      </trkpt>
      <trkpt lat="44.35024" lon="4.77168">
        <ele>87.3</ele>
        <time>2018-03-26T10:47:17Z</time>
      </trkpt>
      <trkpt lat="44.35028" lon="4.77156">
        <ele>87.2</ele>
        <time>2018-03-26T10:47:19Z</time>
      </trkpt>
      <trkpt lat="44.35033" lon="4.77145">
        <ele>87.1</ele>
        <time>2018-03-26T10:47:21Z</time>
      </trkpt>
      <trkpt lat="44.35039" lon="4.77136">
        <ele>87.1</ele>
        <time>2018-03-26T10:47:23Z</time>
      </trkpt>
      <trkpt lat="44.35052" lon="4.77136">
        <ele>87.3</ele>
        <time>2018-03-26T10:47:26Z</time>
      </trkpt>
      <trkpt lat="44.35061" lon="4.77135">
        <ele>87.7</ele>
        <time>2018-03-26T10:47:31Z</time>
      </trkpt>
      <trkpt lat="44.35071" lon="4.77135">
        <ele>87.5</ele>
        <time>2018-03-26T10:47:41Z</time>
      </trkpt>
      <trkpt lat="44.35071" lon="4.77135">
        <ele>87.5</ele>
        <time>2018-03-26T10:47:41Z</time>
      </trkpt>
      <trkpt lat="44.35078" lon="4.77145">
        <ele>88.4</ele>
        <time>2018-03-26T10:47:45Z</time>
      </trkpt>
      <trkpt lat="44.35083" lon="4.77156">
        <ele>88.1</ele>
        <time>2018-03-26T10:47:50Z</time>
      </trkpt>
      <trkpt lat="44.35091" lon="4.77168">
        <ele>87.8</ele>
        <time>2018-03-26T10:47:55Z</time>
      </trkpt>
      <trkpt lat="44.35098" lon="4.77177">
        <ele>87.6</ele>
        <time>2018-03-26T10:47:59Z</time>
      </trkpt>
      <trkpt lat="44.35105" lon="4.77187">
        <ele>87.4</ele>
        <time>2018-03-26T10:48:04Z</time>
      </trkpt>
      <trkpt lat="44.35105" lon="4.77187">
        <ele>87.2</ele>
        <time>2018-03-26T10:48:05Z</time>
      </trkpt>
      <trkpt lat="44.35116" lon="4.77195">
        <ele>87.1</ele>
        <time>2018-03-26T10:48:08Z</time>
      </trkpt>
      <trkpt lat="44.35127" lon="4.77186">
        <ele>87.1</ele>
        <time>2018-03-26T10:48:11Z</time>
      </trkpt>
      <trkpt lat="44.35136" lon="4.7718">
        <ele>87.1</ele>
        <time>2018-03-26T10:48:13Z</time>
      </trkpt>
      <trkpt lat="44.35146" lon="4.7718">
        <ele>87.2</ele>
        <time>2018-03-26T10:48:15Z</time>
      </trkpt>
      <trkpt lat="44.35156" lon="4.77183">
        <ele>87.2</ele>
        <time>2018-03-26T10:48:17Z</time>
      </trkpt>
      <trkpt lat="44.35167" lon="4.77186">
        <ele>87.2</ele>
        <time>2018-03-26T10:48:19Z</time>
      </trkpt>
      <trkpt lat="44.35178" lon="4.7719">
        <ele>87.4</ele>
        <time>2018-03-26T10:48:21Z</time>
      </trkpt>
      <trkpt lat="44.35189" lon="4.77193">
        <ele>87.4</ele>
        <time>2018-03-26T10:48:23Z</time>
      </trkpt>
      <trkpt lat="44.352" lon="4.77196">
        <ele>87.3</ele>
        <time>2018-03-26T10:48:25Z</time>
      </trkpt>
      <trkpt lat="44.35211" lon="4.77199">
        <ele>87.3</ele>
        <time>2018-03-26T10:48:27Z</time>
      </trkpt>
      <trkpt lat="44.35222" lon="4.77202">
        <ele>87.3</ele>
        <time>2018-03-26T10:48:29Z</time>
      </trkpt>
      <trkpt lat="44.35232" lon="4.77205">
        <ele>87.4</ele>
        <time>2018-03-26T10:48:31Z</time>
      </trkpt>
      <trkpt lat="44.35242" lon="4.77208">
        <ele>87.4</ele>
        <time>2018-03-26T10:48:33Z</time>
      </trkpt>
      <trkpt lat="44.35253" lon="4.77212">
        <ele>87.6</ele>
        <time>2018-03-26T10:48:35Z</time>
      </trkpt>
      <trkpt lat="44.35263" lon="4.77216">
        <ele>87.7</ele>
        <time>2018-03-26T10:48:37Z</time>
      </trkpt>
      <trkpt lat="44.35274" lon="4.7722">
        <ele>87.8</ele>
        <time>2018-03-26T10:48:39Z</time>
      </trkpt>
      <trkpt lat="44.35284" lon="4.77224">
        <ele>88.1</ele>
        <time>2018-03-26T10:48:41Z</time>
      </trkpt>
      <trkpt lat="44.35294" lon="4.77229">
        <ele>88.3</ele>
        <time>2018-03-26T10:48:43Z</time>
      </trkpt>
      <trkpt lat="44.35304" lon="4.77233">
        <ele>88.5</ele>
        <time>2018-03-26T10:48:45Z</time>
      </trkpt>
      <trkpt lat="44.35313" lon="4.77238">
        <ele>88.9</ele>
        <time>2018-03-26T10:48:47Z</time>
      </trkpt>
      <trkpt lat="44.35323" lon="4.77242">
        <ele>89.4</ele>
        <time>2018-03-26T10:48:49Z</time>
      </trkpt>
      <trkpt lat="44.35333" lon="4.77246">
        <ele>89.7</ele>
        <time>2018-03-26T10:48:51Z</time>
      </trkpt>
      <trkpt lat="44.35342" lon="4.7725">
        <ele>89.8</ele>
        <time>2018-03-26T10:48:53Z</time>
      </trkpt>
      <trkpt lat="44.35352" lon="4.77255">
        <ele>89.9</ele>
        <time>2018-03-26T10:48:55Z</time>
      </trkpt>
      <trkpt lat="44.35361" lon="4.77259">
        <ele>90</ele>
        <time>2018-03-26T10:48:57Z</time>
      </trkpt>
      <trkpt lat="44.35371" lon="4.77263">
        <ele>90.2</ele>
        <time>2018-03-26T10:48:59Z</time>
      </trkpt>
      <trkpt lat="44.35381" lon="4.77267">
        <ele>90.4</ele>
        <time>2018-03-26T10:49:01Z</time>
      </trkpt>
      <trkpt lat="44.35391" lon="4.7727">
        <ele>90.6</ele>
        <time>2018-03-26T10:49:03Z</time>
      </trkpt>
      <trkpt lat="44.35401" lon="4.77274">
        <ele>90.8</ele>
        <time>2018-03-26T10:49:05Z</time>
      </trkpt>
      <trkpt lat="44.35412" lon="4.77278">
        <ele>90.7</ele>
        <time>2018-03-26T10:49:07Z</time>
      </trkpt>
      <trkpt lat="44.35422" lon="4.77281">
        <ele>90.9</ele>
        <time>2018-03-26T10:49:09Z</time>
      </trkpt>
      <trkpt lat="44.35433" lon="4.77284">
        <ele>90.9</ele>
        <time>2018-03-26T10:49:11Z</time>
      </trkpt>
      <trkpt lat="44.35445" lon="4.77286">
        <ele>90.8</ele>
        <time>2018-03-26T10:49:13Z</time>
      </trkpt>
      <trkpt lat="44.35456" lon="4.77287">
        <ele>90.6</ele>
        <time>2018-03-26T10:49:15Z</time>
      </trkpt>
      <trkpt lat="44.35468" lon="4.77289">
        <ele>90.4</ele>
        <time>2018-03-26T10:49:17Z</time>
      </trkpt>
      <trkpt lat="44.35479" lon="4.7729">
        <ele>90.3</ele>
        <time>2018-03-26T10:49:19Z</time>
      </trkpt>
      <trkpt lat="44.3549" lon="4.77291">
        <ele>90.1</ele>
        <time>2018-03-26T10:49:21Z</time>
      </trkpt>
      <trkpt lat="44.35501" lon="4.77292">
        <ele>89.7</ele>
        <time>2018-03-26T10:49:23Z</time>
      </trkpt>
      <trkpt lat="44.35512" lon="4.77292">
        <ele>89.6</ele>
        <time>2018-03-26T10:49:25Z</time>
      </trkpt>
      <trkpt lat="44.35523" lon="4.77291">
        <ele>89.5</ele>
        <time>2018-03-26T10:49:27Z</time>
      </trkpt>
      <trkpt lat="44.35535" lon="4.77291">
        <ele>89.2</ele>
        <time>2018-03-26T10:49:29Z</time>
      </trkpt>
      <trkpt lat="44.35546" lon="4.77291">
        <ele>89.1</ele>
        <time>2018-03-26T10:49:31Z</time>
      </trkpt>
      <trkpt lat="44.35556" lon="4.77291">
        <ele>88.7</ele>
        <time>2018-03-26T10:49:33Z</time>
      </trkpt>
      <trkpt lat="44.35567" lon="4.77294">
        <ele>88.5</ele>
        <time>2018-03-26T10:49:35Z</time>
      </trkpt>
      <trkpt lat="44.35577" lon="4.77298">
        <ele>88.1</ele>
        <time>2018-03-26T10:49:37Z</time>
      </trkpt>
      <trkpt lat="44.35587" lon="4.77302">
        <ele>87.7</ele>
        <time>2018-03-26T10:49:39Z</time>
      </trkpt>
      <trkpt lat="44.35598" lon="4.77306">
        <ele>87.2</ele>
        <time>2018-03-26T10:49:41Z</time>
      </trkpt>
      <trkpt lat="44.35608" lon="4.77311">
        <ele>86.9</ele>
        <time>2018-03-26T10:49:43Z</time>
      </trkpt>
      <trkpt lat="44.35618" lon="4.77317">
        <ele>86.7</ele>
        <time>2018-03-26T10:49:45Z</time>
      </trkpt>
      <trkpt lat="44.35629" lon="4.77323">
        <ele>86.4</ele>
        <time>2018-03-26T10:49:47Z</time>
      </trkpt>
      <trkpt lat="44.35639" lon="4.77329">
        <ele>86.2</ele>
        <time>2018-03-26T10:49:49Z</time>
      </trkpt>
      <trkpt lat="44.3565" lon="4.77335">
        <ele>86</ele>
        <time>2018-03-26T10:49:51Z</time>
      </trkpt>
      <trkpt lat="44.3566" lon="4.77341">
        <ele>85.7</ele>
        <time>2018-03-26T10:49:53Z</time>
      </trkpt>
      <trkpt lat="44.35671" lon="4.77346">
        <ele>85.6</ele>
        <time>2018-03-26T10:49:55Z</time>
      </trkpt>
      <trkpt lat="44.35681" lon="4.77352">
        <ele>85.5</ele>
        <time>2018-03-26T10:49:57Z</time>
      </trkpt>
      <trkpt lat="44.35691" lon="4.77358">
        <ele>85.4</ele>
        <time>2018-03-26T10:49:59Z</time>
      </trkpt>
      <trkpt lat="44.35701" lon="4.77363">
        <ele>85.4</ele>
        <time>2018-03-26T10:50:01Z</time>
      </trkpt>
      <trkpt lat="44.35711" lon="4.77368">
        <ele>85.3</ele>
        <time>2018-03-26T10:50:03Z</time>
      </trkpt>
      <trkpt lat="44.35722" lon="4.77374">
        <ele>85.3</ele>
        <time>2018-03-26T10:50:05Z</time>
      </trkpt>
      <trkpt lat="44.35732" lon="4.77378">
        <ele>85.3</ele>
        <time>2018-03-26T10:50:07Z</time>
      </trkpt>
      <trkpt lat="44.35742" lon="4.77383">
        <ele>85.3</ele>
        <time>2018-03-26T10:50:09Z</time>
      </trkpt>
      <trkpt lat="44.35752" lon="4.77389">
        <ele>85.4</ele>
        <time>2018-03-26T10:50:11Z</time>
      </trkpt>
      <trkpt lat="44.35762" lon="4.77394">
        <ele>85.5</ele>
        <time>2018-03-26T10:50:13Z</time>
      </trkpt>
      <trkpt lat="44.35771" lon="4.774">
        <ele>85.5</ele>
        <time>2018-03-26T10:50:15Z</time>
      </trkpt>
      <trkpt lat="44.35781" lon="4.77405">
        <ele>85.6</ele>
        <time>2018-03-26T10:50:17Z</time>
      </trkpt>
      <trkpt lat="44.3579" lon="4.7741">
        <ele>85.9</ele>
        <time>2018-03-26T10:50:19Z</time>
      </trkpt>
      <trkpt lat="44.35799" lon="4.77415">
        <ele>86.2</ele>
        <time>2018-03-26T10:50:21Z</time>
      </trkpt>
      <trkpt lat="44.35809" lon="4.7742">
        <ele>86.3</ele>
        <time>2018-03-26T10:50:23Z</time>
      </trkpt>
      <trkpt lat="44.35818" lon="4.77425">
        <ele>86.5</ele>
        <time>2018-03-26T10:50:25Z</time>
      </trkpt>
      <trkpt lat="44.35827" lon="4.7743">
        <ele>86.6</ele>
        <time>2018-03-26T10:50:27Z</time>
      </trkpt>
      <trkpt lat="44.35838" lon="4.77435">
        <ele>86.7</ele>
        <time>2018-03-26T10:50:30Z</time>
      </trkpt>
      <trkpt lat="44.35849" lon="4.77441">
        <ele>86.9</ele>
        <time>2018-03-26T10:50:33Z</time>
      </trkpt>
      <trkpt lat="44.35858" lon="4.77444">
        <ele>86.8</ele>
        <time>2018-03-26T10:50:35Z</time>
      </trkpt>
      <trkpt lat="44.35868" lon="4.77446">
        <ele>86.5</ele>
        <time>2018-03-26T10:50:37Z</time>
      </trkpt>
      <trkpt lat="44.35877" lon="4.77448">
        <ele>86.2</ele>
        <time>2018-03-26T10:50:39Z</time>
      </trkpt>
      <trkpt lat="44.35887" lon="4.77451">
        <ele>86</ele>
        <time>2018-03-26T10:50:41Z</time>
      </trkpt>
      <trkpt lat="44.35897" lon="4.77453">
        <ele>86</ele>
        <time>2018-03-26T10:50:43Z</time>
      </trkpt>
      <trkpt lat="44.35907" lon="4.77455">
        <ele>86.1</ele>
        <time>2018-03-26T10:50:45Z</time>
      </trkpt>
      <trkpt lat="44.35917" lon="4.77457">
        <ele>86</ele>
        <time>2018-03-26T10:50:47Z</time>
      </trkpt>
      <trkpt lat="44.35926" lon="4.77459">
        <ele>85.9</ele>
        <time>2018-03-26T10:50:49Z</time>
      </trkpt>
      <trkpt lat="44.35936" lon="4.77461">
        <ele>86</ele>
        <time>2018-03-26T10:50:51Z</time>
      </trkpt>
      <trkpt lat="44.35945" lon="4.77463">
        <ele>86.3</ele>
        <time>2018-03-26T10:50:53Z</time>
      </trkpt>
      <trkpt lat="44.35954" lon="4.77465">
        <ele>86.2</ele>
        <time>2018-03-26T10:50:55Z</time>
      </trkpt>
      <trkpt lat="44.35964" lon="4.77467">
        <ele>86.1</ele>
        <time>2018-03-26T10:50:57Z</time>
      </trkpt>
      <trkpt lat="44.35974" lon="4.77468">
        <ele>86</ele>
        <time>2018-03-26T10:50:59Z</time>
      </trkpt>
      <trkpt lat="44.35984" lon="4.77466">
        <ele>86.3</ele>
        <time>2018-03-26T10:51:01Z</time>
      </trkpt>
      <trkpt lat="44.35994" lon="4.77463">
        <ele>86.4</ele>
        <time>2018-03-26T10:51:03Z</time>
      </trkpt>
      <trkpt lat="44.36004" lon="4.77459">
        <ele>86.5</ele>
        <time>2018-03-26T10:51:05Z</time>
      </trkpt>
      <trkpt lat="44.36014" lon="4.77455">
        <ele>86.6</ele>
        <time>2018-03-26T10:51:07Z</time>
      </trkpt>
      <trkpt lat="44.36024" lon="4.77451">
        <ele>86.3</ele>
        <time>2018-03-26T10:51:09Z</time>
      </trkpt>
      <trkpt lat="44.36034" lon="4.77446">
        <ele>86.4</ele>
        <time>2018-03-26T10:51:11Z</time>
      </trkpt>
      <trkpt lat="44.36043" lon="4.77443">
        <ele>86.5</ele>
        <time>2018-03-26T10:51:13Z</time>
      </trkpt>
      <trkpt lat="44.36052" lon="4.77439">
        <ele>86.5</ele>
        <time>2018-03-26T10:51:15Z</time>
      </trkpt>
      <trkpt lat="44.36062" lon="4.77436">
        <ele>86.6</ele>
        <time>2018-03-26T10:51:17Z</time>
      </trkpt>
      <trkpt lat="44.36071" lon="4.77432">
        <ele>86.5</ele>
        <time>2018-03-26T10:51:19Z</time>
      </trkpt>
      <trkpt lat="44.36079" lon="4.77428">
        <ele>86.4</ele>
        <time>2018-03-26T10:51:21Z</time>
      </trkpt>
      <trkpt lat="44.36088" lon="4.77425">
        <ele>86.3</ele>
        <time>2018-03-26T10:51:23Z</time>
      </trkpt>
      <trkpt lat="44.36097" lon="4.77422">
        <ele>86.3</ele>
        <time>2018-03-26T10:51:25Z</time>
      </trkpt>
      <trkpt lat="44.36106" lon="4.77418">
        <ele>86.3</ele>
        <time>2018-03-26T10:51:27Z</time>
      </trkpt>
      <trkpt lat="44.36115" lon="4.77414">
        <ele>86.4</ele>
        <time>2018-03-26T10:51:29Z</time>
      </trkpt>
      <trkpt lat="44.36124" lon="4.7741">
        <ele>86.6</ele>
        <time>2018-03-26T10:51:31Z</time>
      </trkpt>
      <trkpt lat="44.36132" lon="4.77406">
        <ele>86.6</ele>
        <time>2018-03-26T10:51:33Z</time>
      </trkpt>
      <trkpt lat="44.36142" lon="4.77402">
        <ele>86.6</ele>
        <time>2018-03-26T10:51:35Z</time>
      </trkpt>
      <trkpt lat="44.36151" lon="4.77398">
        <ele>86.7</ele>
        <time>2018-03-26T10:51:37Z</time>
      </trkpt>
      <trkpt lat="44.3616" lon="4.77394">
        <ele>86.8</ele>
        <time>2018-03-26T10:51:39Z</time>
      </trkpt>
      <trkpt lat="44.36169" lon="4.7739">
        <ele>87.1</ele>
        <time>2018-03-26T10:51:41Z</time>
      </trkpt>
      <trkpt lat="44.36178" lon="4.77387">
        <ele>87.1</ele>
        <time>2018-03-26T10:51:43Z</time>
      </trkpt>
      <trkpt lat="44.36188" lon="4.77383">
        <ele>87.2</ele>
        <time>2018-03-26T10:51:45Z</time>
      </trkpt>
      <trkpt lat="44.36197" lon="4.77382">
        <ele>87.1</ele>
        <time>2018-03-26T10:51:47Z</time>
      </trkpt>
      <trkpt lat="44.36206" lon="4.77381">
        <ele>87</ele>
        <time>2018-03-26T10:51:49Z</time>
      </trkpt>
      <trkpt lat="44.36215" lon="4.77381">
        <ele>87.2</ele>
        <time>2018-03-26T10:51:51Z</time>
      </trkpt>
      <trkpt lat="44.36225" lon="4.7738">
        <ele>87.3</ele>
        <time>2018-03-26T10:51:53Z</time>
      </trkpt>
      <trkpt lat="44.36234" lon="4.77379">
        <ele>87.6</ele>
        <time>2018-03-26T10:51:55Z</time>
      </trkpt>
      <trkpt lat="44.36246" lon="4.77378">
        <ele>87.9</ele>
        <time>2018-03-26T10:51:58Z</time>
      </trkpt>
      <trkpt lat="44.36258" lon="4.77385">
        <ele>88.1</ele>
        <time>2018-03-26T10:52:01Z</time>
      </trkpt>
      <trkpt lat="44.36263" lon="4.77401">
        <ele>88.6</ele>
        <time>2018-03-26T10:52:04Z</time>
      </trkpt>
      <trkpt lat="44.36263" lon="4.7742">
        <ele>88.9</ele>
        <time>2018-03-26T10:52:07Z</time>
      </trkpt>
      <trkpt lat="44.36264" lon="4.77432">
        <ele>89.1</ele>
        <time>2018-03-26T10:52:09Z</time>
      </trkpt>
      <trkpt lat="44.36264" lon="4.77451">
        <ele>89.3</ele>
        <time>2018-03-26T10:52:12Z</time>
      </trkpt>
      <trkpt lat="44.36265" lon="4.77464">
        <ele>89.4</ele>
        <time>2018-03-26T10:52:14Z</time>
      </trkpt>
      <trkpt lat="44.36265" lon="4.77477">
        <ele>89.5</ele>
        <time>2018-03-26T10:52:16Z</time>
      </trkpt>
      <trkpt lat="44.36265" lon="4.77491">
        <ele>89.7</ele>
        <time>2018-03-26T10:52:18Z</time>
      </trkpt>
      <trkpt lat="44.36265" lon="4.77505">
        <ele>89.7</ele>
        <time>2018-03-26T10:52:20Z</time>
      </trkpt>
      <trkpt lat="44.36265" lon="4.77519">
        <ele>89.6</ele>
        <time>2018-03-26T10:52:22Z</time>
      </trkpt>
      <trkpt lat="44.36265" lon="4.77534">
        <ele>89.5</ele>
        <time>2018-03-26T10:52:24Z</time>
      </trkpt>
      <trkpt lat="44.36265" lon="4.77549">
        <ele>89.3</ele>
        <time>2018-03-26T10:52:26Z</time>
      </trkpt>
      <trkpt lat="44.36265" lon="4.77563">
        <ele>89.4</ele>
        <time>2018-03-26T10:52:28Z</time>
      </trkpt>
      <trkpt lat="44.36266" lon="4.77579">
        <ele>89.8</ele>
        <time>2018-03-26T10:52:30Z</time>
      </trkpt>
      <trkpt lat="44.36266" lon="4.77594">
        <ele>89.9</ele>
        <time>2018-03-26T10:52:32Z</time>
      </trkpt>
      <trkpt lat="44.36266" lon="4.7761">
        <ele>90.1</ele>
        <time>2018-03-26T10:52:34Z</time>
      </trkpt>
      <trkpt lat="44.36267" lon="4.77626">
        <ele>90.1</ele>
        <time>2018-03-26T10:52:36Z</time>
      </trkpt>
      <trkpt lat="44.36267" lon="4.77642">
        <ele>90.2</ele>
        <time>2018-03-26T10:52:38Z</time>
      </trkpt>
      <trkpt lat="44.36267" lon="4.77659">
        <ele>90.1</ele>
        <time>2018-03-26T10:52:40Z</time>
      </trkpt>
      <trkpt lat="44.36267" lon="4.77676">
        <ele>90</ele>
        <time>2018-03-26T10:52:42Z</time>
      </trkpt>
      <trkpt lat="44.36266" lon="4.77693">
        <ele>90</ele>
        <time>2018-03-26T10:52:44Z</time>
      </trkpt>
      <trkpt lat="44.36267" lon="4.7771">
        <ele>90</ele>
        <time>2018-03-26T10:52:46Z</time>
      </trkpt>
      <trkpt lat="44.36267" lon="4.77725">
        <ele>90</ele>
        <time>2018-03-26T10:52:48Z</time>
      </trkpt>
      <trkpt lat="44.36266" lon="4.77741">
        <ele>90.2</ele>
        <time>2018-03-26T10:52:50Z</time>
      </trkpt>
      <trkpt lat="44.36266" lon="4.77757">
        <ele>90.3</ele>
        <time>2018-03-26T10:52:52Z</time>
      </trkpt>
      <trkpt lat="44.36266" lon="4.77772">
        <ele>90.4</ele>
        <time>2018-03-26T10:52:54Z</time>
      </trkpt>
      <trkpt lat="44.36267" lon="4.77787">
        <ele>90.3</ele>
        <time>2018-03-26T10:52:56Z</time>
      </trkpt>
      <trkpt lat="44.36267" lon="4.77802">
        <ele>90.2</ele>
        <time>2018-03-26T10:52:58Z</time>
      </trkpt>
      <trkpt lat="44.36267" lon="4.77816">
        <ele>90.1</ele>
        <time>2018-03-26T10:53:00Z</time>
      </trkpt>
      <trkpt lat="44.36268" lon="4.7783">
        <ele>90.1</ele>
        <time>2018-03-26T10:53:02Z</time>
      </trkpt>
      <trkpt lat="44.36268" lon="4.77844">
        <ele>90.2</ele>
        <time>2018-03-26T10:53:04Z</time>
      </trkpt>
      <trkpt lat="44.36268" lon="4.77858">
        <ele>90.6</ele>
        <time>2018-03-26T10:53:06Z</time>
      </trkpt>
      <trkpt lat="44.36269" lon="4.77872">
        <ele>90.9</ele>
        <time>2018-03-26T10:53:08Z</time>
      </trkpt>
      <trkpt lat="44.3627" lon="4.77886">
        <ele>91.2</ele>
        <time>2018-03-26T10:53:10Z</time>
      </trkpt>
      <trkpt lat="44.3627" lon="4.779">
        <ele>91.5</ele>
        <time>2018-03-26T10:53:12Z</time>
      </trkpt>
      <trkpt lat="44.3627" lon="4.77914">
        <ele>91.8</ele>
        <time>2018-03-26T10:53:14Z</time>
      </trkpt>
      <trkpt lat="44.3627" lon="4.77929">
        <ele>92</ele>
        <time>2018-03-26T10:53:16Z</time>
      </trkpt>
      <trkpt lat="44.3627" lon="4.77943">
        <ele>92.3</ele>
        <time>2018-03-26T10:53:18Z</time>
      </trkpt>
      <trkpt lat="44.36269" lon="4.77957">
        <ele>92.6</ele>
        <time>2018-03-26T10:53:20Z</time>
      </trkpt>
      <trkpt lat="44.36269" lon="4.77971">
        <ele>92.9</ele>
        <time>2018-03-26T10:53:22Z</time>
      </trkpt>
      <trkpt lat="44.3627" lon="4.77986">
        <ele>93.1</ele>
        <time>2018-03-26T10:53:24Z</time>
      </trkpt>
      <trkpt lat="44.3627" lon="4.78001">
        <ele>93.2</ele>
        <time>2018-03-26T10:53:26Z</time>
      </trkpt>
      <trkpt lat="44.3627" lon="4.78016">
        <ele>93.2</ele>
        <time>2018-03-26T10:53:28Z</time>
      </trkpt>
      <trkpt lat="44.3627" lon="4.78031">
        <ele>93.2</ele>
        <time>2018-03-26T10:53:30Z</time>
      </trkpt>
      <trkpt lat="44.36271" lon="4.78046">
        <ele>93.2</ele>
        <time>2018-03-26T10:53:32Z</time>
      </trkpt>
      <trkpt lat="44.36271" lon="4.7806">
        <ele>93.3</ele>
        <time>2018-03-26T10:53:34Z</time>
      </trkpt>
      <trkpt lat="44.36271" lon="4.78075">
        <ele>93.4</ele>
        <time>2018-03-26T10:53:36Z</time>
      </trkpt>
      <trkpt lat="44.36271" lon="4.78089">
        <ele>93.6</ele>
        <time>2018-03-26T10:53:38Z</time>
      </trkpt>
      <trkpt lat="44.36272" lon="4.78104">
        <ele>93.8</ele>
        <time>2018-03-26T10:53:40Z</time>
      </trkpt>
      <trkpt lat="44.36272" lon="4.78116">
        <ele>93.8</ele>
        <time>2018-03-26T10:53:42Z</time>
      </trkpt>
      <trkpt lat="44.36275" lon="4.7813">
        <ele>94</ele>
        <time>2018-03-26T10:53:45Z</time>
      </trkpt>
      <trkpt lat="44.36283" lon="4.78139">
        <ele>94</ele>
        <time>2018-03-26T10:53:48Z</time>
      </trkpt>
      <trkpt lat="44.36295" lon="4.78142">
        <ele>94.3</ele>
        <time>2018-03-26T10:53:51Z</time>
      </trkpt>
      <trkpt lat="44.36304" lon="4.78144">
        <ele>94.7</ele>
        <time>2018-03-26T10:53:53Z</time>
      </trkpt>
      <trkpt lat="44.36314" lon="4.78146">
        <ele>94.9</ele>
        <time>2018-03-26T10:53:55Z</time>
      </trkpt>
      <trkpt lat="44.36323" lon="4.78149">
        <ele>95.2</ele>
        <time>2018-03-26T10:53:57Z</time>
      </trkpt>
      <trkpt lat="44.36335" lon="4.78153">
        <ele>95.8</ele>
        <time>2018-03-26T10:54:00Z</time>
      </trkpt>
      <trkpt lat="44.36345" lon="4.78156">
        <ele>95.9</ele>
        <time>2018-03-26T10:54:02Z</time>
      </trkpt>
      <trkpt lat="44.36354" lon="4.78159">
        <ele>96.1</ele>
        <time>2018-03-26T10:54:04Z</time>
      </trkpt>
      <trkpt lat="44.36364" lon="4.78163">
        <ele>96.3</ele>
        <time>2018-03-26T10:54:06Z</time>
      </trkpt>
      <trkpt lat="44.36374" lon="4.78166">
        <ele>96.5</ele>
        <time>2018-03-26T10:54:08Z</time>
      </trkpt>
      <trkpt lat="44.36385" lon="4.7817">
        <ele>96.3</ele>
        <time>2018-03-26T10:54:10Z</time>
      </trkpt>
      <trkpt lat="44.36395" lon="4.78174">
        <ele>96.1</ele>
        <time>2018-03-26T10:54:12Z</time>
      </trkpt>
      <trkpt lat="44.36406" lon="4.78177">
        <ele>95.8</ele>
        <time>2018-03-26T10:54:14Z</time>
      </trkpt>
      <trkpt lat="44.36417" lon="4.7818">
        <ele>95.6</ele>
        <time>2018-03-26T10:54:16Z</time>
      </trkpt>
      <trkpt lat="44.36427" lon="4.78183">
        <ele>95.3</ele>
        <time>2018-03-26T10:54:18Z</time>
      </trkpt>
      <trkpt lat="44.36438" lon="4.78185">
        <ele>95.1</ele>
        <time>2018-03-26T10:54:20Z</time>
      </trkpt>
      <trkpt lat="44.36448" lon="4.78187">
        <ele>95</ele>
        <time>2018-03-26T10:54:22Z</time>
      </trkpt>
      <trkpt lat="44.36459" lon="4.78189">
        <ele>94.8</ele>
        <time>2018-03-26T10:54:24Z</time>
      </trkpt>
      <trkpt lat="44.36469" lon="4.7819">
        <ele>94.7</ele>
        <time>2018-03-26T10:54:26Z</time>
      </trkpt>
      <trkpt lat="44.3648" lon="4.78192">
        <ele>94.6</ele>
        <time>2018-03-26T10:54:28Z</time>
      </trkpt>
      <trkpt lat="44.3649" lon="4.78194">
        <ele>94.3</ele>
        <time>2018-03-26T10:54:30Z</time>
      </trkpt>
      <trkpt lat="44.36501" lon="4.78196">
        <ele>94.1</ele>
        <time>2018-03-26T10:54:32Z</time>
      </trkpt>
      <trkpt lat="44.36512" lon="4.78198">
        <ele>93.8</ele>
        <time>2018-03-26T10:54:34Z</time>
      </trkpt>
      <trkpt lat="44.36524" lon="4.782">
        <ele>93.4</ele>
        <time>2018-03-26T10:54:36Z</time>
      </trkpt>
      <trkpt lat="44.36534" lon="4.78202">
        <ele>93.2</ele>
        <time>2018-03-26T10:54:38Z</time>
      </trkpt>
      <trkpt lat="44.36544" lon="4.78203">
        <ele>93.1</ele>
        <time>2018-03-26T10:54:40Z</time>
      </trkpt>
      <trkpt lat="44.36552" lon="4.78197">
        <ele>92.9</ele>
        <time>2018-03-26T10:54:42Z</time>
      </trkpt>
      <trkpt lat="44.36557" lon="4.78184">
        <ele>93</ele>
        <time>2018-03-26T10:54:44Z</time>
      </trkpt>
      <trkpt lat="44.3656" lon="4.78168">
        <ele>93.2</ele>
        <time>2018-03-26T10:54:46Z</time>
      </trkpt>
      <trkpt lat="44.36563" lon="4.78152">
        <ele>92.9</ele>
        <time>2018-03-26T10:54:48Z</time>
      </trkpt>
      <trkpt lat="44.36566" lon="4.78135">
        <ele>92.5</ele>
        <time>2018-03-26T10:54:50Z</time>
      </trkpt>
      <trkpt lat="44.36569" lon="4.78119">
        <ele>92.1</ele>
        <time>2018-03-26T10:54:52Z</time>
      </trkpt>
      <trkpt lat="44.36572" lon="4.78103">
        <ele>91.6</ele>
        <time>2018-03-26T10:54:54Z</time>
      </trkpt>
      <trkpt lat="44.36575" lon="4.78087">
        <ele>91.4</ele>
        <time>2018-03-26T10:54:56Z</time>
      </trkpt>
      <trkpt lat="44.36578" lon="4.78071">
        <ele>90.9</ele>
        <time>2018-03-26T10:54:58Z</time>
      </trkpt>
      <trkpt lat="44.36581" lon="4.78055">
        <ele>90.7</ele>
        <time>2018-03-26T10:55:00Z</time>
      </trkpt>
      <trkpt lat="44.36583" lon="4.78038">
        <ele>90.3</ele>
        <time>2018-03-26T10:55:02Z</time>
      </trkpt>
      <trkpt lat="44.36585" lon="4.78021">
        <ele>89.9</ele>
        <time>2018-03-26T10:55:04Z</time>
      </trkpt>
      <trkpt lat="44.36587" lon="4.78005">
        <ele>89.7</ele>
        <time>2018-03-26T10:55:06Z</time>
      </trkpt>
      <trkpt lat="44.36589" lon="4.77988">
        <ele>89.4</ele>
        <time>2018-03-26T10:55:08Z</time>
      </trkpt>
      <trkpt lat="44.36591" lon="4.77971">
        <ele>89.2</ele>
        <time>2018-03-26T10:55:10Z</time>
      </trkpt>
      <trkpt lat="44.36594" lon="4.77955">
        <ele>89.1</ele>
        <time>2018-03-26T10:55:12Z</time>
      </trkpt>
      <trkpt lat="44.36596" lon="4.77938">
        <ele>89.1</ele>
        <time>2018-03-26T10:55:14Z</time>
      </trkpt>
      <trkpt lat="44.36599" lon="4.77921">
        <ele>88.9</ele>
        <time>2018-03-26T10:55:16Z</time>
      </trkpt>
      <trkpt lat="44.36602" lon="4.77905">
        <ele>88.7</ele>
        <time>2018-03-26T10:55:18Z</time>
      </trkpt>
      <trkpt lat="44.36605" lon="4.77889">
        <ele>88.6</ele>
        <time>2018-03-26T10:55:20Z</time>
      </trkpt>
      <trkpt lat="44.36608" lon="4.77873">
        <ele>88.6</ele>
        <time>2018-03-26T10:55:22Z</time>
      </trkpt>
      <trkpt lat="44.36609" lon="4.77857">
        <ele>88.4</ele>
        <time>2018-03-26T10:55:24Z</time>
      </trkpt>
      <trkpt lat="44.36603" lon="4.77843">
        <ele>88.2</ele>
        <time>2018-03-26T10:55:26Z</time>
      </trkpt>
      <trkpt lat="44.36592" lon="4.77835">
        <ele>87.9</ele>
        <time>2018-03-26T10:55:28Z</time>
      </trkpt>
      <trkpt lat="44.36581" lon="4.77829">
        <ele>87.7</ele>
        <time>2018-03-26T10:55:30Z</time>
      </trkpt>
      <trkpt lat="44.3657" lon="4.77823">
        <ele>87.8</ele>
        <time>2018-03-26T10:55:32Z</time>
      </trkpt>
      <trkpt lat="44.36558" lon="4.77817">
        <ele>87.8</ele>
        <time>2018-03-26T10:55:34Z</time>
      </trkpt>
      <trkpt lat="44.36548" lon="4.77808">
        <ele>87.4</ele>
        <time>2018-03-26T10:55:36Z</time>
      </trkpt>
      <trkpt lat="44.36542" lon="4.77793">
        <ele>87.2</ele>
        <time>2018-03-26T10:55:38Z</time>
      </trkpt>
      <trkpt lat="44.36543" lon="4.77776">
        <ele>87</ele>
        <time>2018-03-26T10:55:40Z</time>
      </trkpt>
      <trkpt lat="44.36544" lon="4.7776">
        <ele>86.9</ele>
        <time>2018-03-26T10:55:42Z</time>
      </trkpt>
      <trkpt lat="44.36545" lon="4.77743">
        <ele>86.4</ele>
        <time>2018-03-26T10:55:44Z</time>
      </trkpt>
      <trkpt lat="44.36548" lon="4.77727">
        <ele>86.1</ele>
        <time>2018-03-26T10:55:46Z</time>
      </trkpt>
      <trkpt lat="44.36552" lon="4.77712">
        <ele>86</ele>
        <time>2018-03-26T10:55:48Z</time>
      </trkpt>
      <trkpt lat="44.36559" lon="4.77698">
        <ele>85.8</ele>
        <time>2018-03-26T10:55:50Z</time>
      </trkpt>
      <trkpt lat="44.36565" lon="4.77684">
        <ele>85.7</ele>
        <time>2018-03-26T10:55:52Z</time>
      </trkpt>
      <trkpt lat="44.36571" lon="4.7767">
        <ele>85.4</ele>
        <time>2018-03-26T10:55:54Z</time>
      </trkpt>
      <trkpt lat="44.36576" lon="4.77656">
        <ele>85.3</ele>
        <time>2018-03-26T10:55:56Z</time>
      </trkpt>
      <trkpt lat="44.3658" lon="4.77642">
        <ele>85.2</ele>
        <time>2018-03-26T10:55:58Z</time>
      </trkpt>
      <trkpt lat="44.36583" lon="4.77626">
        <ele>85.1</ele>
        <time>2018-03-26T10:56:00Z</time>
      </trkpt>
      <trkpt lat="44.36586" lon="4.77611">
        <ele>84.8</ele>
        <time>2018-03-26T10:56:02Z</time>
      </trkpt>
      <trkpt lat="44.36589" lon="4.77595">
        <ele>84.7</ele>
        <time>2018-03-26T10:56:04Z</time>
      </trkpt>
      <trkpt lat="44.36592" lon="4.7758">
        <ele>84.6</ele>
        <time>2018-03-26T10:56:06Z</time>
      </trkpt>
      <trkpt lat="44.36594" lon="4.77565">
        <ele>84.7</ele>
        <time>2018-03-26T10:56:08Z</time>
      </trkpt>
      <trkpt lat="44.36597" lon="4.7755">
        <ele>84.8</ele>
        <time>2018-03-26T10:56:10Z</time>
      </trkpt>
      <trkpt lat="44.366" lon="4.77535">
        <ele>84.6</ele>
        <time>2018-03-26T10:56:12Z</time>
      </trkpt>
      <trkpt lat="44.36602" lon="4.7752">
        <ele>84.4</ele>
        <time>2018-03-26T10:56:14Z</time>
      </trkpt>
      <trkpt lat="44.36605" lon="4.77506">
        <ele>84.4</ele>
        <time>2018-03-26T10:56:16Z</time>
      </trkpt>
      <trkpt lat="44.36608" lon="4.77491">
        <ele>84.3</ele>
        <time>2018-03-26T10:56:18Z</time>
      </trkpt>
      <trkpt lat="44.3661" lon="4.77476">
        <ele>84.2</ele>
        <time>2018-03-26T10:56:20Z</time>
      </trkpt>
      <trkpt lat="44.36613" lon="4.77462">
        <ele>84.2</ele>
        <time>2018-03-26T10:56:22Z</time>
      </trkpt>
      <trkpt lat="44.36616" lon="4.7745">
        <ele>84.2</ele>
        <time>2018-03-26T10:56:24Z</time>
      </trkpt>
      <trkpt lat="44.36621" lon="4.77435">
        <ele>84.3</ele>
        <time>2018-03-26T10:56:27Z</time>
      </trkpt>
      <trkpt lat="44.36633" lon="4.77433">
        <ele>84.1</ele>
        <time>2018-03-26T10:56:30Z</time>
      </trkpt>
      <trkpt lat="44.36642" lon="4.77435">
        <ele>83.9</ele>
        <time>2018-03-26T10:56:32Z</time>
      </trkpt>
      <trkpt lat="44.36652" lon="4.77437">
        <ele>83.8</ele>
        <time>2018-03-26T10:56:34Z</time>
      </trkpt>
      <trkpt lat="44.36662" lon="4.77439">
        <ele>83.6</ele>
        <time>2018-03-26T10:56:36Z</time>
      </trkpt>
      <trkpt lat="44.36673" lon="4.7744">
        <ele>83.6</ele>
        <time>2018-03-26T10:56:38Z</time>
      </trkpt>
      <trkpt lat="44.36683" lon="4.77442">
        <ele>83.5</ele>
        <time>2018-03-26T10:56:40Z</time>
      </trkpt>
      <trkpt lat="44.36694" lon="4.77443">
        <ele>83.5</ele>
        <time>2018-03-26T10:56:42Z</time>
      </trkpt>
      <trkpt lat="44.36704" lon="4.77444">
        <ele>83.8</ele>
        <time>2018-03-26T10:56:44Z</time>
      </trkpt>
      <trkpt lat="44.36715" lon="4.77445">
        <ele>83.9</ele>
        <time>2018-03-26T10:56:46Z</time>
      </trkpt>
      <trkpt lat="44.36725" lon="4.77446">
        <ele>84</ele>
        <time>2018-03-26T10:56:48Z</time>
      </trkpt>
      <trkpt lat="44.36735" lon="4.77447">
        <ele>83.8</ele>
        <time>2018-03-26T10:56:50Z</time>
      </trkpt>
      <trkpt lat="44.36746" lon="4.77447">
        <ele>83.7</ele>
        <time>2018-03-26T10:56:52Z</time>
      </trkpt>
      <trkpt lat="44.36756" lon="4.77447">
        <ele>83.6</ele>
        <time>2018-03-26T10:56:54Z</time>
      </trkpt>
      <trkpt lat="44.36767" lon="4.77446">
        <ele>83.5</ele>
        <time>2018-03-26T10:56:56Z</time>
      </trkpt>
      <trkpt lat="44.36778" lon="4.77446">
        <ele>83.4</ele>
        <time>2018-03-26T10:56:58Z</time>
      </trkpt>
      <trkpt lat="44.36788" lon="4.77446">
        <ele>83.3</ele>
        <time>2018-03-26T10:57:00Z</time>
      </trkpt>
      <trkpt lat="44.36799" lon="4.77446">
        <ele>83.3</ele>
        <time>2018-03-26T10:57:02Z</time>
      </trkpt>
      <trkpt lat="44.36809" lon="4.77445">
        <ele>83.2</ele>
        <time>2018-03-26T10:57:04Z</time>
      </trkpt>
      <trkpt lat="44.36819" lon="4.77445">
        <ele>83.1</ele>
        <time>2018-03-26T10:57:06Z</time>
      </trkpt>
      <trkpt lat="44.36829" lon="4.77445">
        <ele>82.9</ele>
        <time>2018-03-26T10:57:08Z</time>
      </trkpt>
      <trkpt lat="44.36839" lon="4.77444">
        <ele>82.9</ele>
        <time>2018-03-26T10:57:10Z</time>
      </trkpt>
      <trkpt lat="44.36848" lon="4.77444">
        <ele>83</ele>
        <time>2018-03-26T10:57:12Z</time>
      </trkpt>
      <trkpt lat="44.36858" lon="4.77443">
        <ele>83.2</ele>
        <time>2018-03-26T10:57:14Z</time>
      </trkpt>
      <trkpt lat="44.36868" lon="4.77442">
        <ele>83.4</ele>
        <time>2018-03-26T10:57:16Z</time>
      </trkpt>
      <trkpt lat="44.36878" lon="4.77442">
        <ele>83.5</ele>
        <time>2018-03-26T10:57:18Z</time>
      </trkpt>
      <trkpt lat="44.36888" lon="4.77441">
        <ele>83.7</ele>
        <time>2018-03-26T10:57:20Z</time>
      </trkpt>
      <trkpt lat="44.36898" lon="4.77441">
        <ele>83.6</ele>
        <time>2018-03-26T10:57:22Z</time>
      </trkpt>
      <trkpt lat="44.36907" lon="4.7744">
        <ele>83.7</ele>
        <time>2018-03-26T10:57:24Z</time>
      </trkpt>
      <trkpt lat="44.36916" lon="4.7744">
        <ele>83.7</ele>
        <time>2018-03-26T10:57:26Z</time>
      </trkpt>
      <trkpt lat="44.36926" lon="4.7744">
        <ele>83.8</ele>
        <time>2018-03-26T10:57:28Z</time>
      </trkpt>
      <trkpt lat="44.36936" lon="4.77439">
        <ele>83.9</ele>
        <time>2018-03-26T10:57:30Z</time>
      </trkpt>
      <trkpt lat="44.36946" lon="4.77439">
        <ele>84</ele>
        <time>2018-03-26T10:57:32Z</time>
      </trkpt>
      <trkpt lat="44.36956" lon="4.77438">
        <ele>84.1</ele>
        <time>2018-03-26T10:57:34Z</time>
      </trkpt>
      <trkpt lat="44.36969" lon="4.77437">
        <ele>84</ele>
        <time>2018-03-26T10:57:37Z</time>
      </trkpt>
      <trkpt lat="44.36982" lon="4.77436">
        <ele>83.9</ele>
        <time>2018-03-26T10:57:40Z</time>
      </trkpt>
      <trkpt lat="44.36995" lon="4.77435">
        <ele>83.7</ele>
        <time>2018-03-26T10:57:43Z</time>
      </trkpt>
      <trkpt lat="44.37008" lon="4.77435">
        <ele>83.6</ele>
        <time>2018-03-26T10:57:46Z</time>
      </trkpt>
      <trkpt lat="44.37021" lon="4.77434">
        <ele>83.8</ele>
        <time>2018-03-26T10:57:49Z</time>
      </trkpt>
      <trkpt lat="44.37034" lon="4.77434">
        <ele>84.1</ele>
        <time>2018-03-26T10:57:52Z</time>
      </trkpt>
      <trkpt lat="44.37046" lon="4.77434">
        <ele>84.2</ele>
        <time>2018-03-26T10:57:55Z</time>
      </trkpt>
      <trkpt lat="44.37057" lon="4.77434">
        <ele>84.4</ele>
        <time>2018-03-26T10:57:58Z</time>
      </trkpt>
      <trkpt lat="44.37068" lon="4.77435">
        <ele>84.6</ele>
        <time>2018-03-26T10:58:01Z</time>
      </trkpt>
      <trkpt lat="44.37078" lon="4.77439">
        <ele>84.8</ele>
        <time>2018-03-26T10:58:04Z</time>
      </trkpt>
      <trkpt lat="44.37086" lon="4.77451">
        <ele>84.4</ele>
        <time>2018-03-26T10:58:07Z</time>
      </trkpt>
      <trkpt lat="44.37093" lon="4.77465">
        <ele>84.6</ele>
        <time>2018-03-26T10:58:10Z</time>
      </trkpt>
      <trkpt lat="44.371" lon="4.77478">
        <ele>84.6</ele>
        <time>2018-03-26T10:58:13Z</time>
      </trkpt>
      <trkpt lat="44.37107" lon="4.77491">
        <ele>84.6</ele>
        <time>2018-03-26T10:58:16Z</time>
      </trkpt>
      <trkpt lat="44.37114" lon="4.77506">
        <ele>84.9</ele>
        <time>2018-03-26T10:58:19Z</time>
      </trkpt>
      <trkpt lat="44.37121" lon="4.7752">
        <ele>84.9</ele>
        <time>2018-03-26T10:58:22Z</time>
      </trkpt>
      <trkpt lat="44.3713" lon="4.77535">
        <ele>85.1</ele>
        <time>2018-03-26T10:58:25Z</time>
      </trkpt>
      <trkpt lat="44.37138" lon="4.77549">
        <ele>84.9</ele>
        <time>2018-03-26T10:58:28Z</time>
      </trkpt>
      <trkpt lat="44.37145" lon="4.77564">
        <ele>84.8</ele>
        <time>2018-03-26T10:58:31Z</time>
      </trkpt>
      <trkpt lat="44.37152" lon="4.77579">
        <ele>85</ele>
        <time>2018-03-26T10:58:34Z</time>
      </trkpt>
      <trkpt lat="44.37159" lon="4.77594">
        <ele>85.4</ele>
        <time>2018-03-26T10:58:37Z</time>
      </trkpt>
      <trkpt lat="44.37165" lon="4.77609">
        <ele>85.6</ele>
        <time>2018-03-26T10:58:40Z</time>
      </trkpt>
      <trkpt lat="44.37172" lon="4.77624">
        <ele>85.7</ele>
        <time>2018-03-26T10:58:43Z</time>
      </trkpt>
      <trkpt lat="44.3718" lon="4.77631">
        <ele>85.8</ele>
        <time>2018-03-26T10:58:45Z</time>
      </trkpt>
      <trkpt lat="44.3719" lon="4.77636">
        <ele>85.8</ele>
        <time>2018-03-26T10:58:47Z</time>
      </trkpt>
      <trkpt lat="44.37201" lon="4.77639">
        <ele>85.9</ele>
        <time>2018-03-26T10:58:49Z</time>
      </trkpt>
      <trkpt lat="44.37211" lon="4.77641">
        <ele>85.9</ele>
        <time>2018-03-26T10:58:51Z</time>
      </trkpt>
      <trkpt lat="44.3722" lon="4.77643">
        <ele>85.8</ele>
        <time>2018-03-26T10:58:53Z</time>
      </trkpt>
      <trkpt lat="44.3723" lon="4.77644">
        <ele>85.9</ele>
        <time>2018-03-26T10:58:55Z</time>
      </trkpt>
      <trkpt lat="44.37239" lon="4.77647">
        <ele>85.9</ele>
        <time>2018-03-26T10:58:57Z</time>
      </trkpt>
      <trkpt lat="44.37248" lon="4.77649">
        <ele>86.3</ele>
        <time>2018-03-26T10:58:59Z</time>
      </trkpt>
      <trkpt lat="44.37257" lon="4.77651">
        <ele>86.6</ele>
        <time>2018-03-26T10:59:01Z</time>
      </trkpt>
      <trkpt lat="44.37267" lon="4.77653">
        <ele>86.8</ele>
        <time>2018-03-26T10:59:03Z</time>
      </trkpt>
      <trkpt lat="44.37276" lon="4.77656">
        <ele>87.1</ele>
        <time>2018-03-26T10:59:05Z</time>
      </trkpt>
      <trkpt lat="44.37286" lon="4.77658">
        <ele>87.2</ele>
        <time>2018-03-26T10:59:07Z</time>
      </trkpt>
      <trkpt lat="44.37295" lon="4.7766">
        <ele>87.2</ele>
        <time>2018-03-26T10:59:09Z</time>
      </trkpt>
      <trkpt lat="44.37304" lon="4.77662">
        <ele>87.3</ele>
        <time>2018-03-26T10:59:11Z</time>
      </trkpt>
      <trkpt lat="44.37313" lon="4.77664">
        <ele>87.5</ele>
        <time>2018-03-26T10:59:13Z</time>
      </trkpt>
      <trkpt lat="44.37323" lon="4.77666">
        <ele>87.5</ele>
        <time>2018-03-26T10:59:15Z</time>
      </trkpt>
      <trkpt lat="44.37332" lon="4.77669">
        <ele>87.6</ele>
        <time>2018-03-26T10:59:17Z</time>
      </trkpt>
      <trkpt lat="44.37342" lon="4.77671">
        <ele>87.7</ele>
        <time>2018-03-26T10:59:19Z</time>
      </trkpt>
      <trkpt lat="44.37351" lon="4.77674">
        <ele>87.7</ele>
        <time>2018-03-26T10:59:21Z</time>
      </trkpt>
      <trkpt lat="44.37364" lon="4.77676">
        <ele>87.9</ele>
        <time>2018-03-26T10:59:24Z</time>
      </trkpt>
      <trkpt lat="44.37376" lon="4.7768">
        <ele>87.8</ele>
        <time>2018-03-26T10:59:27Z</time>
      </trkpt>
      <trkpt lat="44.37385" lon="4.77678">
        <ele>87.8</ele>
        <time>2018-03-26T10:59:30Z</time>
      </trkpt>
      <trkpt lat="44.37387" lon="4.77665">
        <ele>88</ele>
        <time>2018-03-26T10:59:33Z</time>
      </trkpt>
      <trkpt lat="44.37382" lon="4.77648">
        <ele>88.2</ele>
        <time>2018-03-26T10:59:36Z</time>
      </trkpt>
      <trkpt lat="44.37378" lon="4.77635">
        <ele>88.4</ele>
        <time>2018-03-26T10:59:38Z</time>
      </trkpt>
      <trkpt lat="44.37374" lon="4.77623">
        <ele>88.6</ele>
        <time>2018-03-26T10:59:40Z</time>
      </trkpt>
      <trkpt lat="44.3737" lon="4.77611">
        <ele>88.5</ele>
        <time>2018-03-26T10:59:42Z</time>
      </trkpt>
      <trkpt lat="44.37366" lon="4.77598">
        <ele>88.4</ele>
        <time>2018-03-26T10:59:44Z</time>
      </trkpt>
      <trkpt lat="44.37362" lon="4.77585">
        <ele>88.3</ele>
        <time>2018-03-26T10:59:46Z</time>
      </trkpt>
      <trkpt lat="44.37358" lon="4.77573">
        <ele>88.3</ele>
        <time>2018-03-26T10:59:48Z</time>
      </trkpt>
      <trkpt lat="44.37353" lon="4.7756">
        <ele>88</ele>
        <time>2018-03-26T10:59:50Z</time>
      </trkpt>
      <trkpt lat="44.37349" lon="4.77546">
        <ele>88.1</ele>
        <time>2018-03-26T10:59:52Z</time>
      </trkpt>
      <trkpt lat="44.37345" lon="4.77532">
        <ele>88.3</ele>
        <time>2018-03-26T10:59:54Z</time>
      </trkpt>
      <trkpt lat="44.3734" lon="4.77519">
        <ele>88.4</ele>
        <time>2018-03-26T10:59:56Z</time>
      </trkpt>
      <trkpt lat="44.37335" lon="4.77505">
        <ele>88.5</ele>
        <time>2018-03-26T10:59:58Z</time>
      </trkpt>
      <trkpt lat="44.3733" lon="4.77492">
        <ele>88.7</ele>
        <time>2018-03-26T11:00:00Z</time>
      </trkpt>
      <trkpt lat="44.37325" lon="4.77479">
        <ele>88.8</ele>
        <time>2018-03-26T11:00:02Z</time>
      </trkpt>
      <trkpt lat="44.37321" lon="4.77465">
        <ele>88.9</ele>
        <time>2018-03-26T11:00:04Z</time>
      </trkpt>
      <trkpt lat="44.37316" lon="4.77452">
        <ele>89</ele>
        <time>2018-03-26T11:00:06Z</time>
      </trkpt>
      <trkpt lat="44.3731" lon="4.77437">
        <ele>88.7</ele>
        <time>2018-03-26T11:00:08Z</time>
      </trkpt>
      <trkpt lat="44.37304" lon="4.77422">
        <ele>88.9</ele>
        <time>2018-03-26T11:00:10Z</time>
      </trkpt>
      <trkpt lat="44.37298" lon="4.77407">
        <ele>88.9</ele>
        <time>2018-03-26T11:00:12Z</time>
      </trkpt>
      <trkpt lat="44.37292" lon="4.77392">
        <ele>88.6</ele>
        <time>2018-03-26T11:00:14Z</time>
      </trkpt>
      <trkpt lat="44.37286" lon="4.77376">
        <ele>88.2</ele>
        <time>2018-03-26T11:00:16Z</time>
      </trkpt>
      <trkpt lat="44.37279" lon="4.77361">
        <ele>88.1</ele>
        <time>2018-03-26T11:00:18Z</time>
      </trkpt>
      <trkpt lat="44.37272" lon="4.77345">
        <ele>87.9</ele>
        <time>2018-03-26T11:00:20Z</time>
      </trkpt>
      <trkpt lat="44.37265" lon="4.77329">
        <ele>87.5</ele>
        <time>2018-03-26T11:00:22Z</time>
      </trkpt>
      <trkpt lat="44.37258" lon="4.77313">
        <ele>87</ele>
        <time>2018-03-26T11:00:24Z</time>
      </trkpt>
      <trkpt lat="44.37251" lon="4.77297">
        <ele>86.7</ele>
        <time>2018-03-26T11:00:26Z</time>
      </trkpt>
      <trkpt lat="44.37245" lon="4.77281">
        <ele>86.4</ele>
        <time>2018-03-26T11:00:28Z</time>
      </trkpt>
      <trkpt lat="44.37238" lon="4.77264">
        <ele>85.9</ele>
        <time>2018-03-26T11:00:30Z</time>
      </trkpt>
      <trkpt lat="44.37232" lon="4.77248">
        <ele>85.6</ele>
        <time>2018-03-26T11:00:32Z</time>
      </trkpt>
      <trkpt lat="44.37226" lon="4.77233">
        <ele>85.4</ele>
        <time>2018-03-26T11:00:34Z</time>
      </trkpt>
      <trkpt lat="44.3722" lon="4.77218">
        <ele>85.4</ele>
        <time>2018-03-26T11:00:36Z</time>
      </trkpt>
      <trkpt lat="44.37213" lon="4.77204">
        <ele>85.3</ele>
        <time>2018-03-26T11:00:38Z</time>
      </trkpt>
      <trkpt lat="44.37208" lon="4.77188">
        <ele>85.2</ele>
        <time>2018-03-26T11:00:40Z</time>
      </trkpt>
      <trkpt lat="44.37205" lon="4.77172">
        <ele>85.2</ele>
        <time>2018-03-26T11:00:42Z</time>
      </trkpt>
      <trkpt lat="44.37203" lon="4.77155">
        <ele>85</ele>
        <time>2018-03-26T11:00:44Z</time>
      </trkpt>
      <trkpt lat="44.37201" lon="4.77138">
        <ele>84.8</ele>
        <time>2018-03-26T11:00:46Z</time>
      </trkpt>
      <trkpt lat="44.372" lon="4.77121">
        <ele>84.8</ele>
        <time>2018-03-26T11:00:48Z</time>
      </trkpt>
      <trkpt lat="44.37199" lon="4.77104">
        <ele>84.6</ele>
        <time>2018-03-26T11:00:50Z</time>
      </trkpt>
      <trkpt lat="44.37198" lon="4.77087">
        <ele>84.6</ele>
        <time>2018-03-26T11:00:52Z</time>
      </trkpt>
      <trkpt lat="44.37197" lon="4.7707">
        <ele>84.7</ele>
        <time>2018-03-26T11:00:54Z</time>
      </trkpt>
      <trkpt lat="44.37194" lon="4.77053">
        <ele>84.6</ele>
        <time>2018-03-26T11:00:56Z</time>
      </trkpt>
      <trkpt lat="44.3719" lon="4.77036">
        <ele>84.7</ele>
        <time>2018-03-26T11:00:58Z</time>
      </trkpt>
      <trkpt lat="44.37185" lon="4.7702">
        <ele>84.4</ele>
        <time>2018-03-26T11:01:00Z</time>
      </trkpt>
      <trkpt lat="44.3718" lon="4.77005">
        <ele>84.3</ele>
        <time>2018-03-26T11:01:02Z</time>
      </trkpt>
      <trkpt lat="44.37174" lon="4.7699">
        <ele>84.1</ele>
        <time>2018-03-26T11:01:04Z</time>
      </trkpt>
      <trkpt lat="44.37169" lon="4.76976">
        <ele>84</ele>
        <time>2018-03-26T11:01:06Z</time>
      </trkpt>
      <trkpt lat="44.37164" lon="4.76962">
        <ele>83.7</ele>
        <time>2018-03-26T11:01:08Z</time>
      </trkpt>
      <trkpt lat="44.37159" lon="4.76949">
        <ele>83.5</ele>
        <time>2018-03-26T11:01:10Z</time>
      </trkpt>
      <trkpt lat="44.37154" lon="4.76936">
        <ele>83.4</ele>
        <time>2018-03-26T11:01:12Z</time>
      </trkpt>
      <trkpt lat="44.37149" lon="4.76922">
        <ele>83.2</ele>
        <time>2018-03-26T11:01:14Z</time>
      </trkpt>
      <trkpt lat="44.37143" lon="4.76909">
        <ele>82.9</ele>
        <time>2018-03-26T11:01:16Z</time>
      </trkpt>
      <trkpt lat="44.3714" lon="4.76896">
        <ele>82.7</ele>
        <time>2018-03-26T11:01:18Z</time>
      </trkpt>
      <trkpt lat="44.37142" lon="4.76879">
        <ele>82.9</ele>
        <time>2018-03-26T11:01:21Z</time>
      </trkpt>
      <trkpt lat="44.37152" lon="4.76866">
        <ele>83.2</ele>
        <time>2018-03-26T11:01:24Z</time>
      </trkpt>
      <trkpt lat="44.3716" lon="4.76857">
        <ele>83.4</ele>
        <time>2018-03-26T11:01:26Z</time>
      </trkpt>
      <trkpt lat="44.37171" lon="4.76847">
        <ele>83.2</ele>
        <time>2018-03-26T11:01:28Z</time>
      </trkpt>
      <trkpt lat="44.37183" lon="4.76837">
        <ele>82.9</ele>
        <time>2018-03-26T11:01:30Z</time>
      </trkpt>
      <trkpt lat="44.37193" lon="4.76828">
        <ele>82.8</ele>
        <time>2018-03-26T11:01:32Z</time>
      </trkpt>
      <trkpt lat="44.37203" lon="4.76819">
        <ele>82.5</ele>
        <time>2018-03-26T11:01:34Z</time>
      </trkpt>
      <trkpt lat="44.37213" lon="4.76811">
        <ele>82.2</ele>
        <time>2018-03-26T11:01:36Z</time>
      </trkpt>
      <trkpt lat="44.37224" lon="4.76803">
        <ele>81.9</ele>
        <time>2018-03-26T11:01:38Z</time>
      </trkpt>
      <trkpt lat="44.37235" lon="4.76796">
        <ele>81.8</ele>
        <time>2018-03-26T11:01:40Z</time>
      </trkpt>
      <trkpt lat="44.37245" lon="4.76789">
        <ele>81.6</ele>
        <time>2018-03-26T11:01:42Z</time>
      </trkpt>
      <trkpt lat="44.37256" lon="4.76782">
        <ele>81.4</ele>
        <time>2018-03-26T11:01:44Z</time>
      </trkpt>
      <trkpt lat="44.37266" lon="4.76775">
        <ele>81.3</ele>
        <time>2018-03-26T11:01:46Z</time>
      </trkpt>
      <trkpt lat="44.37277" lon="4.7677">
        <ele>81.4</ele>
        <time>2018-03-26T11:01:48Z</time>
      </trkpt>
      <trkpt lat="44.37287" lon="4.76765">
        <ele>81.1</ele>
        <time>2018-03-26T11:01:50Z</time>
      </trkpt>
      <trkpt lat="44.37297" lon="4.76762">
        <ele>81</ele>
        <time>2018-03-26T11:01:52Z</time>
      </trkpt>
      <trkpt lat="44.37306" lon="4.76774">
        <ele>80.7</ele>
        <time>2018-03-26T11:01:55Z</time>
      </trkpt>
      <trkpt lat="44.37303" lon="4.76793">
        <ele>80.7</ele>
        <time>2018-03-26T11:01:58Z</time>
      </trkpt>
      <trkpt lat="44.37301" lon="4.76806">
        <ele>80.8</ele>
        <time>2018-03-26T11:02:00Z</time>
      </trkpt>
      <trkpt lat="44.373" lon="4.76819">
        <ele>80.8</ele>
        <time>2018-03-26T11:02:02Z</time>
      </trkpt>
      <trkpt lat="44.37302" lon="4.76832">
        <ele>81.1</ele>
        <time>2018-03-26T11:02:04Z</time>
      </trkpt>
      <trkpt lat="44.37305" lon="4.76844">
        <ele>81.4</ele>
        <time>2018-03-26T11:02:06Z</time>
      </trkpt>
      <trkpt lat="44.37309" lon="4.76856">
        <ele>81.5</ele>
        <time>2018-03-26T11:02:08Z</time>
      </trkpt>
      <trkpt lat="44.37313" lon="4.76868">
        <ele>81.7</ele>
        <time>2018-03-26T11:02:10Z</time>
      </trkpt>
      <trkpt lat="44.37317" lon="4.7688">
        <ele>81.7</ele>
        <time>2018-03-26T11:02:12Z</time>
      </trkpt>
      <trkpt lat="44.37322" lon="4.76892">
        <ele>81.9</ele>
        <time>2018-03-26T11:02:14Z</time>
      </trkpt>
      <trkpt lat="44.37326" lon="4.76904">
        <ele>82</ele>
        <time>2018-03-26T11:02:16Z</time>
      </trkpt>
      <trkpt lat="44.3733" lon="4.76915">
        <ele>82.2</ele>
        <time>2018-03-26T11:02:18Z</time>
      </trkpt>
      <trkpt lat="44.37334" lon="4.76927">
        <ele>82.3</ele>
        <time>2018-03-26T11:02:20Z</time>
      </trkpt>
      <trkpt lat="44.37339" lon="4.76939">
        <ele>82.4</ele>
        <time>2018-03-26T11:02:22Z</time>
      </trkpt>
      <trkpt lat="44.37344" lon="4.76951">
        <ele>82.5</ele>
        <time>2018-03-26T11:02:24Z</time>
      </trkpt>
      <trkpt lat="44.37348" lon="4.76964">
        <ele>82.9</ele>
        <time>2018-03-26T11:02:26Z</time>
      </trkpt>
      <trkpt lat="44.37351" lon="4.76977">
        <ele>82.9</ele>
        <time>2018-03-26T11:02:28Z</time>
      </trkpt>
      <trkpt lat="44.37355" lon="4.7699">
        <ele>83</ele>
        <time>2018-03-26T11:02:30Z</time>
      </trkpt>
      <trkpt lat="44.3736" lon="4.77003">
        <ele>83</ele>
        <time>2018-03-26T11:02:32Z</time>
      </trkpt>
      <trkpt lat="44.37366" lon="4.77016">
        <ele>82.8</ele>
        <time>2018-03-26T11:02:34Z</time>
      </trkpt>
      <trkpt lat="44.37373" lon="4.77029">
        <ele>82.9</ele>
        <time>2018-03-26T11:02:36Z</time>
      </trkpt>
      <trkpt lat="44.37379" lon="4.77042">
        <ele>82.7</ele>
        <time>2018-03-26T11:02:38Z</time>
      </trkpt>
      <trkpt lat="44.37386" lon="4.77055">
        <ele>82.6</ele>
        <time>2018-03-26T11:02:40Z</time>
      </trkpt>
      <trkpt lat="44.37391" lon="4.77068">
        <ele>82.4</ele>
        <time>2018-03-26T11:02:42Z</time>
      </trkpt>
      <trkpt lat="44.37396" lon="4.77082">
        <ele>82.2</ele>
        <time>2018-03-26T11:02:44Z</time>
      </trkpt>
      <trkpt lat="44.37401" lon="4.77094">
        <ele>82.2</ele>
        <time>2018-03-26T11:02:46Z</time>
      </trkpt>
      <trkpt lat="44.37405" lon="4.77106">
        <ele>82.3</ele>
        <time>2018-03-26T11:02:48Z</time>
      </trkpt>
      <trkpt lat="44.3741" lon="4.77117">
        <ele>82.4</ele>
        <time>2018-03-26T11:02:50Z</time>
      </trkpt>
      <trkpt lat="44.37418" lon="4.77131">
        <ele>82.5</ele>
        <time>2018-03-26T11:02:53Z</time>
      </trkpt>
      <trkpt lat="44.37426" lon="4.77139">
        <ele>82.7</ele>
        <time>2018-03-26T11:02:56Z</time>
      </trkpt>
      <trkpt lat="44.37434" lon="4.77134">
        <ele>82.7</ele>
        <time>2018-03-26T11:02:59Z</time>
      </trkpt>
      <trkpt lat="44.37444" lon="4.77134">
        <ele>83.2</ele>
        <time>2018-03-26T11:03:02Z</time>
      </trkpt>
      <trkpt lat="44.37456" lon="4.77137">
        <ele>83.6</ele>
        <time>2018-03-26T11:03:05Z</time>
      </trkpt>
      <trkpt lat="44.37467" lon="4.77142">
        <ele>84.5</ele>
        <time>2018-03-26T11:03:08Z</time>
      </trkpt>
      <trkpt lat="44.37477" lon="4.77149">
        <ele>85.1</ele>
        <time>2018-03-26T11:03:11Z</time>
      </trkpt>
      <trkpt lat="44.37488" lon="4.77155">
        <ele>85.7</ele>
        <time>2018-03-26T11:03:14Z</time>
      </trkpt>
      <trkpt lat="44.37499" lon="4.7716">
        <ele>86.2</ele>
        <time>2018-03-26T11:03:17Z</time>
      </trkpt>
      <trkpt lat="44.37511" lon="4.77158">
        <ele>86.6</ele>
        <time>2018-03-26T11:03:20Z</time>
      </trkpt>
      <trkpt lat="44.37521" lon="4.77153">
        <ele>87</ele>
        <time>2018-03-26T11:03:23Z</time>
      </trkpt>
      <trkpt lat="44.37531" lon="4.77148">
        <ele>87.5</ele>
        <time>2018-03-26T11:03:26Z</time>
      </trkpt>
      <trkpt lat="44.37541" lon="4.77147">
        <ele>88.2</ele>
        <time>2018-03-26T11:03:29Z</time>
      </trkpt>
      <trkpt lat="44.37551" lon="4.77144">
        <ele>88.8</ele>
        <time>2018-03-26T11:03:32Z</time>
      </trkpt>
      <trkpt lat="44.37561" lon="4.77139">
        <ele>89.1</ele>
        <time>2018-03-26T11:03:35Z</time>
      </trkpt>
      <trkpt lat="44.37572" lon="4.77136">
        <ele>89.6</ele>
        <time>2018-03-26T11:03:38Z</time>
      </trkpt>
      <trkpt lat="44.37582" lon="4.77133">
        <ele>90.1</ele>
        <time>2018-03-26T11:03:41Z</time>
      </trkpt>
      <trkpt lat="44.37591" lon="4.77131">
        <ele>90.8</ele>
        <time>2018-03-26T11:03:44Z</time>
      </trkpt>
      <trkpt lat="44.37601" lon="4.77129">
        <ele>91.6</ele>
        <time>2018-03-26T11:03:47Z</time>
      </trkpt>
      <trkpt lat="44.37611" lon="4.77126">
        <ele>92.3</ele>
        <time>2018-03-26T11:03:50Z</time>
      </trkpt>
      <trkpt lat="44.37621" lon="4.77125">
        <ele>92.8</ele>
        <time>2018-03-26T11:03:53Z</time>
      </trkpt>
      <trkpt lat="44.37632" lon="4.77119">
        <ele>93.9</ele>
        <time>2018-03-26T11:03:57Z</time>
      </trkpt>
      <trkpt lat="44.37642" lon="4.77114">
        <ele>94.1</ele>
        <time>2018-03-26T11:04:00Z</time>
      </trkpt>
      <trkpt lat="44.37652" lon="4.77116">
        <ele>94.4</ele>
        <time>2018-03-26T11:04:03Z</time>
      </trkpt>
      <trkpt lat="44.37663" lon="4.77114">
        <ele>94.5</ele>
        <time>2018-03-26T11:04:06Z</time>
      </trkpt>
      <trkpt lat="44.37672" lon="4.7711">
        <ele>94.9</ele>
        <time>2018-03-26T11:04:09Z</time>
      </trkpt>
      <trkpt lat="44.37683" lon="4.77107">
        <ele>95.8</ele>
        <time>2018-03-26T11:04:12Z</time>
      </trkpt>
      <trkpt lat="44.37693" lon="4.77101">
        <ele>96.1</ele>
        <time>2018-03-26T11:04:15Z</time>
      </trkpt>
      <trkpt lat="44.37702" lon="4.77094">
        <ele>96.4</ele>
        <time>2018-03-26T11:04:18Z</time>
      </trkpt>
      <trkpt lat="44.37711" lon="4.77094">
        <ele>96.9</ele>
        <time>2018-03-26T11:04:21Z</time>
      </trkpt>
      <trkpt lat="44.37724" lon="4.77098">
        <ele>97.3</ele>
        <time>2018-03-26T11:04:25Z</time>
      </trkpt>
      <trkpt lat="44.37737" lon="4.77102">
        <ele>97.2</ele>
        <time>2018-03-26T11:04:28Z</time>
      </trkpt>
      <trkpt lat="44.37747" lon="4.77101">
        <ele>97.6</ele>
        <time>2018-03-26T11:04:31Z</time>
      </trkpt>
      <trkpt lat="44.37756" lon="4.77102">
        <ele>98</ele>
        <time>2018-03-26T11:04:34Z</time>
      </trkpt>
      <trkpt lat="44.37769" lon="4.77104">
        <ele>98.8</ele>
        <time>2018-03-26T11:04:37Z</time>
      </trkpt>
      <trkpt lat="44.37779" lon="4.77105">
        <ele>99.2</ele>
        <time>2018-03-26T11:04:40Z</time>
      </trkpt>
      <trkpt lat="44.3779" lon="4.77105">
        <ele>99.5</ele>
        <time>2018-03-26T11:04:43Z</time>
      </trkpt>
      <trkpt lat="44.378" lon="4.77104">
        <ele>100</ele>
        <time>2018-03-26T11:04:46Z</time>
      </trkpt>
      <trkpt lat="44.3781" lon="4.77105">
        <ele>100.4</ele>
        <time>2018-03-26T11:04:49Z</time>
      </trkpt>
      <trkpt lat="44.3782" lon="4.77111">
        <ele>100.7</ele>
        <time>2018-03-26T11:04:52Z</time>
      </trkpt>
      <trkpt lat="44.3783" lon="4.77117">
        <ele>100.9</ele>
        <time>2018-03-26T11:04:55Z</time>
      </trkpt>
      <trkpt lat="44.3784" lon="4.77123">
        <ele>100.9</ele>
        <time>2018-03-26T11:04:58Z</time>
      </trkpt>
      <trkpt lat="44.37851" lon="4.77129">
        <ele>100.9</ele>
        <time>2018-03-26T11:05:01Z</time>
      </trkpt>
      <trkpt lat="44.37862" lon="4.77133">
        <ele>101.1</ele>
        <time>2018-03-26T11:05:04Z</time>
      </trkpt>
      <trkpt lat="44.37874" lon="4.77137">
        <ele>101.9</ele>
        <time>2018-03-26T11:05:07Z</time>
      </trkpt>
      <trkpt lat="44.37884" lon="4.77145">
        <ele>101.6</ele>
        <time>2018-03-26T11:05:10Z</time>
      </trkpt>
      <trkpt lat="44.37894" lon="4.77152">
        <ele>101.7</ele>
        <time>2018-03-26T11:05:13Z</time>
      </trkpt>
      <trkpt lat="44.37904" lon="4.77154">
        <ele>101.5</ele>
        <time>2018-03-26T11:05:15Z</time>
      </trkpt>
      <trkpt lat="44.37914" lon="4.77157">
        <ele>101.3</ele>
        <time>2018-03-26T11:05:17Z</time>
      </trkpt>
      <trkpt lat="44.37924" lon="4.7716">
        <ele>101.2</ele>
        <time>2018-03-26T11:05:19Z</time>
      </trkpt>
      <trkpt lat="44.37933" lon="4.77164">
        <ele>101.5</ele>
        <time>2018-03-26T11:05:21Z</time>
      </trkpt>
      <trkpt lat="44.37943" lon="4.77166">
        <ele>101.5</ele>
        <time>2018-03-26T11:05:23Z</time>
      </trkpt>
      <trkpt lat="44.37953" lon="4.77169">
        <ele>101.6</ele>
        <time>2018-03-26T11:05:25Z</time>
      </trkpt>
      <trkpt lat="44.37962" lon="4.77169">
        <ele>102.3</ele>
        <time>2018-03-26T11:05:27Z</time>
      </trkpt>
      <trkpt lat="44.37975" lon="4.77165">
        <ele>102.8</ele>
        <time>2018-03-26T11:05:30Z</time>
      </trkpt>
      <trkpt lat="44.37988" lon="4.77163">
        <ele>103.1</ele>
        <time>2018-03-26T11:05:33Z</time>
      </trkpt>
      <trkpt lat="44.38001" lon="4.77161">
        <ele>103.5</ele>
        <time>2018-03-26T11:05:36Z</time>
      </trkpt>
      <trkpt lat="44.38011" lon="4.77161">
        <ele>103.5</ele>
        <time>2018-03-26T11:05:38Z</time>
      </trkpt>
      <trkpt lat="44.3802" lon="4.7716">
        <ele>103.6</ele>
        <time>2018-03-26T11:05:40Z</time>
      </trkpt>
      <trkpt lat="44.3803" lon="4.77159">
        <ele>103.7</ele>
        <time>2018-03-26T11:05:42Z</time>
      </trkpt>
      <trkpt lat="44.38039" lon="4.77156">
        <ele>103.8</ele>
        <time>2018-03-26T11:05:44Z</time>
      </trkpt>
      <trkpt lat="44.38051" lon="4.77153">
        <ele>103.6</ele>
        <time>2018-03-26T11:05:47Z</time>
      </trkpt>
      <trkpt lat="44.38064" lon="4.77151">
        <ele>103.6</ele>
        <time>2018-03-26T11:05:50Z</time>
      </trkpt>
      <trkpt lat="44.38073" lon="4.7715">
        <ele>103.6</ele>
        <time>2018-03-26T11:05:52Z</time>
      </trkpt>
      <trkpt lat="44.38083" lon="4.77149">
        <ele>103.4</ele>
        <time>2018-03-26T11:05:54Z</time>
      </trkpt>
      <trkpt lat="44.38092" lon="4.77145">
        <ele>103.6</ele>
        <time>2018-03-26T11:05:56Z</time>
      </trkpt>
      <trkpt lat="44.38101" lon="4.77138">
        <ele>103.6</ele>
        <time>2018-03-26T11:05:58Z</time>
      </trkpt>
      <trkpt lat="44.3811" lon="4.77134">
        <ele>103.5</ele>
        <time>2018-03-26T11:06:00Z</time>
      </trkpt>
      <trkpt lat="44.38124" lon="4.77134">
        <ele>103.3</ele>
        <time>2018-03-26T11:06:03Z</time>
      </trkpt>
      <trkpt lat="44.38132" lon="4.7714">
        <ele>103.2</ele>
        <time>2018-03-26T11:06:05Z</time>
      </trkpt>
      <trkpt lat="44.38144" lon="4.77148">
        <ele>103.2</ele>
        <time>2018-03-26T11:06:08Z</time>
      </trkpt>
      <trkpt lat="44.38153" lon="4.77155">
        <ele>103.2</ele>
        <time>2018-03-26T11:06:11Z</time>
      </trkpt>
      <trkpt lat="44.38162" lon="4.7715">
        <ele>103</ele>
        <time>2018-03-26T11:06:14Z</time>
      </trkpt>
      <trkpt lat="44.38166" lon="4.77135">
        <ele>103.1</ele>
        <time>2018-03-26T11:06:17Z</time>
      </trkpt>
      <trkpt lat="44.38173" lon="4.7712">
        <ele>102.8</ele>
        <time>2018-03-26T11:06:20Z</time>
      </trkpt>
      <trkpt lat="44.38177" lon="4.77109">
        <ele>102.4</ele>
        <time>2018-03-26T11:06:22Z</time>
      </trkpt>
      <trkpt lat="44.38183" lon="4.77092">
        <ele>103.1</ele>
        <time>2018-03-26T11:06:25Z</time>
      </trkpt>
      <trkpt lat="44.38186" lon="4.77076">
        <ele>103.8</ele>
        <time>2018-03-26T11:06:28Z</time>
      </trkpt>
      <trkpt lat="44.38189" lon="4.77059">
        <ele>104</ele>
        <time>2018-03-26T11:06:31Z</time>
      </trkpt>
      <trkpt lat="44.38189" lon="4.77043">
        <ele>104</ele>
        <time>2018-03-26T11:06:34Z</time>
      </trkpt>
      <trkpt lat="44.38191" lon="4.77027">
        <ele>104.5</ele>
        <time>2018-03-26T11:06:37Z</time>
      </trkpt>
      <trkpt lat="44.38192" lon="4.77014">
        <ele>104.7</ele>
        <time>2018-03-26T11:06:39Z</time>
      </trkpt>
      <trkpt lat="44.38194" lon="4.77002">
        <ele>104.8</ele>
        <time>2018-03-26T11:06:41Z</time>
      </trkpt>
      <trkpt lat="44.38196" lon="4.76989">
        <ele>104.8</ele>
        <time>2018-03-26T11:06:43Z</time>
      </trkpt>
      <trkpt lat="44.38198" lon="4.76976">
        <ele>105.1</ele>
        <time>2018-03-26T11:06:45Z</time>
      </trkpt>
      <trkpt lat="44.38199" lon="4.76963">
        <ele>105.2</ele>
        <time>2018-03-26T11:06:47Z</time>
      </trkpt>
      <trkpt lat="44.382" lon="4.7695">
        <ele>105.4</ele>
        <time>2018-03-26T11:06:49Z</time>
      </trkpt>
      <trkpt lat="44.38202" lon="4.76932">
        <ele>105.8</ele>
        <time>2018-03-26T11:06:52Z</time>
      </trkpt>
      <trkpt lat="44.38206" lon="4.76916">
        <ele>106.3</ele>
        <time>2018-03-26T11:06:55Z</time>
      </trkpt>
      <trkpt lat="44.3821" lon="4.76898">
        <ele>106.8</ele>
        <time>2018-03-26T11:06:58Z</time>
      </trkpt>
      <trkpt lat="44.38214" lon="4.76881">
        <ele>107.1</ele>
        <time>2018-03-26T11:07:01Z</time>
      </trkpt>
      <trkpt lat="44.38216" lon="4.76868">
        <ele>107.2</ele>
        <time>2018-03-26T11:07:03Z</time>
      </trkpt>
      <trkpt lat="44.3822" lon="4.76852">
        <ele>107.7</ele>
        <time>2018-03-26T11:07:06Z</time>
      </trkpt>
      <trkpt lat="44.38221" lon="4.76838">
        <ele>108</ele>
        <time>2018-03-26T11:07:09Z</time>
      </trkpt>
      <trkpt lat="44.38223" lon="4.76823">
        <ele>108.2</ele>
        <time>2018-03-26T11:07:12Z</time>
      </trkpt>
      <trkpt lat="44.3823" lon="4.76814">
        <ele>108.4</ele>
        <time>2018-03-26T11:07:15Z</time>
      </trkpt>
      <trkpt lat="44.38241" lon="4.76812">
        <ele>108.8</ele>
        <time>2018-03-26T11:07:19Z</time>
      </trkpt>
      <trkpt lat="44.3825" lon="4.76812">
        <ele>108.8</ele>
        <time>2018-03-26T11:07:22Z</time>
      </trkpt>
      <trkpt lat="44.3826" lon="4.76815">
        <ele>108.8</ele>
        <time>2018-03-26T11:07:25Z</time>
      </trkpt>
      <trkpt lat="44.38272" lon="4.76818">
        <ele>108.8</ele>
        <time>2018-03-26T11:07:28Z</time>
      </trkpt>
      <trkpt lat="44.38283" lon="4.76821">
        <ele>108.9</ele>
        <time>2018-03-26T11:07:31Z</time>
      </trkpt>
      <trkpt lat="44.38294" lon="4.76825">
        <ele>109.2</ele>
        <time>2018-03-26T11:07:34Z</time>
      </trkpt>
      <trkpt lat="44.38305" lon="4.76828">
        <ele>109.3</ele>
        <time>2018-03-26T11:07:37Z</time>
      </trkpt>
      <trkpt lat="44.38317" lon="4.76832">
        <ele>109.3</ele>
        <time>2018-03-26T11:07:40Z</time>
      </trkpt>
      <trkpt lat="44.38328" lon="4.76835">
        <ele>109.4</ele>
        <time>2018-03-26T11:07:43Z</time>
      </trkpt>
      <trkpt lat="44.38339" lon="4.76838">
        <ele>109.5</ele>
        <time>2018-03-26T11:07:46Z</time>
      </trkpt>
      <trkpt lat="44.38349" lon="4.76842">
        <ele>109.7</ele>
        <time>2018-03-26T11:07:49Z</time>
      </trkpt>
      <trkpt lat="44.38359" lon="4.76846">
        <ele>110.1</ele>
        <time>2018-03-26T11:07:52Z</time>
      </trkpt>
      <trkpt lat="44.38369" lon="4.76849">
        <ele>110.5</ele>
        <time>2018-03-26T11:07:55Z</time>
      </trkpt>
      <trkpt lat="44.38379" lon="4.76853">
        <ele>111.3</ele>
        <time>2018-03-26T11:07:59Z</time>
      </trkpt>
      <trkpt lat="44.38388" lon="4.76858">
        <ele>112.3</ele>
        <time>2018-03-26T11:08:03Z</time>
      </trkpt>
      <trkpt lat="44.38397" lon="4.76855">
        <ele>113.2</ele>
        <time>2018-03-26T11:08:08Z</time>
      </trkpt>
      <trkpt lat="44.38402" lon="4.76842">
        <ele>113.8</ele>
        <time>2018-03-26T11:08:14Z</time>
      </trkpt>
      <trkpt lat="44.38401" lon="4.76826">
        <ele>114.1</ele>
        <time>2018-03-26T11:08:18Z</time>
      </trkpt>
      <trkpt lat="44.384" lon="4.7681">
        <ele>114.1</ele>
        <time>2018-03-26T11:08:21Z</time>
      </trkpt>
      <trkpt lat="44.38399" lon="4.76792">
        <ele>113.9</ele>
        <time>2018-03-26T11:08:24Z</time>
      </trkpt>
      <trkpt lat="44.38397" lon="4.7678">
        <ele>113.6</ele>
        <time>2018-03-26T11:08:26Z</time>
      </trkpt>
      <trkpt lat="44.38396" lon="4.76767">
        <ele>113.6</ele>
        <time>2018-03-26T11:08:28Z</time>
      </trkpt>
      <trkpt lat="44.38395" lon="4.76754">
        <ele>113.6</ele>
        <time>2018-03-26T11:08:30Z</time>
      </trkpt>
      <trkpt lat="44.38393" lon="4.76741">
        <ele>113.6</ele>
        <time>2018-03-26T11:08:32Z</time>
      </trkpt>
      <trkpt lat="44.38392" lon="4.76727">
        <ele>113.8</ele>
        <time>2018-03-26T11:08:34Z</time>
      </trkpt>
      <trkpt lat="44.38391" lon="4.76712">
        <ele>114</ele>
        <time>2018-03-26T11:08:36Z</time>
      </trkpt>
      <trkpt lat="44.38391" lon="4.76698">
        <ele>114.3</ele>
        <time>2018-03-26T11:08:38Z</time>
      </trkpt>
      <trkpt lat="44.3839" lon="4.76685">
        <ele>114.3</ele>
        <time>2018-03-26T11:08:40Z</time>
      </trkpt>
      <trkpt lat="44.3839" lon="4.76672">
        <ele>114.1</ele>
        <time>2018-03-26T11:08:42Z</time>
      </trkpt>
      <trkpt lat="44.3839" lon="4.76658">
        <ele>113.7</ele>
        <time>2018-03-26T11:08:44Z</time>
      </trkpt>
      <trkpt lat="44.3839" lon="4.76645">
        <ele>113.5</ele>
        <time>2018-03-26T11:08:46Z</time>
      </trkpt>
      <trkpt lat="44.38389" lon="4.7663">
        <ele>113.3</ele>
        <time>2018-03-26T11:08:48Z</time>
      </trkpt>
      <trkpt lat="44.38389" lon="4.76615">
        <ele>113.1</ele>
        <time>2018-03-26T11:08:50Z</time>
      </trkpt>
      <trkpt lat="44.38388" lon="4.766">
        <ele>112.7</ele>
        <time>2018-03-26T11:08:52Z</time>
      </trkpt>
      <trkpt lat="44.38388" lon="4.76584">
        <ele>112.4</ele>
        <time>2018-03-26T11:08:54Z</time>
      </trkpt>
      <trkpt lat="44.38388" lon="4.76569">
        <ele>112.1</ele>
        <time>2018-03-26T11:08:56Z</time>
      </trkpt>
      <trkpt lat="44.38388" lon="4.76554">
        <ele>111.8</ele>
        <time>2018-03-26T11:08:58Z</time>
      </trkpt>
      <trkpt lat="44.38387" lon="4.76538">
        <ele>111.3</ele>
        <time>2018-03-26T11:09:00Z</time>
      </trkpt>
      <trkpt lat="44.38388" lon="4.76522">
        <ele>110.9</ele>
        <time>2018-03-26T11:09:02Z</time>
      </trkpt>
      <trkpt lat="44.38388" lon="4.76506">
        <ele>110.4</ele>
        <time>2018-03-26T11:09:04Z</time>
      </trkpt>
      <trkpt lat="44.38387" lon="4.76489">
        <ele>110.1</ele>
        <time>2018-03-26T11:09:06Z</time>
      </trkpt>
      <trkpt lat="44.38387" lon="4.7647">
        <ele>109.7</ele>
        <time>2018-03-26T11:09:08Z</time>
      </trkpt>
      <trkpt lat="44.38386" lon="4.76449">
        <ele>109.4</ele>
        <time>2018-03-26T11:09:10Z</time>
      </trkpt>
      <trkpt lat="44.38385" lon="4.76427">
        <ele>109.1</ele>
        <time>2018-03-26T11:09:12Z</time>
      </trkpt>
      <trkpt lat="44.38384" lon="4.76405">
        <ele>108.7</ele>
        <time>2018-03-26T11:09:14Z</time>
      </trkpt>
      <trkpt lat="44.38383" lon="4.76383">
        <ele>108.3</ele>
        <time>2018-03-26T11:09:16Z</time>
      </trkpt>
      <trkpt lat="44.3838" lon="4.76362">
        <ele>107.9</ele>
        <time>2018-03-26T11:09:18Z</time>
      </trkpt>
      <trkpt lat="44.38374" lon="4.76342">
        <ele>107.5</ele>
        <time>2018-03-26T11:09:20Z</time>
      </trkpt>
      <trkpt lat="44.38366" lon="4.76323">
        <ele>107.2</ele>
        <time>2018-03-26T11:09:22Z</time>
      </trkpt>
      <trkpt lat="44.38358" lon="4.76304">
        <ele>106.7</ele>
        <time>2018-03-26T11:09:24Z</time>
      </trkpt>
      <trkpt lat="44.38351" lon="4.76285">
        <ele>106.2</ele>
        <time>2018-03-26T11:09:26Z</time>
      </trkpt>
      <trkpt lat="44.38345" lon="4.76265">
        <ele>105.9</ele>
        <time>2018-03-26T11:09:28Z</time>
      </trkpt>
      <trkpt lat="44.3834" lon="4.76244">
        <ele>105.6</ele>
        <time>2018-03-26T11:09:30Z</time>
      </trkpt>
      <trkpt lat="44.38334" lon="4.76224">
        <ele>105.2</ele>
        <time>2018-03-26T11:09:32Z</time>
      </trkpt>
      <trkpt lat="44.38329" lon="4.76203">
        <ele>104.9</ele>
        <time>2018-03-26T11:09:34Z</time>
      </trkpt>
      <trkpt lat="44.38324" lon="4.76183">
        <ele>104.5</ele>
        <time>2018-03-26T11:09:36Z</time>
      </trkpt>
      <trkpt lat="44.3832" lon="4.76165">
        <ele>104.2</ele>
        <time>2018-03-26T11:09:38Z</time>
      </trkpt>
      <trkpt lat="44.38315" lon="4.76148">
        <ele>104.4</ele>
        <time>2018-03-26T11:09:40Z</time>
      </trkpt>
      <trkpt lat="44.38311" lon="4.76132">
        <ele>104.5</ele>
        <time>2018-03-26T11:09:42Z</time>
      </trkpt>
      <trkpt lat="44.38308" lon="4.76116">
        <ele>104.6</ele>
        <time>2018-03-26T11:09:44Z</time>
      </trkpt>
      <trkpt lat="44.38304" lon="4.76101">
        <ele>104.6</ele>
        <time>2018-03-26T11:09:46Z</time>
      </trkpt>
      <trkpt lat="44.38301" lon="4.76085">
        <ele>104.7</ele>
        <time>2018-03-26T11:09:48Z</time>
      </trkpt>
      <trkpt lat="44.38298" lon="4.76069">
        <ele>104.5</ele>
        <time>2018-03-26T11:09:50Z</time>
      </trkpt>
      <trkpt lat="44.38294" lon="4.76054">
        <ele>104.5</ele>
        <time>2018-03-26T11:09:52Z</time>
      </trkpt>
      <trkpt lat="44.38288" lon="4.7604">
        <ele>104.4</ele>
        <time>2018-03-26T11:09:54Z</time>
      </trkpt>
      <trkpt lat="44.38282" lon="4.76027">
        <ele>104.4</ele>
        <time>2018-03-26T11:09:56Z</time>
      </trkpt>
      <trkpt lat="44.38277" lon="4.76016">
        <ele>104.5</ele>
        <time>2018-03-26T11:09:58Z</time>
      </trkpt>
      <trkpt lat="44.38278" lon="4.76001">
        <ele>105.1</ele>
        <time>2018-03-26T11:10:01Z</time>
      </trkpt>
      <trkpt lat="44.38285" lon="4.7599">
        <ele>105</ele>
        <time>2018-03-26T11:10:04Z</time>
      </trkpt>
      <trkpt lat="44.38287" lon="4.75973">
        <ele>104.8</ele>
        <time>2018-03-26T11:10:07Z</time>
      </trkpt>
      <trkpt lat="44.38288" lon="4.7596">
        <ele>104.8</ele>
        <time>2018-03-26T11:10:09Z</time>
      </trkpt>
      <trkpt lat="44.38288" lon="4.75945">
        <ele>105</ele>
        <time>2018-03-26T11:10:11Z</time>
      </trkpt>
      <trkpt lat="44.38287" lon="4.75929">
        <ele>104.8</ele>
        <time>2018-03-26T11:10:13Z</time>
      </trkpt>
      <trkpt lat="44.38285" lon="4.75912">
        <ele>104.6</ele>
        <time>2018-03-26T11:10:15Z</time>
      </trkpt>
      <trkpt lat="44.38284" lon="4.75894">
        <ele>104.2</ele>
        <time>2018-03-26T11:10:17Z</time>
      </trkpt>
      <trkpt lat="44.38282" lon="4.75876">
        <ele>103.9</ele>
        <time>2018-03-26T11:10:19Z</time>
      </trkpt>
      <trkpt lat="44.3828" lon="4.75859">
        <ele>103.8</ele>
        <time>2018-03-26T11:10:21Z</time>
      </trkpt>
      <trkpt lat="44.3828" lon="4.75842">
        <ele>103.7</ele>
        <time>2018-03-26T11:10:23Z</time>
      </trkpt>
      <trkpt lat="44.3828" lon="4.75826">
        <ele>103.6</ele>
        <time>2018-03-26T11:10:25Z</time>
      </trkpt>
      <trkpt lat="44.38282" lon="4.7581">
        <ele>103.7</ele>
        <time>2018-03-26T11:10:27Z</time>
      </trkpt>
      <trkpt lat="44.38284" lon="4.75795">
        <ele>103.9</ele>
        <time>2018-03-26T11:10:29Z</time>
      </trkpt>
      <trkpt lat="44.38284" lon="4.75779">
        <ele>104</ele>
        <time>2018-03-26T11:10:31Z</time>
      </trkpt>
      <trkpt lat="44.38283" lon="4.75766">
        <ele>104.3</ele>
        <time>2018-03-26T11:10:33Z</time>
      </trkpt>
      <trkpt lat="44.38282" lon="4.75751">
        <ele>104.6</ele>
        <time>2018-03-26T11:10:35Z</time>
      </trkpt>
      <trkpt lat="44.38283" lon="4.75736">
        <ele>104.6</ele>
        <time>2018-03-26T11:10:37Z</time>
      </trkpt>
      <trkpt lat="44.38285" lon="4.7572">
        <ele>104.3</ele>
        <time>2018-03-26T11:10:39Z</time>
      </trkpt>
      <trkpt lat="44.38288" lon="4.75704">
        <ele>104.1</ele>
        <time>2018-03-26T11:10:41Z</time>
      </trkpt>
      <trkpt lat="44.38292" lon="4.75689">
        <ele>103.8</ele>
        <time>2018-03-26T11:10:43Z</time>
      </trkpt>
      <trkpt lat="44.38298" lon="4.75674">
        <ele>103.2</ele>
        <time>2018-03-26T11:10:45Z</time>
      </trkpt>
      <trkpt lat="44.38305" lon="4.7566">
        <ele>102.7</ele>
        <time>2018-03-26T11:10:47Z</time>
      </trkpt>
      <trkpt lat="44.38312" lon="4.75647">
        <ele>102.2</ele>
        <time>2018-03-26T11:10:49Z</time>
      </trkpt>
      <trkpt lat="44.38315" lon="4.75634">
        <ele>101.7</ele>
        <time>2018-03-26T11:10:51Z</time>
      </trkpt>
      <trkpt lat="44.38316" lon="4.7562">
        <ele>100.8</ele>
        <time>2018-03-26T11:10:54Z</time>
      </trkpt>
      <trkpt lat="44.3832" lon="4.75605">
        <ele>99.9</ele>
        <time>2018-03-26T11:10:58Z</time>
      </trkpt>
      <trkpt lat="44.38329" lon="4.75594">
        <ele>99.5</ele>
        <time>2018-03-26T11:11:02Z</time>
      </trkpt>
      <trkpt lat="44.38339" lon="4.75583">
        <ele>98.6</ele>
        <time>2018-03-26T11:11:05Z</time>
      </trkpt>
      <trkpt lat="44.38346" lon="4.75569">
        <ele>98.1</ele>
        <time>2018-03-26T11:11:08Z</time>
      </trkpt>
      <trkpt lat="44.38349" lon="4.75557">
        <ele>97.9</ele>
        <time>2018-03-26T11:11:10Z</time>
      </trkpt>
      <trkpt lat="44.38356" lon="4.75543">
        <ele>97.6</ele>
        <time>2018-03-26T11:11:13Z</time>
      </trkpt>
      <trkpt lat="44.38364" lon="4.75535">
        <ele>97.5</ele>
        <time>2018-03-26T11:11:16Z</time>
      </trkpt>
      <trkpt lat="44.38373" lon="4.75526">
        <ele>97.2</ele>
        <time>2018-03-26T11:11:19Z</time>
      </trkpt>
      <trkpt lat="44.38384" lon="4.75518">
        <ele>96.2</ele>
        <time>2018-03-26T11:11:22Z</time>
      </trkpt>
      <trkpt lat="44.38393" lon="4.75507">
        <ele>95.4</ele>
        <time>2018-03-26T11:11:25Z</time>
      </trkpt>
      <trkpt lat="44.38398" lon="4.75497">
        <ele>94.5</ele>
        <time>2018-03-26T11:11:27Z</time>
      </trkpt>
      <trkpt lat="44.38404" lon="4.75485">
        <ele>93.4</ele>
        <time>2018-03-26T11:11:29Z</time>
      </trkpt>
      <trkpt lat="44.3841" lon="4.75474">
        <ele>92.1</ele>
        <time>2018-03-26T11:11:31Z</time>
      </trkpt>
      <trkpt lat="44.38416" lon="4.75462">
        <ele>90.7</ele>
        <time>2018-03-26T11:11:34Z</time>
      </trkpt>
      <trkpt lat="44.38424" lon="4.7545">
        <ele>89.4</ele>
        <time>2018-03-26T11:11:38Z</time>
      </trkpt>
      <trkpt lat="44.3843" lon="4.75437">
        <ele>88.5</ele>
        <time>2018-03-26T11:11:41Z</time>
      </trkpt>
      <trkpt lat="44.38441" lon="4.75431">
        <ele>87.9</ele>
        <time>2018-03-26T11:11:44Z</time>
      </trkpt>
      <trkpt lat="44.38451" lon="4.75426">
        <ele>87.5</ele>
        <time>2018-03-26T11:11:47Z</time>
      </trkpt>
      <trkpt lat="44.38455" lon="4.75412">
        <ele>87.4</ele>
        <time>2018-03-26T11:11:52Z</time>
      </trkpt>
      <trkpt lat="44.3846" lon="4.754">
        <ele>86.8</ele>
        <time>2018-03-26T11:11:55Z</time>
      </trkpt>
      <trkpt lat="44.3847" lon="4.75391">
        <ele>86.2</ele>
        <time>2018-03-26T11:11:58Z</time>
      </trkpt>
      <trkpt lat="44.38477" lon="4.7538">
        <ele>85.1</ele>
        <time>2018-03-26T11:12:01Z</time>
      </trkpt>
      <trkpt lat="44.38478" lon="4.75365">
        <ele>83.3</ele>
        <time>2018-03-26T11:12:05Z</time>
      </trkpt>
      <trkpt lat="44.38487" lon="4.75357">
        <ele>81.2</ele>
        <time>2018-03-26T11:12:12Z</time>
      </trkpt>
      <trkpt lat="44.38496" lon="4.75354">
        <ele>80.9</ele>
        <time>2018-03-26T11:12:15Z</time>
      </trkpt>
      <trkpt lat="44.38506" lon="4.75352">
        <ele>80.7</ele>
        <time>2018-03-26T11:12:18Z</time>
      </trkpt>
      <trkpt lat="44.38518" lon="4.7535">
        <ele>80.5</ele>
        <time>2018-03-26T11:12:21Z</time>
      </trkpt>
      <trkpt lat="44.38531" lon="4.75347">
        <ele>80.2</ele>
        <time>2018-03-26T11:12:24Z</time>
      </trkpt>
      <trkpt lat="44.38544" lon="4.75344">
        <ele>80.1</ele>
        <time>2018-03-26T11:12:27Z</time>
      </trkpt>
      <trkpt lat="44.38557" lon="4.75341">
        <ele>80.4</ele>
        <time>2018-03-26T11:12:30Z</time>
      </trkpt>
      <trkpt lat="44.38566" lon="4.75339">
        <ele>80.3</ele>
        <time>2018-03-26T11:12:32Z</time>
      </trkpt>
      <trkpt lat="44.38575" lon="4.75337">
        <ele>80.2</ele>
        <time>2018-03-26T11:12:34Z</time>
      </trkpt>
      <trkpt lat="44.38585" lon="4.75335">
        <ele>80.3</ele>
        <time>2018-03-26T11:12:36Z</time>
      </trkpt>
      <trkpt lat="44.38594" lon="4.75333">
        <ele>80.4</ele>
        <time>2018-03-26T11:12:38Z</time>
      </trkpt>
      <trkpt lat="44.38604" lon="4.75331">
        <ele>80.3</ele>
        <time>2018-03-26T11:12:40Z</time>
      </trkpt>
      <trkpt lat="44.38613" lon="4.75329">
        <ele>80.4</ele>
        <time>2018-03-26T11:12:42Z</time>
      </trkpt>
      <trkpt lat="44.38623" lon="4.75326">
        <ele>80.7</ele>
        <time>2018-03-26T11:12:44Z</time>
      </trkpt>
      <trkpt lat="44.38632" lon="4.75324">
        <ele>80.7</ele>
        <time>2018-03-26T11:12:46Z</time>
      </trkpt>
      <trkpt lat="44.38641" lon="4.75323">
        <ele>80.7</ele>
        <time>2018-03-26T11:12:48Z</time>
      </trkpt>
      <trkpt lat="44.3865" lon="4.7532">
        <ele>80.6</ele>
        <time>2018-03-26T11:12:50Z</time>
      </trkpt>
      <trkpt lat="44.38659" lon="4.75318">
        <ele>80.4</ele>
        <time>2018-03-26T11:12:52Z</time>
      </trkpt>
      <trkpt lat="44.38668" lon="4.75315">
        <ele>80.2</ele>
        <time>2018-03-26T11:12:54Z</time>
      </trkpt>
      <trkpt lat="44.38677" lon="4.75313">
        <ele>80.5</ele>
        <time>2018-03-26T11:12:56Z</time>
      </trkpt>
      <trkpt lat="44.3869" lon="4.7531">
        <ele>80.3</ele>
        <time>2018-03-26T11:12:59Z</time>
      </trkpt>
      <trkpt lat="44.38701" lon="4.75312">
        <ele>80.5</ele>
        <time>2018-03-26T11:13:02Z</time>
      </trkpt>
      <trkpt lat="44.38702" lon="4.75327">
        <ele>81</ele>
        <time>2018-03-26T11:13:05Z</time>
      </trkpt>
      <trkpt lat="44.38698" lon="4.7534">
        <ele>81.3</ele>
        <time>2018-03-26T11:13:08Z</time>
      </trkpt>
      <trkpt lat="44.38693" lon="4.75353">
        <ele>81.8</ele>
        <time>2018-03-26T11:13:11Z</time>
      </trkpt>
      <trkpt lat="44.38687" lon="4.75366">
        <ele>82.2</ele>
        <time>2018-03-26T11:13:14Z</time>
      </trkpt>
      <trkpt lat="44.38683" lon="4.7538">
        <ele>82.9</ele>
        <time>2018-03-26T11:13:17Z</time>
      </trkpt>
      <trkpt lat="44.3868" lon="4.75393">
        <ele>83.1</ele>
        <time>2018-03-26T11:13:20Z</time>
      </trkpt>
      <trkpt lat="44.38683" lon="4.75406">
        <ele>83.9</ele>
        <time>2018-03-26T11:13:23Z</time>
      </trkpt>
      <trkpt lat="44.38691" lon="4.75416">
        <ele>84.4</ele>
        <time>2018-03-26T11:13:26Z</time>
      </trkpt>
      <trkpt lat="44.387" lon="4.75423">
        <ele>84.7</ele>
        <time>2018-03-26T11:13:29Z</time>
      </trkpt>
      <trkpt lat="44.38709" lon="4.75431">
        <ele>85</ele>
        <time>2018-03-26T11:13:32Z</time>
      </trkpt>
      <trkpt lat="44.38718" lon="4.75439">
        <ele>85.5</ele>
        <time>2018-03-26T11:13:35Z</time>
      </trkpt>
      <trkpt lat="44.38726" lon="4.75447">
        <ele>85.7</ele>
        <time>2018-03-26T11:13:38Z</time>
      </trkpt>
      <trkpt lat="44.38734" lon="4.75454">
        <ele>86.5</ele>
        <time>2018-03-26T11:13:41Z</time>
      </trkpt>
      <trkpt lat="44.38742" lon="4.75462">
        <ele>87</ele>
        <time>2018-03-26T11:13:44Z</time>
      </trkpt>
      <trkpt lat="44.38749" lon="4.7547">
        <ele>87.3</ele>
        <time>2018-03-26T11:13:47Z</time>
      </trkpt>
      <trkpt lat="44.38756" lon="4.75478">
        <ele>88</ele>
        <time>2018-03-26T11:13:50Z</time>
      </trkpt>
      <trkpt lat="44.38764" lon="4.75486">
        <ele>88.5</ele>
        <time>2018-03-26T11:13:53Z</time>
      </trkpt>
      <trkpt lat="44.38771" lon="4.75494">
        <ele>89</ele>
        <time>2018-03-26T11:13:56Z</time>
      </trkpt>
      <trkpt lat="44.38778" lon="4.75502">
        <ele>89.6</ele>
        <time>2018-03-26T11:13:59Z</time>
      </trkpt>
      <trkpt lat="44.38788" lon="4.75511">
        <ele>90.4</ele>
        <time>2018-03-26T11:14:03Z</time>
      </trkpt>
      <trkpt lat="44.38797" lon="4.75518">
        <ele>90.9</ele>
        <time>2018-03-26T11:14:06Z</time>
      </trkpt>
      <trkpt lat="44.38806" lon="4.75524">
        <ele>90.8</ele>
        <time>2018-03-26T11:14:09Z</time>
      </trkpt>
      <trkpt lat="44.38815" lon="4.7553">
        <ele>91</ele>
        <time>2018-03-26T11:14:12Z</time>
      </trkpt>
      <trkpt lat="44.38824" lon="4.75535">
        <ele>91.2</ele>
        <time>2018-03-26T11:14:15Z</time>
      </trkpt>
      <trkpt lat="44.38833" lon="4.75542">
        <ele>91.6</ele>
        <time>2018-03-26T11:14:18Z</time>
      </trkpt>
      <trkpt lat="44.38842" lon="4.75548">
        <ele>92</ele>
        <time>2018-03-26T11:14:21Z</time>
      </trkpt>
      <trkpt lat="44.38851" lon="4.75555">
        <ele>92.4</ele>
        <time>2018-03-26T11:14:24Z</time>
      </trkpt>
      <trkpt lat="44.38859" lon="4.75564">
        <ele>92.6</ele>
        <time>2018-03-26T11:14:27Z</time>
      </trkpt>
      <trkpt lat="44.38865" lon="4.75575">
        <ele>93.1</ele>
        <time>2018-03-26T11:14:30Z</time>
      </trkpt>
      <trkpt lat="44.3887" lon="4.75587">
        <ele>93.4</ele>
        <time>2018-03-26T11:14:33Z</time>
      </trkpt>
      <trkpt lat="44.38873" lon="4.756">
        <ele>93.7</ele>
        <time>2018-03-26T11:14:36Z</time>
      </trkpt>
      <trkpt lat="44.38876" lon="4.75613">
        <ele>94.3</ele>
        <time>2018-03-26T11:14:39Z</time>
      </trkpt>
      <trkpt lat="44.38877" lon="4.75628">
        <ele>94.8</ele>
        <time>2018-03-26T11:14:42Z</time>
      </trkpt>
      <trkpt lat="44.38877" lon="4.75642">
        <ele>95.4</ele>
        <time>2018-03-26T11:14:45Z</time>
      </trkpt>
      <trkpt lat="44.38877" lon="4.75656">
        <ele>95.2</ele>
        <time>2018-03-26T11:14:48Z</time>
      </trkpt>
      <trkpt lat="44.38877" lon="4.75671">
        <ele>95.8</ele>
        <time>2018-03-26T11:14:51Z</time>
      </trkpt>
      <trkpt lat="44.38877" lon="4.75685">
        <ele>95.8</ele>
        <time>2018-03-26T11:14:54Z</time>
      </trkpt>
      <trkpt lat="44.38879" lon="4.75699">
        <ele>96.5</ele>
        <time>2018-03-26T11:14:57Z</time>
      </trkpt>
      <trkpt lat="44.38882" lon="4.75713">
        <ele>96.7</ele>
        <time>2018-03-26T11:15:00Z</time>
      </trkpt>
      <trkpt lat="44.38885" lon="4.75727">
        <ele>97.3</ele>
        <time>2018-03-26T11:15:03Z</time>
      </trkpt>
      <trkpt lat="44.3889" lon="4.75742">
        <ele>97.4</ele>
        <time>2018-03-26T11:15:06Z</time>
      </trkpt>
      <trkpt lat="44.38895" lon="4.75756">
        <ele>97.5</ele>
        <time>2018-03-26T11:15:09Z</time>
      </trkpt>
      <trkpt lat="44.38902" lon="4.7577">
        <ele>97.6</ele>
        <time>2018-03-26T11:15:12Z</time>
      </trkpt>
      <trkpt lat="44.38907" lon="4.75784">
        <ele>97.6</ele>
        <time>2018-03-26T11:15:15Z</time>
      </trkpt>
      <trkpt lat="44.38911" lon="4.75796">
        <ele>97.4</ele>
        <time>2018-03-26T11:15:18Z</time>
      </trkpt>
      <trkpt lat="44.38915" lon="4.75812">
        <ele>97.6</ele>
        <time>2018-03-26T11:15:22Z</time>
      </trkpt>
      <trkpt lat="44.38923" lon="4.75821">
        <ele>97.3</ele>
        <time>2018-03-26T11:15:25Z</time>
      </trkpt>
      <trkpt lat="44.38936" lon="4.75817">
        <ele>96.8</ele>
        <time>2018-03-26T11:15:28Z</time>
      </trkpt>
      <trkpt lat="44.38947" lon="4.75809">
        <ele>96.4</ele>
        <time>2018-03-26T11:15:30Z</time>
      </trkpt>
      <trkpt lat="44.38959" lon="4.75802">
        <ele>95.7</ele>
        <time>2018-03-26T11:15:32Z</time>
      </trkpt>
      <trkpt lat="44.38973" lon="4.75797">
        <ele>95.1</ele>
        <time>2018-03-26T11:15:34Z</time>
      </trkpt>
      <trkpt lat="44.38987" lon="4.75794">
        <ele>94.1</ele>
        <time>2018-03-26T11:15:36Z</time>
      </trkpt>
      <trkpt lat="44.39" lon="4.7579">
        <ele>93.6</ele>
        <time>2018-03-26T11:15:38Z</time>
      </trkpt>
      <trkpt lat="44.39011" lon="4.75786">
        <ele>93.4</ele>
        <time>2018-03-26T11:15:40Z</time>
      </trkpt>
      <trkpt lat="44.39019" lon="4.75779">
        <ele>93.2</ele>
        <time>2018-03-26T11:15:42Z</time>
      </trkpt>
      <trkpt lat="44.39024" lon="4.75764">
        <ele>93</ele>
        <time>2018-03-26T11:15:45Z</time>
      </trkpt>
      <trkpt lat="44.39029" lon="4.75753">
        <ele>93.1</ele>
        <time>2018-03-26T11:15:48Z</time>
      </trkpt>
      <trkpt lat="44.3904" lon="4.75751">
        <ele>93.3</ele>
        <time>2018-03-26T11:15:52Z</time>
      </trkpt>
      <trkpt lat="44.39049" lon="4.75747">
        <ele>94.5</ele>
        <time>2018-03-26T11:15:57Z</time>
      </trkpt>
      <trkpt lat="44.39058" lon="4.7574">
        <ele>96.5</ele>
        <time>2018-03-26T11:16:03Z</time>
      </trkpt>
      <trkpt lat="44.39067" lon="4.75734">
        <ele>98.3</ele>
        <time>2018-03-26T11:16:09Z</time>
      </trkpt>
      <trkpt lat="44.39076" lon="4.75726">
        <ele>100.3</ele>
        <time>2018-03-26T11:16:16Z</time>
      </trkpt>
      <trkpt lat="44.39085" lon="4.75718">
        <ele>102.6</ele>
        <time>2018-03-26T11:16:23Z</time>
      </trkpt>
      <trkpt lat="44.39093" lon="4.7571">
        <ele>104.8</ele>
        <time>2018-03-26T11:16:30Z</time>
      </trkpt>
      <trkpt lat="44.39102" lon="4.75706">
        <ele>107.3</ele>
        <time>2018-03-26T11:16:36Z</time>
      </trkpt>
      <trkpt lat="44.39111" lon="4.757">
        <ele>110</ele>
        <time>2018-03-26T11:16:43Z</time>
      </trkpt>
      <trkpt lat="44.39119" lon="4.75692">
        <ele>112.5</ele>
        <time>2018-03-26T11:16:51Z</time>
      </trkpt>
      <trkpt lat="44.39126" lon="4.75702">
        <ele>116.7</ele>
        <time>2018-03-26T11:17:08Z</time>
      </trkpt>
      <trkpt lat="44.3913" lon="4.75715">
        <ele>117</ele>
        <time>2018-03-26T11:17:14Z</time>
      </trkpt>
      <trkpt lat="44.39136" lon="4.75725">
        <ele>117.5</ele>
        <time>2018-03-26T11:17:19Z</time>
      </trkpt>
      <trkpt lat="44.39142" lon="4.75735">
        <ele>118.3</ele>
        <time>2018-03-26T11:17:24Z</time>
      </trkpt>
      <trkpt lat="44.3915" lon="4.75742">
        <ele>118.6</ele>
        <time>2018-03-26T11:17:27Z</time>
      </trkpt>
      <trkpt lat="44.39156" lon="4.75755">
        <ele>119.6</ele>
        <time>2018-03-26T11:17:33Z</time>
      </trkpt>
      <trkpt lat="44.39162" lon="4.75768">
        <ele>120</ele>
        <time>2018-03-26T11:17:37Z</time>
      </trkpt>
      <trkpt lat="44.39169" lon="4.75781">
        <ele>120.2</ele>
        <time>2018-03-26T11:17:40Z</time>
      </trkpt>
      <trkpt lat="44.39177" lon="4.75793">
        <ele>120.1</ele>
        <time>2018-03-26T11:17:43Z</time>
      </trkpt>
      <trkpt lat="44.39182" lon="4.75806">
        <ele>119.8</ele>
        <time>2018-03-26T11:17:46Z</time>
      </trkpt>
      <trkpt lat="44.39188" lon="4.75817">
        <ele>119.5</ele>
        <time>2018-03-26T11:17:48Z</time>
      </trkpt>
      <trkpt lat="44.39196" lon="4.75827">
        <ele>119.2</ele>
        <time>2018-03-26T11:17:50Z</time>
      </trkpt>
      <trkpt lat="44.39205" lon="4.75835">
        <ele>118.8</ele>
        <time>2018-03-26T11:17:52Z</time>
      </trkpt>
      <trkpt lat="44.39212" lon="4.75847">
        <ele>118.2</ele>
        <time>2018-03-26T11:17:55Z</time>
      </trkpt>
      <trkpt lat="44.39215" lon="4.75864">
        <ele>117.9</ele>
        <time>2018-03-26T11:17:58Z</time>
      </trkpt>
      <trkpt lat="44.39216" lon="4.75877">
        <ele>117.3</ele>
        <time>2018-03-26T11:18:00Z</time>
      </trkpt>
      <trkpt lat="44.39219" lon="4.7589">
        <ele>116.9</ele>
        <time>2018-03-26T11:18:02Z</time>
      </trkpt>
      <trkpt lat="44.39221" lon="4.75908">
        <ele>116.8</ele>
        <time>2018-03-26T11:18:05Z</time>
      </trkpt>
      <trkpt lat="44.39222" lon="4.75928">
        <ele>115.7</ele>
        <time>2018-03-26T11:18:08Z</time>
      </trkpt>
      <trkpt lat="44.39223" lon="4.75942">
        <ele>115.3</ele>
        <time>2018-03-26T11:18:10Z</time>
      </trkpt>
      <trkpt lat="44.39223" lon="4.75957">
        <ele>114.9</ele>
        <time>2018-03-26T11:18:12Z</time>
      </trkpt>
      <trkpt lat="44.39221" lon="4.75974">
        <ele>114</ele>
        <time>2018-03-26T11:18:14Z</time>
      </trkpt>
      <trkpt lat="44.39218" lon="4.75994">
        <ele>113.1</ele>
        <time>2018-03-26T11:18:16Z</time>
      </trkpt>
      <trkpt lat="44.39215" lon="4.76014">
        <ele>112.3</ele>
        <time>2018-03-26T11:18:18Z</time>
      </trkpt>
      <trkpt lat="44.39213" lon="4.76032">
        <ele>110.8</ele>
        <time>2018-03-26T11:18:20Z</time>
      </trkpt>
      <trkpt lat="44.39206" lon="4.76044">
        <ele>109.6</ele>
        <time>2018-03-26T11:18:22Z</time>
      </trkpt>
      <trkpt lat="44.39195" lon="4.76039">
        <ele>108.8</ele>
        <time>2018-03-26T11:18:26Z</time>
      </trkpt>
      <trkpt lat="44.39184" lon="4.76038">
        <ele>108</ele>
        <time>2018-03-26T11:18:28Z</time>
      </trkpt>
      <trkpt lat="44.39171" lon="4.7604">
        <ele>107.2</ele>
        <time>2018-03-26T11:18:30Z</time>
      </trkpt>
      <trkpt lat="44.39161" lon="4.76034">
        <ele>106.7</ele>
        <time>2018-03-26T11:18:32Z</time>
      </trkpt>
      <trkpt lat="44.3915" lon="4.76029">
        <ele>106.1</ele>
        <time>2018-03-26T11:18:34Z</time>
      </trkpt>
      <trkpt lat="44.3914" lon="4.76033">
        <ele>105.6</ele>
        <time>2018-03-26T11:18:36Z</time>
      </trkpt>
      <trkpt lat="44.39132" lon="4.76047">
        <ele>105.1</ele>
        <time>2018-03-26T11:18:39Z</time>
      </trkpt>
      <trkpt lat="44.39128" lon="4.7606">
        <ele>105.4</ele>
        <time>2018-03-26T11:18:42Z</time>
      </trkpt>
      <trkpt lat="44.39124" lon="4.76073">
        <ele>105.6</ele>
        <time>2018-03-26T11:18:45Z</time>
      </trkpt>
      <trkpt lat="44.39122" lon="4.76089">
        <ele>105.6</ele>
        <time>2018-03-26T11:18:48Z</time>
      </trkpt>
      <trkpt lat="44.39117" lon="4.76099">
        <ele>105.5</ele>
        <time>2018-03-26T11:18:50Z</time>
      </trkpt>
      <trkpt lat="44.39111" lon="4.7611">
        <ele>105.6</ele>
        <time>2018-03-26T11:18:52Z</time>
      </trkpt>
      <trkpt lat="44.39103" lon="4.76119">
        <ele>105.7</ele>
        <time>2018-03-26T11:18:54Z</time>
      </trkpt>
      <trkpt lat="44.39093" lon="4.76128">
        <ele>105.4</ele>
        <time>2018-03-26T11:18:56Z</time>
      </trkpt>
      <trkpt lat="44.39084" lon="4.76138">
        <ele>105</ele>
        <time>2018-03-26T11:18:58Z</time>
      </trkpt>
      <trkpt lat="44.39076" lon="4.7615">
        <ele>104.3</ele>
        <time>2018-03-26T11:19:00Z</time>
      </trkpt>
      <trkpt lat="44.39069" lon="4.76161">
        <ele>103.7</ele>
        <time>2018-03-26T11:19:02Z</time>
      </trkpt>
      <trkpt lat="44.39066" lon="4.76175">
        <ele>103.2</ele>
        <time>2018-03-26T11:19:04Z</time>
      </trkpt>
      <trkpt lat="44.39069" lon="4.76191">
        <ele>102.4</ele>
        <time>2018-03-26T11:19:07Z</time>
      </trkpt>
      <trkpt lat="44.39073" lon="4.76204">
        <ele>102.3</ele>
        <time>2018-03-26T11:19:10Z</time>
      </trkpt>
      <trkpt lat="44.39077" lon="4.76216">
        <ele>102.9</ele>
        <time>2018-03-26T11:19:13Z</time>
      </trkpt>
      <trkpt lat="44.39082" lon="4.7623">
        <ele>104</ele>
        <time>2018-03-26T11:19:17Z</time>
      </trkpt>
      <trkpt lat="44.39084" lon="4.76243">
        <ele>104.8</ele>
        <time>2018-03-26T11:19:20Z</time>
      </trkpt>
      <trkpt lat="44.39085" lon="4.76255">
        <ele>105.2</ele>
        <time>2018-03-26T11:19:23Z</time>
      </trkpt>
      <trkpt lat="44.39085" lon="4.7627">
        <ele>105.8</ele>
        <time>2018-03-26T11:19:27Z</time>
      </trkpt>
      <trkpt lat="44.39088" lon="4.76286">
        <ele>106.3</ele>
        <time>2018-03-26T11:19:31Z</time>
      </trkpt>
      <trkpt lat="44.39093" lon="4.76297">
        <ele>106.6</ele>
        <time>2018-03-26T11:19:34Z</time>
      </trkpt>
      <trkpt lat="44.39099" lon="4.76309">
        <ele>106.9</ele>
        <time>2018-03-26T11:19:37Z</time>
      </trkpt>
      <trkpt lat="44.39105" lon="4.7632">
        <ele>107.3</ele>
        <time>2018-03-26T11:19:40Z</time>
      </trkpt>
      <trkpt lat="44.39111" lon="4.76332">
        <ele>107.7</ele>
        <time>2018-03-26T11:19:43Z</time>
      </trkpt>
      <trkpt lat="44.39115" lon="4.76344">
        <ele>108.2</ele>
        <time>2018-03-26T11:19:46Z</time>
      </trkpt>
      <trkpt lat="44.39121" lon="4.76358">
        <ele>108.8</ele>
        <time>2018-03-26T11:19:50Z</time>
      </trkpt>
      <trkpt lat="44.39127" lon="4.76368">
        <ele>109.1</ele>
        <time>2018-03-26T11:19:53Z</time>
      </trkpt>
      <trkpt lat="44.39132" lon="4.76381">
        <ele>109.5</ele>
        <time>2018-03-26T11:19:57Z</time>
      </trkpt>
      <trkpt lat="44.39136" lon="4.76396">
        <ele>110.2</ele>
        <time>2018-03-26T11:20:01Z</time>
      </trkpt>
      <trkpt lat="44.39136" lon="4.76412">
        <ele>110.6</ele>
        <time>2018-03-26T11:20:05Z</time>
      </trkpt>
      <trkpt lat="44.39136" lon="4.76426">
        <ele>111</ele>
        <time>2018-03-26T11:20:08Z</time>
      </trkpt>
      <trkpt lat="44.39137" lon="4.76441">
        <ele>111</ele>
        <time>2018-03-26T11:20:11Z</time>
      </trkpt>
      <trkpt lat="44.39137" lon="4.76456">
        <ele>110.9</ele>
        <time>2018-03-26T11:20:14Z</time>
      </trkpt>
      <trkpt lat="44.3914" lon="4.76471">
        <ele>110.5</ele>
        <time>2018-03-26T11:20:18Z</time>
      </trkpt>
      <trkpt lat="44.39151" lon="4.76474">
        <ele>110.6</ele>
        <time>2018-03-26T11:20:22Z</time>
      </trkpt>
      <trkpt lat="44.3916" lon="4.76477">
        <ele>110.8</ele>
        <time>2018-03-26T11:20:26Z</time>
      </trkpt>
      <trkpt lat="44.39171" lon="4.76476">
        <ele>111.9</ele>
        <time>2018-03-26T11:20:31Z</time>
      </trkpt>
      <trkpt lat="44.3918" lon="4.7647">
        <ele>113.4</ele>
        <time>2018-03-26T11:20:36Z</time>
      </trkpt>
      <trkpt lat="44.39188" lon="4.76463">
        <ele>114.8</ele>
        <time>2018-03-26T11:20:41Z</time>
      </trkpt>
      <trkpt lat="44.39196" lon="4.76454">
        <ele>116.7</ele>
        <time>2018-03-26T11:20:47Z</time>
      </trkpt>
      <trkpt lat="44.39206" lon="4.7645">
        <ele>119</ele>
        <time>2018-03-26T11:20:54Z</time>
      </trkpt>
      <trkpt lat="44.39216" lon="4.76453">
        <ele>120</ele>
        <time>2018-03-26T11:21:00Z</time>
      </trkpt>
      <trkpt lat="44.39226" lon="4.76455">
        <ele>120.5</ele>
        <time>2018-03-26T11:21:05Z</time>
      </trkpt>
      <trkpt lat="44.39232" lon="4.76465">
        <ele>121.4</ele>
        <time>2018-03-26T11:21:10Z</time>
      </trkpt>
      <trkpt lat="44.39236" lon="4.76477">
        <ele>121.9</ele>
        <time>2018-03-26T11:21:14Z</time>
      </trkpt>
      <trkpt lat="44.39241" lon="4.76488">
        <ele>122.1</ele>
        <time>2018-03-26T11:21:18Z</time>
      </trkpt>
      <trkpt lat="44.39246" lon="4.765">
        <ele>122.1</ele>
        <time>2018-03-26T11:21:22Z</time>
      </trkpt>
      <trkpt lat="44.39251" lon="4.76513">
        <ele>122.3</ele>
        <time>2018-03-26T11:21:26Z</time>
      </trkpt>
      <trkpt lat="44.39256" lon="4.76524">
        <ele>122.6</ele>
        <time>2018-03-26T11:21:30Z</time>
      </trkpt>
      <trkpt lat="44.39262" lon="4.76537">
        <ele>122.2</ele>
        <time>2018-03-26T11:21:34Z</time>
      </trkpt>
      <trkpt lat="44.39268" lon="4.76549">
        <ele>122.2</ele>
        <time>2018-03-26T11:21:38Z</time>
      </trkpt>
      <trkpt lat="44.39273" lon="4.76561">
        <ele>122.4</ele>
        <time>2018-03-26T11:21:42Z</time>
      </trkpt>
      <trkpt lat="44.39277" lon="4.76573">
        <ele>122.8</ele>
        <time>2018-03-26T11:21:46Z</time>
      </trkpt>
      <trkpt lat="44.39284" lon="4.76585">
        <ele>123.4</ele>
        <time>2018-03-26T11:21:50Z</time>
      </trkpt>
      <trkpt lat="44.39293" lon="4.76593">
        <ele>123.9</ele>
        <time>2018-03-26T11:21:54Z</time>
      </trkpt>
      <trkpt lat="44.39301" lon="4.766">
        <ele>124.3</ele>
        <time>2018-03-26T11:21:58Z</time>
      </trkpt>
      <trkpt lat="44.39309" lon="4.76607">
        <ele>125.1</ele>
        <time>2018-03-26T11:22:02Z</time>
      </trkpt>
      <trkpt lat="44.39317" lon="4.76612">
        <ele>125.8</ele>
        <time>2018-03-26T11:22:06Z</time>
      </trkpt>
      <trkpt lat="44.39326" lon="4.76615">
        <ele>127.3</ele>
        <time>2018-03-26T11:22:11Z</time>
      </trkpt>
      <trkpt lat="44.39335" lon="4.7662">
        <ele>128.6</ele>
        <time>2018-03-26T11:22:16Z</time>
      </trkpt>
      <trkpt lat="44.39343" lon="4.76626">
        <ele>129.6</ele>
        <time>2018-03-26T11:22:21Z</time>
      </trkpt>
      <trkpt lat="44.3935" lon="4.76635">
        <ele>131</ele>
        <time>2018-03-26T11:22:25Z</time>
      </trkpt>
      <trkpt lat="44.39357" lon="4.76643">
        <ele>132.2</ele>
        <time>2018-03-26T11:22:30Z</time>
      </trkpt>
      <trkpt lat="44.39365" lon="4.76651">
        <ele>133.7</ele>
        <time>2018-03-26T11:22:35Z</time>
      </trkpt>
      <trkpt lat="44.39373" lon="4.7666">
        <ele>135.4</ele>
        <time>2018-03-26T11:22:41Z</time>
      </trkpt>
      <trkpt lat="44.39381" lon="4.76669">
        <ele>138.5</ele>
        <time>2018-03-26T11:22:49Z</time>
      </trkpt>
      <trkpt lat="44.39384" lon="4.76683">
        <ele>140.8</ele>
        <time>2018-03-26T11:22:57Z</time>
      </trkpt>
      <trkpt lat="44.39385" lon="4.76696">
        <ele>141.5</ele>
        <time>2018-03-26T11:23:03Z</time>
      </trkpt>
      <trkpt lat="44.39384" lon="4.7671">
        <ele>141.9</ele>
        <time>2018-03-26T11:23:09Z</time>
      </trkpt>
      <trkpt lat="44.39387" lon="4.76724">
        <ele>142.5</ele>
        <time>2018-03-26T11:23:14Z</time>
      </trkpt>
      <trkpt lat="44.39389" lon="4.76737">
        <ele>143</ele>
        <time>2018-03-26T11:23:20Z</time>
      </trkpt>
      <trkpt lat="44.39394" lon="4.7675">
        <ele>144</ele>
        <time>2018-03-26T11:23:27Z</time>
      </trkpt>
      <trkpt lat="44.394" lon="4.76738">
        <ele>145.6</ele>
        <time>2018-03-26T11:23:34Z</time>
      </trkpt>
      <trkpt lat="44.39402" lon="4.76724">
        <ele>146.4</ele>
        <time>2018-03-26T11:23:39Z</time>
      </trkpt>
      <trkpt lat="44.39403" lon="4.7671">
        <ele>146.8</ele>
        <time>2018-03-26T11:23:44Z</time>
      </trkpt>
      <trkpt lat="44.39405" lon="4.76698">
        <ele>147.6</ele>
        <time>2018-03-26T11:23:48Z</time>
      </trkpt>
      <trkpt lat="44.39409" lon="4.76685">
        <ele>147.9</ele>
        <time>2018-03-26T11:23:52Z</time>
      </trkpt>
      <trkpt lat="44.39411" lon="4.76669">
        <ele>148.2</ele>
        <time>2018-03-26T11:23:56Z</time>
      </trkpt>
      <trkpt lat="44.39412" lon="4.76653">
        <ele>148.6</ele>
        <time>2018-03-26T11:24:00Z</time>
      </trkpt>
      <trkpt lat="44.39413" lon="4.76638">
        <ele>149</ele>
        <time>2018-03-26T11:24:04Z</time>
      </trkpt>
      <trkpt lat="44.39412" lon="4.76622">
        <ele>149.4</ele>
        <time>2018-03-26T11:24:08Z</time>
      </trkpt>
      <trkpt lat="44.39409" lon="4.76606">
        <ele>149.8</ele>
        <time>2018-03-26T11:24:12Z</time>
      </trkpt>
      <trkpt lat="44.39406" lon="4.76591">
        <ele>150.1</ele>
        <time>2018-03-26T11:24:16Z</time>
      </trkpt>
      <trkpt lat="44.39403" lon="4.76577">
        <ele>150.8</ele>
        <time>2018-03-26T11:24:20Z</time>
      </trkpt>
      <trkpt lat="44.39399" lon="4.76564">
        <ele>151.1</ele>
        <time>2018-03-26T11:24:24Z</time>
      </trkpt>
      <trkpt lat="44.39396" lon="4.76549">
        <ele>151.6</ele>
        <time>2018-03-26T11:24:28Z</time>
      </trkpt>
      <trkpt lat="44.39391" lon="4.76536">
        <ele>151.9</ele>
        <time>2018-03-26T11:24:32Z</time>
      </trkpt>
      <trkpt lat="44.39386" lon="4.76523">
        <ele>152.3</ele>
        <time>2018-03-26T11:24:36Z</time>
      </trkpt>
      <trkpt lat="44.3938" lon="4.76512">
        <ele>152.5</ele>
        <time>2018-03-26T11:24:40Z</time>
      </trkpt>
      <trkpt lat="44.39389" lon="4.76519">
        <ele>153.4</ele>
        <time>2018-03-26T11:24:47Z</time>
      </trkpt>
      <trkpt lat="44.39396" lon="4.76531">
        <ele>154.5</ele>
        <time>2018-03-26T11:24:52Z</time>
      </trkpt>
      <trkpt lat="44.39402" lon="4.76543">
        <ele>155.9</ele>
        <time>2018-03-26T11:24:57Z</time>
      </trkpt>
      <trkpt lat="44.39406" lon="4.76556">
        <ele>157.3</ele>
        <time>2018-03-26T11:25:03Z</time>
      </trkpt>
      <trkpt lat="44.39411" lon="4.76567">
        <ele>157.6</ele>
        <time>2018-03-26T11:25:07Z</time>
      </trkpt>
      <trkpt lat="44.39418" lon="4.76577">
        <ele>158.5</ele>
        <time>2018-03-26T11:25:11Z</time>
      </trkpt>
      <trkpt lat="44.39427" lon="4.76582">
        <ele>159.5</ele>
        <time>2018-03-26T11:25:16Z</time>
      </trkpt>
      <trkpt lat="44.39436" lon="4.76588">
        <ele>160.2</ele>
        <time>2018-03-26T11:25:20Z</time>
      </trkpt>
      <trkpt lat="44.39445" lon="4.76596">
        <ele>159.9</ele>
        <time>2018-03-26T11:25:24Z</time>
      </trkpt>
      <trkpt lat="44.3945" lon="4.76606">
        <ele>160.4</ele>
        <time>2018-03-26T11:25:27Z</time>
      </trkpt>
      <trkpt lat="44.39455" lon="4.76619">
        <ele>160.5</ele>
        <time>2018-03-26T11:25:30Z</time>
      </trkpt>
      <trkpt lat="44.39455" lon="4.76635">
        <ele>160.5</ele>
        <time>2018-03-26T11:25:33Z</time>
      </trkpt>
      <trkpt lat="44.39455" lon="4.76652">
        <ele>160.6</ele>
        <time>2018-03-26T11:25:36Z</time>
      </trkpt>
      <trkpt lat="44.39455" lon="4.76669">
        <ele>160.6</ele>
        <time>2018-03-26T11:25:39Z</time>
      </trkpt>
      <trkpt lat="44.39457" lon="4.76685">
        <ele>160.5</ele>
        <time>2018-03-26T11:25:42Z</time>
      </trkpt>
      <trkpt lat="44.39461" lon="4.76699">
        <ele>160.6</ele>
        <time>2018-03-26T11:25:45Z</time>
      </trkpt>
      <trkpt lat="44.39465" lon="4.76713">
        <ele>160.7</ele>
        <time>2018-03-26T11:25:48Z</time>
      </trkpt>
      <trkpt lat="44.3947" lon="4.76727">
        <ele>160.7</ele>
        <time>2018-03-26T11:25:51Z</time>
      </trkpt>
      <trkpt lat="44.39476" lon="4.76741">
        <ele>160.8</ele>
        <time>2018-03-26T11:25:54Z</time>
      </trkpt>
      <trkpt lat="44.39483" lon="4.76755">
        <ele>160.8</ele>
        <time>2018-03-26T11:25:57Z</time>
      </trkpt>
      <trkpt lat="44.39488" lon="4.7677">
        <ele>160.6</ele>
        <time>2018-03-26T11:26:00Z</time>
      </trkpt>
      <trkpt lat="44.39494" lon="4.76785">
        <ele>160.3</ele>
        <time>2018-03-26T11:26:03Z</time>
      </trkpt>
      <trkpt lat="44.39504" lon="4.76796">
        <ele>160.3</ele>
        <time>2018-03-26T11:26:06Z</time>
      </trkpt>
      <trkpt lat="44.39515" lon="4.76803">
        <ele>160.3</ele>
        <time>2018-03-26T11:26:09Z</time>
      </trkpt>
      <trkpt lat="44.39526" lon="4.76805">
        <ele>160.8</ele>
        <time>2018-03-26T11:26:12Z</time>
      </trkpt>
      <trkpt lat="44.39537" lon="4.76808">
        <ele>161</ele>
        <time>2018-03-26T11:26:15Z</time>
      </trkpt>
      <trkpt lat="44.39548" lon="4.7681">
        <ele>161.2</ele>
        <time>2018-03-26T11:26:18Z</time>
      </trkpt>
      <trkpt lat="44.39558" lon="4.76813">
        <ele>161.3</ele>
        <time>2018-03-26T11:26:21Z</time>
      </trkpt>
      <trkpt lat="44.39568" lon="4.76816">
        <ele>161.3</ele>
        <time>2018-03-26T11:26:24Z</time>
      </trkpt>
      <trkpt lat="44.39578" lon="4.76818">
        <ele>161.5</ele>
        <time>2018-03-26T11:26:27Z</time>
      </trkpt>
      <trkpt lat="44.39589" lon="4.7682">
        <ele>161.4</ele>
        <time>2018-03-26T11:26:30Z</time>
      </trkpt>
      <trkpt lat="44.39599" lon="4.76821">
        <ele>162</ele>
        <time>2018-03-26T11:26:33Z</time>
      </trkpt>
      <trkpt lat="44.39608" lon="4.76823">
        <ele>162.5</ele>
        <time>2018-03-26T11:26:36Z</time>
      </trkpt>
      <trkpt lat="44.39617" lon="4.76825">
        <ele>163.2</ele>
        <time>2018-03-26T11:26:39Z</time>
      </trkpt>
      <trkpt lat="44.39626" lon="4.76827">
        <ele>163.6</ele>
        <time>2018-03-26T11:26:42Z</time>
      </trkpt>
      <trkpt lat="44.39635" lon="4.7683">
        <ele>164</ele>
        <time>2018-03-26T11:26:45Z</time>
      </trkpt>
      <trkpt lat="44.39646" lon="4.76834">
        <ele>164.5</ele>
        <time>2018-03-26T11:26:49Z</time>
      </trkpt>
      <trkpt lat="44.39645" lon="4.76818">
        <ele>164.9</ele>
        <time>2018-03-26T11:26:57Z</time>
      </trkpt>
      <trkpt lat="44.39641" lon="4.76806">
        <ele>164.6</ele>
        <time>2018-03-26T11:27:00Z</time>
      </trkpt>
      <trkpt lat="44.3964" lon="4.76791">
        <ele>164.8</ele>
        <time>2018-03-26T11:27:04Z</time>
      </trkpt>
      <trkpt lat="44.39647" lon="4.76778">
        <ele>165</ele>
        <time>2018-03-26T11:27:08Z</time>
      </trkpt>
      <trkpt lat="44.39653" lon="4.76765">
        <ele>165.5</ele>
        <time>2018-03-26T11:27:12Z</time>
      </trkpt>
      <trkpt lat="44.3965" lon="4.7675">
        <ele>165.9</ele>
        <time>2018-03-26T11:27:16Z</time>
      </trkpt>
      <trkpt lat="44.39642" lon="4.76739">
        <ele>165.8</ele>
        <time>2018-03-26T11:27:19Z</time>
      </trkpt>
      <trkpt lat="44.39633" lon="4.76727">
        <ele>166</ele>
        <time>2018-03-26T11:27:22Z</time>
      </trkpt>
      <trkpt lat="44.39623" lon="4.76718">
        <ele>166.3</ele>
        <time>2018-03-26T11:27:25Z</time>
      </trkpt>
      <trkpt lat="44.39615" lon="4.76709">
        <ele>166.4</ele>
        <time>2018-03-26T11:27:28Z</time>
      </trkpt>
      <trkpt lat="44.39607" lon="4.76699">
        <ele>166.3</ele>
        <time>2018-03-26T11:27:31Z</time>
      </trkpt>
      <trkpt lat="44.39599" lon="4.76688">
        <ele>166.3</ele>
        <time>2018-03-26T11:27:34Z</time>
      </trkpt>
      <trkpt lat="44.39592" lon="4.76677">
        <ele>166.1</ele>
        <time>2018-03-26T11:27:37Z</time>
      </trkpt>
      <trkpt lat="44.39585" lon="4.76664">
        <ele>166.2</ele>
        <time>2018-03-26T11:27:40Z</time>
      </trkpt>
      <trkpt lat="44.39579" lon="4.7665">
        <ele>166</ele>
        <time>2018-03-26T11:27:43Z</time>
      </trkpt>
      <trkpt lat="44.39575" lon="4.76637">
        <ele>166.1</ele>
        <time>2018-03-26T11:27:46Z</time>
      </trkpt>
      <trkpt lat="44.39572" lon="4.76624">
        <ele>166.1</ele>
        <time>2018-03-26T11:27:49Z</time>
      </trkpt>
      <trkpt lat="44.39571" lon="4.7661">
        <ele>166.2</ele>
        <time>2018-03-26T11:27:52Z</time>
      </trkpt>
      <trkpt lat="44.39567" lon="4.76596">
        <ele>166.5</ele>
        <time>2018-03-26T11:27:55Z</time>
      </trkpt>
      <trkpt lat="44.39562" lon="4.76583">
        <ele>166.4</ele>
        <time>2018-03-26T11:27:58Z</time>
      </trkpt>
      <trkpt lat="44.39558" lon="4.76568">
        <ele>166</ele>
        <time>2018-03-26T11:28:01Z</time>
      </trkpt>
      <trkpt lat="44.39554" lon="4.76554">
        <ele>165.9</ele>
        <time>2018-03-26T11:28:04Z</time>
      </trkpt>
      <trkpt lat="44.3955" lon="4.7654">
        <ele>166</ele>
        <time>2018-03-26T11:28:08Z</time>
      </trkpt>
      <trkpt lat="44.39547" lon="4.76525">
        <ele>165.9</ele>
        <time>2018-03-26T11:28:12Z</time>
      </trkpt>
      <trkpt lat="44.39546" lon="4.7651">
        <ele>165.8</ele>
        <time>2018-03-26T11:28:16Z</time>
      </trkpt>
      <trkpt lat="44.39545" lon="4.76494">
        <ele>165.8</ele>
        <time>2018-03-26T11:28:20Z</time>
      </trkpt>
      <trkpt lat="44.39545" lon="4.76482">
        <ele>165.8</ele>
        <time>2018-03-26T11:28:23Z</time>
      </trkpt>
      <trkpt lat="44.39542" lon="4.76466">
        <ele>165.9</ele>
        <time>2018-03-26T11:28:27Z</time>
      </trkpt>
      <trkpt lat="44.3954" lon="4.76451">
        <ele>165.9</ele>
        <time>2018-03-26T11:28:31Z</time>
      </trkpt>
      <trkpt lat="44.39542" lon="4.76437">
        <ele>166.1</ele>
        <time>2018-03-26T11:28:37Z</time>
      </trkpt>
      <trkpt lat="44.3954" lon="4.76421">
        <ele>166.1</ele>
        <time>2018-03-26T11:28:41Z</time>
      </trkpt>
      <trkpt lat="44.39536" lon="4.76405">
        <ele>166.1</ele>
        <time>2018-03-26T11:28:44Z</time>
      </trkpt>
      <trkpt lat="44.39534" lon="4.76391">
        <ele>166.2</ele>
        <time>2018-03-26T11:28:47Z</time>
      </trkpt>
      <trkpt lat="44.39539" lon="4.7638">
        <ele>166.2</ele>
        <time>2018-03-26T11:28:50Z</time>
      </trkpt>
      <trkpt lat="44.39543" lon="4.76366">
        <ele>166.3</ele>
        <time>2018-03-26T11:28:53Z</time>
      </trkpt>
      <trkpt lat="44.39544" lon="4.76348">
        <ele>166.5</ele>
        <time>2018-03-26T11:28:56Z</time>
      </trkpt>
      <trkpt lat="44.39542" lon="4.76332">
        <ele>166.8</ele>
        <time>2018-03-26T11:28:59Z</time>
      </trkpt>
      <trkpt lat="44.39541" lon="4.76316">
        <ele>166.3</ele>
        <time>2018-03-26T11:29:04Z</time>
      </trkpt>
      <trkpt lat="44.39548" lon="4.76302">
        <ele>165.3</ele>
        <time>2018-03-26T11:29:08Z</time>
      </trkpt>
      <trkpt lat="44.39549" lon="4.76286">
        <ele>164.2</ele>
        <time>2018-03-26T11:29:11Z</time>
      </trkpt>
      <trkpt lat="44.39551" lon="4.76273">
        <ele>163.2</ele>
        <time>2018-03-26T11:29:14Z</time>
      </trkpt>
      <trkpt lat="44.39547" lon="4.76254">
        <ele>162.8</ele>
        <time>2018-03-26T11:29:17Z</time>
      </trkpt>
      <trkpt lat="44.3954" lon="4.76241">
        <ele>163</ele>
        <time>2018-03-26T11:29:20Z</time>
      </trkpt>
      <trkpt lat="44.39535" lon="4.76224">
        <ele>163.6</ele>
        <time>2018-03-26T11:29:24Z</time>
      </trkpt>
      <trkpt lat="44.3953" lon="4.76212">
        <ele>164.4</ele>
        <time>2018-03-26T11:29:27Z</time>
      </trkpt>
      <trkpt lat="44.39528" lon="4.76197">
        <ele>165.4</ele>
        <time>2018-03-26T11:29:31Z</time>
      </trkpt>
      <trkpt lat="44.39526" lon="4.76184">
        <ele>166.2</ele>
        <time>2018-03-26T11:29:34Z</time>
      </trkpt>
      <trkpt lat="44.39524" lon="4.76171">
        <ele>167</ele>
        <time>2018-03-26T11:29:37Z</time>
      </trkpt>
      <trkpt lat="44.39521" lon="4.76155">
        <ele>167.8</ele>
        <time>2018-03-26T11:29:41Z</time>
      </trkpt>
      <trkpt lat="44.39521" lon="4.76142">
        <ele>168.1</ele>
        <time>2018-03-26T11:29:44Z</time>
      </trkpt>
      <trkpt lat="44.39523" lon="4.76128">
        <ele>169</ele>
        <time>2018-03-26T11:29:48Z</time>
      </trkpt>
      <trkpt lat="44.39524" lon="4.76112">
        <ele>169.8</ele>
        <time>2018-03-26T11:29:52Z</time>
      </trkpt>
      <trkpt lat="44.39523" lon="4.76099">
        <ele>170.3</ele>
        <time>2018-03-26T11:29:55Z</time>
      </trkpt>
      <trkpt lat="44.39523" lon="4.76086">
        <ele>170.5</ele>
        <time>2018-03-26T11:29:58Z</time>
      </trkpt>
      <trkpt lat="44.39524" lon="4.76071">
        <ele>171.2</ele>
        <time>2018-03-26T11:30:02Z</time>
      </trkpt>
      <trkpt lat="44.39525" lon="4.76056">
        <ele>171.9</ele>
        <time>2018-03-26T11:30:06Z</time>
      </trkpt>
      <trkpt lat="44.39525" lon="4.76039">
        <ele>172.5</ele>
        <time>2018-03-26T11:30:10Z</time>
      </trkpt>
      <trkpt lat="44.39523" lon="4.76025">
        <ele>173</ele>
        <time>2018-03-26T11:30:13Z</time>
      </trkpt>
      <trkpt lat="44.39521" lon="4.76011">
        <ele>173.2</ele>
        <time>2018-03-26T11:30:16Z</time>
      </trkpt>
      <trkpt lat="44.39518" lon="4.75996">
        <ele>173.5</ele>
        <time>2018-03-26T11:30:19Z</time>
      </trkpt>
      <trkpt lat="44.39516" lon="4.7598">
        <ele>173.6</ele>
        <time>2018-03-26T11:30:22Z</time>
      </trkpt>
      <trkpt lat="44.39515" lon="4.75964">
        <ele>173.6</ele>
        <time>2018-03-26T11:30:25Z</time>
      </trkpt>
      <trkpt lat="44.39514" lon="4.75949">
        <ele>173.7</ele>
        <time>2018-03-26T11:30:28Z</time>
      </trkpt>
      <trkpt lat="44.39512" lon="4.75933">
        <ele>173.8</ele>
        <time>2018-03-26T11:30:31Z</time>
      </trkpt>
      <trkpt lat="44.39511" lon="4.75918">
        <ele>173.9</ele>
        <time>2018-03-26T11:30:34Z</time>
      </trkpt>
      <trkpt lat="44.39509" lon="4.75903">
        <ele>174</ele>
        <time>2018-03-26T11:30:37Z</time>
      </trkpt>
      <trkpt lat="44.39507" lon="4.75889">
        <ele>174.3</ele>
        <time>2018-03-26T11:30:40Z</time>
      </trkpt>
      <trkpt lat="44.39505" lon="4.75872">
        <ele>174.7</ele>
        <time>2018-03-26T11:30:43Z</time>
      </trkpt>
      <trkpt lat="44.39501" lon="4.75856">
        <ele>174.9</ele>
        <time>2018-03-26T11:30:46Z</time>
      </trkpt>
      <trkpt lat="44.39498" lon="4.7584">
        <ele>175.1</ele>
        <time>2018-03-26T11:30:49Z</time>
      </trkpt>
      <trkpt lat="44.39496" lon="4.75823">
        <ele>175</ele>
        <time>2018-03-26T11:30:52Z</time>
      </trkpt>
      <trkpt lat="44.39496" lon="4.75806">
        <ele>175</ele>
        <time>2018-03-26T11:30:55Z</time>
      </trkpt>
      <trkpt lat="44.39496" lon="4.75789">
        <ele>175</ele>
        <time>2018-03-26T11:30:58Z</time>
      </trkpt>
      <trkpt lat="44.39494" lon="4.75773">
        <ele>175.1</ele>
        <time>2018-03-26T11:31:01Z</time>
      </trkpt>
      <trkpt lat="44.39482" lon="4.75765">
        <ele>175.1</ele>
        <time>2018-03-26T11:31:04Z</time>
      </trkpt>
      <trkpt lat="44.39471" lon="4.7576">
        <ele>174.5</ele>
        <time>2018-03-26T11:31:06Z</time>
      </trkpt>
      <trkpt lat="44.39462" lon="4.75753">
        <ele>174.1</ele>
        <time>2018-03-26T11:31:08Z</time>
      </trkpt>
      <trkpt lat="44.39455" lon="4.75744">
        <ele>174.1</ele>
        <time>2018-03-26T11:31:10Z</time>
      </trkpt>
      <trkpt lat="44.39449" lon="4.75733">
        <ele>173.6</ele>
        <time>2018-03-26T11:31:12Z</time>
      </trkpt>
      <trkpt lat="44.39443" lon="4.75721">
        <ele>173.2</ele>
        <time>2018-03-26T11:31:14Z</time>
      </trkpt>
      <trkpt lat="44.39437" lon="4.7571">
        <ele>173</ele>
        <time>2018-03-26T11:31:16Z</time>
      </trkpt>
      <trkpt lat="44.3943" lon="4.75698">
        <ele>172.6</ele>
        <time>2018-03-26T11:31:18Z</time>
      </trkpt>
      <trkpt lat="44.39423" lon="4.75686">
        <ele>172.4</ele>
        <time>2018-03-26T11:31:20Z</time>
      </trkpt>
      <trkpt lat="44.39416" lon="4.75673">
        <ele>172.3</ele>
        <time>2018-03-26T11:31:22Z</time>
      </trkpt>
      <trkpt lat="44.39408" lon="4.75662">
        <ele>172.1</ele>
        <time>2018-03-26T11:31:24Z</time>
      </trkpt>
      <trkpt lat="44.39401" lon="4.75651">
        <ele>171.9</ele>
        <time>2018-03-26T11:31:26Z</time>
      </trkpt>
      <trkpt lat="44.39395" lon="4.75639">
        <ele>171.7</ele>
        <time>2018-03-26T11:31:28Z</time>
      </trkpt>
      <trkpt lat="44.39388" lon="4.75628">
        <ele>171.6</ele>
        <time>2018-03-26T11:31:30Z</time>
      </trkpt>
      <trkpt lat="44.39381" lon="4.75617">
        <ele>171.6</ele>
        <time>2018-03-26T11:31:32Z</time>
      </trkpt>
      <trkpt lat="44.39375" lon="4.75607">
        <ele>171.2</ele>
        <time>2018-03-26T11:31:34Z</time>
      </trkpt>
      <trkpt lat="44.39368" lon="4.75596">
        <ele>170.7</ele>
        <time>2018-03-26T11:31:36Z</time>
      </trkpt>
      <trkpt lat="44.3936" lon="4.75586">
        <ele>170.5</ele>
        <time>2018-03-26T11:31:38Z</time>
      </trkpt>
      <trkpt lat="44.39353" lon="4.75577">
        <ele>170.4</ele>
        <time>2018-03-26T11:31:40Z</time>
      </trkpt>
      <trkpt lat="44.39344" lon="4.75565">
        <ele>170</ele>
        <time>2018-03-26T11:31:43Z</time>
      </trkpt>
      <trkpt lat="44.39335" lon="4.75555">
        <ele>169.9</ele>
        <time>2018-03-26T11:31:46Z</time>
      </trkpt>
      <trkpt lat="44.39327" lon="4.75548">
        <ele>169.8</ele>
        <time>2018-03-26T11:31:48Z</time>
      </trkpt>
      <trkpt lat="44.39319" lon="4.75538">
        <ele>169.7</ele>
        <time>2018-03-26T11:31:50Z</time>
      </trkpt>
      <trkpt lat="44.39311" lon="4.75525">
        <ele>169.3</ele>
        <time>2018-03-26T11:31:52Z</time>
      </trkpt>
      <trkpt lat="44.39302" lon="4.75511">
        <ele>168.8</ele>
        <time>2018-03-26T11:31:54Z</time>
      </trkpt>
      <trkpt lat="44.39294" lon="4.755">
        <ele>168.4</ele>
        <time>2018-03-26T11:31:56Z</time>
      </trkpt>
      <trkpt lat="44.39287" lon="4.7549">
        <ele>168.1</ele>
        <time>2018-03-26T11:31:58Z</time>
      </trkpt>
      <trkpt lat="44.39281" lon="4.7548">
        <ele>168.1</ele>
        <time>2018-03-26T11:32:01Z</time>
      </trkpt>
      <trkpt lat="44.39283" lon="4.75467">
        <ele>168.3</ele>
        <time>2018-03-26T11:32:05Z</time>
      </trkpt>
      <trkpt lat="44.39292" lon="4.75461">
        <ele>169.8</ele>
        <time>2018-03-26T11:32:10Z</time>
      </trkpt>
      <trkpt lat="44.39301" lon="4.75453">
        <ele>172</ele>
        <time>2018-03-26T11:32:15Z</time>
      </trkpt>
      <trkpt lat="44.39309" lon="4.75447">
        <ele>174.4</ele>
        <time>2018-03-26T11:32:21Z</time>
      </trkpt>
      <trkpt lat="44.39319" lon="4.75441">
        <ele>175.5</ele>
        <time>2018-03-26T11:32:25Z</time>
      </trkpt>
      <trkpt lat="44.39328" lon="4.75432">
        <ele>176.3</ele>
        <time>2018-03-26T11:32:29Z</time>
      </trkpt>
      <trkpt lat="44.39335" lon="4.75422">
        <ele>177.3</ele>
        <time>2018-03-26T11:32:33Z</time>
      </trkpt>
      <trkpt lat="44.39341" lon="4.75411">
        <ele>177.9</ele>
        <time>2018-03-26T11:32:37Z</time>
      </trkpt>
      <trkpt lat="44.39347" lon="4.75399">
        <ele>178.2</ele>
        <time>2018-03-26T11:32:42Z</time>
      </trkpt>
      <trkpt lat="44.39347" lon="4.75399">
        <ele>178.3</ele>
        <time>2018-03-26T11:32:43Z</time>
      </trkpt>
      <trkpt lat="44.39348" lon="4.75394">
        <ele>178.5</ele>
        <time>2018-03-26T11:34:14Z</time>
      </trkpt>
      <trkpt lat="44.39349" lon="4.75381">
        <ele>179</ele>
        <time>2018-03-26T11:37:36Z</time>
      </trkpt>
      <trkpt lat="44.39348" lon="4.7537">
        <ele>178.6</ele>
        <time>2018-03-26T11:40:31Z</time>
      </trkpt>
      <trkpt lat="44.39346" lon="4.75356">
        <ele>177.3</ele>
        <time>2018-03-26T11:44:12Z</time>
      </trkpt>
      <trkpt lat="44.39344" lon="4.75348">
        <ele>176.4</ele>
        <time>2018-03-26T11:46:29Z</time>
      </trkpt>
      <trkpt lat="44.39343" lon="4.75345">
        <ele>176.1</ele>
        <time>2018-03-26T11:47:23Z</time>
      </trkpt>
      <trkpt lat="44.39343" lon="4.75345">
        <ele>177.8</ele>
        <time>2018-03-26T11:47:58Z</time>
      </trkpt>
      <trkpt lat="44.39339" lon="4.75333">
        <ele>178.1</ele>
        <time>2018-03-26T11:48:02Z</time>
      </trkpt>
      <trkpt lat="44.39333" lon="4.75319">
        <ele>178</ele>
        <time>2018-03-26T11:48:06Z</time>
      </trkpt>
      <trkpt lat="44.39328" lon="4.75306">
        <ele>177.5</ele>
        <time>2018-03-26T11:48:10Z</time>
      </trkpt>
      <trkpt lat="44.39322" lon="4.75292">
        <ele>177.1</ele>
        <time>2018-03-26T11:48:13Z</time>
      </trkpt>
      <trkpt lat="44.39315" lon="4.75284">
        <ele>177.2</ele>
        <time>2018-03-26T11:48:17Z</time>
      </trkpt>
      <trkpt lat="44.39304" lon="4.75281">
        <ele>178</ele>
        <time>2018-03-26T11:48:21Z</time>
      </trkpt>
      <trkpt lat="44.39298" lon="4.75269">
        <ele>178.4</ele>
        <time>2018-03-26T11:48:24Z</time>
      </trkpt>
      <trkpt lat="44.39297" lon="4.75254">
        <ele>178.2</ele>
        <time>2018-03-26T11:48:27Z</time>
      </trkpt>
      <trkpt lat="44.39291" lon="4.75242">
        <ele>177.6</ele>
        <time>2018-03-26T11:48:30Z</time>
      </trkpt>
      <trkpt lat="44.3928" lon="4.7524">
        <ele>176.7</ele>
        <time>2018-03-26T11:48:33Z</time>
      </trkpt>
      <trkpt lat="44.39271" lon="4.75248">
        <ele>176.2</ele>
        <time>2018-03-26T11:48:37Z</time>
      </trkpt>
      <trkpt lat="44.39269" lon="4.75262">
        <ele>176.2</ele>
        <time>2018-03-26T11:48:40Z</time>
      </trkpt>
      <trkpt lat="44.39267" lon="4.75275">
        <ele>176.3</ele>
        <time>2018-03-26T11:48:43Z</time>
      </trkpt>
      <trkpt lat="44.39266" lon="4.75287">
        <ele>176.4</ele>
        <time>2018-03-26T11:48:46Z</time>
      </trkpt>
      <trkpt lat="44.39267" lon="4.75301">
        <ele>176.6</ele>
        <time>2018-03-26T11:48:49Z</time>
      </trkpt>
      <trkpt lat="44.39268" lon="4.75317">
        <ele>176.2</ele>
        <time>2018-03-26T11:48:53Z</time>
      </trkpt>
      <trkpt lat="44.39279" lon="4.75322">
        <ele>176.1</ele>
        <time>2018-03-26T11:48:58Z</time>
      </trkpt>
      <trkpt lat="44.3929" lon="4.75321">
        <ele>176.1</ele>
        <time>2018-03-26T11:49:01Z</time>
      </trkpt>
      <trkpt lat="44.39299" lon="4.75315">
        <ele>176.3</ele>
        <time>2018-03-26T11:49:04Z</time>
      </trkpt>
      <trkpt lat="44.39307" lon="4.75307">
        <ele>176.4</ele>
        <time>2018-03-26T11:49:07Z</time>
      </trkpt>
      <trkpt lat="44.39316" lon="4.75295">
        <ele>176.7</ele>
        <time>2018-03-26T11:49:11Z</time>
      </trkpt>
      <trkpt lat="44.39325" lon="4.75286">
        <ele>177</ele>
        <time>2018-03-26T11:49:14Z</time>
      </trkpt>
      <trkpt lat="44.39337" lon="4.75282">
        <ele>176.8</ele>
        <time>2018-03-26T11:49:17Z</time>
      </trkpt>
      <trkpt lat="44.39347" lon="4.75278">
        <ele>176.6</ele>
        <time>2018-03-26T11:49:20Z</time>
      </trkpt>
      <trkpt lat="44.39357" lon="4.75278">
        <ele>176.5</ele>
        <time>2018-03-26T11:49:22Z</time>
      </trkpt>
      <trkpt lat="44.39368" lon="4.7528">
        <ele>175.7</ele>
        <time>2018-03-26T11:49:24Z</time>
      </trkpt>
      <trkpt lat="44.39377" lon="4.75282">
        <ele>175</ele>
        <time>2018-03-26T11:49:26Z</time>
      </trkpt>
      <trkpt lat="44.39391" lon="4.7529">
        <ele>173.5</ele>
        <time>2018-03-26T11:49:29Z</time>
      </trkpt>
      <trkpt lat="44.39403" lon="4.75297">
        <ele>172.7</ele>
        <time>2018-03-26T11:49:31Z</time>
      </trkpt>
      <trkpt lat="44.39414" lon="4.75308">
        <ele>171.8</ele>
        <time>2018-03-26T11:49:33Z</time>
      </trkpt>
      <trkpt lat="44.39424" lon="4.75318">
        <ele>170.8</ele>
        <time>2018-03-26T11:49:35Z</time>
      </trkpt>
      <trkpt lat="44.39434" lon="4.75326">
        <ele>170.8</ele>
        <time>2018-03-26T11:49:37Z</time>
      </trkpt>
      <trkpt lat="44.39445" lon="4.75333">
        <ele>170.5</ele>
        <time>2018-03-26T11:49:39Z</time>
      </trkpt>
      <trkpt lat="44.39456" lon="4.75338">
        <ele>170.5</ele>
        <time>2018-03-26T11:49:41Z</time>
      </trkpt>
      <trkpt lat="44.39466" lon="4.75344">
        <ele>170.3</ele>
        <time>2018-03-26T11:49:43Z</time>
      </trkpt>
      <trkpt lat="44.39476" lon="4.75348">
        <ele>170.2</ele>
        <time>2018-03-26T11:49:45Z</time>
      </trkpt>
      <trkpt lat="44.39486" lon="4.75352">
        <ele>170.2</ele>
        <time>2018-03-26T11:49:47Z</time>
      </trkpt>
      <trkpt lat="44.39497" lon="4.75356">
        <ele>170.2</ele>
        <time>2018-03-26T11:49:49Z</time>
      </trkpt>
      <trkpt lat="44.39507" lon="4.75361">
        <ele>170.2</ele>
        <time>2018-03-26T11:49:51Z</time>
      </trkpt>
      <trkpt lat="44.39517" lon="4.75367">
        <ele>170.2</ele>
        <time>2018-03-26T11:49:53Z</time>
      </trkpt>
      <trkpt lat="44.39525" lon="4.75373">
        <ele>170.4</ele>
        <time>2018-03-26T11:49:55Z</time>
      </trkpt>
      <trkpt lat="44.39535" lon="4.75382">
        <ele>171.1</ele>
        <time>2018-03-26T11:49:58Z</time>
      </trkpt>
      <trkpt lat="44.39543" lon="4.7539">
        <ele>171.5</ele>
        <time>2018-03-26T11:50:01Z</time>
      </trkpt>
      <trkpt lat="44.39553" lon="4.75397">
        <ele>172.6</ele>
        <time>2018-03-26T11:50:04Z</time>
      </trkpt>
      <trkpt lat="44.39563" lon="4.75403">
        <ele>173.4</ele>
        <time>2018-03-26T11:50:07Z</time>
      </trkpt>
      <trkpt lat="44.39574" lon="4.75408">
        <ele>174.3</ele>
        <time>2018-03-26T11:50:10Z</time>
      </trkpt>
      <trkpt lat="44.39585" lon="4.75411">
        <ele>174.9</ele>
        <time>2018-03-26T11:50:13Z</time>
      </trkpt>
      <trkpt lat="44.39596" lon="4.75412">
        <ele>175.4</ele>
        <time>2018-03-26T11:50:16Z</time>
      </trkpt>
      <trkpt lat="44.39606" lon="4.75417">
        <ele>175.9</ele>
        <time>2018-03-26T11:50:19Z</time>
      </trkpt>
      <trkpt lat="44.39616" lon="4.75424">
        <ele>176.2</ele>
        <time>2018-03-26T11:50:22Z</time>
      </trkpt>
      <trkpt lat="44.39625" lon="4.75431">
        <ele>176.6</ele>
        <time>2018-03-26T11:50:25Z</time>
      </trkpt>
      <trkpt lat="44.39634" lon="4.75438">
        <ele>177.1</ele>
        <time>2018-03-26T11:50:28Z</time>
      </trkpt>
      <trkpt lat="44.39643" lon="4.75444">
        <ele>177.7</ele>
        <time>2018-03-26T11:50:31Z</time>
      </trkpt>
      <trkpt lat="44.39652" lon="4.75449">
        <ele>178.4</ele>
        <time>2018-03-26T11:50:34Z</time>
      </trkpt>
      <trkpt lat="44.3966" lon="4.75458">
        <ele>179.1</ele>
        <time>2018-03-26T11:50:37Z</time>
      </trkpt>
      <trkpt lat="44.39668" lon="4.75466">
        <ele>179.5</ele>
        <time>2018-03-26T11:50:40Z</time>
      </trkpt>
      <trkpt lat="44.39677" lon="4.75472">
        <ele>180</ele>
        <time>2018-03-26T11:50:43Z</time>
      </trkpt>
      <trkpt lat="44.39688" lon="4.75479">
        <ele>180.9</ele>
        <time>2018-03-26T11:50:47Z</time>
      </trkpt>
      <trkpt lat="44.39697" lon="4.75483">
        <ele>181.4</ele>
        <time>2018-03-26T11:50:50Z</time>
      </trkpt>
      <trkpt lat="44.39708" lon="4.75488">
        <ele>181.4</ele>
        <time>2018-03-26T11:50:53Z</time>
      </trkpt>
      <trkpt lat="44.3972" lon="4.75493">
        <ele>181.1</ele>
        <time>2018-03-26T11:50:56Z</time>
      </trkpt>
      <trkpt lat="44.39731" lon="4.75495">
        <ele>180.5</ele>
        <time>2018-03-26T11:50:59Z</time>
      </trkpt>
      <trkpt lat="44.3974" lon="4.75499">
        <ele>180</ele>
        <time>2018-03-26T11:51:01Z</time>
      </trkpt>
      <trkpt lat="44.39752" lon="4.75498">
        <ele>179.7</ele>
        <time>2018-03-26T11:51:03Z</time>
      </trkpt>
      <trkpt lat="44.39763" lon="4.75493">
        <ele>179.3</ele>
        <time>2018-03-26T11:51:05Z</time>
      </trkpt>
      <trkpt lat="44.39775" lon="4.75489">
        <ele>178.8</ele>
        <time>2018-03-26T11:51:07Z</time>
      </trkpt>
      <trkpt lat="44.39788" lon="4.75489">
        <ele>178.3</ele>
        <time>2018-03-26T11:51:09Z</time>
      </trkpt>
      <trkpt lat="44.398" lon="4.75489">
        <ele>177.6</ele>
        <time>2018-03-26T11:51:11Z</time>
      </trkpt>
      <trkpt lat="44.39811" lon="4.7549">
        <ele>177</ele>
        <time>2018-03-26T11:51:13Z</time>
      </trkpt>
      <trkpt lat="44.39822" lon="4.75493">
        <ele>176.5</ele>
        <time>2018-03-26T11:51:15Z</time>
      </trkpt>
      <trkpt lat="44.39835" lon="4.75496">
        <ele>176</ele>
        <time>2018-03-26T11:51:17Z</time>
      </trkpt>
      <trkpt lat="44.39848" lon="4.75496">
        <ele>175.7</ele>
        <time>2018-03-26T11:51:19Z</time>
      </trkpt>
      <trkpt lat="44.39861" lon="4.75498">
        <ele>175.2</ele>
        <time>2018-03-26T11:51:21Z</time>
      </trkpt>
      <trkpt lat="44.39872" lon="4.75504">
        <ele>174.7</ele>
        <time>2018-03-26T11:51:23Z</time>
      </trkpt>
      <trkpt lat="44.39884" lon="4.75512">
        <ele>174.5</ele>
        <time>2018-03-26T11:51:25Z</time>
      </trkpt>
      <trkpt lat="44.39897" lon="4.75516">
        <ele>174.3</ele>
        <time>2018-03-26T11:51:27Z</time>
      </trkpt>
      <trkpt lat="44.39909" lon="4.75521">
        <ele>174</ele>
        <time>2018-03-26T11:51:29Z</time>
      </trkpt>
      <trkpt lat="44.39922" lon="4.75525">
        <ele>173.5</ele>
        <time>2018-03-26T11:51:31Z</time>
      </trkpt>
      <trkpt lat="44.39934" lon="4.75534">
        <ele>173.2</ele>
        <time>2018-03-26T11:51:33Z</time>
      </trkpt>
      <trkpt lat="44.39944" lon="4.75543">
        <ele>172.8</ele>
        <time>2018-03-26T11:51:35Z</time>
      </trkpt>
      <trkpt lat="44.39955" lon="4.75551">
        <ele>172.3</ele>
        <time>2018-03-26T11:51:37Z</time>
      </trkpt>
      <trkpt lat="44.39967" lon="4.75558">
        <ele>172.1</ele>
        <time>2018-03-26T11:51:39Z</time>
      </trkpt>
      <trkpt lat="44.39977" lon="4.75565">
        <ele>171.9</ele>
        <time>2018-03-26T11:51:41Z</time>
      </trkpt>
      <trkpt lat="44.39986" lon="4.75573">
        <ele>172</ele>
        <time>2018-03-26T11:51:43Z</time>
      </trkpt>
      <trkpt lat="44.39994" lon="4.7558">
        <ele>172.1</ele>
        <time>2018-03-26T11:51:45Z</time>
      </trkpt>
      <trkpt lat="44.40002" lon="4.75588">
        <ele>172.3</ele>
        <time>2018-03-26T11:51:47Z</time>
      </trkpt>
      <trkpt lat="44.40009" lon="4.75597">
        <ele>172.4</ele>
        <time>2018-03-26T11:51:49Z</time>
      </trkpt>
      <trkpt lat="44.40017" lon="4.7561">
        <ele>172.7</ele>
        <time>2018-03-26T11:51:52Z</time>
      </trkpt>
      <trkpt lat="44.40025" lon="4.7562">
        <ele>172.6</ele>
        <time>2018-03-26T11:51:54Z</time>
      </trkpt>
      <trkpt lat="44.40035" lon="4.7563">
        <ele>172.7</ele>
        <time>2018-03-26T11:51:57Z</time>
      </trkpt>
      <trkpt lat="44.40044" lon="4.75638">
        <ele>172.9</ele>
        <time>2018-03-26T11:51:59Z</time>
      </trkpt>
      <trkpt lat="44.40054" lon="4.75646">
        <ele>173.4</ele>
        <time>2018-03-26T11:52:01Z</time>
      </trkpt>
      <trkpt lat="44.40061" lon="4.75653">
        <ele>173.9</ele>
        <time>2018-03-26T11:52:03Z</time>
      </trkpt>
      <trkpt lat="44.40071" lon="4.75662">
        <ele>174.1</ele>
        <time>2018-03-26T11:52:05Z</time>
      </trkpt>
      <trkpt lat="44.40082" lon="4.75669">
        <ele>173.7</ele>
        <time>2018-03-26T11:52:07Z</time>
      </trkpt>
      <trkpt lat="44.40093" lon="4.75677">
        <ele>173.7</ele>
        <time>2018-03-26T11:52:09Z</time>
      </trkpt>
      <trkpt lat="44.40102" lon="4.75686">
        <ele>173.6</ele>
        <time>2018-03-26T11:52:11Z</time>
      </trkpt>
      <trkpt lat="44.40111" lon="4.75695">
        <ele>173.6</ele>
        <time>2018-03-26T11:52:13Z</time>
      </trkpt>
      <trkpt lat="44.4012" lon="4.75699">
        <ele>173.7</ele>
        <time>2018-03-26T11:52:15Z</time>
      </trkpt>
      <trkpt lat="44.40129" lon="4.75704">
        <ele>173.8</ele>
        <time>2018-03-26T11:52:17Z</time>
      </trkpt>
      <trkpt lat="44.40137" lon="4.75712">
        <ele>174</ele>
        <time>2018-03-26T11:52:19Z</time>
      </trkpt>
      <trkpt lat="44.40145" lon="4.7572">
        <ele>174</ele>
        <time>2018-03-26T11:52:21Z</time>
      </trkpt>
      <trkpt lat="44.40155" lon="4.75731">
        <ele>174.6</ele>
        <time>2018-03-26T11:52:24Z</time>
      </trkpt>
      <trkpt lat="44.40163" lon="4.75744">
        <ele>175.2</ele>
        <time>2018-03-26T11:52:27Z</time>
      </trkpt>
      <trkpt lat="44.40172" lon="4.75757">
        <ele>176</ele>
        <time>2018-03-26T11:52:30Z</time>
      </trkpt>
      <trkpt lat="44.4018" lon="4.7577">
        <ele>176.6</ele>
        <time>2018-03-26T11:52:33Z</time>
      </trkpt>
      <trkpt lat="44.40186" lon="4.75782">
        <ele>177</ele>
        <time>2018-03-26T11:52:36Z</time>
      </trkpt>
      <trkpt lat="44.40194" lon="4.75794">
        <ele>177.7</ele>
        <time>2018-03-26T11:52:39Z</time>
      </trkpt>
      <trkpt lat="44.402" lon="4.75806">
        <ele>178.4</ele>
        <time>2018-03-26T11:52:42Z</time>
      </trkpt>
      <trkpt lat="44.40207" lon="4.75817">
        <ele>179.1</ele>
        <time>2018-03-26T11:52:45Z</time>
      </trkpt>
      <trkpt lat="44.40215" lon="4.75828">
        <ele>179.7</ele>
        <time>2018-03-26T11:52:48Z</time>
      </trkpt>
      <trkpt lat="44.40223" lon="4.75838">
        <ele>180.1</ele>
        <time>2018-03-26T11:52:51Z</time>
      </trkpt>
      <trkpt lat="44.40231" lon="4.75848">
        <ele>180.7</ele>
        <time>2018-03-26T11:52:54Z</time>
      </trkpt>
      <trkpt lat="44.4024" lon="4.75858">
        <ele>181.1</ele>
        <time>2018-03-26T11:52:57Z</time>
      </trkpt>
      <trkpt lat="44.4025" lon="4.75866">
        <ele>181.8</ele>
        <time>2018-03-26T11:53:00Z</time>
      </trkpt>
      <trkpt lat="44.40259" lon="4.75873">
        <ele>182.4</ele>
        <time>2018-03-26T11:53:03Z</time>
      </trkpt>
      <trkpt lat="44.40268" lon="4.75877">
        <ele>182.9</ele>
        <time>2018-03-26T11:53:06Z</time>
      </trkpt>
      <trkpt lat="44.40278" lon="4.75883">
        <ele>183.7</ele>
        <time>2018-03-26T11:53:09Z</time>
      </trkpt>
      <trkpt lat="44.40287" lon="4.75889">
        <ele>184.2</ele>
        <time>2018-03-26T11:53:12Z</time>
      </trkpt>
      <trkpt lat="44.40298" lon="4.75898">
        <ele>184.6</ele>
        <time>2018-03-26T11:53:15Z</time>
      </trkpt>
      <trkpt lat="44.40305" lon="4.75909">
        <ele>184.6</ele>
        <time>2018-03-26T11:53:17Z</time>
      </trkpt>
      <trkpt lat="44.40314" lon="4.75921">
        <ele>184.3</ele>
        <time>2018-03-26T11:53:19Z</time>
      </trkpt>
      <trkpt lat="44.40324" lon="4.75932">
        <ele>183.8</ele>
        <time>2018-03-26T11:53:21Z</time>
      </trkpt>
      <trkpt lat="44.40334" lon="4.75942">
        <ele>183.2</ele>
        <time>2018-03-26T11:53:23Z</time>
      </trkpt>
      <trkpt lat="44.40344" lon="4.75953">
        <ele>182.5</ele>
        <time>2018-03-26T11:53:25Z</time>
      </trkpt>
      <trkpt lat="44.40352" lon="4.75966">
        <ele>182.2</ele>
        <time>2018-03-26T11:53:27Z</time>
      </trkpt>
      <trkpt lat="44.40358" lon="4.7598">
        <ele>182.2</ele>
        <time>2018-03-26T11:53:29Z</time>
      </trkpt>
      <trkpt lat="44.40365" lon="4.75995">
        <ele>182</ele>
        <time>2018-03-26T11:53:31Z</time>
      </trkpt>
      <trkpt lat="44.40371" lon="4.76011">
        <ele>181.7</ele>
        <time>2018-03-26T11:53:33Z</time>
      </trkpt>
      <trkpt lat="44.40377" lon="4.76027">
        <ele>181.4</ele>
        <time>2018-03-26T11:53:35Z</time>
      </trkpt>
      <trkpt lat="44.40381" lon="4.76044">
        <ele>180.8</ele>
        <time>2018-03-26T11:53:37Z</time>
      </trkpt>
      <trkpt lat="44.40384" lon="4.7606">
        <ele>180.3</ele>
        <time>2018-03-26T11:53:39Z</time>
      </trkpt>
      <trkpt lat="44.40386" lon="4.76076">
        <ele>180</ele>
        <time>2018-03-26T11:53:41Z</time>
      </trkpt>
      <trkpt lat="44.40389" lon="4.76092">
        <ele>179.6</ele>
        <time>2018-03-26T11:53:43Z</time>
      </trkpt>
      <trkpt lat="44.40392" lon="4.76107">
        <ele>179.3</ele>
        <time>2018-03-26T11:53:45Z</time>
      </trkpt>
      <trkpt lat="44.40397" lon="4.76121">
        <ele>179</ele>
        <time>2018-03-26T11:53:47Z</time>
      </trkpt>
      <trkpt lat="44.40403" lon="4.76135">
        <ele>178.8</ele>
        <time>2018-03-26T11:53:49Z</time>
      </trkpt>
      <trkpt lat="44.40409" lon="4.7615">
        <ele>178.4</ele>
        <time>2018-03-26T11:53:51Z</time>
      </trkpt>
      <trkpt lat="44.40415" lon="4.76166">
        <ele>177.9</ele>
        <time>2018-03-26T11:53:53Z</time>
      </trkpt>
      <trkpt lat="44.40419" lon="4.76182">
        <ele>177.3</ele>
        <time>2018-03-26T11:53:55Z</time>
      </trkpt>
      <trkpt lat="44.40423" lon="4.76199">
        <ele>176.9</ele>
        <time>2018-03-26T11:53:57Z</time>
      </trkpt>
      <trkpt lat="44.40427" lon="4.76217">
        <ele>176.4</ele>
        <time>2018-03-26T11:53:59Z</time>
      </trkpt>
      <trkpt lat="44.4043" lon="4.76234">
        <ele>176.1</ele>
        <time>2018-03-26T11:54:01Z</time>
      </trkpt>
      <trkpt lat="44.40432" lon="4.76251">
        <ele>176.1</ele>
        <time>2018-03-26T11:54:03Z</time>
      </trkpt>
      <trkpt lat="44.40433" lon="4.76269">
        <ele>176.1</ele>
        <time>2018-03-26T11:54:05Z</time>
      </trkpt>
      <trkpt lat="44.40433" lon="4.76286">
        <ele>176</ele>
        <time>2018-03-26T11:54:07Z</time>
      </trkpt>
      <trkpt lat="44.40434" lon="4.76303">
        <ele>175.9</ele>
        <time>2018-03-26T11:54:09Z</time>
      </trkpt>
      <trkpt lat="44.40438" lon="4.7632">
        <ele>175.7</ele>
        <time>2018-03-26T11:54:11Z</time>
      </trkpt>
      <trkpt lat="44.40445" lon="4.76336">
        <ele>175.3</ele>
        <time>2018-03-26T11:54:13Z</time>
      </trkpt>
      <trkpt lat="44.40452" lon="4.76351">
        <ele>174.9</ele>
        <time>2018-03-26T11:54:15Z</time>
      </trkpt>
      <trkpt lat="44.40457" lon="4.76367">
        <ele>174.7</ele>
        <time>2018-03-26T11:54:17Z</time>
      </trkpt>
      <trkpt lat="44.40463" lon="4.76383">
        <ele>174.3</ele>
        <time>2018-03-26T11:54:19Z</time>
      </trkpt>
      <trkpt lat="44.40469" lon="4.76397">
        <ele>173.9</ele>
        <time>2018-03-26T11:54:21Z</time>
      </trkpt>
      <trkpt lat="44.40474" lon="4.76411">
        <ele>173.7</ele>
        <time>2018-03-26T11:54:23Z</time>
      </trkpt>
      <trkpt lat="44.40477" lon="4.76427">
        <ele>173.3</ele>
        <time>2018-03-26T11:54:25Z</time>
      </trkpt>
      <trkpt lat="44.40481" lon="4.76444">
        <ele>173</ele>
        <time>2018-03-26T11:54:27Z</time>
      </trkpt>
      <trkpt lat="44.40484" lon="4.76461">
        <ele>172.6</ele>
        <time>2018-03-26T11:54:29Z</time>
      </trkpt>
      <trkpt lat="44.40493" lon="4.76475">
        <ele>172.6</ele>
        <time>2018-03-26T11:54:31Z</time>
      </trkpt>
      <trkpt lat="44.40502" lon="4.76484">
        <ele>172.3</ele>
        <time>2018-03-26T11:54:33Z</time>
      </trkpt>
      <trkpt lat="44.40514" lon="4.76494">
        <ele>171.9</ele>
        <time>2018-03-26T11:54:35Z</time>
      </trkpt>
      <trkpt lat="44.40527" lon="4.76501">
        <ele>171.8</ele>
        <time>2018-03-26T11:54:37Z</time>
      </trkpt>
      <trkpt lat="44.4054" lon="4.76502">
        <ele>171.9</ele>
        <time>2018-03-26T11:54:39Z</time>
      </trkpt>
      <trkpt lat="44.40552" lon="4.76507">
        <ele>171.7</ele>
        <time>2018-03-26T11:54:41Z</time>
      </trkpt>
      <trkpt lat="44.40561" lon="4.76521">
        <ele>171.5</ele>
        <time>2018-03-26T11:54:43Z</time>
      </trkpt>
      <trkpt lat="44.40569" lon="4.76536">
        <ele>171.2</ele>
        <time>2018-03-26T11:54:45Z</time>
      </trkpt>
      <trkpt lat="44.40575" lon="4.76552">
        <ele>170.9</ele>
        <time>2018-03-26T11:54:47Z</time>
      </trkpt>
      <trkpt lat="44.40576" lon="4.76568">
        <ele>170.6</ele>
        <time>2018-03-26T11:54:49Z</time>
      </trkpt>
      <trkpt lat="44.40573" lon="4.76584">
        <ele>170.4</ele>
        <time>2018-03-26T11:54:51Z</time>
      </trkpt>
      <trkpt lat="44.40567" lon="4.76598">
        <ele>170.3</ele>
        <time>2018-03-26T11:54:53Z</time>
      </trkpt>
      <trkpt lat="44.40559" lon="4.7661">
        <ele>170.2</ele>
        <time>2018-03-26T11:54:55Z</time>
      </trkpt>
      <trkpt lat="44.40554" lon="4.76623">
        <ele>170.1</ele>
        <time>2018-03-26T11:54:57Z</time>
      </trkpt>
      <trkpt lat="44.40553" lon="4.76637">
        <ele>170.1</ele>
        <time>2018-03-26T11:54:59Z</time>
      </trkpt>
      <trkpt lat="44.40557" lon="4.76651">
        <ele>169.9</ele>
        <time>2018-03-26T11:55:01Z</time>
      </trkpt>
      <trkpt lat="44.40557" lon="4.76668">
        <ele>170</ele>
        <time>2018-03-26T11:55:03Z</time>
      </trkpt>
      <trkpt lat="44.40555" lon="4.76684">
        <ele>169.8</ele>
        <time>2018-03-26T11:55:05Z</time>
      </trkpt>
      <trkpt lat="44.40553" lon="4.76701">
        <ele>169.5</ele>
        <time>2018-03-26T11:55:07Z</time>
      </trkpt>
      <trkpt lat="44.4055" lon="4.76717">
        <ele>169.1</ele>
        <time>2018-03-26T11:55:09Z</time>
      </trkpt>
      <trkpt lat="44.40548" lon="4.76732">
        <ele>169</ele>
        <time>2018-03-26T11:55:11Z</time>
      </trkpt>
      <trkpt lat="44.40545" lon="4.76748">
        <ele>169</ele>
        <time>2018-03-26T11:55:13Z</time>
      </trkpt>
      <trkpt lat="44.40543" lon="4.76763">
        <ele>169.2</ele>
        <time>2018-03-26T11:55:15Z</time>
      </trkpt>
      <trkpt lat="44.4054" lon="4.76777">
        <ele>169.2</ele>
        <time>2018-03-26T11:55:17Z</time>
      </trkpt>
      <trkpt lat="44.40539" lon="4.76791">
        <ele>169.4</ele>
        <time>2018-03-26T11:55:19Z</time>
      </trkpt>
      <trkpt lat="44.40536" lon="4.76805">
        <ele>169.6</ele>
        <time>2018-03-26T11:55:21Z</time>
      </trkpt>
      <trkpt lat="44.40531" lon="4.76818">
        <ele>169.9</ele>
        <time>2018-03-26T11:55:23Z</time>
      </trkpt>
      <trkpt lat="44.40525" lon="4.7683">
        <ele>170.2</ele>
        <time>2018-03-26T11:55:25Z</time>
      </trkpt>
      <trkpt lat="44.4052" lon="4.76844">
        <ele>170.2</ele>
        <time>2018-03-26T11:55:27Z</time>
      </trkpt>
      <trkpt lat="44.40516" lon="4.76858">
        <ele>170.3</ele>
        <time>2018-03-26T11:55:29Z</time>
      </trkpt>
      <trkpt lat="44.40511" lon="4.76869">
        <ele>170.3</ele>
        <time>2018-03-26T11:55:31Z</time>
      </trkpt>
      <trkpt lat="44.40505" lon="4.76881">
        <ele>170.4</ele>
        <time>2018-03-26T11:55:33Z</time>
      </trkpt>
      <trkpt lat="44.40498" lon="4.76891">
        <ele>170.3</ele>
        <time>2018-03-26T11:55:35Z</time>
      </trkpt>
      <trkpt lat="44.4049" lon="4.769">
        <ele>170.2</ele>
        <time>2018-03-26T11:55:37Z</time>
      </trkpt>
      <trkpt lat="44.40483" lon="4.76911">
        <ele>170.1</ele>
        <time>2018-03-26T11:55:39Z</time>
      </trkpt>
      <trkpt lat="44.40477" lon="4.76922">
        <ele>170</ele>
        <time>2018-03-26T11:55:41Z</time>
      </trkpt>
      <trkpt lat="44.40473" lon="4.76934">
        <ele>170</ele>
        <time>2018-03-26T11:55:43Z</time>
      </trkpt>
      <trkpt lat="44.4047" lon="4.76948">
        <ele>169.9</ele>
        <time>2018-03-26T11:55:45Z</time>
      </trkpt>
      <trkpt lat="44.40467" lon="4.76962">
        <ele>170.2</ele>
        <time>2018-03-26T11:55:47Z</time>
      </trkpt>
      <trkpt lat="44.40466" lon="4.76976">
        <ele>170.2</ele>
        <time>2018-03-26T11:55:49Z</time>
      </trkpt>
      <trkpt lat="44.40467" lon="4.76991">
        <ele>170.3</ele>
        <time>2018-03-26T11:55:51Z</time>
      </trkpt>
      <trkpt lat="44.40466" lon="4.77003">
        <ele>170.7</ele>
        <time>2018-03-26T11:55:53Z</time>
      </trkpt>
      <trkpt lat="44.40466" lon="4.77022">
        <ele>170.9</ele>
        <time>2018-03-26T11:55:56Z</time>
      </trkpt>
      <trkpt lat="44.40465" lon="4.7704">
        <ele>171.2</ele>
        <time>2018-03-26T11:55:59Z</time>
      </trkpt>
      <trkpt lat="44.40463" lon="4.77057">
        <ele>171.5</ele>
        <time>2018-03-26T11:56:02Z</time>
      </trkpt>
      <trkpt lat="44.40463" lon="4.77073">
        <ele>171.6</ele>
        <time>2018-03-26T11:56:05Z</time>
      </trkpt>
      <trkpt lat="44.40462" lon="4.77088">
        <ele>171.6</ele>
        <time>2018-03-26T11:56:08Z</time>
      </trkpt>
      <trkpt lat="44.40468" lon="4.771">
        <ele>172.1</ele>
        <time>2018-03-26T11:56:12Z</time>
      </trkpt>
      <trkpt lat="44.40479" lon="4.77106">
        <ele>172</ele>
        <time>2018-03-26T11:56:15Z</time>
      </trkpt>
      <trkpt lat="44.40491" lon="4.77113">
        <ele>171.9</ele>
        <time>2018-03-26T11:56:18Z</time>
      </trkpt>
      <trkpt lat="44.40503" lon="4.7712">
        <ele>171.7</ele>
        <time>2018-03-26T11:56:21Z</time>
      </trkpt>
      <trkpt lat="44.40514" lon="4.7713">
        <ele>171.1</ele>
        <time>2018-03-26T11:56:24Z</time>
      </trkpt>
      <trkpt lat="44.40521" lon="4.77139">
        <ele>171.2</ele>
        <time>2018-03-26T11:56:26Z</time>
      </trkpt>
      <trkpt lat="44.40528" lon="4.77148">
        <ele>171.4</ele>
        <time>2018-03-26T11:56:28Z</time>
      </trkpt>
      <trkpt lat="44.40533" lon="4.77159">
        <ele>171.3</ele>
        <time>2018-03-26T11:56:30Z</time>
      </trkpt>
      <trkpt lat="44.40539" lon="4.7717">
        <ele>171.4</ele>
        <time>2018-03-26T11:56:32Z</time>
      </trkpt>
      <trkpt lat="44.40545" lon="4.7718">
        <ele>171.7</ele>
        <time>2018-03-26T11:56:34Z</time>
      </trkpt>
      <trkpt lat="44.4055" lon="4.77191">
        <ele>171.9</ele>
        <time>2018-03-26T11:56:36Z</time>
      </trkpt>
      <trkpt lat="44.40553" lon="4.77204">
        <ele>171.9</ele>
        <time>2018-03-26T11:56:38Z</time>
      </trkpt>
      <trkpt lat="44.40555" lon="4.77217">
        <ele>172.1</ele>
        <time>2018-03-26T11:56:40Z</time>
      </trkpt>
      <trkpt lat="44.40557" lon="4.7723">
        <ele>172.2</ele>
        <time>2018-03-26T11:56:42Z</time>
      </trkpt>
      <trkpt lat="44.40561" lon="4.77242">
        <ele>172.3</ele>
        <time>2018-03-26T11:56:44Z</time>
      </trkpt>
      <trkpt lat="44.40566" lon="4.77253">
        <ele>172.3</ele>
        <time>2018-03-26T11:56:46Z</time>
      </trkpt>
      <trkpt lat="44.40571" lon="4.77264">
        <ele>172.3</ele>
        <time>2018-03-26T11:56:48Z</time>
      </trkpt>
      <trkpt lat="44.40573" lon="4.77277">
        <ele>172.2</ele>
        <time>2018-03-26T11:56:50Z</time>
      </trkpt>
      <trkpt lat="44.40575" lon="4.7729">
        <ele>172.1</ele>
        <time>2018-03-26T11:56:52Z</time>
      </trkpt>
      <trkpt lat="44.40575" lon="4.77303">
        <ele>172.5</ele>
        <time>2018-03-26T11:56:54Z</time>
      </trkpt>
      <trkpt lat="44.40576" lon="4.77315">
        <ele>172.6</ele>
        <time>2018-03-26T11:56:56Z</time>
      </trkpt>
      <trkpt lat="44.40579" lon="4.77334">
        <ele>172.5</ele>
        <time>2018-03-26T11:56:59Z</time>
      </trkpt>
      <trkpt lat="44.40582" lon="4.77346">
        <ele>172.5</ele>
        <time>2018-03-26T11:57:01Z</time>
      </trkpt>
      <trkpt lat="44.40588" lon="4.77357">
        <ele>172.6</ele>
        <time>2018-03-26T11:57:03Z</time>
      </trkpt>
      <trkpt lat="44.40593" lon="4.77368">
        <ele>172.9</ele>
        <time>2018-03-26T11:57:05Z</time>
      </trkpt>
      <trkpt lat="44.40597" lon="4.7738">
        <ele>172.9</ele>
        <time>2018-03-26T11:57:07Z</time>
      </trkpt>
      <trkpt lat="44.40601" lon="4.77392">
        <ele>173</ele>
        <time>2018-03-26T11:57:09Z</time>
      </trkpt>
      <trkpt lat="44.40605" lon="4.77405">
        <ele>173.1</ele>
        <time>2018-03-26T11:57:11Z</time>
      </trkpt>
      <trkpt lat="44.40608" lon="4.77417">
        <ele>173.1</ele>
        <time>2018-03-26T11:57:13Z</time>
      </trkpt>
      <trkpt lat="44.40612" lon="4.7743">
        <ele>173.1</ele>
        <time>2018-03-26T11:57:15Z</time>
      </trkpt>
      <trkpt lat="44.40613" lon="4.77444">
        <ele>173.1</ele>
        <time>2018-03-26T11:57:17Z</time>
      </trkpt>
      <trkpt lat="44.40613" lon="4.77458">
        <ele>173.1</ele>
        <time>2018-03-26T11:57:19Z</time>
      </trkpt>
      <trkpt lat="44.40613" lon="4.77473">
        <ele>172.9</ele>
        <time>2018-03-26T11:57:21Z</time>
      </trkpt>
      <trkpt lat="44.40613" lon="4.77488">
        <ele>172.7</ele>
        <time>2018-03-26T11:57:23Z</time>
      </trkpt>
      <trkpt lat="44.40613" lon="4.77504">
        <ele>172.9</ele>
        <time>2018-03-26T11:57:25Z</time>
      </trkpt>
      <trkpt lat="44.40613" lon="4.77517">
        <ele>172.7</ele>
        <time>2018-03-26T11:57:27Z</time>
      </trkpt>
      <trkpt lat="44.4061" lon="4.77532">
        <ele>172.1</ele>
        <time>2018-03-26T11:57:30Z</time>
      </trkpt>
      <trkpt lat="44.40608" lon="4.77546">
        <ele>171.7</ele>
        <time>2018-03-26T11:57:33Z</time>
      </trkpt>
      <trkpt lat="44.40612" lon="4.77561">
        <ele>171</ele>
        <time>2018-03-26T11:57:36Z</time>
      </trkpt>
      <trkpt lat="44.40614" lon="4.77574">
        <ele>170.4</ele>
        <time>2018-03-26T11:57:38Z</time>
      </trkpt>
      <trkpt lat="44.40616" lon="4.77588">
        <ele>169.5</ele>
        <time>2018-03-26T11:57:40Z</time>
      </trkpt>
      <trkpt lat="44.40618" lon="4.77606">
        <ele>168.6</ele>
        <time>2018-03-26T11:57:43Z</time>
      </trkpt>
      <trkpt lat="44.40618" lon="4.77623">
        <ele>167.4</ele>
        <time>2018-03-26T11:57:46Z</time>
      </trkpt>
      <trkpt lat="44.4062" lon="4.7764">
        <ele>166.5</ele>
        <time>2018-03-26T11:57:49Z</time>
      </trkpt>
      <trkpt lat="44.40629" lon="4.77644">
        <ele>164.5</ele>
        <time>2018-03-26T11:57:53Z</time>
      </trkpt>
      <trkpt lat="44.40634" lon="4.77656">
        <ele>161</ele>
        <time>2018-03-26T11:58:15Z</time>
      </trkpt>
      <trkpt lat="44.40635" lon="4.77673">
        <ele>159.4</ele>
        <time>2018-03-26T11:58:20Z</time>
      </trkpt>
      <trkpt lat="44.40635" lon="4.77689">
        <ele>158.6</ele>
        <time>2018-03-26T11:58:24Z</time>
      </trkpt>
      <trkpt lat="44.40634" lon="4.77702">
        <ele>158.3</ele>
        <time>2018-03-26T11:58:28Z</time>
      </trkpt>
      <trkpt lat="44.40632" lon="4.77716">
        <ele>158.2</ele>
        <time>2018-03-26T11:58:32Z</time>
      </trkpt>
      <trkpt lat="44.40626" lon="4.77727">
        <ele>158.2</ele>
        <time>2018-03-26T11:58:35Z</time>
      </trkpt>
      <trkpt lat="44.40624" lon="4.77739">
        <ele>158.3</ele>
        <time>2018-03-26T11:58:38Z</time>
      </trkpt>
      <trkpt lat="44.4062" lon="4.77752">
        <ele>158.7</ele>
        <time>2018-03-26T11:58:41Z</time>
      </trkpt>
      <trkpt lat="44.4062" lon="4.77765">
        <ele>159</ele>
        <time>2018-03-26T11:58:44Z</time>
      </trkpt>
      <trkpt lat="44.40621" lon="4.77781">
        <ele>159.2</ele>
        <time>2018-03-26T11:58:47Z</time>
      </trkpt>
      <trkpt lat="44.40623" lon="4.77795">
        <ele>159.1</ele>
        <time>2018-03-26T11:58:50Z</time>
      </trkpt>
      <trkpt lat="44.40626" lon="4.77811">
        <ele>159.2</ele>
        <time>2018-03-26T11:58:53Z</time>
      </trkpt>
      <trkpt lat="44.40628" lon="4.77827">
        <ele>159.6</ele>
        <time>2018-03-26T11:58:56Z</time>
      </trkpt>
      <trkpt lat="44.40627" lon="4.77841">
        <ele>160.4</ele>
        <time>2018-03-26T11:58:59Z</time>
      </trkpt>
      <trkpt lat="44.40626" lon="4.77855">
        <ele>160.7</ele>
        <time>2018-03-26T11:59:02Z</time>
      </trkpt>
      <trkpt lat="44.40624" lon="4.77869">
        <ele>161.3</ele>
        <time>2018-03-26T11:59:05Z</time>
      </trkpt>
      <trkpt lat="44.40619" lon="4.77884">
        <ele>161.8</ele>
        <time>2018-03-26T11:59:09Z</time>
      </trkpt>
      <trkpt lat="44.40613" lon="4.77895">
        <ele>162.1</ele>
        <time>2018-03-26T11:59:12Z</time>
      </trkpt>
      <trkpt lat="44.40606" lon="4.77906">
        <ele>162.4</ele>
        <time>2018-03-26T11:59:15Z</time>
      </trkpt>
      <trkpt lat="44.406" lon="4.77919">
        <ele>162.8</ele>
        <time>2018-03-26T11:59:18Z</time>
      </trkpt>
      <trkpt lat="44.40593" lon="4.77929">
        <ele>163.1</ele>
        <time>2018-03-26T11:59:21Z</time>
      </trkpt>
      <trkpt lat="44.40585" lon="4.77938">
        <ele>163.5</ele>
        <time>2018-03-26T11:59:25Z</time>
      </trkpt>
      <trkpt lat="44.40589" lon="4.77953">
        <ele>164</ele>
        <time>2018-03-26T11:59:29Z</time>
      </trkpt>
      <trkpt lat="44.40593" lon="4.77965">
        <ele>164.3</ele>
        <time>2018-03-26T11:59:32Z</time>
      </trkpt>
      <trkpt lat="44.40598" lon="4.77977">
        <ele>164.3</ele>
        <time>2018-03-26T11:59:35Z</time>
      </trkpt>
      <trkpt lat="44.40605" lon="4.77991">
        <ele>163.9</ele>
        <time>2018-03-26T11:59:38Z</time>
      </trkpt>
      <trkpt lat="44.40611" lon="4.78006">
        <ele>163.7</ele>
        <time>2018-03-26T11:59:41Z</time>
      </trkpt>
      <trkpt lat="44.40618" lon="4.78021">
        <ele>163.1</ele>
        <time>2018-03-26T11:59:44Z</time>
      </trkpt>
      <trkpt lat="44.40624" lon="4.78034">
        <ele>162.7</ele>
        <time>2018-03-26T11:59:47Z</time>
      </trkpt>
      <trkpt lat="44.40627" lon="4.78049">
        <ele>162.8</ele>
        <time>2018-03-26T11:59:51Z</time>
      </trkpt>
      <trkpt lat="44.40631" lon="4.78062">
        <ele>163.3</ele>
        <time>2018-03-26T11:59:55Z</time>
      </trkpt>
      <trkpt lat="44.40638" lon="4.78072">
        <ele>164.2</ele>
        <time>2018-03-26T11:59:59Z</time>
      </trkpt>
      <trkpt lat="44.40645" lon="4.78081">
        <ele>165</ele>
        <time>2018-03-26T12:00:03Z</time>
      </trkpt>
      <trkpt lat="44.40651" lon="4.78092">
        <ele>166.2</ele>
        <time>2018-03-26T12:00:08Z</time>
      </trkpt>
      <trkpt lat="44.40653" lon="4.78106">
        <ele>168.3</ele>
        <time>2018-03-26T12:00:14Z</time>
      </trkpt>
      <trkpt lat="44.40656" lon="4.7812">
        <ele>170.6</ele>
        <time>2018-03-26T12:00:20Z</time>
      </trkpt>
      <trkpt lat="44.40662" lon="4.78131">
        <ele>172.8</ele>
        <time>2018-03-26T12:00:26Z</time>
      </trkpt>
      <trkpt lat="44.40669" lon="4.78139">
        <ele>174.1</ele>
        <time>2018-03-26T12:00:32Z</time>
      </trkpt>
      <trkpt lat="44.4068" lon="4.78143">
        <ele>175.9</ele>
        <time>2018-03-26T12:00:40Z</time>
      </trkpt>
      <trkpt lat="44.40689" lon="4.7815">
        <ele>177.4</ele>
        <time>2018-03-26T12:00:46Z</time>
      </trkpt>
      <trkpt lat="44.40697" lon="4.78155">
        <ele>178.3</ele>
        <time>2018-03-26T12:00:52Z</time>
      </trkpt>
      <trkpt lat="44.40706" lon="4.78162">
        <ele>179.6</ele>
        <time>2018-03-26T12:00:58Z</time>
      </trkpt>
      <trkpt lat="44.40708" lon="4.78176">
        <ele>180.6</ele>
        <time>2018-03-26T12:01:04Z</time>
      </trkpt>
      <trkpt lat="44.4071" lon="4.78189">
        <ele>182</ele>
        <time>2018-03-26T12:01:10Z</time>
      </trkpt>
      <trkpt lat="44.40714" lon="4.78203">
        <ele>183</ele>
        <time>2018-03-26T12:01:16Z</time>
      </trkpt>
      <trkpt lat="44.40722" lon="4.78212">
        <ele>183.7</ele>
        <time>2018-03-26T12:01:21Z</time>
      </trkpt>
      <trkpt lat="44.4073" lon="4.78219">
        <ele>185.2</ele>
        <time>2018-03-26T12:01:26Z</time>
      </trkpt>
      <trkpt lat="44.40738" lon="4.78225">
        <ele>186.3</ele>
        <time>2018-03-26T12:01:32Z</time>
      </trkpt>
      <trkpt lat="44.40747" lon="4.78231">
        <ele>187.3</ele>
        <time>2018-03-26T12:01:37Z</time>
      </trkpt>
      <trkpt lat="44.40756" lon="4.78236">
        <ele>188.9</ele>
        <time>2018-03-26T12:01:43Z</time>
      </trkpt>
      <trkpt lat="44.40765" lon="4.78241">
        <ele>190</ele>
        <time>2018-03-26T12:01:48Z</time>
      </trkpt>
      <trkpt lat="44.40772" lon="4.78252">
        <ele>191.1</ele>
        <time>2018-03-26T12:01:54Z</time>
      </trkpt>
      <trkpt lat="44.40779" lon="4.78261">
        <ele>192.3</ele>
        <time>2018-03-26T12:01:59Z</time>
      </trkpt>
      <trkpt lat="44.40787" lon="4.78268">
        <ele>193.4</ele>
        <time>2018-03-26T12:02:05Z</time>
      </trkpt>
      <trkpt lat="44.40794" lon="4.78278">
        <ele>194.5</ele>
        <time>2018-03-26T12:02:11Z</time>
      </trkpt>
      <trkpt lat="44.40803" lon="4.78286">
        <ele>195.2</ele>
        <time>2018-03-26T12:02:17Z</time>
      </trkpt>
      <trkpt lat="44.40814" lon="4.78287">
        <ele>196.7</ele>
        <time>2018-03-26T12:02:23Z</time>
      </trkpt>
      <trkpt lat="44.40821" lon="4.78294">
        <ele>198</ele>
        <time>2018-03-26T12:02:28Z</time>
      </trkpt>
      <trkpt lat="44.40832" lon="4.78296">
        <ele>199.1</ele>
        <time>2018-03-26T12:02:34Z</time>
      </trkpt>
      <trkpt lat="44.40841" lon="4.78299">
        <ele>200.1</ele>
        <time>2018-03-26T12:02:39Z</time>
      </trkpt>
      <trkpt lat="44.4085" lon="4.78298">
        <ele>201.3</ele>
        <time>2018-03-26T12:02:44Z</time>
      </trkpt>
      <trkpt lat="44.40858" lon="4.78303">
        <ele>203</ele>
        <time>2018-03-26T12:02:49Z</time>
      </trkpt>
      <trkpt lat="44.40867" lon="4.78309">
        <ele>204.4</ele>
        <time>2018-03-26T12:02:54Z</time>
      </trkpt>
      <trkpt lat="44.40868" lon="4.78324">
        <ele>204.9</ele>
        <time>2018-03-26T12:02:59Z</time>
      </trkpt>
      <trkpt lat="44.40868" lon="4.78337">
        <ele>205.4</ele>
        <time>2018-03-26T12:03:03Z</time>
      </trkpt>
      <trkpt lat="44.40867" lon="4.78351">
        <ele>205.9</ele>
        <time>2018-03-26T12:03:07Z</time>
      </trkpt>
      <trkpt lat="44.40866" lon="4.78366">
        <ele>206</ele>
        <time>2018-03-26T12:03:11Z</time>
      </trkpt>
      <trkpt lat="44.40863" lon="4.78378">
        <ele>205.9</ele>
        <time>2018-03-26T12:03:14Z</time>
      </trkpt>
      <trkpt lat="44.40859" lon="4.78391">
        <ele>206</ele>
        <time>2018-03-26T12:03:17Z</time>
      </trkpt>
      <trkpt lat="44.40856" lon="4.78404">
        <ele>206</ele>
        <time>2018-03-26T12:03:20Z</time>
      </trkpt>
      <trkpt lat="44.40853" lon="4.78416">
        <ele>206.1</ele>
        <time>2018-03-26T12:03:23Z</time>
      </trkpt>
      <trkpt lat="44.4085" lon="4.78431">
        <ele>206.9</ele>
        <time>2018-03-26T12:03:27Z</time>
      </trkpt>
      <trkpt lat="44.40848" lon="4.78447">
        <ele>207.5</ele>
        <time>2018-03-26T12:03:31Z</time>
      </trkpt>
      <trkpt lat="44.40846" lon="4.78461">
        <ele>208.3</ele>
        <time>2018-03-26T12:03:35Z</time>
      </trkpt>
      <trkpt lat="44.40844" lon="4.78476">
        <ele>209.2</ele>
        <time>2018-03-26T12:03:39Z</time>
      </trkpt>
      <trkpt lat="44.40843" lon="4.78491">
        <ele>209.8</ele>
        <time>2018-03-26T12:03:43Z</time>
      </trkpt>
      <trkpt lat="44.40842" lon="4.78506">
        <ele>210.4</ele>
        <time>2018-03-26T12:03:47Z</time>
      </trkpt>
      <trkpt lat="44.40841" lon="4.78521">
        <ele>211.3</ele>
        <time>2018-03-26T12:03:51Z</time>
      </trkpt>
      <trkpt lat="44.40841" lon="4.78536">
        <ele>211.8</ele>
        <time>2018-03-26T12:03:55Z</time>
      </trkpt>
      <trkpt lat="44.4084" lon="4.78549">
        <ele>211.9</ele>
        <time>2018-03-26T12:03:58Z</time>
      </trkpt>
      <trkpt lat="44.40837" lon="4.78562">
        <ele>212</ele>
        <time>2018-03-26T12:04:01Z</time>
      </trkpt>
      <trkpt lat="44.40831" lon="4.78574">
        <ele>211.9</ele>
        <time>2018-03-26T12:04:04Z</time>
      </trkpt>
      <trkpt lat="44.40819" lon="4.78582">
        <ele>211.4</ele>
        <time>2018-03-26T12:04:07Z</time>
      </trkpt>
      <trkpt lat="44.40809" lon="4.78584">
        <ele>210.6</ele>
        <time>2018-03-26T12:04:09Z</time>
      </trkpt>
      <trkpt lat="44.40797" lon="4.78588">
        <ele>209.7</ele>
        <time>2018-03-26T12:04:12Z</time>
      </trkpt>
      <trkpt lat="44.40785" lon="4.7859">
        <ele>209.1</ele>
        <time>2018-03-26T12:04:15Z</time>
      </trkpt>
      <trkpt lat="44.40775" lon="4.786">
        <ele>208.6</ele>
        <time>2018-03-26T12:04:18Z</time>
      </trkpt>
      <trkpt lat="44.40776" lon="4.78613">
        <ele>208.1</ele>
        <time>2018-03-26T12:04:21Z</time>
      </trkpt>
      <trkpt lat="44.40779" lon="4.78628">
        <ele>208.5</ele>
        <time>2018-03-26T12:04:26Z</time>
      </trkpt>
      <trkpt lat="44.40782" lon="4.78642">
        <ele>209</ele>
        <time>2018-03-26T12:04:30Z</time>
      </trkpt>
      <trkpt lat="44.40784" lon="4.78656">
        <ele>210</ele>
        <time>2018-03-26T12:04:34Z</time>
      </trkpt>
      <trkpt lat="44.40782" lon="4.78673">
        <ele>211.1</ele>
        <time>2018-03-26T12:04:38Z</time>
      </trkpt>
      <trkpt lat="44.4078" lon="4.78689">
        <ele>211.7</ele>
        <time>2018-03-26T12:04:42Z</time>
      </trkpt>
      <trkpt lat="44.40781" lon="4.78704">
        <ele>212.4</ele>
        <time>2018-03-26T12:04:46Z</time>
      </trkpt>
      <trkpt lat="44.40783" lon="4.78718">
        <ele>213.2</ele>
        <time>2018-03-26T12:04:50Z</time>
      </trkpt>
      <trkpt lat="44.40791" lon="4.78724">
        <ele>213.8</ele>
        <time>2018-03-26T12:04:54Z</time>
      </trkpt>
      <trkpt lat="44.40803" lon="4.78724">
        <ele>213.2</ele>
        <time>2018-03-26T12:04:58Z</time>
      </trkpt>
      <trkpt lat="44.40813" lon="4.78729">
        <ele>212.3</ele>
        <time>2018-03-26T12:05:01Z</time>
      </trkpt>
      <trkpt lat="44.40819" lon="4.78745">
        <ele>211</ele>
        <time>2018-03-26T12:05:04Z</time>
      </trkpt>
      <trkpt lat="44.40823" lon="4.78763">
        <ele>210.4</ele>
        <time>2018-03-26T12:05:07Z</time>
      </trkpt>
      <trkpt lat="44.40828" lon="4.78776">
        <ele>209.2</ele>
        <time>2018-03-26T12:05:10Z</time>
      </trkpt>
      <trkpt lat="44.40839" lon="4.78783">
        <ele>208.5</ele>
        <time>2018-03-26T12:05:13Z</time>
      </trkpt>
      <trkpt lat="44.40848" lon="4.78788">
        <ele>206.5</ele>
        <time>2018-03-26T12:05:16Z</time>
      </trkpt>
      <trkpt lat="44.40852" lon="4.78803">
        <ele>204.2</ele>
        <time>2018-03-26T12:05:20Z</time>
      </trkpt>
      <trkpt lat="44.4085" lon="4.78817">
        <ele>203.1</ele>
        <time>2018-03-26T12:05:23Z</time>
      </trkpt>
      <trkpt lat="44.40847" lon="4.78831">
        <ele>202.4</ele>
        <time>2018-03-26T12:05:26Z</time>
      </trkpt>
      <trkpt lat="44.40845" lon="4.78845">
        <ele>202</ele>
        <time>2018-03-26T12:05:29Z</time>
      </trkpt>
      <trkpt lat="44.40841" lon="4.78859">
        <ele>201.8</ele>
        <time>2018-03-26T12:05:32Z</time>
      </trkpt>
      <trkpt lat="44.4084" lon="4.78876">
        <ele>202.2</ele>
        <time>2018-03-26T12:05:36Z</time>
      </trkpt>
      <trkpt lat="44.40839" lon="4.7889">
        <ele>202.3</ele>
        <time>2018-03-26T12:05:39Z</time>
      </trkpt>
      <trkpt lat="44.40838" lon="4.78903">
        <ele>202.4</ele>
        <time>2018-03-26T12:05:42Z</time>
      </trkpt>
      <trkpt lat="44.40836" lon="4.78916">
        <ele>202.9</ele>
        <time>2018-03-26T12:05:45Z</time>
      </trkpt>
      <trkpt lat="44.40832" lon="4.78927">
        <ele>203.3</ele>
        <time>2018-03-26T12:05:48Z</time>
      </trkpt>
      <trkpt lat="44.4083" lon="4.78943">
        <ele>203.9</ele>
        <time>2018-03-26T12:05:52Z</time>
      </trkpt>
      <trkpt lat="44.40829" lon="4.78959">
        <ele>204.4</ele>
        <time>2018-03-26T12:05:56Z</time>
      </trkpt>
      <trkpt lat="44.40827" lon="4.78975">
        <ele>204.3</ele>
        <time>2018-03-26T12:06:00Z</time>
      </trkpt>
      <trkpt lat="44.40825" lon="4.78988">
        <ele>204.5</ele>
        <time>2018-03-26T12:06:03Z</time>
      </trkpt>
      <trkpt lat="44.40823" lon="4.79">
        <ele>204.9</ele>
        <time>2018-03-26T12:06:06Z</time>
      </trkpt>
      <trkpt lat="44.40824" lon="4.79013">
        <ele>205.2</ele>
        <time>2018-03-26T12:06:09Z</time>
      </trkpt>
      <trkpt lat="44.40824" lon="4.79026">
        <ele>205.7</ele>
        <time>2018-03-26T12:06:12Z</time>
      </trkpt>
      <trkpt lat="44.40827" lon="4.79041">
        <ele>205.9</ele>
        <time>2018-03-26T12:06:15Z</time>
      </trkpt>
      <trkpt lat="44.40828" lon="4.79055">
        <ele>205.8</ele>
        <time>2018-03-26T12:06:18Z</time>
      </trkpt>
      <trkpt lat="44.40829" lon="4.79069">
        <ele>205.8</ele>
        <time>2018-03-26T12:06:21Z</time>
      </trkpt>
      <trkpt lat="44.40828" lon="4.79082">
        <ele>206.1</ele>
        <time>2018-03-26T12:06:24Z</time>
      </trkpt>
      <trkpt lat="44.40825" lon="4.79097">
        <ele>206.7</ele>
        <time>2018-03-26T12:06:28Z</time>
      </trkpt>
      <trkpt lat="44.4082" lon="4.79109">
        <ele>207.4</ele>
        <time>2018-03-26T12:06:32Z</time>
      </trkpt>
      <trkpt lat="44.40813" lon="4.79122">
        <ele>208.6</ele>
        <time>2018-03-26T12:06:37Z</time>
      </trkpt>
      <trkpt lat="44.40811" lon="4.79137">
        <ele>209</ele>
        <time>2018-03-26T12:06:41Z</time>
      </trkpt>
      <trkpt lat="44.40808" lon="4.79153">
        <ele>208.8</ele>
        <time>2018-03-26T12:06:45Z</time>
      </trkpt>
      <trkpt lat="44.40804" lon="4.79168">
        <ele>208.6</ele>
        <time>2018-03-26T12:06:49Z</time>
      </trkpt>
      <trkpt lat="44.40802" lon="4.79185">
        <ele>208.5</ele>
        <time>2018-03-26T12:06:52Z</time>
      </trkpt>
      <trkpt lat="44.408" lon="4.79198">
        <ele>208.2</ele>
        <time>2018-03-26T12:06:55Z</time>
      </trkpt>
      <trkpt lat="44.40796" lon="4.79212">
        <ele>208.4</ele>
        <time>2018-03-26T12:06:59Z</time>
      </trkpt>
      <trkpt lat="44.40793" lon="4.79227">
        <ele>208.7</ele>
        <time>2018-03-26T12:07:03Z</time>
      </trkpt>
      <trkpt lat="44.40786" lon="4.79236">
        <ele>209.3</ele>
        <time>2018-03-26T12:07:07Z</time>
      </trkpt>
      <trkpt lat="44.40782" lon="4.79249">
        <ele>210.2</ele>
        <time>2018-03-26T12:07:11Z</time>
      </trkpt>
      <trkpt lat="44.40776" lon="4.79261">
        <ele>211.2</ele>
        <time>2018-03-26T12:07:15Z</time>
      </trkpt>
      <trkpt lat="44.40769" lon="4.79271">
        <ele>211.6</ele>
        <time>2018-03-26T12:07:19Z</time>
      </trkpt>
      <trkpt lat="44.4076" lon="4.79281">
        <ele>211.2</ele>
        <time>2018-03-26T12:07:24Z</time>
      </trkpt>
      <trkpt lat="44.40752" lon="4.79289">
        <ele>211.4</ele>
        <time>2018-03-26T12:07:27Z</time>
      </trkpt>
      <trkpt lat="44.40742" lon="4.79295">
        <ele>212</ele>
        <time>2018-03-26T12:07:31Z</time>
      </trkpt>
      <trkpt lat="44.40732" lon="4.793">
        <ele>212.7</ele>
        <time>2018-03-26T12:07:35Z</time>
      </trkpt>
      <trkpt lat="44.40722" lon="4.79302">
        <ele>213.8</ele>
        <time>2018-03-26T12:07:40Z</time>
      </trkpt>
      <trkpt lat="44.40713" lon="4.79311">
        <ele>214.5</ele>
        <time>2018-03-26T12:07:45Z</time>
      </trkpt>
      <trkpt lat="44.40704" lon="4.79319">
        <ele>214.6</ele>
        <time>2018-03-26T12:07:49Z</time>
      </trkpt>
      <trkpt lat="44.40695" lon="4.79324">
        <ele>214.3</ele>
        <time>2018-03-26T12:07:52Z</time>
      </trkpt>
      <trkpt lat="44.40686" lon="4.79325">
        <ele>214.1</ele>
        <time>2018-03-26T12:07:55Z</time>
      </trkpt>
      <trkpt lat="44.40674" lon="4.79323">
        <ele>213.9</ele>
        <time>2018-03-26T12:07:59Z</time>
      </trkpt>
      <trkpt lat="44.40663" lon="4.7932">
        <ele>214.2</ele>
        <time>2018-03-26T12:08:03Z</time>
      </trkpt>
      <trkpt lat="44.40654" lon="4.79314">
        <ele>214.8</ele>
        <time>2018-03-26T12:08:07Z</time>
      </trkpt>
      <trkpt lat="44.40645" lon="4.7931">
        <ele>215.2</ele>
        <time>2018-03-26T12:08:10Z</time>
      </trkpt>
      <trkpt lat="44.40635" lon="4.79304">
        <ele>215.3</ele>
        <time>2018-03-26T12:08:13Z</time>
      </trkpt>
      <trkpt lat="44.40626" lon="4.79297">
        <ele>215.3</ele>
        <time>2018-03-26T12:08:16Z</time>
      </trkpt>
      <trkpt lat="44.40613" lon="4.79292">
        <ele>214.9</ele>
        <time>2018-03-26T12:08:19Z</time>
      </trkpt>
      <trkpt lat="44.40604" lon="4.79287">
        <ele>214.4</ele>
        <time>2018-03-26T12:08:21Z</time>
      </trkpt>
      <trkpt lat="44.40594" lon="4.79283">
        <ele>213.6</ele>
        <time>2018-03-26T12:08:23Z</time>
      </trkpt>
      <trkpt lat="44.40585" lon="4.7928">
        <ele>213</ele>
        <time>2018-03-26T12:08:25Z</time>
      </trkpt>
      <trkpt lat="44.40578" lon="4.79271">
        <ele>211.9</ele>
        <time>2018-03-26T12:08:36Z</time>
      </trkpt>
      <trkpt lat="44.40578" lon="4.79257">
        <ele>212.5</ele>
        <time>2018-03-26T12:08:42Z</time>
      </trkpt>
      <trkpt lat="44.40578" lon="4.79244">
        <ele>213.3</ele>
        <time>2018-03-26T12:08:48Z</time>
      </trkpt>
      <trkpt lat="44.4057" lon="4.79233">
        <ele>213.7</ele>
        <time>2018-03-26T12:08:52Z</time>
      </trkpt>
      <trkpt lat="44.40563" lon="4.79221">
        <ele>213.9</ele>
        <time>2018-03-26T12:08:56Z</time>
      </trkpt>
      <trkpt lat="44.40557" lon="4.79211">
        <ele>213.8</ele>
        <time>2018-03-26T12:08:59Z</time>
      </trkpt>
      <trkpt lat="44.40551" lon="4.792">
        <ele>214</ele>
        <time>2018-03-26T12:09:02Z</time>
      </trkpt>
      <trkpt lat="44.40546" lon="4.79189">
        <ele>214.3</ele>
        <time>2018-03-26T12:09:05Z</time>
      </trkpt>
      <trkpt lat="44.4054" lon="4.79178">
        <ele>214.8</ele>
        <time>2018-03-26T12:09:08Z</time>
      </trkpt>
      <trkpt lat="44.40534" lon="4.79167">
        <ele>215.2</ele>
        <time>2018-03-26T12:09:11Z</time>
      </trkpt>
      <trkpt lat="44.40529" lon="4.79156">
        <ele>215.3</ele>
        <time>2018-03-26T12:09:14Z</time>
      </trkpt>
      <trkpt lat="44.40523" lon="4.79147">
        <ele>215.4</ele>
        <time>2018-03-26T12:09:17Z</time>
      </trkpt>
      <trkpt lat="44.40516" lon="4.79134">
        <ele>216</ele>
        <time>2018-03-26T12:09:21Z</time>
      </trkpt>
      <trkpt lat="44.40507" lon="4.79127">
        <ele>216.1</ele>
        <time>2018-03-26T12:09:24Z</time>
      </trkpt>
      <trkpt lat="44.40496" lon="4.79121">
        <ele>215.9</ele>
        <time>2018-03-26T12:09:27Z</time>
      </trkpt>
      <trkpt lat="44.40484" lon="4.79118">
        <ele>215.7</ele>
        <time>2018-03-26T12:09:30Z</time>
      </trkpt>
      <trkpt lat="44.40472" lon="4.79114">
        <ele>215.4</ele>
        <time>2018-03-26T12:09:33Z</time>
      </trkpt>
      <trkpt lat="44.40459" lon="4.79113">
        <ele>215.1</ele>
        <time>2018-03-26T12:09:36Z</time>
      </trkpt>
      <trkpt lat="44.40449" lon="4.79112">
        <ele>214.9</ele>
        <time>2018-03-26T12:09:38Z</time>
      </trkpt>
      <trkpt lat="44.40438" lon="4.79112">
        <ele>214.6</ele>
        <time>2018-03-26T12:09:40Z</time>
      </trkpt>
      <trkpt lat="44.40427" lon="4.7911">
        <ele>214.2</ele>
        <time>2018-03-26T12:09:42Z</time>
      </trkpt>
      <trkpt lat="44.40417" lon="4.79107">
        <ele>213.9</ele>
        <time>2018-03-26T12:09:44Z</time>
      </trkpt>
      <trkpt lat="44.40407" lon="4.79108">
        <ele>213</ele>
        <time>2018-03-26T12:09:47Z</time>
      </trkpt>
      <trkpt lat="44.40402" lon="4.79097">
        <ele>212.1</ele>
        <time>2018-03-26T12:09:52Z</time>
      </trkpt>
      <trkpt lat="44.40394" lon="4.79087">
        <ele>212.8</ele>
        <time>2018-03-26T12:09:58Z</time>
      </trkpt>
      <trkpt lat="44.40385" lon="4.7908">
        <ele>214.2</ele>
        <time>2018-03-26T12:10:03Z</time>
      </trkpt>
      <trkpt lat="44.40375" lon="4.79074">
        <ele>214.7</ele>
        <time>2018-03-26T12:10:07Z</time>
      </trkpt>
      <trkpt lat="44.40365" lon="4.79067">
        <ele>215.2</ele>
        <time>2018-03-26T12:10:11Z</time>
      </trkpt>
      <trkpt lat="44.40356" lon="4.79062">
        <ele>215.4</ele>
        <time>2018-03-26T12:10:15Z</time>
      </trkpt>
      <trkpt lat="44.40347" lon="4.79059">
        <ele>215.7</ele>
        <time>2018-03-26T12:10:18Z</time>
      </trkpt>
      <trkpt lat="44.40337" lon="4.79052">
        <ele>215.6</ele>
        <time>2018-03-26T12:10:22Z</time>
      </trkpt>
      <trkpt lat="44.40327" lon="4.79045">
        <ele>215.7</ele>
        <time>2018-03-26T12:10:26Z</time>
      </trkpt>
      <trkpt lat="44.40318" lon="4.79038">
        <ele>216.7</ele>
        <time>2018-03-26T12:10:31Z</time>
      </trkpt>
      <trkpt lat="44.40308" lon="4.79035">
        <ele>216.6</ele>
        <time>2018-03-26T12:10:35Z</time>
      </trkpt>
      <trkpt lat="44.40298" lon="4.79031">
        <ele>216.2</ele>
        <time>2018-03-26T12:10:39Z</time>
      </trkpt>
      <trkpt lat="44.40291" lon="4.79021">
        <ele>216.4</ele>
        <time>2018-03-26T12:10:43Z</time>
      </trkpt>
      <trkpt lat="44.40285" lon="4.79011">
        <ele>217.2</ele>
        <time>2018-03-26T12:10:47Z</time>
      </trkpt>
      <trkpt lat="44.40278" lon="4.79001">
        <ele>218.1</ele>
        <time>2018-03-26T12:10:51Z</time>
      </trkpt>
      <trkpt lat="44.40273" lon="4.78991">
        <ele>218.8</ele>
        <time>2018-03-26T12:10:55Z</time>
      </trkpt>
      <trkpt lat="44.40267" lon="4.7898">
        <ele>219.9</ele>
        <time>2018-03-26T12:10:59Z</time>
      </trkpt>
      <trkpt lat="44.4026" lon="4.78971">
        <ele>221.2</ele>
        <time>2018-03-26T12:11:03Z</time>
      </trkpt>
      <trkpt lat="44.40253" lon="4.78963">
        <ele>222.6</ele>
        <time>2018-03-26T12:11:07Z</time>
      </trkpt>
      <trkpt lat="44.40244" lon="4.78954">
        <ele>223.8</ele>
        <time>2018-03-26T12:11:12Z</time>
      </trkpt>
      <trkpt lat="44.40239" lon="4.78943">
        <ele>225.2</ele>
        <time>2018-03-26T12:11:17Z</time>
      </trkpt>
      <trkpt lat="44.4023" lon="4.78934">
        <ele>226.8</ele>
        <time>2018-03-26T12:11:24Z</time>
      </trkpt>
      <trkpt lat="44.40222" lon="4.78929">
        <ele>226.7</ele>
        <time>2018-03-26T12:11:28Z</time>
      </trkpt>
      <trkpt lat="44.40211" lon="4.78927">
        <ele>226.8</ele>
        <time>2018-03-26T12:11:32Z</time>
      </trkpt>
      <trkpt lat="44.40201" lon="4.78922">
        <ele>226.3</ele>
        <time>2018-03-26T12:11:35Z</time>
      </trkpt>
      <trkpt lat="44.40192" lon="4.7892">
        <ele>226</ele>
        <time>2018-03-26T12:11:38Z</time>
      </trkpt>
      <trkpt lat="44.40181" lon="4.78918">
        <ele>225.8</ele>
        <time>2018-03-26T12:11:41Z</time>
      </trkpt>
      <trkpt lat="44.40172" lon="4.78916">
        <ele>226</ele>
        <time>2018-03-26T12:11:43Z</time>
      </trkpt>
      <trkpt lat="44.40158" lon="4.78913">
        <ele>225.8</ele>
        <time>2018-03-26T12:11:46Z</time>
      </trkpt>
      <trkpt lat="44.40145" lon="4.78911">
        <ele>225.3</ele>
        <time>2018-03-26T12:11:49Z</time>
      </trkpt>
      <trkpt lat="44.40132" lon="4.78909">
        <ele>225.2</ele>
        <time>2018-03-26T12:11:52Z</time>
      </trkpt>
      <trkpt lat="44.40123" lon="4.78907">
        <ele>224.8</ele>
        <time>2018-03-26T12:11:54Z</time>
      </trkpt>
      <trkpt lat="44.4011" lon="4.78907">
        <ele>224.4</ele>
        <time>2018-03-26T12:11:57Z</time>
      </trkpt>
      <trkpt lat="44.40101" lon="4.78905">
        <ele>224</ele>
        <time>2018-03-26T12:11:59Z</time>
      </trkpt>
      <trkpt lat="44.40092" lon="4.78902">
        <ele>224.3</ele>
        <time>2018-03-26T12:12:01Z</time>
      </trkpt>
      <trkpt lat="44.40083" lon="4.78897">
        <ele>224.4</ele>
        <time>2018-03-26T12:12:03Z</time>
      </trkpt>
      <trkpt lat="44.40073" lon="4.78894">
        <ele>224.5</ele>
        <time>2018-03-26T12:12:05Z</time>
      </trkpt>
      <trkpt lat="44.4006" lon="4.78895">
        <ele>225</ele>
        <time>2018-03-26T12:12:08Z</time>
      </trkpt>
      <trkpt lat="44.40049" lon="4.78896">
        <ele>225.2</ele>
        <time>2018-03-26T12:12:11Z</time>
      </trkpt>
      <trkpt lat="44.40035" lon="4.78894">
        <ele>225.5</ele>
        <time>2018-03-26T12:12:14Z</time>
      </trkpt>
      <trkpt lat="44.40026" lon="4.78892">
        <ele>225.7</ele>
        <time>2018-03-26T12:12:16Z</time>
      </trkpt>
      <trkpt lat="44.40016" lon="4.78891">
        <ele>225.8</ele>
        <time>2018-03-26T12:12:18Z</time>
      </trkpt>
      <trkpt lat="44.40006" lon="4.78889">
        <ele>225.8</ele>
        <time>2018-03-26T12:12:20Z</time>
      </trkpt>
      <trkpt lat="44.39996" lon="4.78886">
        <ele>225.6</ele>
        <time>2018-03-26T12:12:22Z</time>
      </trkpt>
      <trkpt lat="44.39986" lon="4.7888">
        <ele>225.5</ele>
        <time>2018-03-26T12:12:24Z</time>
      </trkpt>
      <trkpt lat="44.39977" lon="4.78871">
        <ele>225.4</ele>
        <time>2018-03-26T12:12:26Z</time>
      </trkpt>
      <trkpt lat="44.39968" lon="4.78861">
        <ele>225.4</ele>
        <time>2018-03-26T12:12:28Z</time>
      </trkpt>
      <trkpt lat="44.39959" lon="4.78851">
        <ele>224.8</ele>
        <time>2018-03-26T12:12:30Z</time>
      </trkpt>
      <trkpt lat="44.39951" lon="4.7884">
        <ele>224.4</ele>
        <time>2018-03-26T12:12:32Z</time>
      </trkpt>
      <trkpt lat="44.39944" lon="4.78827">
        <ele>224.1</ele>
        <time>2018-03-26T12:12:34Z</time>
      </trkpt>
      <trkpt lat="44.39943" lon="4.78811">
        <ele>223.9</ele>
        <time>2018-03-26T12:12:36Z</time>
      </trkpt>
      <trkpt lat="44.39944" lon="4.78795">
        <ele>223.1</ele>
        <time>2018-03-26T12:12:38Z</time>
      </trkpt>
      <trkpt lat="44.39944" lon="4.78778">
        <ele>222.7</ele>
        <time>2018-03-26T12:12:40Z</time>
      </trkpt>
      <trkpt lat="44.39943" lon="4.78762">
        <ele>222.1</ele>
        <time>2018-03-26T12:12:42Z</time>
      </trkpt>
      <trkpt lat="44.39944" lon="4.78746">
        <ele>221.3</ele>
        <time>2018-03-26T12:12:44Z</time>
      </trkpt>
      <trkpt lat="44.39949" lon="4.7873">
        <ele>220.2</ele>
        <time>2018-03-26T12:12:46Z</time>
      </trkpt>
      <trkpt lat="44.39954" lon="4.78712">
        <ele>219.6</ele>
        <time>2018-03-26T12:12:48Z</time>
      </trkpt>
      <trkpt lat="44.3996" lon="4.78694">
        <ele>218.7</ele>
        <time>2018-03-26T12:12:50Z</time>
      </trkpt>
      <trkpt lat="44.39966" lon="4.78675">
        <ele>217.9</ele>
        <time>2018-03-26T12:12:52Z</time>
      </trkpt>
      <trkpt lat="44.39973" lon="4.78656">
        <ele>216.8</ele>
        <time>2018-03-26T12:12:54Z</time>
      </trkpt>
      <trkpt lat="44.39981" lon="4.78643">
        <ele>215.9</ele>
        <time>2018-03-26T12:12:56Z</time>
      </trkpt>
      <trkpt lat="44.39994" lon="4.7864">
        <ele>214.9</ele>
        <time>2018-03-26T12:12:59Z</time>
      </trkpt>
      <trkpt lat="44.40005" lon="4.7865">
        <ele>213.6</ele>
        <time>2018-03-26T12:13:02Z</time>
      </trkpt>
      <trkpt lat="44.40016" lon="4.7866">
        <ele>213.5</ele>
        <time>2018-03-26T12:13:05Z</time>
      </trkpt>
      <trkpt lat="44.40027" lon="4.78668">
        <ele>213.9</ele>
        <time>2018-03-26T12:13:08Z</time>
      </trkpt>
      <trkpt lat="44.40037" lon="4.78675">
        <ele>214.6</ele>
        <time>2018-03-26T12:13:11Z</time>
      </trkpt>
      <trkpt lat="44.40048" lon="4.78684">
        <ele>215.1</ele>
        <time>2018-03-26T12:13:14Z</time>
      </trkpt>
      <trkpt lat="44.40058" lon="4.78692">
        <ele>215.5</ele>
        <time>2018-03-26T12:13:17Z</time>
      </trkpt>
      <trkpt lat="44.40068" lon="4.787">
        <ele>215.8</ele>
        <time>2018-03-26T12:13:20Z</time>
      </trkpt>
      <trkpt lat="44.40077" lon="4.78707">
        <ele>216.5</ele>
        <time>2018-03-26T12:13:23Z</time>
      </trkpt>
      <trkpt lat="44.40087" lon="4.78715">
        <ele>217.1</ele>
        <time>2018-03-26T12:13:26Z</time>
      </trkpt>
      <trkpt lat="44.40096" lon="4.78724">
        <ele>217.5</ele>
        <time>2018-03-26T12:13:29Z</time>
      </trkpt>
      <trkpt lat="44.40106" lon="4.78732">
        <ele>218.4</ele>
        <time>2018-03-26T12:13:32Z</time>
      </trkpt>
      <trkpt lat="44.40115" lon="4.7874">
        <ele>218.8</ele>
        <time>2018-03-26T12:13:35Z</time>
      </trkpt>
      <trkpt lat="44.40123" lon="4.78746">
        <ele>218.9</ele>
        <time>2018-03-26T12:13:38Z</time>
      </trkpt>
      <trkpt lat="44.40133" lon="4.78739">
        <ele>218.9</ele>
        <time>2018-03-26T12:13:42Z</time>
      </trkpt>
      <trkpt lat="44.40138" lon="4.78728">
        <ele>218.8</ele>
        <time>2018-03-26T12:13:45Z</time>
      </trkpt>
      <trkpt lat="44.40148" lon="4.78725">
        <ele>218.3</ele>
        <time>2018-03-26T12:13:50Z</time>
      </trkpt>
      <trkpt lat="44.40158" lon="4.78723">
        <ele>217.8</ele>
        <time>2018-03-26T12:13:54Z</time>
      </trkpt>
      <trkpt lat="44.40163" lon="4.78712">
        <ele>217.8</ele>
        <time>2018-03-26T12:13:59Z</time>
      </trkpt>
      <trkpt lat="44.40168" lon="4.787">
        <ele>217.6</ele>
        <time>2018-03-26T12:14:03Z</time>
      </trkpt>
      <trkpt lat="44.40175" lon="4.78689">
        <ele>216.5</ele>
        <time>2018-03-26T12:14:07Z</time>
      </trkpt>
      <trkpt lat="44.40184" lon="4.78678">
        <ele>215.5</ele>
        <time>2018-03-26T12:14:11Z</time>
      </trkpt>
      <trkpt lat="44.40191" lon="4.78665">
        <ele>214.9</ele>
        <time>2018-03-26T12:14:14Z</time>
      </trkpt>
      <trkpt lat="44.40196" lon="4.78654">
        <ele>214.1</ele>
        <time>2018-03-26T12:14:17Z</time>
      </trkpt>
      <trkpt lat="44.40202" lon="4.78642">
        <ele>212.7</ele>
        <time>2018-03-26T12:14:21Z</time>
      </trkpt>
      <trkpt lat="44.40208" lon="4.78628">
        <ele>212</ele>
        <time>2018-03-26T12:14:25Z</time>
      </trkpt>
      <trkpt lat="44.4021" lon="4.78613">
        <ele>211.2</ele>
        <time>2018-03-26T12:14:28Z</time>
      </trkpt>
      <trkpt lat="44.40215" lon="4.786">
        <ele>210.3</ele>
        <time>2018-03-26T12:14:31Z</time>
      </trkpt>
      <trkpt lat="44.40218" lon="4.78586">
        <ele>209.3</ele>
        <time>2018-03-26T12:14:34Z</time>
      </trkpt>
      <trkpt lat="44.40224" lon="4.78574">
        <ele>208</ele>
        <time>2018-03-26T12:14:38Z</time>
      </trkpt>
      <trkpt lat="44.40231" lon="4.7856">
        <ele>206.8</ele>
        <time>2018-03-26T12:14:42Z</time>
      </trkpt>
      <trkpt lat="44.40237" lon="4.78548">
        <ele>206.3</ele>
        <time>2018-03-26T12:14:45Z</time>
      </trkpt>
      <trkpt lat="44.40244" lon="4.78537">
        <ele>204.8</ele>
        <time>2018-03-26T12:14:50Z</time>
      </trkpt>
      <trkpt lat="44.40249" lon="4.78526">
        <ele>203.9</ele>
        <time>2018-03-26T12:14:53Z</time>
      </trkpt>
      <trkpt lat="44.40257" lon="4.78515">
        <ele>203.5</ele>
        <time>2018-03-26T12:14:56Z</time>
      </trkpt>
      <trkpt lat="44.40263" lon="4.78503">
        <ele>202.5</ele>
        <time>2018-03-26T12:14:59Z</time>
      </trkpt>
      <trkpt lat="44.4027" lon="4.78492">
        <ele>201.6</ele>
        <time>2018-03-26T12:15:02Z</time>
      </trkpt>
      <trkpt lat="44.40277" lon="4.78478">
        <ele>200.4</ele>
        <time>2018-03-26T12:15:05Z</time>
      </trkpt>
      <trkpt lat="44.40281" lon="4.78464">
        <ele>198.5</ele>
        <time>2018-03-26T12:15:08Z</time>
      </trkpt>
      <trkpt lat="44.40285" lon="4.7845">
        <ele>196.3</ele>
        <time>2018-03-26T12:15:11Z</time>
      </trkpt>
      <trkpt lat="44.40291" lon="4.78437">
        <ele>195.2</ele>
        <time>2018-03-26T12:15:14Z</time>
      </trkpt>
      <trkpt lat="44.40295" lon="4.78423">
        <ele>194.6</ele>
        <time>2018-03-26T12:15:16Z</time>
      </trkpt>
      <trkpt lat="44.40297" lon="4.7841">
        <ele>193.7</ele>
        <time>2018-03-26T12:15:18Z</time>
      </trkpt>
      <trkpt lat="44.40296" lon="4.78396">
        <ele>192.8</ele>
        <time>2018-03-26T12:15:20Z</time>
      </trkpt>
      <trkpt lat="44.40294" lon="4.78383">
        <ele>191.9</ele>
        <time>2018-03-26T12:15:22Z</time>
      </trkpt>
      <trkpt lat="44.40293" lon="4.78369">
        <ele>190.9</ele>
        <time>2018-03-26T12:15:24Z</time>
      </trkpt>
      <trkpt lat="44.40291" lon="4.78355">
        <ele>190</ele>
        <time>2018-03-26T12:15:26Z</time>
      </trkpt>
      <trkpt lat="44.40285" lon="4.78342">
        <ele>189.2</ele>
        <time>2018-03-26T12:15:28Z</time>
      </trkpt>
      <trkpt lat="44.40283" lon="4.78325">
        <ele>188.4</ele>
        <time>2018-03-26T12:15:31Z</time>
      </trkpt>
      <trkpt lat="44.40279" lon="4.78313">
        <ele>187.8</ele>
        <time>2018-03-26T12:15:33Z</time>
      </trkpt>
      <trkpt lat="44.40275" lon="4.78302">
        <ele>186.8</ele>
        <time>2018-03-26T12:15:35Z</time>
      </trkpt>
      <trkpt lat="44.40269" lon="4.78284">
        <ele>184.3</ele>
        <time>2018-03-26T12:15:38Z</time>
      </trkpt>
      <trkpt lat="44.40265" lon="4.7827">
        <ele>183.1</ele>
        <time>2018-03-26T12:15:40Z</time>
      </trkpt>
      <trkpt lat="44.40259" lon="4.78259">
        <ele>182.1</ele>
        <time>2018-03-26T12:15:42Z</time>
      </trkpt>
      <trkpt lat="44.40253" lon="4.78242">
        <ele>180.7</ele>
        <time>2018-03-26T12:15:45Z</time>
      </trkpt>
      <trkpt lat="44.4025" lon="4.78228">
        <ele>179.7</ele>
        <time>2018-03-26T12:15:47Z</time>
      </trkpt>
      <trkpt lat="44.40248" lon="4.78213">
        <ele>179.1</ele>
        <time>2018-03-26T12:15:49Z</time>
      </trkpt>
      <trkpt lat="44.40245" lon="4.78196">
        <ele>178.3</ele>
        <time>2018-03-26T12:15:51Z</time>
      </trkpt>
      <trkpt lat="44.40238" lon="4.78183">
        <ele>177.5</ele>
        <time>2018-03-26T12:15:53Z</time>
      </trkpt>
      <trkpt lat="44.40232" lon="4.78172">
        <ele>176.6</ele>
        <time>2018-03-26T12:15:55Z</time>
      </trkpt>
      <trkpt lat="44.40227" lon="4.7816">
        <ele>175.4</ele>
        <time>2018-03-26T12:15:57Z</time>
      </trkpt>
      <trkpt lat="44.40222" lon="4.78147">
        <ele>174.8</ele>
        <time>2018-03-26T12:15:59Z</time>
      </trkpt>
      <trkpt lat="44.40217" lon="4.78132">
        <ele>174.3</ele>
        <time>2018-03-26T12:16:01Z</time>
      </trkpt>
      <trkpt lat="44.4021" lon="4.78118">
        <ele>173.6</ele>
        <time>2018-03-26T12:16:03Z</time>
      </trkpt>
      <trkpt lat="44.40199" lon="4.78109">
        <ele>173</ele>
        <time>2018-03-26T12:16:05Z</time>
      </trkpt>
      <trkpt lat="44.4019" lon="4.78098">
        <ele>172</ele>
        <time>2018-03-26T12:16:07Z</time>
      </trkpt>
      <trkpt lat="44.40184" lon="4.78083">
        <ele>171.2</ele>
        <time>2018-03-26T12:16:09Z</time>
      </trkpt>
      <trkpt lat="44.40179" lon="4.78068">
        <ele>170.7</ele>
        <time>2018-03-26T12:16:11Z</time>
      </trkpt>
      <trkpt lat="44.40175" lon="4.78054">
        <ele>170</ele>
        <time>2018-03-26T12:16:13Z</time>
      </trkpt>
      <trkpt lat="44.40171" lon="4.78038">
        <ele>169.3</ele>
        <time>2018-03-26T12:16:15Z</time>
      </trkpt>
      <trkpt lat="44.40167" lon="4.78023">
        <ele>168.3</ele>
        <time>2018-03-26T12:16:17Z</time>
      </trkpt>
      <trkpt lat="44.40164" lon="4.7801">
        <ele>167.3</ele>
        <time>2018-03-26T12:16:19Z</time>
      </trkpt>
      <trkpt lat="44.4016" lon="4.77997">
        <ele>166.4</ele>
        <time>2018-03-26T12:16:21Z</time>
      </trkpt>
      <trkpt lat="44.40156" lon="4.77983">
        <ele>165.7</ele>
        <time>2018-03-26T12:16:23Z</time>
      </trkpt>
      <trkpt lat="44.40152" lon="4.7797">
        <ele>165.3</ele>
        <time>2018-03-26T12:16:25Z</time>
      </trkpt>
      <trkpt lat="44.40147" lon="4.77953">
        <ele>164.7</ele>
        <time>2018-03-26T12:16:28Z</time>
      </trkpt>
      <trkpt lat="44.40143" lon="4.77936">
        <ele>164.2</ele>
        <time>2018-03-26T12:16:31Z</time>
      </trkpt>
      <trkpt lat="44.40142" lon="4.77921">
        <ele>163.9</ele>
        <time>2018-03-26T12:16:34Z</time>
      </trkpt>
      <trkpt lat="44.40143" lon="4.77904">
        <ele>163.4</ele>
        <time>2018-03-26T12:16:37Z</time>
      </trkpt>
      <trkpt lat="44.40141" lon="4.7789">
        <ele>162.4</ele>
        <time>2018-03-26T12:16:39Z</time>
      </trkpt>
      <trkpt lat="44.40138" lon="4.77877">
        <ele>161.9</ele>
        <time>2018-03-26T12:16:41Z</time>
      </trkpt>
      <trkpt lat="44.40133" lon="4.7786">
        <ele>161.6</ele>
        <time>2018-03-26T12:16:43Z</time>
      </trkpt>
      <trkpt lat="44.40125" lon="4.77852">
        <ele>161.2</ele>
        <time>2018-03-26T12:16:45Z</time>
      </trkpt>
      <trkpt lat="44.40115" lon="4.7785">
        <ele>161.4</ele>
        <time>2018-03-26T12:16:47Z</time>
      </trkpt>
      <trkpt lat="44.40102" lon="4.77849">
        <ele>161.7</ele>
        <time>2018-03-26T12:16:50Z</time>
      </trkpt>
      <trkpt lat="44.40089" lon="4.77848">
        <ele>162</ele>
        <time>2018-03-26T12:16:53Z</time>
      </trkpt>
      <trkpt lat="44.40076" lon="4.77846">
        <ele>162.1</ele>
        <time>2018-03-26T12:16:56Z</time>
      </trkpt>
      <trkpt lat="44.40063" lon="4.77842">
        <ele>161.7</ele>
        <time>2018-03-26T12:16:59Z</time>
      </trkpt>
      <trkpt lat="44.40054" lon="4.77839">
        <ele>161.4</ele>
        <time>2018-03-26T12:17:01Z</time>
      </trkpt>
      <trkpt lat="44.40044" lon="4.77834">
        <ele>161.2</ele>
        <time>2018-03-26T12:17:03Z</time>
      </trkpt>
      <trkpt lat="44.40034" lon="4.77828">
        <ele>161.3</ele>
        <time>2018-03-26T12:17:05Z</time>
      </trkpt>
      <trkpt lat="44.40023" lon="4.77822">
        <ele>161.2</ele>
        <time>2018-03-26T12:17:07Z</time>
      </trkpt>
      <trkpt lat="44.40012" lon="4.77813">
        <ele>161</ele>
        <time>2018-03-26T12:17:09Z</time>
      </trkpt>
      <trkpt lat="44.40002" lon="4.77806">
        <ele>160.7</ele>
        <time>2018-03-26T12:17:11Z</time>
      </trkpt>
      <trkpt lat="44.39992" lon="4.77799">
        <ele>160.5</ele>
        <time>2018-03-26T12:17:13Z</time>
      </trkpt>
      <trkpt lat="44.39983" lon="4.7779">
        <ele>160.4</ele>
        <time>2018-03-26T12:17:15Z</time>
      </trkpt>
      <trkpt lat="44.39975" lon="4.77782">
        <ele>160.2</ele>
        <time>2018-03-26T12:17:17Z</time>
      </trkpt>
      <trkpt lat="44.39972" lon="4.77769">
        <ele>160.1</ele>
        <time>2018-03-26T12:17:20Z</time>
      </trkpt>
      <trkpt lat="44.39981" lon="4.77758">
        <ele>160.1</ele>
        <time>2018-03-26T12:17:23Z</time>
      </trkpt>
      <trkpt lat="44.39993" lon="4.77754">
        <ele>159.6</ele>
        <time>2018-03-26T12:17:27Z</time>
      </trkpt>
      <trkpt lat="44.40005" lon="4.77749">
        <ele>159.6</ele>
        <time>2018-03-26T12:17:30Z</time>
      </trkpt>
      <trkpt lat="44.40015" lon="4.77745">
        <ele>159.3</ele>
        <time>2018-03-26T12:17:32Z</time>
      </trkpt>
      <trkpt lat="44.40026" lon="4.7774">
        <ele>158.9</ele>
        <time>2018-03-26T12:17:35Z</time>
      </trkpt>
      <trkpt lat="44.40033" lon="4.77729">
        <ele>158.8</ele>
        <time>2018-03-26T12:17:37Z</time>
      </trkpt>
      <trkpt lat="44.40041" lon="4.77715">
        <ele>158.6</ele>
        <time>2018-03-26T12:17:40Z</time>
      </trkpt>
      <trkpt lat="44.40048" lon="4.77706">
        <ele>158.6</ele>
        <time>2018-03-26T12:17:42Z</time>
      </trkpt>
      <trkpt lat="44.40056" lon="4.77697">
        <ele>158.6</ele>
        <time>2018-03-26T12:17:44Z</time>
      </trkpt>
      <trkpt lat="44.40063" lon="4.77688">
        <ele>158.7</ele>
        <time>2018-03-26T12:17:46Z</time>
      </trkpt>
      <trkpt lat="44.40071" lon="4.77679">
        <ele>158.8</ele>
        <time>2018-03-26T12:17:48Z</time>
      </trkpt>
      <trkpt lat="44.40081" lon="4.77667">
        <ele>159.2</ele>
        <time>2018-03-26T12:17:51Z</time>
      </trkpt>
      <trkpt lat="44.40092" lon="4.77657">
        <ele>159.2</ele>
        <time>2018-03-26T12:17:54Z</time>
      </trkpt>
      <trkpt lat="44.40102" lon="4.77646">
        <ele>159.5</ele>
        <time>2018-03-26T12:17:57Z</time>
      </trkpt>
      <trkpt lat="44.40109" lon="4.77637">
        <ele>159.8</ele>
        <time>2018-03-26T12:17:59Z</time>
      </trkpt>
      <trkpt lat="44.4012" lon="4.77625">
        <ele>160.2</ele>
        <time>2018-03-26T12:18:02Z</time>
      </trkpt>
      <trkpt lat="44.40129" lon="4.77613">
        <ele>160.1</ele>
        <time>2018-03-26T12:18:05Z</time>
      </trkpt>
      <trkpt lat="44.40138" lon="4.776">
        <ele>160.7</ele>
        <time>2018-03-26T12:18:08Z</time>
      </trkpt>
      <trkpt lat="44.40146" lon="4.77587">
        <ele>161.3</ele>
        <time>2018-03-26T12:18:11Z</time>
      </trkpt>
      <trkpt lat="44.40155" lon="4.77576">
        <ele>161.8</ele>
        <time>2018-03-26T12:18:14Z</time>
      </trkpt>
      <trkpt lat="44.40164" lon="4.77568">
        <ele>162</ele>
        <time>2018-03-26T12:18:17Z</time>
      </trkpt>
      <trkpt lat="44.40174" lon="4.77562">
        <ele>162.5</ele>
        <time>2018-03-26T12:18:20Z</time>
      </trkpt>
      <trkpt lat="44.4018" lon="4.7755">
        <ele>162.9</ele>
        <time>2018-03-26T12:18:23Z</time>
      </trkpt>
      <trkpt lat="44.40184" lon="4.77537">
        <ele>163.5</ele>
        <time>2018-03-26T12:18:27Z</time>
      </trkpt>
      <trkpt lat="44.40187" lon="4.77521">
        <ele>164.5</ele>
        <time>2018-03-26T12:18:31Z</time>
      </trkpt>
      <trkpt lat="44.40193" lon="4.77508">
        <ele>165.5</ele>
        <time>2018-03-26T12:18:35Z</time>
      </trkpt>
      <trkpt lat="44.402" lon="4.77495">
        <ele>166.2</ele>
        <time>2018-03-26T12:18:39Z</time>
      </trkpt>
      <trkpt lat="44.40207" lon="4.77484">
        <ele>167.1</ele>
        <time>2018-03-26T12:18:43Z</time>
      </trkpt>
      <trkpt lat="44.40215" lon="4.77476">
        <ele>168</ele>
        <time>2018-03-26T12:18:47Z</time>
      </trkpt>
      <trkpt lat="44.40222" lon="4.77467">
        <ele>169</ele>
        <time>2018-03-26T12:18:51Z</time>
      </trkpt>
      <trkpt lat="44.4023" lon="4.77459">
        <ele>169.8</ele>
        <time>2018-03-26T12:18:55Z</time>
      </trkpt>
      <trkpt lat="44.40239" lon="4.77454">
        <ele>170.6</ele>
        <time>2018-03-26T12:18:59Z</time>
      </trkpt>
      <trkpt lat="44.4024" lon="4.7744">
        <ele>171.2</ele>
        <time>2018-03-26T12:19:04Z</time>
      </trkpt>
      <trkpt lat="44.40243" lon="4.77429">
        <ele>172</ele>
        <time>2018-03-26T12:19:08Z</time>
      </trkpt>
      <trkpt lat="44.40247" lon="4.77417">
        <ele>173</ele>
        <time>2018-03-26T12:19:12Z</time>
      </trkpt>
      <trkpt lat="44.40251" lon="4.77405">
        <ele>174.9</ele>
        <time>2018-03-26T12:19:17Z</time>
      </trkpt>
      <trkpt lat="44.40243" lon="4.77398">
        <ele>176.7</ele>
        <time>2018-03-26T12:19:24Z</time>
      </trkpt>
      <trkpt lat="44.40231" lon="4.77404">
        <ele>176.7</ele>
        <time>2018-03-26T12:19:28Z</time>
      </trkpt>
      <trkpt lat="44.40222" lon="4.77408">
        <ele>176.8</ele>
        <time>2018-03-26T12:19:31Z</time>
      </trkpt>
      <trkpt lat="44.40212" lon="4.77411">
        <ele>177.3</ele>
        <time>2018-03-26T12:19:34Z</time>
      </trkpt>
      <trkpt lat="44.40201" lon="4.77415">
        <ele>177.6</ele>
        <time>2018-03-26T12:19:37Z</time>
      </trkpt>
      <trkpt lat="44.4019" lon="4.77409">
        <ele>177.8</ele>
        <time>2018-03-26T12:19:40Z</time>
      </trkpt>
      <trkpt lat="44.40181" lon="4.77396">
        <ele>177.9</ele>
        <time>2018-03-26T12:19:43Z</time>
      </trkpt>
      <trkpt lat="44.40174" lon="4.77383">
        <ele>178.5</ele>
        <time>2018-03-26T12:19:46Z</time>
      </trkpt>
      <trkpt lat="44.40164" lon="4.77372">
        <ele>178.5</ele>
        <time>2018-03-26T12:19:49Z</time>
      </trkpt>
      <trkpt lat="44.40156" lon="4.77364">
        <ele>178.6</ele>
        <time>2018-03-26T12:19:51Z</time>
      </trkpt>
      <trkpt lat="44.40147" lon="4.77355">
        <ele>178.5</ele>
        <time>2018-03-26T12:19:53Z</time>
      </trkpt>
      <trkpt lat="44.40138" lon="4.77346">
        <ele>178.4</ele>
        <time>2018-03-26T12:19:55Z</time>
      </trkpt>
      <trkpt lat="44.40129" lon="4.77335">
        <ele>178</ele>
        <time>2018-03-26T12:19:57Z</time>
      </trkpt>
      <trkpt lat="44.40122" lon="4.77324">
        <ele>177.8</ele>
        <time>2018-03-26T12:19:59Z</time>
      </trkpt>
      <trkpt lat="44.40114" lon="4.77312">
        <ele>177.5</ele>
        <time>2018-03-26T12:20:01Z</time>
      </trkpt>
      <trkpt lat="44.40107" lon="4.77301">
        <ele>177.4</ele>
        <time>2018-03-26T12:20:03Z</time>
      </trkpt>
      <trkpt lat="44.401" lon="4.77289">
        <ele>177.4</ele>
        <time>2018-03-26T12:20:05Z</time>
      </trkpt>
      <trkpt lat="44.40092" lon="4.77277">
        <ele>177.1</ele>
        <time>2018-03-26T12:20:07Z</time>
      </trkpt>
      <trkpt lat="44.40086" lon="4.77266">
        <ele>176.9</ele>
        <time>2018-03-26T12:20:09Z</time>
      </trkpt>
      <trkpt lat="44.40079" lon="4.77255">
        <ele>176.9</ele>
        <time>2018-03-26T12:20:11Z</time>
      </trkpt>
      <trkpt lat="44.40073" lon="4.77245">
        <ele>176.9</ele>
        <time>2018-03-26T12:20:13Z</time>
      </trkpt>
      <trkpt lat="44.40065" lon="4.77236">
        <ele>177.1</ele>
        <time>2018-03-26T12:20:15Z</time>
      </trkpt>
      <trkpt lat="44.40056" lon="4.77227">
        <ele>177</ele>
        <time>2018-03-26T12:20:17Z</time>
      </trkpt>
      <trkpt lat="44.40049" lon="4.77218">
        <ele>177</ele>
        <time>2018-03-26T12:20:19Z</time>
      </trkpt>
      <trkpt lat="44.40042" lon="4.77209">
        <ele>176.9</ele>
        <time>2018-03-26T12:20:22Z</time>
      </trkpt>
      <trkpt lat="44.40034" lon="4.77198">
        <ele>176.1</ele>
        <time>2018-03-26T12:20:36Z</time>
      </trkpt>
      <trkpt lat="44.40024" lon="4.77188">
        <ele>176</ele>
        <time>2018-03-26T12:20:40Z</time>
      </trkpt>
      <trkpt lat="44.40015" lon="4.77183">
        <ele>175.9</ele>
        <time>2018-03-26T12:20:42Z</time>
      </trkpt>
      <trkpt lat="44.40006" lon="4.77175">
        <ele>175.5</ele>
        <time>2018-03-26T12:20:44Z</time>
      </trkpt>
      <trkpt lat="44.39996" lon="4.77168">
        <ele>175.5</ele>
        <time>2018-03-26T12:20:46Z</time>
      </trkpt>
      <trkpt lat="44.39984" lon="4.77161">
        <ele>174.8</ele>
        <time>2018-03-26T12:20:48Z</time>
      </trkpt>
      <trkpt lat="44.39974" lon="4.77152">
        <ele>174.3</ele>
        <time>2018-03-26T12:20:50Z</time>
      </trkpt>
      <trkpt lat="44.39962" lon="4.77144">
        <ele>173.6</ele>
        <time>2018-03-26T12:20:52Z</time>
      </trkpt>
      <trkpt lat="44.39952" lon="4.77134">
        <ele>173.1</ele>
        <time>2018-03-26T12:20:54Z</time>
      </trkpt>
      <trkpt lat="44.39943" lon="4.77125">
        <ele>172.4</ele>
        <time>2018-03-26T12:20:56Z</time>
      </trkpt>
      <trkpt lat="44.39931" lon="4.77118">
        <ele>171.8</ele>
        <time>2018-03-26T12:20:58Z</time>
      </trkpt>
      <trkpt lat="44.3992" lon="4.77111">
        <ele>171.5</ele>
        <time>2018-03-26T12:21:00Z</time>
      </trkpt>
      <trkpt lat="44.39909" lon="4.77103">
        <ele>171.4</ele>
        <time>2018-03-26T12:21:02Z</time>
      </trkpt>
      <trkpt lat="44.39898" lon="4.77095">
        <ele>171.1</ele>
        <time>2018-03-26T12:21:04Z</time>
      </trkpt>
      <trkpt lat="44.39888" lon="4.77085">
        <ele>170.8</ele>
        <time>2018-03-26T12:21:06Z</time>
      </trkpt>
      <trkpt lat="44.39878" lon="4.77076">
        <ele>170.5</ele>
        <time>2018-03-26T12:21:08Z</time>
      </trkpt>
      <trkpt lat="44.39868" lon="4.77068">
        <ele>169.9</ele>
        <time>2018-03-26T12:21:10Z</time>
      </trkpt>
      <trkpt lat="44.39857" lon="4.77061">
        <ele>169.6</ele>
        <time>2018-03-26T12:21:12Z</time>
      </trkpt>
      <trkpt lat="44.3985" lon="4.77051">
        <ele>169.3</ele>
        <time>2018-03-26T12:21:14Z</time>
      </trkpt>
      <trkpt lat="44.39842" lon="4.77041">
        <ele>168.9</ele>
        <time>2018-03-26T12:21:16Z</time>
      </trkpt>
      <trkpt lat="44.39833" lon="4.7703">
        <ele>168.5</ele>
        <time>2018-03-26T12:21:18Z</time>
      </trkpt>
      <trkpt lat="44.39825" lon="4.77018">
        <ele>168.2</ele>
        <time>2018-03-26T12:21:20Z</time>
      </trkpt>
      <trkpt lat="44.39817" lon="4.77006">
        <ele>167.9</ele>
        <time>2018-03-26T12:21:22Z</time>
      </trkpt>
      <trkpt lat="44.39809" lon="4.76994">
        <ele>168</ele>
        <time>2018-03-26T12:21:24Z</time>
      </trkpt>
      <trkpt lat="44.39801" lon="4.76984">
        <ele>167.8</ele>
        <time>2018-03-26T12:21:26Z</time>
      </trkpt>
      <trkpt lat="44.39793" lon="4.76975">
        <ele>167.4</ele>
        <time>2018-03-26T12:21:28Z</time>
      </trkpt>
      <trkpt lat="44.39784" lon="4.76965">
        <ele>167.3</ele>
        <time>2018-03-26T12:21:31Z</time>
      </trkpt>
      <trkpt lat="44.39778" lon="4.7698">
        <ele>167.3</ele>
        <time>2018-03-26T12:21:35Z</time>
      </trkpt>
      <trkpt lat="44.39775" lon="4.76994">
        <ele>166.9</ele>
        <time>2018-03-26T12:21:37Z</time>
      </trkpt>
      <trkpt lat="44.39772" lon="4.7701">
        <ele>166.3</ele>
        <time>2018-03-26T12:21:39Z</time>
      </trkpt>
      <trkpt lat="44.39768" lon="4.77027">
        <ele>165.5</ele>
        <time>2018-03-26T12:21:41Z</time>
      </trkpt>
      <trkpt lat="44.39764" lon="4.77045">
        <ele>164.9</ele>
        <time>2018-03-26T12:21:43Z</time>
      </trkpt>
      <trkpt lat="44.3976" lon="4.77064">
        <ele>164.2</ele>
        <time>2018-03-26T12:21:45Z</time>
      </trkpt>
      <trkpt lat="44.39757" lon="4.77084">
        <ele>163.8</ele>
        <time>2018-03-26T12:21:47Z</time>
      </trkpt>
      <trkpt lat="44.39752" lon="4.77103">
        <ele>163.3</ele>
        <time>2018-03-26T12:21:49Z</time>
      </trkpt>
      <trkpt lat="44.39748" lon="4.77124">
        <ele>162.9</ele>
        <time>2018-03-26T12:21:51Z</time>
      </trkpt>
      <trkpt lat="44.39744" lon="4.77144">
        <ele>162.3</ele>
        <time>2018-03-26T12:21:53Z</time>
      </trkpt>
      <trkpt lat="44.3974" lon="4.77165">
        <ele>161.8</ele>
        <time>2018-03-26T12:21:55Z</time>
      </trkpt>
      <trkpt lat="44.39736" lon="4.77185">
        <ele>161.6</ele>
        <time>2018-03-26T12:21:57Z</time>
      </trkpt>
      <trkpt lat="44.39732" lon="4.77206">
        <ele>161.1</ele>
        <time>2018-03-26T12:21:59Z</time>
      </trkpt>
      <trkpt lat="44.39727" lon="4.77227">
        <ele>160.7</ele>
        <time>2018-03-26T12:22:01Z</time>
      </trkpt>
      <trkpt lat="44.39722" lon="4.77248">
        <ele>160.3</ele>
        <time>2018-03-26T12:22:03Z</time>
      </trkpt>
      <trkpt lat="44.39717" lon="4.77269">
        <ele>159.5</ele>
        <time>2018-03-26T12:22:05Z</time>
      </trkpt>
      <trkpt lat="44.39713" lon="4.7729">
        <ele>159.5</ele>
        <time>2018-03-26T12:22:07Z</time>
      </trkpt>
      <trkpt lat="44.39709" lon="4.7731">
        <ele>159</ele>
        <time>2018-03-26T12:22:09Z</time>
      </trkpt>
      <trkpt lat="44.39705" lon="4.7733">
        <ele>158.3</ele>
        <time>2018-03-26T12:22:11Z</time>
      </trkpt>
      <trkpt lat="44.39701" lon="4.77351">
        <ele>158</ele>
        <time>2018-03-26T12:22:13Z</time>
      </trkpt>
      <trkpt lat="44.39697" lon="4.77372">
        <ele>157.7</ele>
        <time>2018-03-26T12:22:15Z</time>
      </trkpt>
      <trkpt lat="44.39692" lon="4.77392">
        <ele>157.2</ele>
        <time>2018-03-26T12:22:17Z</time>
      </trkpt>
      <trkpt lat="44.39688" lon="4.77411">
        <ele>156.9</ele>
        <time>2018-03-26T12:22:19Z</time>
      </trkpt>
      <trkpt lat="44.39684" lon="4.7743">
        <ele>156.4</ele>
        <time>2018-03-26T12:22:21Z</time>
      </trkpt>
      <trkpt lat="44.39677" lon="4.77448">
        <ele>156.1</ele>
        <time>2018-03-26T12:22:23Z</time>
      </trkpt>
      <trkpt lat="44.39667" lon="4.77462">
        <ele>155.8</ele>
        <time>2018-03-26T12:22:25Z</time>
      </trkpt>
      <trkpt lat="44.39655" lon="4.77475">
        <ele>155.5</ele>
        <time>2018-03-26T12:22:27Z</time>
      </trkpt>
      <trkpt lat="44.39644" lon="4.77491">
        <ele>155.1</ele>
        <time>2018-03-26T12:22:29Z</time>
      </trkpt>
      <trkpt lat="44.39635" lon="4.77506">
        <ele>154.8</ele>
        <time>2018-03-26T12:22:31Z</time>
      </trkpt>
      <trkpt lat="44.39623" lon="4.77518">
        <ele>154.2</ele>
        <time>2018-03-26T12:22:33Z</time>
      </trkpt>
      <trkpt lat="44.3961" lon="4.77526">
        <ele>154</ele>
        <time>2018-03-26T12:22:35Z</time>
      </trkpt>
      <trkpt lat="44.39597" lon="4.77529">
        <ele>153.7</ele>
        <time>2018-03-26T12:22:37Z</time>
      </trkpt>
      <trkpt lat="44.39583" lon="4.77531">
        <ele>153.6</ele>
        <time>2018-03-26T12:22:39Z</time>
      </trkpt>
      <trkpt lat="44.3957" lon="4.77531">
        <ele>153.1</ele>
        <time>2018-03-26T12:22:41Z</time>
      </trkpt>
      <trkpt lat="44.39557" lon="4.7753">
        <ele>153</ele>
        <time>2018-03-26T12:22:43Z</time>
      </trkpt>
      <trkpt lat="44.39543" lon="4.77529">
        <ele>152.9</ele>
        <time>2018-03-26T12:22:45Z</time>
      </trkpt>
      <trkpt lat="44.39529" lon="4.77527">
        <ele>153</ele>
        <time>2018-03-26T12:22:47Z</time>
      </trkpt>
      <trkpt lat="44.39515" lon="4.77522">
        <ele>152.9</ele>
        <time>2018-03-26T12:22:49Z</time>
      </trkpt>
      <trkpt lat="44.39502" lon="4.77516">
        <ele>152.7</ele>
        <time>2018-03-26T12:22:51Z</time>
      </trkpt>
      <trkpt lat="44.3949" lon="4.77519">
        <ele>152.4</ele>
        <time>2018-03-26T12:22:53Z</time>
      </trkpt>
      <trkpt lat="44.39482" lon="4.77528">
        <ele>152.5</ele>
        <time>2018-03-26T12:22:55Z</time>
      </trkpt>
      <trkpt lat="44.39475" lon="4.77539">
        <ele>152.2</ele>
        <time>2018-03-26T12:22:57Z</time>
      </trkpt>
      <trkpt lat="44.39467" lon="4.77551">
        <ele>151.4</ele>
        <time>2018-03-26T12:23:00Z</time>
      </trkpt>
      <trkpt lat="44.39461" lon="4.77563">
        <ele>151.3</ele>
        <time>2018-03-26T12:23:03Z</time>
      </trkpt>
      <trkpt lat="44.3945" lon="4.77574">
        <ele>151.6</ele>
        <time>2018-03-26T12:23:06Z</time>
      </trkpt>
      <trkpt lat="44.39444" lon="4.77582">
        <ele>151.5</ele>
        <time>2018-03-26T12:23:08Z</time>
      </trkpt>
      <trkpt lat="44.39433" lon="4.77593">
        <ele>151.7</ele>
        <time>2018-03-26T12:23:11Z</time>
      </trkpt>
      <trkpt lat="44.39423" lon="4.77597">
        <ele>151.5</ele>
        <time>2018-03-26T12:23:13Z</time>
      </trkpt>
      <trkpt lat="44.39414" lon="4.77603">
        <ele>151.3</ele>
        <time>2018-03-26T12:23:15Z</time>
      </trkpt>
      <trkpt lat="44.39404" lon="4.77608">
        <ele>150.8</ele>
        <time>2018-03-26T12:23:17Z</time>
      </trkpt>
      <trkpt lat="44.39393" lon="4.77611">
        <ele>150.6</ele>
        <time>2018-03-26T12:23:19Z</time>
      </trkpt>
      <trkpt lat="44.39382" lon="4.77605">
        <ele>150.4</ele>
        <time>2018-03-26T12:23:22Z</time>
      </trkpt>
      <trkpt lat="44.39382" lon="4.77592">
        <ele>150.3</ele>
        <time>2018-03-26T12:23:26Z</time>
      </trkpt>
      <trkpt lat="44.39384" lon="4.77577">
        <ele>150.6</ele>
        <time>2018-03-26T12:23:29Z</time>
      </trkpt>
      <trkpt lat="44.39381" lon="4.77563">
        <ele>150.4</ele>
        <time>2018-03-26T12:23:32Z</time>
      </trkpt>
      <trkpt lat="44.39376" lon="4.77546">
        <ele>150.8</ele>
        <time>2018-03-26T12:23:35Z</time>
      </trkpt>
      <trkpt lat="44.39371" lon="4.77531">
        <ele>151.1</ele>
        <time>2018-03-26T12:23:38Z</time>
      </trkpt>
      <trkpt lat="44.39368" lon="4.77516">
        <ele>151.2</ele>
        <time>2018-03-26T12:23:41Z</time>
      </trkpt>
      <trkpt lat="44.39365" lon="4.77499">
        <ele>151.7</ele>
        <time>2018-03-26T12:23:44Z</time>
      </trkpt>
      <trkpt lat="44.39363" lon="4.77482">
        <ele>151.8</ele>
        <time>2018-03-26T12:23:47Z</time>
      </trkpt>
      <trkpt lat="44.39362" lon="4.77465">
        <ele>151.9</ele>
        <time>2018-03-26T12:23:50Z</time>
      </trkpt>
      <trkpt lat="44.39361" lon="4.77446">
        <ele>152.2</ele>
        <time>2018-03-26T12:23:53Z</time>
      </trkpt>
      <trkpt lat="44.39359" lon="4.77432">
        <ele>152.1</ele>
        <time>2018-03-26T12:23:55Z</time>
      </trkpt>
      <trkpt lat="44.39354" lon="4.7742">
        <ele>152.3</ele>
        <time>2018-03-26T12:23:57Z</time>
      </trkpt>
      <trkpt lat="44.39344" lon="4.77416">
        <ele>152.2</ele>
        <time>2018-03-26T12:24:01Z</time>
      </trkpt>
      <trkpt lat="44.39333" lon="4.77422">
        <ele>152.1</ele>
        <time>2018-03-26T12:24:05Z</time>
      </trkpt>
      <trkpt lat="44.39324" lon="4.77428">
        <ele>152.2</ele>
        <time>2018-03-26T12:24:08Z</time>
      </trkpt>
      <trkpt lat="44.39314" lon="4.77432">
        <ele>152.2</ele>
        <time>2018-03-26T12:24:12Z</time>
      </trkpt>
      <trkpt lat="44.39305" lon="4.77432">
        <ele>152.3</ele>
        <time>2018-03-26T12:24:17Z</time>
      </trkpt>
      <trkpt lat="44.39295" lon="4.7744">
        <ele>152.5</ele>
        <time>2018-03-26T12:24:21Z</time>
      </trkpt>
      <trkpt lat="44.39284" lon="4.77444">
        <ele>152.7</ele>
        <time>2018-03-26T12:24:25Z</time>
      </trkpt>
      <trkpt lat="44.39275" lon="4.77447">
        <ele>152.8</ele>
        <time>2018-03-26T12:24:28Z</time>
      </trkpt>
      <trkpt lat="44.39266" lon="4.7745">
        <ele>153.3</ele>
        <time>2018-03-26T12:24:32Z</time>
      </trkpt>
      <trkpt lat="44.39255" lon="4.77455">
        <ele>153.9</ele>
        <time>2018-03-26T12:24:36Z</time>
      </trkpt>
      <trkpt lat="44.39246" lon="4.77453">
        <ele>154.2</ele>
        <time>2018-03-26T12:24:39Z</time>
      </trkpt>
      <trkpt lat="44.39235" lon="4.7745">
        <ele>154.6</ele>
        <time>2018-03-26T12:24:42Z</time>
      </trkpt>
      <trkpt lat="44.39224" lon="4.7745">
        <ele>154.8</ele>
        <time>2018-03-26T12:24:45Z</time>
      </trkpt>
      <trkpt lat="44.39211" lon="4.77452">
        <ele>155.1</ele>
        <time>2018-03-26T12:24:48Z</time>
      </trkpt>
      <trkpt lat="44.39201" lon="4.77456">
        <ele>155.3</ele>
        <time>2018-03-26T12:24:51Z</time>
      </trkpt>
      <trkpt lat="44.39189" lon="4.77455">
        <ele>155.4</ele>
        <time>2018-03-26T12:24:54Z</time>
      </trkpt>
      <trkpt lat="44.39179" lon="4.7746">
        <ele>155.5</ele>
        <time>2018-03-26T12:24:57Z</time>
      </trkpt>
      <trkpt lat="44.39167" lon="4.77464">
        <ele>155.7</ele>
        <time>2018-03-26T12:25:00Z</time>
      </trkpt>
      <trkpt lat="44.39157" lon="4.77467">
        <ele>156.3</ele>
        <time>2018-03-26T12:25:03Z</time>
      </trkpt>
      <trkpt lat="44.39148" lon="4.77472">
        <ele>157</ele>
        <time>2018-03-26T12:25:06Z</time>
      </trkpt>
      <trkpt lat="44.39138" lon="4.77479">
        <ele>157.3</ele>
        <time>2018-03-26T12:25:09Z</time>
      </trkpt>
      <trkpt lat="44.3913" lon="4.77486">
        <ele>157.4</ele>
        <time>2018-03-26T12:25:12Z</time>
      </trkpt>
      <trkpt lat="44.3912" lon="4.77492">
        <ele>157.7</ele>
        <time>2018-03-26T12:25:15Z</time>
      </trkpt>
      <trkpt lat="44.39109" lon="4.77496">
        <ele>157.9</ele>
        <time>2018-03-26T12:25:18Z</time>
      </trkpt>
      <trkpt lat="44.39099" lon="4.77496">
        <ele>158.6</ele>
        <time>2018-03-26T12:25:21Z</time>
      </trkpt>
      <trkpt lat="44.39088" lon="4.77494">
        <ele>159</ele>
        <time>2018-03-26T12:25:24Z</time>
      </trkpt>
      <trkpt lat="44.39078" lon="4.77493">
        <ele>159.3</ele>
        <time>2018-03-26T12:25:27Z</time>
      </trkpt>
      <trkpt lat="44.39066" lon="4.77492">
        <ele>159.5</ele>
        <time>2018-03-26T12:25:30Z</time>
      </trkpt>
      <trkpt lat="44.39053" lon="4.77493">
        <ele>159.5</ele>
        <time>2018-03-26T12:25:33Z</time>
      </trkpt>
      <trkpt lat="44.39042" lon="4.77492">
        <ele>160.2</ele>
        <time>2018-03-26T12:25:36Z</time>
      </trkpt>
      <trkpt lat="44.3903" lon="4.77494">
        <ele>160.6</ele>
        <time>2018-03-26T12:25:39Z</time>
      </trkpt>
      <trkpt lat="44.3902" lon="4.77486">
        <ele>160.9</ele>
        <time>2018-03-26T12:25:43Z</time>
      </trkpt>
      <trkpt lat="44.39016" lon="4.77471">
        <ele>161.1</ele>
        <time>2018-03-26T12:25:47Z</time>
      </trkpt>
      <trkpt lat="44.39011" lon="4.77455">
        <ele>161.4</ele>
        <time>2018-03-26T12:25:50Z</time>
      </trkpt>
      <trkpt lat="44.39004" lon="4.77441">
        <ele>161.6</ele>
        <time>2018-03-26T12:25:53Z</time>
      </trkpt>
      <trkpt lat="44.39" lon="4.77428">
        <ele>161.7</ele>
        <time>2018-03-26T12:25:56Z</time>
      </trkpt>
      <trkpt lat="44.38996" lon="4.77415">
        <ele>162.2</ele>
        <time>2018-03-26T12:25:59Z</time>
      </trkpt>
      <trkpt lat="44.38991" lon="4.77403">
        <ele>162.4</ele>
        <time>2018-03-26T12:26:02Z</time>
      </trkpt>
      <trkpt lat="44.38984" lon="4.77392">
        <ele>162.6</ele>
        <time>2018-03-26T12:26:05Z</time>
      </trkpt>
      <trkpt lat="44.38975" lon="4.77381">
        <ele>163.3</ele>
        <time>2018-03-26T12:26:08Z</time>
      </trkpt>
      <trkpt lat="44.38966" lon="4.77373">
        <ele>163.7</ele>
        <time>2018-03-26T12:26:11Z</time>
      </trkpt>
      <trkpt lat="44.38956" lon="4.77368">
        <ele>163.9</ele>
        <time>2018-03-26T12:26:14Z</time>
      </trkpt>
      <trkpt lat="44.38947" lon="4.77364">
        <ele>164.4</ele>
        <time>2018-03-26T12:26:17Z</time>
      </trkpt>
      <trkpt lat="44.38938" lon="4.77359">
        <ele>164.8</ele>
        <time>2018-03-26T12:26:20Z</time>
      </trkpt>
      <trkpt lat="44.38929" lon="4.77352">
        <ele>165</ele>
        <time>2018-03-26T12:26:23Z</time>
      </trkpt>
      <trkpt lat="44.38922" lon="4.77344">
        <ele>165.5</ele>
        <time>2018-03-26T12:26:26Z</time>
      </trkpt>
      <trkpt lat="44.38913" lon="4.77336">
        <ele>166.1</ele>
        <time>2018-03-26T12:26:29Z</time>
      </trkpt>
      <trkpt lat="44.38903" lon="4.77326">
        <ele>166.3</ele>
        <time>2018-03-26T12:26:32Z</time>
      </trkpt>
      <trkpt lat="44.38893" lon="4.77319">
        <ele>166.6</ele>
        <time>2018-03-26T12:26:35Z</time>
      </trkpt>
      <trkpt lat="44.38886" lon="4.77309">
        <ele>167</ele>
        <time>2018-03-26T12:26:38Z</time>
      </trkpt>
      <trkpt lat="44.38876" lon="4.77302">
        <ele>167.2</ele>
        <time>2018-03-26T12:26:41Z</time>
      </trkpt>
      <trkpt lat="44.38867" lon="4.77291">
        <ele>167.1</ele>
        <time>2018-03-26T12:26:44Z</time>
      </trkpt>
      <trkpt lat="44.38858" lon="4.77279">
        <ele>167.2</ele>
        <time>2018-03-26T12:26:47Z</time>
      </trkpt>
      <trkpt lat="44.38851" lon="4.77271">
        <ele>166.9</ele>
        <time>2018-03-26T12:26:49Z</time>
      </trkpt>
      <trkpt lat="44.38842" lon="4.77264">
        <ele>166.7</ele>
        <time>2018-03-26T12:26:51Z</time>
      </trkpt>
      <trkpt lat="44.38836" lon="4.77249">
        <ele>166.7</ele>
        <time>2018-03-26T12:26:54Z</time>
      </trkpt>
      <trkpt lat="44.38832" lon="4.77233">
        <ele>166.7</ele>
        <time>2018-03-26T12:26:57Z</time>
      </trkpt>
      <trkpt lat="44.38831" lon="4.77216">
        <ele>166.9</ele>
        <time>2018-03-26T12:27:00Z</time>
      </trkpt>
      <trkpt lat="44.38827" lon="4.77201">
        <ele>166.9</ele>
        <time>2018-03-26T12:27:03Z</time>
      </trkpt>
      <trkpt lat="44.38821" lon="4.77187">
        <ele>167</ele>
        <time>2018-03-26T12:27:06Z</time>
      </trkpt>
      <trkpt lat="44.38819" lon="4.77175">
        <ele>167</ele>
        <time>2018-03-26T12:27:08Z</time>
      </trkpt>
      <trkpt lat="44.38814" lon="4.77158">
        <ele>167</ele>
        <time>2018-03-26T12:27:11Z</time>
      </trkpt>
      <trkpt lat="44.38809" lon="4.77145">
        <ele>167.2</ele>
        <time>2018-03-26T12:27:13Z</time>
      </trkpt>
      <trkpt lat="44.38806" lon="4.77132">
        <ele>167.3</ele>
        <time>2018-03-26T12:27:15Z</time>
      </trkpt>
      <trkpt lat="44.38804" lon="4.77114">
        <ele>167.4</ele>
        <time>2018-03-26T12:27:18Z</time>
      </trkpt>
      <trkpt lat="44.38807" lon="4.77096">
        <ele>167.4</ele>
        <time>2018-03-26T12:27:21Z</time>
      </trkpt>
      <trkpt lat="44.38813" lon="4.77087">
        <ele>167.3</ele>
        <time>2018-03-26T12:27:23Z</time>
      </trkpt>
      <trkpt lat="44.38821" lon="4.77074">
        <ele>167</ele>
        <time>2018-03-26T12:27:25Z</time>
      </trkpt>
      <trkpt lat="44.38829" lon="4.77064">
        <ele>166.8</ele>
        <time>2018-03-26T12:27:27Z</time>
      </trkpt>
      <trkpt lat="44.38833" lon="4.77047">
        <ele>166.5</ele>
        <time>2018-03-26T12:27:30Z</time>
      </trkpt>
      <trkpt lat="44.38838" lon="4.77037">
        <ele>166.4</ele>
        <time>2018-03-26T12:27:32Z</time>
      </trkpt>
      <trkpt lat="44.38843" lon="4.77024">
        <ele>166</ele>
        <time>2018-03-26T12:27:34Z</time>
      </trkpt>
      <trkpt lat="44.38847" lon="4.77008">
        <ele>165.4</ele>
        <time>2018-03-26T12:27:37Z</time>
      </trkpt>
      <trkpt lat="44.38855" lon="4.76996">
        <ele>165.2</ele>
        <time>2018-03-26T12:27:40Z</time>
      </trkpt>
      <trkpt lat="44.38862" lon="4.76981">
        <ele>164.9</ele>
        <time>2018-03-26T12:27:43Z</time>
      </trkpt>
      <trkpt lat="44.3887" lon="4.76968">
        <ele>164.6</ele>
        <time>2018-03-26T12:27:46Z</time>
      </trkpt>
      <trkpt lat="44.38878" lon="4.76952">
        <ele>164.5</ele>
        <time>2018-03-26T12:27:49Z</time>
      </trkpt>
      <trkpt lat="44.38882" lon="4.7694">
        <ele>164.3</ele>
        <time>2018-03-26T12:27:51Z</time>
      </trkpt>
      <trkpt lat="44.38889" lon="4.76923">
        <ele>164.2</ele>
        <time>2018-03-26T12:27:54Z</time>
      </trkpt>
      <trkpt lat="44.38892" lon="4.76911">
        <ele>163.9</ele>
        <time>2018-03-26T12:27:56Z</time>
      </trkpt>
      <trkpt lat="44.38895" lon="4.76895">
        <ele>163.7</ele>
        <time>2018-03-26T12:27:59Z</time>
      </trkpt>
      <trkpt lat="44.38887" lon="4.76883">
        <ele>163.7</ele>
        <time>2018-03-26T12:28:02Z</time>
      </trkpt>
      <trkpt lat="44.38875" lon="4.76879">
        <ele>163.5</ele>
        <time>2018-03-26T12:28:05Z</time>
      </trkpt>
      <trkpt lat="44.38863" lon="4.76876">
        <ele>163.6</ele>
        <time>2018-03-26T12:28:08Z</time>
      </trkpt>
      <trkpt lat="44.38851" lon="4.76872">
        <ele>164.2</ele>
        <time>2018-03-26T12:28:11Z</time>
      </trkpt>
      <trkpt lat="44.38841" lon="4.76866">
        <ele>164.8</ele>
        <time>2018-03-26T12:28:14Z</time>
      </trkpt>
      <trkpt lat="44.38833" lon="4.76856">
        <ele>165.2</ele>
        <time>2018-03-26T12:28:17Z</time>
      </trkpt>
      <trkpt lat="44.38829" lon="4.76842">
        <ele>165.6</ele>
        <time>2018-03-26T12:28:20Z</time>
      </trkpt>
      <trkpt lat="44.38828" lon="4.76825">
        <ele>166.1</ele>
        <time>2018-03-26T12:28:23Z</time>
      </trkpt>
      <trkpt lat="44.38824" lon="4.76811">
        <ele>166.1</ele>
        <time>2018-03-26T12:28:26Z</time>
      </trkpt>
      <trkpt lat="44.38815" lon="4.768">
        <ele>166</ele>
        <time>2018-03-26T12:28:29Z</time>
      </trkpt>
      <trkpt lat="44.38813" lon="4.76785">
        <ele>166.1</ele>
        <time>2018-03-26T12:28:33Z</time>
      </trkpt>
      <trkpt lat="44.38813" lon="4.76772">
        <ele>166</ele>
        <time>2018-03-26T12:28:37Z</time>
      </trkpt>
      <trkpt lat="44.3881" lon="4.76757">
        <ele>166.2</ele>
        <time>2018-03-26T12:28:41Z</time>
      </trkpt>
      <trkpt lat="44.38814" lon="4.76743">
        <ele>165.9</ele>
        <time>2018-03-26T12:28:45Z</time>
      </trkpt>
      <trkpt lat="44.38817" lon="4.76732">
        <ele>165.7</ele>
        <time>2018-03-26T12:28:48Z</time>
      </trkpt>
      <trkpt lat="44.38821" lon="4.7672">
        <ele>165.7</ele>
        <time>2018-03-26T12:28:51Z</time>
      </trkpt>
      <trkpt lat="44.38828" lon="4.76712">
        <ele>165.3</ele>
        <time>2018-03-26T12:28:54Z</time>
      </trkpt>
      <trkpt lat="44.38835" lon="4.76699">
        <ele>164.9</ele>
        <time>2018-03-26T12:28:58Z</time>
      </trkpt>
      <trkpt lat="44.38834" lon="4.76687">
        <ele>164.6</ele>
        <time>2018-03-26T12:29:01Z</time>
      </trkpt>
      <trkpt lat="44.38834" lon="4.76673">
        <ele>164.7</ele>
        <time>2018-03-26T12:29:04Z</time>
      </trkpt>
      <trkpt lat="44.38827" lon="4.76665">
        <ele>164.1</ele>
        <time>2018-03-26T12:29:09Z</time>
      </trkpt>
      <trkpt lat="44.38827" lon="4.76652">
        <ele>163.5</ele>
        <time>2018-03-26T12:29:13Z</time>
      </trkpt>
      <trkpt lat="44.38829" lon="4.76639">
        <ele>163.2</ele>
        <time>2018-03-26T12:29:17Z</time>
      </trkpt>
      <trkpt lat="44.3883" lon="4.76625">
        <ele>163.8</ele>
        <time>2018-03-26T12:29:21Z</time>
      </trkpt>
      <trkpt lat="44.38832" lon="4.76612">
        <ele>164.5</ele>
        <time>2018-03-26T12:29:25Z</time>
      </trkpt>
      <trkpt lat="44.38834" lon="4.76598">
        <ele>162.6</ele>
        <time>2018-03-26T12:29:30Z</time>
      </trkpt>
      <trkpt lat="44.38832" lon="4.76583">
        <ele>158.3</ele>
        <time>2018-03-26T12:29:37Z</time>
      </trkpt>
      <trkpt lat="44.38833" lon="4.76569">
        <ele>156.2</ele>
        <time>2018-03-26T12:29:42Z</time>
      </trkpt>
      <trkpt lat="44.38836" lon="4.76556">
        <ele>154.5</ele>
        <time>2018-03-26T12:29:45Z</time>
      </trkpt>
      <trkpt lat="44.38834" lon="4.76541">
        <ele>153.3</ele>
        <time>2018-03-26T12:29:48Z</time>
      </trkpt>
      <trkpt lat="44.38834" lon="4.76526">
        <ele>151.3</ele>
        <time>2018-03-26T12:29:51Z</time>
      </trkpt>
      <trkpt lat="44.38839" lon="4.76514">
        <ele>149.8</ele>
        <time>2018-03-26T12:29:54Z</time>
      </trkpt>
      <trkpt lat="44.38844" lon="4.76498">
        <ele>148</ele>
        <time>2018-03-26T12:29:57Z</time>
      </trkpt>
      <trkpt lat="44.38842" lon="4.76485">
        <ele>146</ele>
        <time>2018-03-26T12:30:00Z</time>
      </trkpt>
      <trkpt lat="44.38836" lon="4.76471">
        <ele>145</ele>
        <time>2018-03-26T12:30:03Z</time>
      </trkpt>
      <trkpt lat="44.38831" lon="4.76457">
        <ele>144.6</ele>
        <time>2018-03-26T12:30:06Z</time>
      </trkpt>
      <trkpt lat="44.38825" lon="4.76445">
        <ele>145.1</ele>
        <time>2018-03-26T12:30:09Z</time>
      </trkpt>
      <trkpt lat="44.3882" lon="4.76434">
        <ele>145.7</ele>
        <time>2018-03-26T12:30:12Z</time>
      </trkpt>
      <trkpt lat="44.38814" lon="4.76423">
        <ele>146.3</ele>
        <time>2018-03-26T12:30:15Z</time>
      </trkpt>
      <trkpt lat="44.38807" lon="4.76412">
        <ele>146.9</ele>
        <time>2018-03-26T12:30:18Z</time>
      </trkpt>
      <trkpt lat="44.38799" lon="4.764">
        <ele>147.3</ele>
        <time>2018-03-26T12:30:21Z</time>
      </trkpt>
      <trkpt lat="44.3879" lon="4.76387">
        <ele>147.4</ele>
        <time>2018-03-26T12:30:24Z</time>
      </trkpt>
      <trkpt lat="44.38783" lon="4.76372">
        <ele>147.4</ele>
        <time>2018-03-26T12:30:27Z</time>
      </trkpt>
      <trkpt lat="44.38776" lon="4.76356">
        <ele>147.7</ele>
        <time>2018-03-26T12:30:30Z</time>
      </trkpt>
      <trkpt lat="44.38768" lon="4.76342">
        <ele>148.1</ele>
        <time>2018-03-26T12:30:33Z</time>
      </trkpt>
      <trkpt lat="44.3876" lon="4.76331">
        <ele>148.2</ele>
        <time>2018-03-26T12:30:36Z</time>
      </trkpt>
      <trkpt lat="44.38753" lon="4.76319">
        <ele>148.7</ele>
        <time>2018-03-26T12:30:39Z</time>
      </trkpt>
      <trkpt lat="44.38747" lon="4.76305">
        <ele>149</ele>
        <time>2018-03-26T12:30:42Z</time>
      </trkpt>
      <trkpt lat="44.38742" lon="4.7629">
        <ele>150</ele>
        <time>2018-03-26T12:30:45Z</time>
      </trkpt>
      <trkpt lat="44.38737" lon="4.76274">
        <ele>150.9</ele>
        <time>2018-03-26T12:30:48Z</time>
      </trkpt>
      <trkpt lat="44.38733" lon="4.76261">
        <ele>151.2</ele>
        <time>2018-03-26T12:30:50Z</time>
      </trkpt>
      <trkpt lat="44.38729" lon="4.76245">
        <ele>151.6</ele>
        <time>2018-03-26T12:30:52Z</time>
      </trkpt>
      <trkpt lat="44.38721" lon="4.76237">
        <ele>151.7</ele>
        <time>2018-03-26T12:30:54Z</time>
      </trkpt>
      <trkpt lat="44.38712" lon="4.76231">
        <ele>151.8</ele>
        <time>2018-03-26T12:30:56Z</time>
      </trkpt>
      <trkpt lat="44.38702" lon="4.76227">
        <ele>152</ele>
        <time>2018-03-26T12:30:58Z</time>
      </trkpt>
      <trkpt lat="44.3869" lon="4.76221">
        <ele>151.7</ele>
        <time>2018-03-26T12:31:00Z</time>
      </trkpt>
      <trkpt lat="44.38678" lon="4.76212">
        <ele>151.1</ele>
        <time>2018-03-26T12:31:02Z</time>
      </trkpt>
      <trkpt lat="44.38666" lon="4.76204">
        <ele>150.9</ele>
        <time>2018-03-26T12:31:04Z</time>
      </trkpt>
      <trkpt lat="44.38654" lon="4.76194">
        <ele>149.6</ele>
        <time>2018-03-26T12:31:06Z</time>
      </trkpt>
      <trkpt lat="44.38641" lon="4.76184">
        <ele>148.4</ele>
        <time>2018-03-26T12:31:08Z</time>
      </trkpt>
      <trkpt lat="44.38627" lon="4.76174">
        <ele>147.2</ele>
        <time>2018-03-26T12:31:10Z</time>
      </trkpt>
      <trkpt lat="44.38615" lon="4.7616">
        <ele>146.3</ele>
        <time>2018-03-26T12:31:12Z</time>
      </trkpt>
      <trkpt lat="44.38602" lon="4.76146">
        <ele>145.4</ele>
        <time>2018-03-26T12:31:14Z</time>
      </trkpt>
      <trkpt lat="44.38592" lon="4.76133">
        <ele>144.5</ele>
        <time>2018-03-26T12:31:16Z</time>
      </trkpt>
      <trkpt lat="44.38581" lon="4.76134">
        <ele>143.2</ele>
        <time>2018-03-26T12:31:18Z</time>
      </trkpt>
      <trkpt lat="44.3857" lon="4.7614">
        <ele>142.1</ele>
        <time>2018-03-26T12:31:20Z</time>
      </trkpt>
      <trkpt lat="44.38558" lon="4.76143">
        <ele>140.4</ele>
        <time>2018-03-26T12:31:22Z</time>
      </trkpt>
      <trkpt lat="44.38546" lon="4.7614">
        <ele>139.2</ele>
        <time>2018-03-26T12:31:24Z</time>
      </trkpt>
      <trkpt lat="44.38533" lon="4.76134">
        <ele>137.9</ele>
        <time>2018-03-26T12:31:26Z</time>
      </trkpt>
      <trkpt lat="44.3852" lon="4.76127">
        <ele>136.3</ele>
        <time>2018-03-26T12:31:28Z</time>
      </trkpt>
      <trkpt lat="44.38508" lon="4.76114">
        <ele>134.4</ele>
        <time>2018-03-26T12:31:30Z</time>
      </trkpt>
      <trkpt lat="44.38499" lon="4.76096">
        <ele>132.8</ele>
        <time>2018-03-26T12:31:32Z</time>
      </trkpt>
      <trkpt lat="44.38488" lon="4.76081">
        <ele>130.8</ele>
        <time>2018-03-26T12:31:34Z</time>
      </trkpt>
      <trkpt lat="44.38474" lon="4.76065">
        <ele>129.4</ele>
        <time>2018-03-26T12:31:36Z</time>
      </trkpt>
      <trkpt lat="44.38467" lon="4.76057">
        <ele>128.3</ele>
        <time>2018-03-26T12:31:37Z</time>
      </trkpt>
      <trkpt lat="44.3846" lon="4.7605">
        <ele>127.6</ele>
        <time>2018-03-26T12:31:38Z</time>
      </trkpt>
      <trkpt lat="44.38452" lon="4.76042">
        <ele>126.9</ele>
        <time>2018-03-26T12:31:39Z</time>
      </trkpt>
      <trkpt lat="44.38445" lon="4.76035">
        <ele>126.2</ele>
        <time>2018-03-26T12:31:40Z</time>
      </trkpt>
      <trkpt lat="44.38437" lon="4.76027">
        <ele>125.2</ele>
        <time>2018-03-26T12:31:41Z</time>
      </trkpt>
      <trkpt lat="44.38424" lon="4.76015">
        <ele>123.7</ele>
        <time>2018-03-26T12:31:43Z</time>
      </trkpt>
      <trkpt lat="44.38413" lon="4.76009">
        <ele>122</ele>
        <time>2018-03-26T12:31:45Z</time>
      </trkpt>
      <trkpt lat="44.38401" lon="4.76007">
        <ele>120.2</ele>
        <time>2018-03-26T12:31:47Z</time>
      </trkpt>
      <trkpt lat="44.38388" lon="4.76005">
        <ele>118.4</ele>
        <time>2018-03-26T12:31:49Z</time>
      </trkpt>
      <trkpt lat="44.38375" lon="4.76005">
        <ele>116.3</ele>
        <time>2018-03-26T12:31:51Z</time>
      </trkpt>
      <trkpt lat="44.3836" lon="4.76005">
        <ele>114</ele>
        <time>2018-03-26T12:31:53Z</time>
      </trkpt>
      <trkpt lat="44.38343" lon="4.76004">
        <ele>111.5</ele>
        <time>2018-03-26T12:31:55Z</time>
      </trkpt>
      <trkpt lat="44.38325" lon="4.76003">
        <ele>109.2</ele>
        <time>2018-03-26T12:31:57Z</time>
      </trkpt>
      <trkpt lat="44.38308" lon="4.75999">
        <ele>107.4</ele>
        <time>2018-03-26T12:31:59Z</time>
      </trkpt>
      <trkpt lat="44.38292" lon="4.75998">
        <ele>105.6</ele>
        <time>2018-03-26T12:32:01Z</time>
      </trkpt>
      <trkpt lat="44.3828" lon="4.76">
        <ele>104.3</ele>
        <time>2018-03-26T12:32:03Z</time>
      </trkpt>
      <trkpt lat="44.3827" lon="4.75999">
        <ele>103.1</ele>
        <time>2018-03-26T12:32:05Z</time>
      </trkpt>
      <trkpt lat="44.38263" lon="4.75989">
        <ele>102.3</ele>
        <time>2018-03-26T12:32:07Z</time>
      </trkpt>
      <trkpt lat="44.38257" lon="4.75976">
        <ele>101.6</ele>
        <time>2018-03-26T12:32:09Z</time>
      </trkpt>
      <trkpt lat="44.38249" lon="4.75963">
        <ele>101</ele>
        <time>2018-03-26T12:32:11Z</time>
      </trkpt>
      <trkpt lat="44.38241" lon="4.7595">
        <ele>100.5</ele>
        <time>2018-03-26T12:32:13Z</time>
      </trkpt>
      <trkpt lat="44.38231" lon="4.75938">
        <ele>100</ele>
        <time>2018-03-26T12:32:15Z</time>
      </trkpt>
      <trkpt lat="44.3822" lon="4.75927">
        <ele>99.7</ele>
        <time>2018-03-26T12:32:17Z</time>
      </trkpt>
      <trkpt lat="44.38209" lon="4.75915">
        <ele>99.3</ele>
        <time>2018-03-26T12:32:19Z</time>
      </trkpt>
      <trkpt lat="44.38198" lon="4.75902">
        <ele>98.8</ele>
        <time>2018-03-26T12:32:21Z</time>
      </trkpt>
      <trkpt lat="44.38187" lon="4.75885">
        <ele>98.2</ele>
        <time>2018-03-26T12:32:23Z</time>
      </trkpt>
      <trkpt lat="44.3818" lon="4.75862">
        <ele>97.5</ele>
        <time>2018-03-26T12:32:25Z</time>
      </trkpt>
      <trkpt lat="44.38176" lon="4.75837">
        <ele>96.7</ele>
        <time>2018-03-26T12:32:27Z</time>
      </trkpt>
      <trkpt lat="44.38174" lon="4.75825">
        <ele>96.1</ele>
        <time>2018-03-26T12:32:28Z</time>
      </trkpt>
      <trkpt lat="44.38172" lon="4.75812">
        <ele>95.7</ele>
        <time>2018-03-26T12:32:29Z</time>
      </trkpt>
      <trkpt lat="44.38168" lon="4.758">
        <ele>95.3</ele>
        <time>2018-03-26T12:32:30Z</time>
      </trkpt>
      <trkpt lat="44.38164" lon="4.75788">
        <ele>94.9</ele>
        <time>2018-03-26T12:32:31Z</time>
      </trkpt>
      <trkpt lat="44.3816" lon="4.75777">
        <ele>94.4</ele>
        <time>2018-03-26T12:32:32Z</time>
      </trkpt>
      <trkpt lat="44.38155" lon="4.75766">
        <ele>94</ele>
        <time>2018-03-26T12:32:33Z</time>
      </trkpt>
      <trkpt lat="44.3815" lon="4.75756">
        <ele>93.5</ele>
        <time>2018-03-26T12:32:34Z</time>
      </trkpt>
      <trkpt lat="44.3814" lon="4.75735">
        <ele>92.9</ele>
        <time>2018-03-26T12:32:36Z</time>
      </trkpt>
      <trkpt lat="44.3813" lon="4.75716">
        <ele>92</ele>
        <time>2018-03-26T12:32:38Z</time>
      </trkpt>
      <trkpt lat="44.3812" lon="4.75697">
        <ele>91.6</ele>
        <time>2018-03-26T12:32:40Z</time>
      </trkpt>
      <trkpt lat="44.3811" lon="4.75679">
        <ele>90.9</ele>
        <time>2018-03-26T12:32:42Z</time>
      </trkpt>
      <trkpt lat="44.38101" lon="4.75662">
        <ele>90.4</ele>
        <time>2018-03-26T12:32:44Z</time>
      </trkpt>
      <trkpt lat="44.38091" lon="4.75646">
        <ele>90.1</ele>
        <time>2018-03-26T12:32:46Z</time>
      </trkpt>
      <trkpt lat="44.3808" lon="4.75631">
        <ele>89.7</ele>
        <time>2018-03-26T12:32:48Z</time>
      </trkpt>
      <trkpt lat="44.38069" lon="4.75616">
        <ele>89.4</ele>
        <time>2018-03-26T12:32:50Z</time>
      </trkpt>
      <trkpt lat="44.38058" lon="4.75601">
        <ele>89.3</ele>
        <time>2018-03-26T12:32:52Z</time>
      </trkpt>
      <trkpt lat="44.38047" lon="4.75586">
        <ele>89.2</ele>
        <time>2018-03-26T12:32:54Z</time>
      </trkpt>
      <trkpt lat="44.3804" lon="4.75568">
        <ele>89</ele>
        <time>2018-03-26T12:32:56Z</time>
      </trkpt>
      <trkpt lat="44.38035" lon="4.75549">
        <ele>88.6</ele>
        <time>2018-03-26T12:32:58Z</time>
      </trkpt>
      <trkpt lat="44.38031" lon="4.75532">
        <ele>88.3</ele>
        <time>2018-03-26T12:33:00Z</time>
      </trkpt>
      <trkpt lat="44.38029" lon="4.75518">
        <ele>87.6</ele>
        <time>2018-03-26T12:33:03Z</time>
      </trkpt>
      <trkpt lat="44.38027" lon="4.75501">
        <ele>86.3</ele>
        <time>2018-03-26T12:33:08Z</time>
      </trkpt>
      <trkpt lat="44.38018" lon="4.75496">
        <ele>85.9</ele>
        <time>2018-03-26T12:33:11Z</time>
      </trkpt>
      <trkpt lat="44.38007" lon="4.75496">
        <ele>86.3</ele>
        <time>2018-03-26T12:33:14Z</time>
      </trkpt>
      <trkpt lat="44.37997" lon="4.75498">
        <ele>86.9</ele>
        <time>2018-03-26T12:33:17Z</time>
      </trkpt>
      <trkpt lat="44.37988" lon="4.75498">
        <ele>87.7</ele>
        <time>2018-03-26T12:33:20Z</time>
      </trkpt>
      <trkpt lat="44.37978" lon="4.75496">
        <ele>88.5</ele>
        <time>2018-03-26T12:33:23Z</time>
      </trkpt>
      <trkpt lat="44.37968" lon="4.75495">
        <ele>89.3</ele>
        <time>2018-03-26T12:33:26Z</time>
      </trkpt>
      <trkpt lat="44.37957" lon="4.75495">
        <ele>90.4</ele>
        <time>2018-03-26T12:33:29Z</time>
      </trkpt>
      <trkpt lat="44.37945" lon="4.75495">
        <ele>90.9</ele>
        <time>2018-03-26T12:33:32Z</time>
      </trkpt>
      <trkpt lat="44.37935" lon="4.75492">
        <ele>91</ele>
        <time>2018-03-26T12:33:35Z</time>
      </trkpt>
      <trkpt lat="44.37924" lon="4.75491">
        <ele>91.4</ele>
        <time>2018-03-26T12:33:38Z</time>
      </trkpt>
      <trkpt lat="44.37914" lon="4.75487">
        <ele>91.6</ele>
        <time>2018-03-26T12:33:41Z</time>
      </trkpt>
      <trkpt lat="44.37904" lon="4.75484">
        <ele>92.1</ele>
        <time>2018-03-26T12:33:44Z</time>
      </trkpt>
      <trkpt lat="44.37894" lon="4.7548">
        <ele>92.6</ele>
        <time>2018-03-26T12:33:47Z</time>
      </trkpt>
      <trkpt lat="44.37885" lon="4.75475">
        <ele>93.2</ele>
        <time>2018-03-26T12:33:50Z</time>
      </trkpt>
      <trkpt lat="44.37875" lon="4.75472">
        <ele>93.6</ele>
        <time>2018-03-26T12:33:53Z</time>
      </trkpt>
      <trkpt lat="44.37865" lon="4.75471">
        <ele>94.2</ele>
        <time>2018-03-26T12:33:56Z</time>
      </trkpt>
      <trkpt lat="44.37855" lon="4.75471">
        <ele>94.9</ele>
        <time>2018-03-26T12:33:59Z</time>
      </trkpt>
      <trkpt lat="44.37846" lon="4.75469">
        <ele>95.5</ele>
        <time>2018-03-26T12:34:02Z</time>
      </trkpt>
      <trkpt lat="44.37836" lon="4.75468">
        <ele>96.4</ele>
        <time>2018-03-26T12:34:05Z</time>
      </trkpt>
      <trkpt lat="44.37827" lon="4.75467">
        <ele>97.2</ele>
        <time>2018-03-26T12:34:08Z</time>
      </trkpt>
      <trkpt lat="44.37817" lon="4.75465">
        <ele>97.7</ele>
        <time>2018-03-26T12:34:11Z</time>
      </trkpt>
      <trkpt lat="44.37807" lon="4.75461">
        <ele>98.3</ele>
        <time>2018-03-26T12:34:14Z</time>
      </trkpt>
      <trkpt lat="44.37798" lon="4.75457">
        <ele>98.9</ele>
        <time>2018-03-26T12:34:17Z</time>
      </trkpt>
      <trkpt lat="44.37788" lon="4.75452">
        <ele>99.1</ele>
        <time>2018-03-26T12:34:20Z</time>
      </trkpt>
      <trkpt lat="44.37779" lon="4.75448">
        <ele>99.5</ele>
        <time>2018-03-26T12:34:23Z</time>
      </trkpt>
      <trkpt lat="44.37769" lon="4.75444">
        <ele>99.8</ele>
        <time>2018-03-26T12:34:26Z</time>
      </trkpt>
      <trkpt lat="44.37758" lon="4.75438">
        <ele>100</ele>
        <time>2018-03-26T12:34:29Z</time>
      </trkpt>
      <trkpt lat="44.37748" lon="4.75431">
        <ele>100</ele>
        <time>2018-03-26T12:34:32Z</time>
      </trkpt>
      <trkpt lat="44.37739" lon="4.75424">
        <ele>99.6</ele>
        <time>2018-03-26T12:34:36Z</time>
      </trkpt>
      <trkpt lat="44.37731" lon="4.75417">
        <ele>99.7</ele>
        <time>2018-03-26T12:34:39Z</time>
      </trkpt>
      <trkpt lat="44.37722" lon="4.75411">
        <ele>99.7</ele>
        <time>2018-03-26T12:34:42Z</time>
      </trkpt>
      <trkpt lat="44.3771" lon="4.75403">
        <ele>99.5</ele>
        <time>2018-03-26T12:34:45Z</time>
      </trkpt>
      <trkpt lat="44.37699" lon="4.75395">
        <ele>99.1</ele>
        <time>2018-03-26T12:34:48Z</time>
      </trkpt>
      <trkpt lat="44.3769" lon="4.75389">
        <ele>98.6</ele>
        <time>2018-03-26T12:34:50Z</time>
      </trkpt>
      <trkpt lat="44.37681" lon="4.75383">
        <ele>98.2</ele>
        <time>2018-03-26T12:34:52Z</time>
      </trkpt>
      <trkpt lat="44.37672" lon="4.75377">
        <ele>97.7</ele>
        <time>2018-03-26T12:34:54Z</time>
      </trkpt>
      <trkpt lat="44.37663" lon="4.75373">
        <ele>97.6</ele>
        <time>2018-03-26T12:34:56Z</time>
      </trkpt>
      <trkpt lat="44.37653" lon="4.75368">
        <ele>97.6</ele>
        <time>2018-03-26T12:34:58Z</time>
      </trkpt>
      <trkpt lat="44.37644" lon="4.75363">
        <ele>97.4</ele>
        <time>2018-03-26T12:35:00Z</time>
      </trkpt>
      <trkpt lat="44.37636" lon="4.7536">
        <ele>97</ele>
        <time>2018-03-26T12:35:02Z</time>
      </trkpt>
      <trkpt lat="44.37626" lon="4.75357">
        <ele>96.8</ele>
        <time>2018-03-26T12:35:04Z</time>
      </trkpt>
      <trkpt lat="44.37617" lon="4.75354">
        <ele>96.7</ele>
        <time>2018-03-26T12:35:06Z</time>
      </trkpt>
      <trkpt lat="44.37608" lon="4.75351">
        <ele>96.9</ele>
        <time>2018-03-26T12:35:08Z</time>
      </trkpt>
      <trkpt lat="44.37595" lon="4.75348">
        <ele>98.2</ele>
        <time>2018-03-26T12:35:11Z</time>
      </trkpt>
      <trkpt lat="44.37582" lon="4.75345">
        <ele>99.4</ele>
        <time>2018-03-26T12:35:14Z</time>
      </trkpt>
      <trkpt lat="44.37571" lon="4.75342">
        <ele>100</ele>
        <time>2018-03-26T12:35:17Z</time>
      </trkpt>
      <trkpt lat="44.37558" lon="4.7534">
        <ele>100.1</ele>
        <time>2018-03-26T12:35:20Z</time>
      </trkpt>
      <trkpt lat="44.37549" lon="4.75339">
        <ele>100.1</ele>
        <time>2018-03-26T12:35:22Z</time>
      </trkpt>
      <trkpt lat="44.37536" lon="4.75335">
        <ele>100.4</ele>
        <time>2018-03-26T12:35:25Z</time>
      </trkpt>
      <trkpt lat="44.37524" lon="4.75331">
        <ele>100.7</ele>
        <time>2018-03-26T12:35:28Z</time>
      </trkpt>
      <trkpt lat="44.37512" lon="4.75325">
        <ele>100.6</ele>
        <time>2018-03-26T12:35:31Z</time>
      </trkpt>
      <trkpt lat="44.37501" lon="4.75313">
        <ele>100.6</ele>
        <time>2018-03-26T12:35:34Z</time>
      </trkpt>
      <trkpt lat="44.37493" lon="4.75305">
        <ele>100.4</ele>
        <time>2018-03-26T12:35:36Z</time>
      </trkpt>
      <trkpt lat="44.37484" lon="4.75297">
        <ele>100</ele>
        <time>2018-03-26T12:35:38Z</time>
      </trkpt>
      <trkpt lat="44.37475" lon="4.75289">
        <ele>99.5</ele>
        <time>2018-03-26T12:35:40Z</time>
      </trkpt>
      <trkpt lat="44.37465" lon="4.75281">
        <ele>99.3</ele>
        <time>2018-03-26T12:35:43Z</time>
      </trkpt>
      <trkpt lat="44.37455" lon="4.75278">
        <ele>99.1</ele>
        <time>2018-03-26T12:35:46Z</time>
      </trkpt>
      <trkpt lat="44.37444" lon="4.7528">
        <ele>98.8</ele>
        <time>2018-03-26T12:35:49Z</time>
      </trkpt>
      <trkpt lat="44.37433" lon="4.75279">
        <ele>98.4</ele>
        <time>2018-03-26T12:35:52Z</time>
      </trkpt>
      <trkpt lat="44.37423" lon="4.75279">
        <ele>98.3</ele>
        <time>2018-03-26T12:35:55Z</time>
      </trkpt>
      <trkpt lat="44.37414" lon="4.7528">
        <ele>98.7</ele>
        <time>2018-03-26T12:35:58Z</time>
      </trkpt>
      <trkpt lat="44.37405" lon="4.7528">
        <ele>100.2</ele>
        <time>2018-03-26T12:36:02Z</time>
      </trkpt>
      <trkpt lat="44.37395" lon="4.75279">
        <ele>101.7</ele>
        <time>2018-03-26T12:36:06Z</time>
      </trkpt>
      <trkpt lat="44.37385" lon="4.75278">
        <ele>103.7</ele>
        <time>2018-03-26T12:36:11Z</time>
      </trkpt>
      <trkpt lat="44.37374" lon="4.75274">
        <ele>105.6</ele>
        <time>2018-03-26T12:36:16Z</time>
      </trkpt>
      <trkpt lat="44.37364" lon="4.7527">
        <ele>106.6</ele>
        <time>2018-03-26T12:36:20Z</time>
      </trkpt>
      <trkpt lat="44.37353" lon="4.75271">
        <ele>107.3</ele>
        <time>2018-03-26T12:36:24Z</time>
      </trkpt>
      <trkpt lat="44.37342" lon="4.75272">
        <ele>107.5</ele>
        <time>2018-03-26T12:36:27Z</time>
      </trkpt>
      <trkpt lat="44.37331" lon="4.75272">
        <ele>107.4</ele>
        <time>2018-03-26T12:36:30Z</time>
      </trkpt>
      <trkpt lat="44.37321" lon="4.75271">
        <ele>107.3</ele>
        <time>2018-03-26T12:36:32Z</time>
      </trkpt>
      <trkpt lat="44.37308" lon="4.75269">
        <ele>106.5</ele>
        <time>2018-03-26T12:36:34Z</time>
      </trkpt>
      <trkpt lat="44.37295" lon="4.75264">
        <ele>105.3</ele>
        <time>2018-03-26T12:36:36Z</time>
      </trkpt>
      <trkpt lat="44.37284" lon="4.75258">
        <ele>104.6</ele>
        <time>2018-03-26T12:36:38Z</time>
      </trkpt>
      <trkpt lat="44.37273" lon="4.75251">
        <ele>104.2</ele>
        <time>2018-03-26T12:36:40Z</time>
      </trkpt>
      <trkpt lat="44.37262" lon="4.75248">
        <ele>103.9</ele>
        <time>2018-03-26T12:36:42Z</time>
      </trkpt>
      <trkpt lat="44.37253" lon="4.75247">
        <ele>103.6</ele>
        <time>2018-03-26T12:36:44Z</time>
      </trkpt>
      <trkpt lat="44.37241" lon="4.75247">
        <ele>103.4</ele>
        <time>2018-03-26T12:36:47Z</time>
      </trkpt>
      <trkpt lat="44.3723" lon="4.75249">
        <ele>103.2</ele>
        <time>2018-03-26T12:36:50Z</time>
      </trkpt>
      <trkpt lat="44.3722" lon="4.7525">
        <ele>103.4</ele>
        <time>2018-03-26T12:36:53Z</time>
      </trkpt>
      <trkpt lat="44.3721" lon="4.75251">
        <ele>104.5</ele>
        <time>2018-03-26T12:36:57Z</time>
      </trkpt>
      <trkpt lat="44.37201" lon="4.75249">
        <ele>105.5</ele>
        <time>2018-03-26T12:37:00Z</time>
      </trkpt>
      <trkpt lat="44.37192" lon="4.75247">
        <ele>106.2</ele>
        <time>2018-03-26T12:37:03Z</time>
      </trkpt>
      <trkpt lat="44.37183" lon="4.75241">
        <ele>106.9</ele>
        <time>2018-03-26T12:37:06Z</time>
      </trkpt>
      <trkpt lat="44.37172" lon="4.75239">
        <ele>108</ele>
        <time>2018-03-26T12:37:10Z</time>
      </trkpt>
      <trkpt lat="44.3716" lon="4.75239">
        <ele>108.8</ele>
        <time>2018-03-26T12:37:14Z</time>
      </trkpt>
      <trkpt lat="44.37151" lon="4.75237">
        <ele>109.4</ele>
        <time>2018-03-26T12:37:17Z</time>
      </trkpt>
      <trkpt lat="44.37145" lon="4.75227">
        <ele>109.7</ele>
        <time>2018-03-26T12:37:20Z</time>
      </trkpt>
      <trkpt lat="44.37138" lon="4.75213">
        <ele>110.1</ele>
        <time>2018-03-26T12:37:23Z</time>
      </trkpt>
      <trkpt lat="44.37131" lon="4.75204">
        <ele>110.3</ele>
        <time>2018-03-26T12:37:25Z</time>
      </trkpt>
      <trkpt lat="44.3712" lon="4.75194">
        <ele>110.2</ele>
        <time>2018-03-26T12:37:28Z</time>
      </trkpt>
      <trkpt lat="44.3711" lon="4.75183">
        <ele>110.1</ele>
        <time>2018-03-26T12:37:31Z</time>
      </trkpt>
      <trkpt lat="44.37099" lon="4.75173">
        <ele>110.2</ele>
        <time>2018-03-26T12:37:34Z</time>
      </trkpt>
      <trkpt lat="44.37089" lon="4.75163">
        <ele>110.4</ele>
        <time>2018-03-26T12:37:37Z</time>
      </trkpt>
      <trkpt lat="44.37079" lon="4.75155">
        <ele>110.3</ele>
        <time>2018-03-26T12:37:40Z</time>
      </trkpt>
      <trkpt lat="44.37069" lon="4.75148">
        <ele>110.4</ele>
        <time>2018-03-26T12:37:43Z</time>
      </trkpt>
      <trkpt lat="44.37057" lon="4.75142">
        <ele>110.7</ele>
        <time>2018-03-26T12:37:46Z</time>
      </trkpt>
      <trkpt lat="44.37045" lon="4.75135">
        <ele>110.8</ele>
        <time>2018-03-26T12:37:49Z</time>
      </trkpt>
      <trkpt lat="44.37033" lon="4.7513">
        <ele>110.8</ele>
        <time>2018-03-26T12:37:52Z</time>
      </trkpt>
      <trkpt lat="44.3702" lon="4.7513">
        <ele>110.6</ele>
        <time>2018-03-26T12:37:55Z</time>
      </trkpt>
      <trkpt lat="44.37007" lon="4.75131">
        <ele>110.7</ele>
        <time>2018-03-26T12:37:58Z</time>
      </trkpt>
      <trkpt lat="44.36994" lon="4.75131">
        <ele>110.7</ele>
        <time>2018-03-26T12:38:01Z</time>
      </trkpt>
      <trkpt lat="44.36984" lon="4.75132">
        <ele>110.6</ele>
        <time>2018-03-26T12:38:03Z</time>
      </trkpt>
      <trkpt lat="44.36974" lon="4.75132">
        <ele>110.5</ele>
        <time>2018-03-26T12:38:05Z</time>
      </trkpt>
      <trkpt lat="44.36964" lon="4.75132">
        <ele>110.5</ele>
        <time>2018-03-26T12:38:07Z</time>
      </trkpt>
      <trkpt lat="44.36953" lon="4.75125">
        <ele>110.8</ele>
        <time>2018-03-26T12:38:10Z</time>
      </trkpt>
      <trkpt lat="44.36945" lon="4.75111">
        <ele>110.8</ele>
        <time>2018-03-26T12:38:13Z</time>
      </trkpt>
      <trkpt lat="44.36936" lon="4.75098">
        <ele>110.6</ele>
        <time>2018-03-26T12:38:16Z</time>
      </trkpt>
      <trkpt lat="44.3693" lon="4.75083">
        <ele>111.1</ele>
        <time>2018-03-26T12:38:19Z</time>
      </trkpt>
      <trkpt lat="44.36922" lon="4.75068">
        <ele>111.4</ele>
        <time>2018-03-26T12:38:22Z</time>
      </trkpt>
      <trkpt lat="44.36915" lon="4.75054">
        <ele>111.8</ele>
        <time>2018-03-26T12:38:25Z</time>
      </trkpt>
      <trkpt lat="44.36908" lon="4.75038">
        <ele>112.3</ele>
        <time>2018-03-26T12:38:28Z</time>
      </trkpt>
      <trkpt lat="44.369" lon="4.75025">
        <ele>112.6</ele>
        <time>2018-03-26T12:38:31Z</time>
      </trkpt>
      <trkpt lat="44.3689" lon="4.7502">
        <ele>112.3</ele>
        <time>2018-03-26T12:38:35Z</time>
      </trkpt>
      <trkpt lat="44.36884" lon="4.75009">
        <ele>111.8</ele>
        <time>2018-03-26T12:38:39Z</time>
      </trkpt>
      <trkpt lat="44.36876" lon="4.74997">
        <ele>111.5</ele>
        <time>2018-03-26T12:38:42Z</time>
      </trkpt>
      <trkpt lat="44.3687" lon="4.74982">
        <ele>111.2</ele>
        <time>2018-03-26T12:38:46Z</time>
      </trkpt>
      <trkpt lat="44.36866" lon="4.7497">
        <ele>110.5</ele>
        <time>2018-03-26T12:38:49Z</time>
      </trkpt>
      <trkpt lat="44.36861" lon="4.74956">
        <ele>109.8</ele>
        <time>2018-03-26T12:38:53Z</time>
      </trkpt>
      <trkpt lat="44.36851" lon="4.74948">
        <ele>109.1</ele>
        <time>2018-03-26T12:38:56Z</time>
      </trkpt>
      <trkpt lat="44.36842" lon="4.74947">
        <ele>109.1</ele>
        <time>2018-03-26T12:38:59Z</time>
      </trkpt>
      <trkpt lat="44.36833" lon="4.74941">
        <ele>108.8</ele>
        <time>2018-03-26T12:39:02Z</time>
      </trkpt>
      <trkpt lat="44.36823" lon="4.74935">
        <ele>108.8</ele>
        <time>2018-03-26T12:39:05Z</time>
      </trkpt>
      <trkpt lat="44.36813" lon="4.74926">
        <ele>109.1</ele>
        <time>2018-03-26T12:39:08Z</time>
      </trkpt>
      <trkpt lat="44.36803" lon="4.74918">
        <ele>109.4</ele>
        <time>2018-03-26T12:39:11Z</time>
      </trkpt>
      <trkpt lat="44.36794" lon="4.7491">
        <ele>109.6</ele>
        <time>2018-03-26T12:39:14Z</time>
      </trkpt>
      <trkpt lat="44.36786" lon="4.74904">
        <ele>109.9</ele>
        <time>2018-03-26T12:39:17Z</time>
      </trkpt>
      <trkpt lat="44.36778" lon="4.74896">
        <ele>110.1</ele>
        <time>2018-03-26T12:39:20Z</time>
      </trkpt>
      <trkpt lat="44.36772" lon="4.74886">
        <ele>110.4</ele>
        <time>2018-03-26T12:39:23Z</time>
      </trkpt>
      <trkpt lat="44.36766" lon="4.74875">
        <ele>110.5</ele>
        <time>2018-03-26T12:39:26Z</time>
      </trkpt>
      <trkpt lat="44.36756" lon="4.74867">
        <ele>110.6</ele>
        <time>2018-03-26T12:39:30Z</time>
      </trkpt>
      <trkpt lat="44.3675" lon="4.74856">
        <ele>110.4</ele>
        <time>2018-03-26T12:39:33Z</time>
      </trkpt>
      <trkpt lat="44.36739" lon="4.74845">
        <ele>110</ele>
        <time>2018-03-26T12:39:36Z</time>
      </trkpt>
      <trkpt lat="44.3673" lon="4.74835">
        <ele>109.2</ele>
        <time>2018-03-26T12:39:39Z</time>
      </trkpt>
      <trkpt lat="44.36723" lon="4.74824">
        <ele>108.2</ele>
        <time>2018-03-26T12:39:42Z</time>
      </trkpt>
      <trkpt lat="44.36715" lon="4.74817">
        <ele>106.9</ele>
        <time>2018-03-26T12:39:45Z</time>
      </trkpt>
      <trkpt lat="44.36709" lon="4.74806">
        <ele>105.6</ele>
        <time>2018-03-26T12:39:48Z</time>
      </trkpt>
      <trkpt lat="44.36703" lon="4.74795">
        <ele>104.7</ele>
        <time>2018-03-26T12:39:51Z</time>
      </trkpt>
      <trkpt lat="44.36698" lon="4.74784">
        <ele>102.9</ele>
        <time>2018-03-26T12:39:55Z</time>
      </trkpt>
      <trkpt lat="44.3669" lon="4.74775">
        <ele>102.1</ele>
        <time>2018-03-26T12:39:59Z</time>
      </trkpt>
      <trkpt lat="44.36684" lon="4.74763">
        <ele>101.8</ele>
        <time>2018-03-26T12:40:03Z</time>
      </trkpt>
      <trkpt lat="44.36676" lon="4.74754">
        <ele>102.6</ele>
        <time>2018-03-26T12:40:07Z</time>
      </trkpt>
      <trkpt lat="44.36667" lon="4.74746">
        <ele>103.7</ele>
        <time>2018-03-26T12:40:11Z</time>
      </trkpt>
      <trkpt lat="44.36659" lon="4.74737">
        <ele>105</ele>
        <time>2018-03-26T12:40:15Z</time>
      </trkpt>
      <trkpt lat="44.3665" lon="4.74726">
        <ele>105.8</ele>
        <time>2018-03-26T12:40:19Z</time>
      </trkpt>
      <trkpt lat="44.36641" lon="4.74721">
        <ele>106.2</ele>
        <time>2018-03-26T12:40:22Z</time>
      </trkpt>
      <trkpt lat="44.36635" lon="4.74711">
        <ele>106.7</ele>
        <time>2018-03-26T12:40:25Z</time>
      </trkpt>
      <trkpt lat="44.36638" lon="4.74699">
        <ele>106.7</ele>
        <time>2018-03-26T12:40:28Z</time>
      </trkpt>
      <trkpt lat="44.36632" lon="4.74687">
        <ele>106.4</ele>
        <time>2018-03-26T12:40:31Z</time>
      </trkpt>
      <trkpt lat="44.36626" lon="4.74675">
        <ele>105.5</ele>
        <time>2018-03-26T12:40:34Z</time>
      </trkpt>
      <trkpt lat="44.36626" lon="4.7466">
        <ele>104.3</ele>
        <time>2018-03-26T12:40:37Z</time>
      </trkpt>
      <trkpt lat="44.36622" lon="4.74644">
        <ele>102.7</ele>
        <time>2018-03-26T12:40:40Z</time>
      </trkpt>
      <trkpt lat="44.36627" lon="4.7463">
        <ele>101.3</ele>
        <time>2018-03-26T12:40:43Z</time>
      </trkpt>
      <trkpt lat="44.36632" lon="4.74615">
        <ele>99.6</ele>
        <time>2018-03-26T12:40:46Z</time>
      </trkpt>
      <trkpt lat="44.36634" lon="4.74602">
        <ele>98</ele>
        <time>2018-03-26T12:40:48Z</time>
      </trkpt>
      <trkpt lat="44.36633" lon="4.74585">
        <ele>95.2</ele>
        <time>2018-03-26T12:40:51Z</time>
      </trkpt>
      <trkpt lat="44.36633" lon="4.74566">
        <ele>92.4</ele>
        <time>2018-03-26T12:40:54Z</time>
      </trkpt>
      <trkpt lat="44.36636" lon="4.74553">
        <ele>90.6</ele>
        <time>2018-03-26T12:40:56Z</time>
      </trkpt>
      <trkpt lat="44.36636" lon="4.74537">
        <ele>89</ele>
        <time>2018-03-26T12:40:58Z</time>
      </trkpt>
      <trkpt lat="44.36635" lon="4.74523">
        <ele>87.6</ele>
        <time>2018-03-26T12:41:00Z</time>
      </trkpt>
      <trkpt lat="44.36635" lon="4.74505">
        <ele>85.6</ele>
        <time>2018-03-26T12:41:03Z</time>
      </trkpt>
      <trkpt lat="44.36637" lon="4.7449">
        <ele>84.2</ele>
        <time>2018-03-26T12:41:05Z</time>
      </trkpt>
      <trkpt lat="44.36638" lon="4.74475">
        <ele>82.6</ele>
        <time>2018-03-26T12:41:07Z</time>
      </trkpt>
      <trkpt lat="44.36638" lon="4.74457">
        <ele>80.4</ele>
        <time>2018-03-26T12:41:10Z</time>
      </trkpt>
      <trkpt lat="44.36632" lon="4.74443">
        <ele>77.4</ele>
        <time>2018-03-26T12:41:13Z</time>
      </trkpt>
      <trkpt lat="44.36622" lon="4.74439">
        <ele>74.4</ele>
        <time>2018-03-26T12:41:16Z</time>
      </trkpt>
      <trkpt lat="44.36613" lon="4.74446">
        <ele>72.3</ele>
        <time>2018-03-26T12:41:19Z</time>
      </trkpt>
      <trkpt lat="44.36604" lon="4.74451">
        <ele>70.3</ele>
        <time>2018-03-26T12:41:23Z</time>
      </trkpt>
      <trkpt lat="44.36607" lon="4.74439">
        <ele>68.7</ele>
        <time>2018-03-26T12:41:27Z</time>
      </trkpt>
      <trkpt lat="44.36616" lon="4.74427">
        <ele>67.9</ele>
        <time>2018-03-26T12:41:30Z</time>
      </trkpt>
      <trkpt lat="44.36624" lon="4.74413">
        <ele>67.3</ele>
        <time>2018-03-26T12:41:33Z</time>
      </trkpt>
      <trkpt lat="44.36631" lon="4.74399">
        <ele>66.8</ele>
        <time>2018-03-26T12:41:36Z</time>
      </trkpt>
      <trkpt lat="44.36636" lon="4.74388">
        <ele>66.6</ele>
        <time>2018-03-26T12:41:38Z</time>
      </trkpt>
      <trkpt lat="44.36641" lon="4.74377">
        <ele>66.4</ele>
        <time>2018-03-26T12:41:40Z</time>
      </trkpt>
      <trkpt lat="44.36646" lon="4.74362">
        <ele>66</ele>
        <time>2018-03-26T12:41:43Z</time>
      </trkpt>
      <trkpt lat="44.36635" lon="4.74355">
        <ele>65.4</ele>
        <time>2018-03-26T12:41:46Z</time>
      </trkpt>
      <trkpt lat="44.36625" lon="4.74359">
        <ele>64.8</ele>
        <time>2018-03-26T12:41:48Z</time>
      </trkpt>
      <trkpt lat="44.36616" lon="4.74367">
        <ele>64.4</ele>
        <time>2018-03-26T12:41:50Z</time>
      </trkpt>
      <trkpt lat="44.36607" lon="4.74376">
        <ele>64.2</ele>
        <time>2018-03-26T12:41:52Z</time>
      </trkpt>
      <trkpt lat="44.36598" lon="4.74385">
        <ele>64.2</ele>
        <time>2018-03-26T12:41:54Z</time>
      </trkpt>
      <trkpt lat="44.3659" lon="4.74396">
        <ele>64.1</ele>
        <time>2018-03-26T12:41:56Z</time>
      </trkpt>
      <trkpt lat="44.36581" lon="4.74406">
        <ele>64</ele>
        <time>2018-03-26T12:41:58Z</time>
      </trkpt>
      <trkpt lat="44.36572" lon="4.74415">
        <ele>64</ele>
        <time>2018-03-26T12:42:00Z</time>
      </trkpt>
      <trkpt lat="44.36562" lon="4.74422">
        <ele>63.9</ele>
        <time>2018-03-26T12:42:02Z</time>
      </trkpt>
      <trkpt lat="44.36552" lon="4.7443">
        <ele>63.8</ele>
        <time>2018-03-26T12:42:04Z</time>
      </trkpt>
      <trkpt lat="44.36542" lon="4.74437">
        <ele>63.5</ele>
        <time>2018-03-26T12:42:06Z</time>
      </trkpt>
      <trkpt lat="44.36531" lon="4.74444">
        <ele>63.6</ele>
        <time>2018-03-26T12:42:08Z</time>
      </trkpt>
      <trkpt lat="44.36521" lon="4.74451">
        <ele>63.6</ele>
        <time>2018-03-26T12:42:10Z</time>
      </trkpt>
      <trkpt lat="44.36511" lon="4.74458">
        <ele>63.7</ele>
        <time>2018-03-26T12:42:12Z</time>
      </trkpt>
      <trkpt lat="44.36502" lon="4.74467">
        <ele>63.4</ele>
        <time>2018-03-26T12:42:14Z</time>
      </trkpt>
      <trkpt lat="44.36493" lon="4.74476">
        <ele>63.2</ele>
        <time>2018-03-26T12:42:16Z</time>
      </trkpt>
      <trkpt lat="44.36484" lon="4.74484">
        <ele>63.3</ele>
        <time>2018-03-26T12:42:18Z</time>
      </trkpt>
      <trkpt lat="44.36476" lon="4.74494">
        <ele>63.5</ele>
        <time>2018-03-26T12:42:20Z</time>
      </trkpt>
      <trkpt lat="44.36466" lon="4.74503">
        <ele>63.5</ele>
        <time>2018-03-26T12:42:22Z</time>
      </trkpt>
      <trkpt lat="44.36457" lon="4.74512">
        <ele>63.6</ele>
        <time>2018-03-26T12:42:24Z</time>
      </trkpt>
      <trkpt lat="44.36447" lon="4.74521">
        <ele>63.7</ele>
        <time>2018-03-26T12:42:26Z</time>
      </trkpt>
      <trkpt lat="44.36437" lon="4.7453">
        <ele>63.5</ele>
        <time>2018-03-26T12:42:28Z</time>
      </trkpt>
      <trkpt lat="44.36427" lon="4.74538">
        <ele>63.4</ele>
        <time>2018-03-26T12:42:30Z</time>
      </trkpt>
      <trkpt lat="44.36417" lon="4.74542">
        <ele>63.6</ele>
        <time>2018-03-26T12:42:32Z</time>
      </trkpt>
      <trkpt lat="44.36408" lon="4.74545">
        <ele>63.7</ele>
        <time>2018-03-26T12:42:34Z</time>
      </trkpt>
      <trkpt lat="44.36396" lon="4.74553">
        <ele>63.8</ele>
        <time>2018-03-26T12:42:37Z</time>
      </trkpt>
      <trkpt lat="44.36388" lon="4.74561">
        <ele>63.9</ele>
        <time>2018-03-26T12:42:39Z</time>
      </trkpt>
      <trkpt lat="44.36381" lon="4.7457">
        <ele>64</ele>
        <time>2018-03-26T12:42:41Z</time>
      </trkpt>
      <trkpt lat="44.36375" lon="4.74582">
        <ele>64</ele>
        <time>2018-03-26T12:42:43Z</time>
      </trkpt>
      <trkpt lat="44.36369" lon="4.74593">
        <ele>64</ele>
        <time>2018-03-26T12:42:45Z</time>
      </trkpt>
      <trkpt lat="44.36364" lon="4.74605">
        <ele>63.7</ele>
        <time>2018-03-26T12:42:47Z</time>
      </trkpt>
      <trkpt lat="44.3636" lon="4.74618">
        <ele>63.7</ele>
        <time>2018-03-26T12:42:49Z</time>
      </trkpt>
      <trkpt lat="44.36358" lon="4.74632">
        <ele>63.7</ele>
        <time>2018-03-26T12:42:51Z</time>
      </trkpt>
      <trkpt lat="44.36357" lon="4.74647">
        <ele>63.8</ele>
        <time>2018-03-26T12:42:53Z</time>
      </trkpt>
      <trkpt lat="44.36357" lon="4.74661">
        <ele>64</ele>
        <time>2018-03-26T12:42:55Z</time>
      </trkpt>
      <trkpt lat="44.36357" lon="4.74676">
        <ele>64</ele>
        <time>2018-03-26T12:42:57Z</time>
      </trkpt>
      <trkpt lat="44.36357" lon="4.74691">
        <ele>64</ele>
        <time>2018-03-26T12:42:59Z</time>
      </trkpt>
      <trkpt lat="44.36356" lon="4.74705">
        <ele>64.1</ele>
        <time>2018-03-26T12:43:01Z</time>
      </trkpt>
      <trkpt lat="44.36351" lon="4.74719">
        <ele>64.3</ele>
        <time>2018-03-26T12:43:03Z</time>
      </trkpt>
      <trkpt lat="44.36345" lon="4.74732">
        <ele>64.5</ele>
        <time>2018-03-26T12:43:05Z</time>
      </trkpt>
      <trkpt lat="44.36338" lon="4.74743">
        <ele>64.8</ele>
        <time>2018-03-26T12:43:07Z</time>
      </trkpt>
      <trkpt lat="44.36333" lon="4.74756">
        <ele>65.1</ele>
        <time>2018-03-26T12:43:09Z</time>
      </trkpt>
      <trkpt lat="44.36326" lon="4.74768">
        <ele>65.4</ele>
        <time>2018-03-26T12:43:11Z</time>
      </trkpt>
      <trkpt lat="44.36321" lon="4.7478">
        <ele>65.5</ele>
        <time>2018-03-26T12:43:13Z</time>
      </trkpt>
      <trkpt lat="44.36316" lon="4.74793">
        <ele>65.5</ele>
        <time>2018-03-26T12:43:15Z</time>
      </trkpt>
      <trkpt lat="44.36312" lon="4.74805">
        <ele>65.5</ele>
        <time>2018-03-26T12:43:17Z</time>
      </trkpt>
      <trkpt lat="44.36307" lon="4.74817">
        <ele>65.5</ele>
        <time>2018-03-26T12:43:19Z</time>
      </trkpt>
      <trkpt lat="44.36304" lon="4.7483">
        <ele>65.6</ele>
        <time>2018-03-26T12:43:21Z</time>
      </trkpt>
      <trkpt lat="44.363" lon="4.74846">
        <ele>65.3</ele>
        <time>2018-03-26T12:43:24Z</time>
      </trkpt>
      <trkpt lat="44.36296" lon="4.74863">
        <ele>65.3</ele>
        <time>2018-03-26T12:43:27Z</time>
      </trkpt>
      <trkpt lat="44.36291" lon="4.7488">
        <ele>65.3</ele>
        <time>2018-03-26T12:43:30Z</time>
      </trkpt>
      <trkpt lat="44.36288" lon="4.74897">
        <ele>65.2</ele>
        <time>2018-03-26T12:43:33Z</time>
      </trkpt>
      <trkpt lat="44.36283" lon="4.74912">
        <ele>64.9</ele>
        <time>2018-03-26T12:43:36Z</time>
      </trkpt>
      <trkpt lat="44.36274" lon="4.74911">
        <ele>63.8</ele>
        <time>2018-03-26T12:43:44Z</time>
      </trkpt>
      <trkpt lat="44.36266" lon="4.74917">
        <ele>64.8</ele>
        <time>2018-03-26T12:44:02Z</time>
      </trkpt>
      <trkpt lat="44.36262" lon="4.7493">
        <ele>65.3</ele>
        <time>2018-03-26T12:44:13Z</time>
      </trkpt>
      <trkpt lat="44.36256" lon="4.74941">
        <ele>66.1</ele>
        <time>2018-03-26T12:44:19Z</time>
      </trkpt>
      <trkpt lat="44.36247" lon="4.74948">
        <ele>66.6</ele>
        <time>2018-03-26T12:44:24Z</time>
      </trkpt>
      <trkpt lat="44.36241" lon="4.74957">
        <ele>66.9</ele>
        <time>2018-03-26T12:44:27Z</time>
      </trkpt>
      <trkpt lat="44.36231" lon="4.74963">
        <ele>67.3</ele>
        <time>2018-03-26T12:44:31Z</time>
      </trkpt>
      <trkpt lat="44.36222" lon="4.7497">
        <ele>67.8</ele>
        <time>2018-03-26T12:44:35Z</time>
      </trkpt>
      <trkpt lat="44.36213" lon="4.74977">
        <ele>68.2</ele>
        <time>2018-03-26T12:44:38Z</time>
      </trkpt>
      <trkpt lat="44.36205" lon="4.74984">
        <ele>68.9</ele>
        <time>2018-03-26T12:44:41Z</time>
      </trkpt>
      <trkpt lat="44.36195" lon="4.7499">
        <ele>70.3</ele>
        <time>2018-03-26T12:44:47Z</time>
      </trkpt>
      <trkpt lat="44.36186" lon="4.74996">
        <ele>71</ele>
        <time>2018-03-26T12:44:50Z</time>
      </trkpt>
      <trkpt lat="44.36177" lon="4.75001">
        <ele>71.6</ele>
        <time>2018-03-26T12:44:53Z</time>
      </trkpt>
      <trkpt lat="44.36167" lon="4.75007">
        <ele>72.7</ele>
        <time>2018-03-26T12:44:57Z</time>
      </trkpt>
      <trkpt lat="44.36159" lon="4.75012">
        <ele>73.5</ele>
        <time>2018-03-26T12:45:01Z</time>
      </trkpt>
      <trkpt lat="44.36149" lon="4.75016">
        <ele>74.3</ele>
        <time>2018-03-26T12:45:05Z</time>
      </trkpt>
      <trkpt lat="44.3614" lon="4.75019">
        <ele>75.1</ele>
        <time>2018-03-26T12:45:09Z</time>
      </trkpt>
      <trkpt lat="44.36131" lon="4.75024">
        <ele>75.7</ele>
        <time>2018-03-26T12:45:13Z</time>
      </trkpt>
      <trkpt lat="44.36123" lon="4.75028">
        <ele>76.2</ele>
        <time>2018-03-26T12:45:16Z</time>
      </trkpt>
      <trkpt lat="44.36112" lon="4.75032">
        <ele>76.5</ele>
        <time>2018-03-26T12:45:20Z</time>
      </trkpt>
      <trkpt lat="44.36102" lon="4.75038">
        <ele>77.2</ele>
        <time>2018-03-26T12:45:24Z</time>
      </trkpt>
      <trkpt lat="44.36092" lon="4.75044">
        <ele>77.6</ele>
        <time>2018-03-26T12:45:28Z</time>
      </trkpt>
      <trkpt lat="44.36083" lon="4.75048">
        <ele>78.1</ele>
        <time>2018-03-26T12:45:32Z</time>
      </trkpt>
      <trkpt lat="44.36073" lon="4.75056">
        <ele>78.9</ele>
        <time>2018-03-26T12:45:36Z</time>
      </trkpt>
      <trkpt lat="44.36064" lon="4.7506">
        <ele>79.4</ele>
        <time>2018-03-26T12:45:40Z</time>
      </trkpt>
      <trkpt lat="44.36055" lon="4.75066">
        <ele>80</ele>
        <time>2018-03-26T12:45:44Z</time>
      </trkpt>
      <trkpt lat="44.36046" lon="4.75072">
        <ele>80.3</ele>
        <time>2018-03-26T12:45:47Z</time>
      </trkpt>
      <trkpt lat="44.36038" lon="4.75079">
        <ele>81</ele>
        <time>2018-03-26T12:45:51Z</time>
      </trkpt>
      <trkpt lat="44.36028" lon="4.75086">
        <ele>81.3</ele>
        <time>2018-03-26T12:45:55Z</time>
      </trkpt>
      <trkpt lat="44.36018" lon="4.75092">
        <ele>81.7</ele>
        <time>2018-03-26T12:45:59Z</time>
      </trkpt>
      <trkpt lat="44.36008" lon="4.75098">
        <ele>82.2</ele>
        <time>2018-03-26T12:46:03Z</time>
      </trkpt>
      <trkpt lat="44.36" lon="4.75103">
        <ele>82.6</ele>
        <time>2018-03-26T12:46:06Z</time>
      </trkpt>
      <trkpt lat="44.35992" lon="4.75109">
        <ele>83</ele>
        <time>2018-03-26T12:46:09Z</time>
      </trkpt>
      <trkpt lat="44.35982" lon="4.75116">
        <ele>83.4</ele>
        <time>2018-03-26T12:46:13Z</time>
      </trkpt>
      <trkpt lat="44.35972" lon="4.75122">
        <ele>83.5</ele>
        <time>2018-03-26T12:46:17Z</time>
      </trkpt>
      <trkpt lat="44.35962" lon="4.75129">
        <ele>84</ele>
        <time>2018-03-26T12:46:21Z</time>
      </trkpt>
      <trkpt lat="44.35951" lon="4.75137">
        <ele>84.5</ele>
        <time>2018-03-26T12:46:25Z</time>
      </trkpt>
      <trkpt lat="44.35942" lon="4.75146">
        <ele>84.9</ele>
        <time>2018-03-26T12:46:29Z</time>
      </trkpt>
      <trkpt lat="44.35933" lon="4.75153">
        <ele>85.7</ele>
        <time>2018-03-26T12:46:33Z</time>
      </trkpt>
      <trkpt lat="44.35925" lon="4.75159">
        <ele>86.1</ele>
        <time>2018-03-26T12:46:37Z</time>
      </trkpt>
      <trkpt lat="44.35916" lon="4.75165">
        <ele>86.6</ele>
        <time>2018-03-26T12:46:41Z</time>
      </trkpt>
      <trkpt lat="44.35907" lon="4.75171">
        <ele>87.1</ele>
        <time>2018-03-26T12:46:45Z</time>
      </trkpt>
      <trkpt lat="44.35897" lon="4.75177">
        <ele>88.2</ele>
        <time>2018-03-26T12:46:49Z</time>
      </trkpt>
      <trkpt lat="44.35889" lon="4.75184">
        <ele>88.9</ele>
        <time>2018-03-26T12:46:52Z</time>
      </trkpt>
      <trkpt lat="44.35879" lon="4.7519">
        <ele>90</ele>
        <time>2018-03-26T12:46:56Z</time>
      </trkpt>
      <trkpt lat="44.3587" lon="4.75196">
        <ele>90.7</ele>
        <time>2018-03-26T12:47:00Z</time>
      </trkpt>
      <trkpt lat="44.3586" lon="4.75203">
        <ele>91.6</ele>
        <time>2018-03-26T12:47:04Z</time>
      </trkpt>
      <trkpt lat="44.35852" lon="4.75207">
        <ele>92.3</ele>
        <time>2018-03-26T12:47:07Z</time>
      </trkpt>
      <trkpt lat="44.35843" lon="4.75211">
        <ele>93</ele>
        <time>2018-03-26T12:47:11Z</time>
      </trkpt>
      <trkpt lat="44.35832" lon="4.75216">
        <ele>93.5</ele>
        <time>2018-03-26T12:47:15Z</time>
      </trkpt>
      <trkpt lat="44.35824" lon="4.75222">
        <ele>94.1</ele>
        <time>2018-03-26T12:47:19Z</time>
      </trkpt>
      <trkpt lat="44.35815" lon="4.75226">
        <ele>94.7</ele>
        <time>2018-03-26T12:47:23Z</time>
      </trkpt>
      <trkpt lat="44.35805" lon="4.75231">
        <ele>95.4</ele>
        <time>2018-03-26T12:47:27Z</time>
      </trkpt>
      <trkpt lat="44.35795" lon="4.75236">
        <ele>96.1</ele>
        <time>2018-03-26T12:47:31Z</time>
      </trkpt>
      <trkpt lat="44.35785" lon="4.75242">
        <ele>96.5</ele>
        <time>2018-03-26T12:47:35Z</time>
      </trkpt>
      <trkpt lat="44.35777" lon="4.7525">
        <ele>97</ele>
        <time>2018-03-26T12:47:39Z</time>
      </trkpt>
      <trkpt lat="44.35769" lon="4.75258">
        <ele>97.4</ele>
        <time>2018-03-26T12:47:43Z</time>
      </trkpt>
      <trkpt lat="44.3576" lon="4.75267">
        <ele>98.1</ele>
        <time>2018-03-26T12:47:47Z</time>
      </trkpt>
      <trkpt lat="44.35751" lon="4.75275">
        <ele>98.9</ele>
        <time>2018-03-26T12:47:51Z</time>
      </trkpt>
      <trkpt lat="44.35742" lon="4.75284">
        <ele>99.5</ele>
        <time>2018-03-26T12:47:55Z</time>
      </trkpt>
      <trkpt lat="44.35734" lon="4.75293">
        <ele>99.8</ele>
        <time>2018-03-26T12:47:59Z</time>
      </trkpt>
      <trkpt lat="44.35726" lon="4.75303">
        <ele>100.3</ele>
        <time>2018-03-26T12:48:03Z</time>
      </trkpt>
      <trkpt lat="44.35719" lon="4.75312">
        <ele>100.9</ele>
        <time>2018-03-26T12:48:07Z</time>
      </trkpt>
      <trkpt lat="44.35712" lon="4.75321">
        <ele>101.4</ele>
        <time>2018-03-26T12:48:11Z</time>
      </trkpt>
      <trkpt lat="44.35706" lon="4.75332">
        <ele>102.2</ele>
        <time>2018-03-26T12:48:15Z</time>
      </trkpt>
      <trkpt lat="44.357" lon="4.75345">
        <ele>103</ele>
        <time>2018-03-26T12:48:19Z</time>
      </trkpt>
      <trkpt lat="44.35694" lon="4.75359">
        <ele>103.9</ele>
        <time>2018-03-26T12:48:23Z</time>
      </trkpt>
      <trkpt lat="44.35689" lon="4.75374">
        <ele>104.7</ele>
        <time>2018-03-26T12:48:27Z</time>
      </trkpt>
      <trkpt lat="44.35685" lon="4.75389">
        <ele>105.5</ele>
        <time>2018-03-26T12:48:31Z</time>
      </trkpt>
      <trkpt lat="44.3568" lon="4.75401">
        <ele>105.7</ele>
        <time>2018-03-26T12:48:34Z</time>
      </trkpt>
      <trkpt lat="44.35676" lon="4.75412">
        <ele>105.6</ele>
        <time>2018-03-26T12:48:37Z</time>
      </trkpt>
      <trkpt lat="44.35673" lon="4.75424">
        <ele>105.3</ele>
        <time>2018-03-26T12:48:40Z</time>
      </trkpt>
      <trkpt lat="44.35669" lon="4.75436">
        <ele>105.7</ele>
        <time>2018-03-26T12:48:43Z</time>
      </trkpt>
      <trkpt lat="44.35663" lon="4.75447">
        <ele>106.1</ele>
        <time>2018-03-26T12:48:46Z</time>
      </trkpt>
      <trkpt lat="44.35654" lon="4.75454">
        <ele>107</ele>
        <time>2018-03-26T12:48:50Z</time>
      </trkpt>
      <trkpt lat="44.35642" lon="4.75454">
        <ele>107.3</ele>
        <time>2018-03-26T12:48:54Z</time>
      </trkpt>
      <trkpt lat="44.35631" lon="4.75453">
        <ele>107</ele>
        <time>2018-03-26T12:48:57Z</time>
      </trkpt>
      <trkpt lat="44.3562" lon="4.75451">
        <ele>106.6</ele>
        <time>2018-03-26T12:49:00Z</time>
      </trkpt>
      <trkpt lat="44.35608" lon="4.75451">
        <ele>106.6</ele>
        <time>2018-03-26T12:49:03Z</time>
      </trkpt>
      <trkpt lat="44.35596" lon="4.75449">
        <ele>106.7</ele>
        <time>2018-03-26T12:49:06Z</time>
      </trkpt>
      <trkpt lat="44.35583" lon="4.75446">
        <ele>107</ele>
        <time>2018-03-26T12:49:09Z</time>
      </trkpt>
      <trkpt lat="44.35571" lon="4.75445">
        <ele>107</ele>
        <time>2018-03-26T12:49:12Z</time>
      </trkpt>
      <trkpt lat="44.35557" lon="4.75444">
        <ele>107.1</ele>
        <time>2018-03-26T12:49:15Z</time>
      </trkpt>
      <trkpt lat="44.35544" lon="4.75443">
        <ele>107.4</ele>
        <time>2018-03-26T12:49:18Z</time>
      </trkpt>
      <trkpt lat="44.35535" lon="4.75444">
        <ele>107.4</ele>
        <time>2018-03-26T12:49:20Z</time>
      </trkpt>
      <trkpt lat="44.35526" lon="4.75443">
        <ele>107.1</ele>
        <time>2018-03-26T12:49:22Z</time>
      </trkpt>
      <trkpt lat="44.35516" lon="4.75441">
        <ele>107</ele>
        <time>2018-03-26T12:49:24Z</time>
      </trkpt>
      <trkpt lat="44.35506" lon="4.7544">
        <ele>106.9</ele>
        <time>2018-03-26T12:49:26Z</time>
      </trkpt>
      <trkpt lat="44.35495" lon="4.7544">
        <ele>106.9</ele>
        <time>2018-03-26T12:49:28Z</time>
      </trkpt>
      <trkpt lat="44.35484" lon="4.75439">
        <ele>106.5</ele>
        <time>2018-03-26T12:49:30Z</time>
      </trkpt>
      <trkpt lat="44.35472" lon="4.75437">
        <ele>106.4</ele>
        <time>2018-03-26T12:49:32Z</time>
      </trkpt>
      <trkpt lat="44.3546" lon="4.75436">
        <ele>106.2</ele>
        <time>2018-03-26T12:49:34Z</time>
      </trkpt>
      <trkpt lat="44.35449" lon="4.75434">
        <ele>106.5</ele>
        <time>2018-03-26T12:49:36Z</time>
      </trkpt>
      <trkpt lat="44.35437" lon="4.75434">
        <ele>106.6</ele>
        <time>2018-03-26T12:49:38Z</time>
      </trkpt>
      <trkpt lat="44.35425" lon="4.75431">
        <ele>106.7</ele>
        <time>2018-03-26T12:49:40Z</time>
      </trkpt>
      <trkpt lat="44.35414" lon="4.7543">
        <ele>107.1</ele>
        <time>2018-03-26T12:49:42Z</time>
      </trkpt>
      <trkpt lat="44.35403" lon="4.75428">
        <ele>107.3</ele>
        <time>2018-03-26T12:49:44Z</time>
      </trkpt>
      <trkpt lat="44.35393" lon="4.75425">
        <ele>107.5</ele>
        <time>2018-03-26T12:49:46Z</time>
      </trkpt>
      <trkpt lat="44.35383" lon="4.75423">
        <ele>107.6</ele>
        <time>2018-03-26T12:49:48Z</time>
      </trkpt>
      <trkpt lat="44.35372" lon="4.75422">
        <ele>107.5</ele>
        <time>2018-03-26T12:49:50Z</time>
      </trkpt>
      <trkpt lat="44.35361" lon="4.75422">
        <ele>107.7</ele>
        <time>2018-03-26T12:49:52Z</time>
      </trkpt>
      <trkpt lat="44.3535" lon="4.75422">
        <ele>107.7</ele>
        <time>2018-03-26T12:49:54Z</time>
      </trkpt>
      <trkpt lat="44.35339" lon="4.75421">
        <ele>107.3</ele>
        <time>2018-03-26T12:49:56Z</time>
      </trkpt>
      <trkpt lat="44.35328" lon="4.7542">
        <ele>107</ele>
        <time>2018-03-26T12:49:58Z</time>
      </trkpt>
      <trkpt lat="44.35317" lon="4.75418">
        <ele>106.7</ele>
        <time>2018-03-26T12:50:00Z</time>
      </trkpt>
      <trkpt lat="44.35307" lon="4.75417">
        <ele>106.4</ele>
        <time>2018-03-26T12:50:02Z</time>
      </trkpt>
      <trkpt lat="44.35297" lon="4.75416">
        <ele>106.1</ele>
        <time>2018-03-26T12:50:04Z</time>
      </trkpt>
      <trkpt lat="44.35287" lon="4.75416">
        <ele>106.1</ele>
        <time>2018-03-26T12:50:06Z</time>
      </trkpt>
      <trkpt lat="44.35276" lon="4.75415">
        <ele>105.9</ele>
        <time>2018-03-26T12:50:08Z</time>
      </trkpt>
      <trkpt lat="44.35266" lon="4.75414">
        <ele>105.7</ele>
        <time>2018-03-26T12:50:10Z</time>
      </trkpt>
      <trkpt lat="44.35256" lon="4.75412">
        <ele>105.4</ele>
        <time>2018-03-26T12:50:12Z</time>
      </trkpt>
      <trkpt lat="44.35247" lon="4.75406">
        <ele>105.7</ele>
        <time>2018-03-26T12:50:14Z</time>
      </trkpt>
      <trkpt lat="44.35238" lon="4.75399">
        <ele>105.7</ele>
        <time>2018-03-26T12:50:16Z</time>
      </trkpt>
      <trkpt lat="44.35227" lon="4.75394">
        <ele>105.3</ele>
        <time>2018-03-26T12:50:18Z</time>
      </trkpt>
      <trkpt lat="44.35216" lon="4.75392">
        <ele>105.5</ele>
        <time>2018-03-26T12:50:20Z</time>
      </trkpt>
      <trkpt lat="44.35204" lon="4.7539">
        <ele>105.7</ele>
        <time>2018-03-26T12:50:22Z</time>
      </trkpt>
      <trkpt lat="44.35194" lon="4.7539">
        <ele>105.8</ele>
        <time>2018-03-26T12:50:24Z</time>
      </trkpt>
      <trkpt lat="44.35184" lon="4.7539">
        <ele>105.8</ele>
        <time>2018-03-26T12:50:26Z</time>
      </trkpt>
      <trkpt lat="44.35173" lon="4.7539">
        <ele>105.7</ele>
        <time>2018-03-26T12:50:29Z</time>
      </trkpt>
      <trkpt lat="44.35164" lon="4.75395">
        <ele>107.3</ele>
        <time>2018-03-26T12:51:39Z</time>
      </trkpt>
      <trkpt lat="44.35155" lon="4.75394">
        <ele>107.1</ele>
        <time>2018-03-26T12:51:43Z</time>
      </trkpt>
      <trkpt lat="44.35145" lon="4.75392">
        <ele>107</ele>
        <time>2018-03-26T12:51:46Z</time>
      </trkpt>
      <trkpt lat="44.35133" lon="4.7539">
        <ele>106.8</ele>
        <time>2018-03-26T12:51:49Z</time>
      </trkpt>
      <trkpt lat="44.35119" lon="4.75388">
        <ele>106.8</ele>
        <time>2018-03-26T12:51:52Z</time>
      </trkpt>
      <trkpt lat="44.35109" lon="4.75387">
        <ele>106.7</ele>
        <time>2018-03-26T12:51:54Z</time>
      </trkpt>
      <trkpt lat="44.351" lon="4.75386">
        <ele>106.7</ele>
        <time>2018-03-26T12:51:56Z</time>
      </trkpt>
      <trkpt lat="44.3509" lon="4.75386">
        <ele>106.6</ele>
        <time>2018-03-26T12:51:58Z</time>
      </trkpt>
      <trkpt lat="44.3508" lon="4.75385">
        <ele>106.4</ele>
        <time>2018-03-26T12:52:00Z</time>
      </trkpt>
      <trkpt lat="44.35069" lon="4.75384">
        <ele>106.3</ele>
        <time>2018-03-26T12:52:02Z</time>
      </trkpt>
      <trkpt lat="44.35058" lon="4.75382">
        <ele>106</ele>
        <time>2018-03-26T12:52:04Z</time>
      </trkpt>
      <trkpt lat="44.35045" lon="4.75381">
        <ele>105.6</ele>
        <time>2018-03-26T12:52:06Z</time>
      </trkpt>
      <trkpt lat="44.35032" lon="4.75378">
        <ele>105.1</ele>
        <time>2018-03-26T12:52:08Z</time>
      </trkpt>
      <trkpt lat="44.35018" lon="4.75378">
        <ele>104.4</ele>
        <time>2018-03-26T12:52:10Z</time>
      </trkpt>
      <trkpt lat="44.35002" lon="4.75376">
        <ele>103.7</ele>
        <time>2018-03-26T12:52:12Z</time>
      </trkpt>
      <trkpt lat="44.34984" lon="4.75374">
        <ele>102.9</ele>
        <time>2018-03-26T12:52:14Z</time>
      </trkpt>
      <trkpt lat="44.34975" lon="4.75373">
        <ele>102.3</ele>
        <time>2018-03-26T12:52:15Z</time>
      </trkpt>
      <trkpt lat="44.34965" lon="4.75372">
        <ele>101.7</ele>
        <time>2018-03-26T12:52:16Z</time>
      </trkpt>
      <trkpt lat="44.34956" lon="4.75372">
        <ele>101</ele>
        <time>2018-03-26T12:52:17Z</time>
      </trkpt>
      <trkpt lat="44.34946" lon="4.75371">
        <ele>100.3</ele>
        <time>2018-03-26T12:52:18Z</time>
      </trkpt>
      <trkpt lat="44.34936" lon="4.75371">
        <ele>99.5</ele>
        <time>2018-03-26T12:52:19Z</time>
      </trkpt>
      <trkpt lat="44.34927" lon="4.75371">
        <ele>98.7</ele>
        <time>2018-03-26T12:52:20Z</time>
      </trkpt>
      <trkpt lat="44.3491" lon="4.75369">
        <ele>96.9</ele>
        <time>2018-03-26T12:52:22Z</time>
      </trkpt>
      <trkpt lat="44.34895" lon="4.75366">
        <ele>95</ele>
        <time>2018-03-26T12:52:24Z</time>
      </trkpt>
      <trkpt lat="44.34883" lon="4.75373">
        <ele>93.5</ele>
        <time>2018-03-26T12:52:26Z</time>
      </trkpt>
      <trkpt lat="44.34878" lon="4.75389">
        <ele>92</ele>
        <time>2018-03-26T12:52:28Z</time>
      </trkpt>
      <trkpt lat="44.34875" lon="4.75407">
        <ele>90.9</ele>
        <time>2018-03-26T12:52:30Z</time>
      </trkpt>
      <trkpt lat="44.34873" lon="4.75424">
        <ele>89.8</ele>
        <time>2018-03-26T12:52:32Z</time>
      </trkpt>
      <trkpt lat="44.34871" lon="4.75443">
        <ele>89</ele>
        <time>2018-03-26T12:52:34Z</time>
      </trkpt>
      <trkpt lat="44.34873" lon="4.75462">
        <ele>88.4</ele>
        <time>2018-03-26T12:52:36Z</time>
      </trkpt>
      <trkpt lat="44.34882" lon="4.75473">
        <ele>88</ele>
        <time>2018-03-26T12:52:38Z</time>
      </trkpt>
      <trkpt lat="44.34893" lon="4.75476">
        <ele>87.8</ele>
        <time>2018-03-26T12:52:40Z</time>
      </trkpt>
      <trkpt lat="44.34904" lon="4.7548">
        <ele>88</ele>
        <time>2018-03-26T12:52:42Z</time>
      </trkpt>
      <trkpt lat="44.34907" lon="4.75497">
        <ele>88.9</ele>
        <time>2018-03-26T12:52:45Z</time>
      </trkpt>
      <trkpt lat="44.34902" lon="4.7551">
        <ele>89.2</ele>
        <time>2018-03-26T12:52:47Z</time>
      </trkpt>
      <trkpt lat="44.34893" lon="4.7552">
        <ele>89.3</ele>
        <time>2018-03-26T12:52:49Z</time>
      </trkpt>
      <trkpt lat="44.34887" lon="4.75533">
        <ele>89.1</ele>
        <time>2018-03-26T12:52:51Z</time>
      </trkpt>
      <trkpt lat="44.34877" lon="4.7554">
        <ele>88.7</ele>
        <time>2018-03-26T12:52:54Z</time>
      </trkpt>
      <trkpt lat="44.34867" lon="4.75544">
        <ele>86.9</ele>
        <time>2018-03-26T12:53:09Z</time>
      </trkpt>
      <trkpt lat="44.34856" lon="4.75551">
        <ele>86.3</ele>
        <time>2018-03-26T12:53:13Z</time>
      </trkpt>
      <trkpt lat="44.34847" lon="4.75557">
        <ele>85.4</ele>
        <time>2018-03-26T12:53:15Z</time>
      </trkpt>
      <trkpt lat="44.34837" lon="4.75567">
        <ele>84.2</ele>
        <time>2018-03-26T12:53:17Z</time>
      </trkpt>
      <trkpt lat="44.34829" lon="4.75574">
        <ele>83.2</ele>
        <time>2018-03-26T12:53:19Z</time>
      </trkpt>
      <trkpt lat="44.34819" lon="4.75566">
        <ele>82.1</ele>
        <time>2018-03-26T12:53:22Z</time>
      </trkpt>
      <trkpt lat="44.3481" lon="4.75555">
        <ele>81.4</ele>
        <time>2018-03-26T12:53:25Z</time>
      </trkpt>
      <trkpt lat="44.348" lon="4.75544">
        <ele>80.7</ele>
        <time>2018-03-26T12:53:28Z</time>
      </trkpt>
      <trkpt lat="44.34791" lon="4.75542">
        <ele>79.9</ele>
        <time>2018-03-26T12:53:31Z</time>
      </trkpt>
      <trkpt lat="44.34784" lon="4.75554">
        <ele>79.5</ele>
        <time>2018-03-26T12:53:34Z</time>
      </trkpt>
      <trkpt lat="44.34779" lon="4.75565">
        <ele>79</ele>
        <time>2018-03-26T12:53:37Z</time>
      </trkpt>
      <trkpt lat="44.34769" lon="4.75566">
        <ele>78.1</ele>
        <time>2018-03-26T12:53:42Z</time>
      </trkpt>
      <trkpt lat="44.34758" lon="4.75562">
        <ele>77.9</ele>
        <time>2018-03-26T12:53:45Z</time>
      </trkpt>
      <trkpt lat="44.34747" lon="4.75564">
        <ele>77.4</ele>
        <time>2018-03-26T12:53:48Z</time>
      </trkpt>
      <trkpt lat="44.34735" lon="4.75564">
        <ele>77</ele>
        <time>2018-03-26T12:53:51Z</time>
      </trkpt>
      <trkpt lat="44.34726" lon="4.75564">
        <ele>76.9</ele>
        <time>2018-03-26T12:53:53Z</time>
      </trkpt>
      <trkpt lat="44.34716" lon="4.75563">
        <ele>76.6</ele>
        <time>2018-03-26T12:53:55Z</time>
      </trkpt>
      <trkpt lat="44.34706" lon="4.75555">
        <ele>76.2</ele>
        <time>2018-03-26T12:53:57Z</time>
      </trkpt>
      <trkpt lat="44.34696" lon="4.75545">
        <ele>75.8</ele>
        <time>2018-03-26T12:53:59Z</time>
      </trkpt>
      <trkpt lat="44.34686" lon="4.75533">
        <ele>75.3</ele>
        <time>2018-03-26T12:54:01Z</time>
      </trkpt>
      <trkpt lat="44.34676" lon="4.75522">
        <ele>74.8</ele>
        <time>2018-03-26T12:54:03Z</time>
      </trkpt>
      <trkpt lat="44.34666" lon="4.75511">
        <ele>74.1</ele>
        <time>2018-03-26T12:54:05Z</time>
      </trkpt>
      <trkpt lat="44.34655" lon="4.755">
        <ele>73.6</ele>
        <time>2018-03-26T12:54:07Z</time>
      </trkpt>
      <trkpt lat="44.34643" lon="4.75497">
        <ele>72.8</ele>
        <time>2018-03-26T12:54:09Z</time>
      </trkpt>
      <trkpt lat="44.34631" lon="4.75504">
        <ele>72.3</ele>
        <time>2018-03-26T12:54:11Z</time>
      </trkpt>
      <trkpt lat="44.34622" lon="4.75513">
        <ele>71.5</ele>
        <time>2018-03-26T12:54:13Z</time>
      </trkpt>
      <trkpt lat="44.34619" lon="4.75529">
        <ele>70.7</ele>
        <time>2018-03-26T12:54:16Z</time>
      </trkpt>
      <trkpt lat="44.34619" lon="4.75548">
        <ele>70.1</ele>
        <time>2018-03-26T12:54:19Z</time>
      </trkpt>
      <trkpt lat="44.34619" lon="4.75562">
        <ele>70.1</ele>
        <time>2018-03-26T12:54:21Z</time>
      </trkpt>
      <trkpt lat="44.34624" lon="4.75575">
        <ele>69.8</ele>
        <time>2018-03-26T12:54:23Z</time>
      </trkpt>
      <trkpt lat="44.34631" lon="4.75587">
        <ele>69.6</ele>
        <time>2018-03-26T12:54:25Z</time>
      </trkpt>
      <trkpt lat="44.34639" lon="4.75599">
        <ele>69.6</ele>
        <time>2018-03-26T12:54:27Z</time>
      </trkpt>
      <trkpt lat="44.34647" lon="4.7561">
        <ele>69.7</ele>
        <time>2018-03-26T12:54:29Z</time>
      </trkpt>
      <trkpt lat="44.34656" lon="4.75619">
        <ele>69.8</ele>
        <time>2018-03-26T12:54:31Z</time>
      </trkpt>
      <trkpt lat="44.34665" lon="4.75626">
        <ele>69.9</ele>
        <time>2018-03-26T12:54:33Z</time>
      </trkpt>
      <trkpt lat="44.34675" lon="4.75632">
        <ele>70</ele>
        <time>2018-03-26T12:54:35Z</time>
      </trkpt>
      <trkpt lat="44.34684" lon="4.75636">
        <ele>70.1</ele>
        <time>2018-03-26T12:54:37Z</time>
      </trkpt>
      <trkpt lat="44.34693" lon="4.7564">
        <ele>70.3</ele>
        <time>2018-03-26T12:54:39Z</time>
      </trkpt>
      <trkpt lat="44.34702" lon="4.75644">
        <ele>70.8</ele>
        <time>2018-03-26T12:54:41Z</time>
      </trkpt>
      <trkpt lat="44.34709" lon="4.75653">
        <ele>71.2</ele>
        <time>2018-03-26T12:54:43Z</time>
      </trkpt>
      <trkpt lat="44.34713" lon="4.75665">
        <ele>71.4</ele>
        <time>2018-03-26T12:54:45Z</time>
      </trkpt>
      <trkpt lat="44.34711" lon="4.7568">
        <ele>71.6</ele>
        <time>2018-03-26T12:54:49Z</time>
      </trkpt>
      <trkpt lat="44.34711" lon="4.75699">
        <ele>71.5</ele>
        <time>2018-03-26T12:54:52Z</time>
      </trkpt>
      <trkpt lat="44.34711" lon="4.75712">
        <ele>71.5</ele>
        <time>2018-03-26T12:54:54Z</time>
      </trkpt>
      <trkpt lat="44.34711" lon="4.75727">
        <ele>71.3</ele>
        <time>2018-03-26T12:54:56Z</time>
      </trkpt>
      <trkpt lat="44.34709" lon="4.75741">
        <ele>71.1</ele>
        <time>2018-03-26T12:54:58Z</time>
      </trkpt>
      <trkpt lat="44.34709" lon="4.75756">
        <ele>71</ele>
        <time>2018-03-26T12:55:00Z</time>
      </trkpt>
      <trkpt lat="44.34708" lon="4.75772">
        <ele>70.9</ele>
        <time>2018-03-26T12:55:02Z</time>
      </trkpt>
      <trkpt lat="44.34706" lon="4.75786">
        <ele>70.7</ele>
        <time>2018-03-26T12:55:04Z</time>
      </trkpt>
      <trkpt lat="44.34705" lon="4.758">
        <ele>70.5</ele>
        <time>2018-03-26T12:55:06Z</time>
      </trkpt>
      <trkpt lat="44.34704" lon="4.75813">
        <ele>70.2</ele>
        <time>2018-03-26T12:55:09Z</time>
      </trkpt>
      <trkpt lat="44.34704" lon="4.75826">
        <ele>69.9</ele>
        <time>2018-03-26T12:55:15Z</time>
      </trkpt>
      <trkpt lat="44.34708" lon="4.75842">
        <ele>69.9</ele>
        <time>2018-03-26T12:55:19Z</time>
      </trkpt>
      <trkpt lat="44.34713" lon="4.75853">
        <ele>70</ele>
        <time>2018-03-26T12:55:21Z</time>
      </trkpt>
      <trkpt lat="44.34719" lon="4.75865">
        <ele>70.1</ele>
        <time>2018-03-26T12:55:23Z</time>
      </trkpt>
      <trkpt lat="44.34725" lon="4.75878">
        <ele>70.1</ele>
        <time>2018-03-26T12:55:25Z</time>
      </trkpt>
      <trkpt lat="44.34731" lon="4.75889">
        <ele>70.3</ele>
        <time>2018-03-26T12:55:27Z</time>
      </trkpt>
      <trkpt lat="44.34737" lon="4.759">
        <ele>70.2</ele>
        <time>2018-03-26T12:55:29Z</time>
      </trkpt>
      <trkpt lat="44.34743" lon="4.75911">
        <ele>70.2</ele>
        <time>2018-03-26T12:55:31Z</time>
      </trkpt>
      <trkpt lat="44.34749" lon="4.75923">
        <ele>70.3</ele>
        <time>2018-03-26T12:55:33Z</time>
      </trkpt>
      <trkpt lat="44.34754" lon="4.75934">
        <ele>70.4</ele>
        <time>2018-03-26T12:55:35Z</time>
      </trkpt>
      <trkpt lat="44.3476" lon="4.75946">
        <ele>70.5</ele>
        <time>2018-03-26T12:55:37Z</time>
      </trkpt>
      <trkpt lat="44.34766" lon="4.75959">
        <ele>70.6</ele>
        <time>2018-03-26T12:55:39Z</time>
      </trkpt>
      <trkpt lat="44.34773" lon="4.7597">
        <ele>70.6</ele>
        <time>2018-03-26T12:55:41Z</time>
      </trkpt>
      <trkpt lat="44.3478" lon="4.75978">
        <ele>70.7</ele>
        <time>2018-03-26T12:55:43Z</time>
      </trkpt>
      <trkpt lat="44.34789" lon="4.75983">
        <ele>70.9</ele>
        <time>2018-03-26T12:55:45Z</time>
      </trkpt>
      <trkpt lat="44.34797" lon="4.75989">
        <ele>71.4</ele>
        <time>2018-03-26T12:55:48Z</time>
      </trkpt>
      <trkpt lat="44.34805" lon="4.75998">
        <ele>72.4</ele>
        <time>2018-03-26T12:55:53Z</time>
      </trkpt>
      <trkpt lat="44.34818" lon="4.76">
        <ele>72.5</ele>
        <time>2018-03-26T12:55:56Z</time>
      </trkpt>
      <trkpt lat="44.34827" lon="4.76003">
        <ele>72.5</ele>
        <time>2018-03-26T12:55:58Z</time>
      </trkpt>
      <trkpt lat="44.34839" lon="4.76008">
        <ele>72.3</ele>
        <time>2018-03-26T12:56:01Z</time>
      </trkpt>
      <trkpt lat="44.3485" lon="4.76014">
        <ele>72.2</ele>
        <time>2018-03-26T12:56:04Z</time>
      </trkpt>
      <trkpt lat="44.34859" lon="4.76025">
        <ele>72.5</ele>
        <time>2018-03-26T12:56:10Z</time>
      </trkpt>
      <trkpt lat="44.34867" lon="4.76032">
        <ele>72.3</ele>
        <time>2018-03-26T12:56:13Z</time>
      </trkpt>
      <trkpt lat="44.34877" lon="4.76042">
        <ele>72.3</ele>
        <time>2018-03-26T12:56:16Z</time>
      </trkpt>
      <trkpt lat="44.34884" lon="4.76051">
        <ele>72.2</ele>
        <time>2018-03-26T12:56:18Z</time>
      </trkpt>
      <trkpt lat="44.34893" lon="4.76064">
        <ele>72.4</ele>
        <time>2018-03-26T12:56:21Z</time>
      </trkpt>
      <trkpt lat="44.34902" lon="4.76078">
        <ele>73</ele>
        <time>2018-03-26T12:56:24Z</time>
      </trkpt>
      <trkpt lat="44.34911" lon="4.76089">
        <ele>73.2</ele>
        <time>2018-03-26T12:56:27Z</time>
      </trkpt>
      <trkpt lat="44.34922" lon="4.76096">
        <ele>73.1</ele>
        <time>2018-03-26T12:56:30Z</time>
      </trkpt>
      <trkpt lat="44.34932" lon="4.76099">
        <ele>73</ele>
        <time>2018-03-26T12:56:32Z</time>
      </trkpt>
      <trkpt lat="44.34941" lon="4.761">
        <ele>73.3</ele>
        <time>2018-03-26T12:56:34Z</time>
      </trkpt>
      <trkpt lat="44.34954" lon="4.761">
        <ele>73.9</ele>
        <time>2018-03-26T12:56:37Z</time>
      </trkpt>
      <trkpt lat="44.34967" lon="4.76101">
        <ele>74.3</ele>
        <time>2018-03-26T12:56:40Z</time>
      </trkpt>
      <trkpt lat="44.34979" lon="4.76102">
        <ele>74.6</ele>
        <time>2018-03-26T12:56:43Z</time>
      </trkpt>
      <trkpt lat="44.34991" lon="4.76106">
        <ele>75.1</ele>
        <time>2018-03-26T12:56:46Z</time>
      </trkpt>
      <trkpt lat="44.34998" lon="4.76116">
        <ele>75.4</ele>
        <time>2018-03-26T12:56:49Z</time>
      </trkpt>
      <trkpt lat="44.35002" lon="4.7613">
        <ele>75.9</ele>
        <time>2018-03-26T12:56:53Z</time>
      </trkpt>
      <trkpt lat="44.35012" lon="4.76135">
        <ele>76.1</ele>
        <time>2018-03-26T12:56:56Z</time>
      </trkpt>
      <trkpt lat="44.35022" lon="4.76146">
        <ele>76.1</ele>
        <time>2018-03-26T12:56:59Z</time>
      </trkpt>
      <trkpt lat="44.35032" lon="4.76159">
        <ele>76.1</ele>
        <time>2018-03-26T12:57:02Z</time>
      </trkpt>
      <trkpt lat="44.3504" lon="4.7617">
        <ele>76.2</ele>
        <time>2018-03-26T12:57:05Z</time>
      </trkpt>
      <trkpt lat="44.35045" lon="4.76182">
        <ele>76.3</ele>
        <time>2018-03-26T12:57:09Z</time>
      </trkpt>
      <trkpt lat="44.35052" lon="4.76192">
        <ele>76.8</ele>
        <time>2018-03-26T12:57:13Z</time>
      </trkpt>
      <trkpt lat="44.35059" lon="4.76205">
        <ele>77.3</ele>
        <time>2018-03-26T12:57:16Z</time>
      </trkpt>
      <trkpt lat="44.35061" lon="4.76223">
        <ele>77.1</ele>
        <time>2018-03-26T12:57:19Z</time>
      </trkpt>
      <trkpt lat="44.35061" lon="4.76235">
        <ele>76.9</ele>
        <time>2018-03-26T12:57:21Z</time>
      </trkpt>
      <trkpt lat="44.3506" lon="4.76249">
        <ele>76.6</ele>
        <time>2018-03-26T12:57:23Z</time>
      </trkpt>
      <trkpt lat="44.35059" lon="4.76262">
        <ele>76.3</ele>
        <time>2018-03-26T12:57:25Z</time>
      </trkpt>
      <trkpt lat="44.35058" lon="4.76275">
        <ele>76</ele>
        <time>2018-03-26T12:57:27Z</time>
      </trkpt>
      <trkpt lat="44.35056" lon="4.76288">
        <ele>75.8</ele>
        <time>2018-03-26T12:57:29Z</time>
      </trkpt>
      <trkpt lat="44.35056" lon="4.76304">
        <ele>75.9</ele>
        <time>2018-03-26T12:57:32Z</time>
      </trkpt>
      <trkpt lat="44.35053" lon="4.76318">
        <ele>76.1</ele>
        <time>2018-03-26T12:57:37Z</time>
      </trkpt>
      <trkpt lat="44.35054" lon="4.76331">
        <ele>76.1</ele>
        <time>2018-03-26T12:57:41Z</time>
      </trkpt>
      <trkpt lat="44.35051" lon="4.76344">
        <ele>76.5</ele>
        <time>2018-03-26T12:57:46Z</time>
      </trkpt>
      <trkpt lat="44.35051" lon="4.76361">
        <ele>76.6</ele>
        <time>2018-03-26T12:57:49Z</time>
      </trkpt>
      <trkpt lat="44.3505" lon="4.76379">
        <ele>76.6</ele>
        <time>2018-03-26T12:57:52Z</time>
      </trkpt>
      <trkpt lat="44.35049" lon="4.76392">
        <ele>76.9</ele>
        <time>2018-03-26T12:57:54Z</time>
      </trkpt>
      <trkpt lat="44.35048" lon="4.76405">
        <ele>77.1</ele>
        <time>2018-03-26T12:57:56Z</time>
      </trkpt>
      <trkpt lat="44.35047" lon="4.76419">
        <ele>77</ele>
        <time>2018-03-26T12:57:58Z</time>
      </trkpt>
      <trkpt lat="44.35046" lon="4.76433">
        <ele>76.9</ele>
        <time>2018-03-26T12:58:00Z</time>
      </trkpt>
      <trkpt lat="44.35045" lon="4.76447">
        <ele>76.9</ele>
        <time>2018-03-26T12:58:02Z</time>
      </trkpt>
      <trkpt lat="44.35045" lon="4.7646">
        <ele>76.9</ele>
        <time>2018-03-26T12:58:04Z</time>
      </trkpt>
      <trkpt lat="44.35043" lon="4.76474">
        <ele>76.9</ele>
        <time>2018-03-26T12:58:06Z</time>
      </trkpt>
      <trkpt lat="44.35043" lon="4.76488">
        <ele>77.1</ele>
        <time>2018-03-26T12:58:08Z</time>
      </trkpt>
      <trkpt lat="44.35041" lon="4.76502">
        <ele>77.1</ele>
        <time>2018-03-26T12:58:10Z</time>
      </trkpt>
      <trkpt lat="44.3504" lon="4.76516">
        <ele>77</ele>
        <time>2018-03-26T12:58:12Z</time>
      </trkpt>
      <trkpt lat="44.3504" lon="4.7653">
        <ele>77</ele>
        <time>2018-03-26T12:58:14Z</time>
      </trkpt>
      <trkpt lat="44.35039" lon="4.76545">
        <ele>77.2</ele>
        <time>2018-03-26T12:58:16Z</time>
      </trkpt>
      <trkpt lat="44.35039" lon="4.7656">
        <ele>77.3</ele>
        <time>2018-03-26T12:58:18Z</time>
      </trkpt>
      <trkpt lat="44.35039" lon="4.76573">
        <ele>77.6</ele>
        <time>2018-03-26T12:58:20Z</time>
      </trkpt>
      <trkpt lat="44.35038" lon="4.76588">
        <ele>78.1</ele>
        <time>2018-03-26T12:58:23Z</time>
      </trkpt>
      <trkpt lat="44.35038" lon="4.76602">
        <ele>79.2</ele>
        <time>2018-03-26T12:58:30Z</time>
      </trkpt>
      <trkpt lat="44.35041" lon="4.76615">
        <ele>79.3</ele>
        <time>2018-03-26T12:58:36Z</time>
      </trkpt>
      <trkpt lat="44.35045" lon="4.76631">
        <ele>79.3</ele>
        <time>2018-03-26T12:58:39Z</time>
      </trkpt>
      <trkpt lat="44.35049" lon="4.76645">
        <ele>79</ele>
        <time>2018-03-26T12:58:41Z</time>
      </trkpt>
      <trkpt lat="44.35054" lon="4.76657">
        <ele>78.7</ele>
        <time>2018-03-26T12:58:43Z</time>
      </trkpt>
      <trkpt lat="44.3506" lon="4.76671">
        <ele>78.6</ele>
        <time>2018-03-26T12:58:45Z</time>
      </trkpt>
      <trkpt lat="44.35064" lon="4.76685">
        <ele>78.4</ele>
        <time>2018-03-26T12:58:47Z</time>
      </trkpt>
      <trkpt lat="44.35067" lon="4.767">
        <ele>78.4</ele>
        <time>2018-03-26T12:58:49Z</time>
      </trkpt>
      <trkpt lat="44.35068" lon="4.76714">
        <ele>78.4</ele>
        <time>2018-03-26T12:58:51Z</time>
      </trkpt>
      <trkpt lat="44.3507" lon="4.76729">
        <ele>78.4</ele>
        <time>2018-03-26T12:58:53Z</time>
      </trkpt>
      <trkpt lat="44.3507" lon="4.76744">
        <ele>78.4</ele>
        <time>2018-03-26T12:58:55Z</time>
      </trkpt>
      <trkpt lat="44.35071" lon="4.76759">
        <ele>78.2</ele>
        <time>2018-03-26T12:58:57Z</time>
      </trkpt>
      <trkpt lat="44.35072" lon="4.76774">
        <ele>78</ele>
        <time>2018-03-26T12:58:59Z</time>
      </trkpt>
      <trkpt lat="44.35073" lon="4.76788">
        <ele>78</ele>
        <time>2018-03-26T12:59:01Z</time>
      </trkpt>
      <trkpt lat="44.35075" lon="4.76803">
        <ele>78.1</ele>
        <time>2018-03-26T12:59:03Z</time>
      </trkpt>
      <trkpt lat="44.35078" lon="4.76817">
        <ele>78.2</ele>
        <time>2018-03-26T12:59:05Z</time>
      </trkpt>
      <trkpt lat="44.35079" lon="4.76831">
        <ele>78.3</ele>
        <time>2018-03-26T12:59:07Z</time>
      </trkpt>
      <trkpt lat="44.3508" lon="4.76844">
        <ele>78.7</ele>
        <time>2018-03-26T12:59:09Z</time>
      </trkpt>
      <trkpt lat="44.35081" lon="4.76858">
        <ele>78.9</ele>
        <time>2018-03-26T12:59:11Z</time>
      </trkpt>
      <trkpt lat="44.35085" lon="4.76874">
        <ele>79.2</ele>
        <time>2018-03-26T12:59:14Z</time>
      </trkpt>
      <trkpt lat="44.35091" lon="4.76888">
        <ele>79.7</ele>
        <time>2018-03-26T12:59:17Z</time>
      </trkpt>
      <trkpt lat="44.351" lon="4.76898">
        <ele>80.1</ele>
        <time>2018-03-26T12:59:20Z</time>
      </trkpt>
      <trkpt lat="44.35113" lon="4.76906">
        <ele>80.1</ele>
        <time>2018-03-26T12:59:23Z</time>
      </trkpt>
      <trkpt lat="44.35121" lon="4.76909">
        <ele>80.2</ele>
        <time>2018-03-26T12:59:25Z</time>
      </trkpt>
      <trkpt lat="44.35132" lon="4.76911">
        <ele>80.1</ele>
        <time>2018-03-26T12:59:28Z</time>
      </trkpt>
      <trkpt lat="44.35142" lon="4.76905">
        <ele>80.4</ele>
        <time>2018-03-26T12:59:33Z</time>
      </trkpt>
      <trkpt lat="44.35148" lon="4.7689">
        <ele>80.3</ele>
        <time>2018-03-26T12:59:36Z</time>
      </trkpt>
      <trkpt lat="44.35149" lon="4.76877">
        <ele>80.4</ele>
        <time>2018-03-26T12:59:38Z</time>
      </trkpt>
      <trkpt lat="44.35152" lon="4.76859">
        <ele>80.5</ele>
        <time>2018-03-26T12:59:41Z</time>
      </trkpt>
      <trkpt lat="44.35155" lon="4.76841">
        <ele>80.7</ele>
        <time>2018-03-26T12:59:44Z</time>
      </trkpt>
      <trkpt lat="44.35167" lon="4.76835">
        <ele>80.7</ele>
        <time>2018-03-26T12:59:47Z</time>
      </trkpt>
      <trkpt lat="44.35177" lon="4.76835">
        <ele>80.8</ele>
        <time>2018-03-26T12:59:49Z</time>
      </trkpt>
      <trkpt lat="44.35187" lon="4.76835">
        <ele>80.8</ele>
        <time>2018-03-26T12:59:51Z</time>
      </trkpt>
      <trkpt lat="44.35197" lon="4.76836">
        <ele>81.2</ele>
        <time>2018-03-26T12:59:53Z</time>
      </trkpt>
      <trkpt lat="44.35207" lon="4.76837">
        <ele>81.4</ele>
        <time>2018-03-26T12:59:55Z</time>
      </trkpt>
      <trkpt lat="44.35216" lon="4.76837">
        <ele>81.3</ele>
        <time>2018-03-26T12:59:57Z</time>
      </trkpt>
      <trkpt lat="44.35225" lon="4.76838">
        <ele>81.5</ele>
        <time>2018-03-26T12:59:59Z</time>
      </trkpt>
      <trkpt lat="44.35234" lon="4.76838">
        <ele>81.9</ele>
        <time>2018-03-26T13:00:01Z</time>
      </trkpt>
      <trkpt lat="44.35247" lon="4.76839">
        <ele>82.4</ele>
        <time>2018-03-26T13:00:04Z</time>
      </trkpt>
      <trkpt lat="44.35256" lon="4.7684">
        <ele>82.8</ele>
        <time>2018-03-26T13:00:06Z</time>
      </trkpt>
      <trkpt lat="44.35269" lon="4.76841">
        <ele>83.2</ele>
        <time>2018-03-26T13:00:09Z</time>
      </trkpt>
      <trkpt lat="44.35281" lon="4.76844">
        <ele>83.5</ele>
        <time>2018-03-26T13:00:12Z</time>
      </trkpt>
      <trkpt lat="44.35293" lon="4.76846">
        <ele>84.2</ele>
        <time>2018-03-26T13:00:15Z</time>
      </trkpt>
      <trkpt lat="44.35305" lon="4.7685">
        <ele>84.7</ele>
        <time>2018-03-26T13:00:18Z</time>
      </trkpt>
      <trkpt lat="44.35318" lon="4.76852">
        <ele>85.1</ele>
        <time>2018-03-26T13:00:21Z</time>
      </trkpt>
      <trkpt lat="44.35331" lon="4.76854">
        <ele>85.4</ele>
        <time>2018-03-26T13:00:24Z</time>
      </trkpt>
      <trkpt lat="44.35342" lon="4.76855">
        <ele>85.9</ele>
        <time>2018-03-26T13:00:27Z</time>
      </trkpt>
      <trkpt lat="44.35354" lon="4.76855">
        <ele>86.5</ele>
        <time>2018-03-26T13:00:30Z</time>
      </trkpt>
      <trkpt lat="44.35363" lon="4.76857">
        <ele>87</ele>
        <time>2018-03-26T13:00:33Z</time>
      </trkpt>
      <trkpt lat="44.35374" lon="4.76862">
        <ele>88</ele>
        <time>2018-03-26T13:00:37Z</time>
      </trkpt>
      <trkpt lat="44.35383" lon="4.7687">
        <ele>89.2</ele>
        <time>2018-03-26T13:00:41Z</time>
      </trkpt>
      <trkpt lat="44.35392" lon="4.76879">
        <ele>90.5</ele>
        <time>2018-03-26T13:00:45Z</time>
      </trkpt>
      <trkpt lat="44.35402" lon="4.76885">
        <ele>92.4</ele>
        <time>2018-03-26T13:00:52Z</time>
      </trkpt>
      <trkpt lat="44.3541" lon="4.76891">
        <ele>93</ele>
        <time>2018-03-26T13:00:56Z</time>
      </trkpt>
      <trkpt lat="44.3542" lon="4.76896">
        <ele>93.5</ele>
        <time>2018-03-26T13:01:00Z</time>
      </trkpt>
      <trkpt lat="44.35428" lon="4.76906">
        <ele>94.3</ele>
        <time>2018-03-26T13:01:05Z</time>
      </trkpt>
      <trkpt lat="44.35435" lon="4.76917">
        <ele>94.8</ele>
        <time>2018-03-26T13:01:09Z</time>
      </trkpt>
      <trkpt lat="44.35444" lon="4.76924">
        <ele>95.2</ele>
        <time>2018-03-26T13:01:12Z</time>
      </trkpt>
      <trkpt lat="44.35452" lon="4.76932">
        <ele>95.4</ele>
        <time>2018-03-26T13:01:15Z</time>
      </trkpt>
      <trkpt lat="44.35461" lon="4.76941">
        <ele>95.5</ele>
        <time>2018-03-26T13:01:18Z</time>
      </trkpt>
      <trkpt lat="44.35471" lon="4.7695">
        <ele>95</ele>
        <time>2018-03-26T13:01:21Z</time>
      </trkpt>
      <trkpt lat="44.35483" lon="4.76959">
        <ele>94.6</ele>
        <time>2018-03-26T13:01:24Z</time>
      </trkpt>
      <trkpt lat="44.35492" lon="4.76973">
        <ele>94</ele>
        <time>2018-03-26T13:01:27Z</time>
      </trkpt>
      <trkpt lat="44.35499" lon="4.76983">
        <ele>93.7</ele>
        <time>2018-03-26T13:01:29Z</time>
      </trkpt>
      <trkpt lat="44.35503" lon="4.76996">
        <ele>93.3</ele>
        <time>2018-03-26T13:01:32Z</time>
      </trkpt>
      <trkpt lat="44.35506" lon="4.77013">
        <ele>93.2</ele>
        <time>2018-03-26T13:01:36Z</time>
      </trkpt>
      <trkpt lat="44.35511" lon="4.77026">
        <ele>93.3</ele>
        <time>2018-03-26T13:01:39Z</time>
      </trkpt>
      <trkpt lat="44.35518" lon="4.77041">
        <ele>93</ele>
        <time>2018-03-26T13:01:42Z</time>
      </trkpt>
      <trkpt lat="44.35522" lon="4.77057">
        <ele>92.6</ele>
        <time>2018-03-26T13:01:45Z</time>
      </trkpt>
      <trkpt lat="44.35526" lon="4.77071">
        <ele>92.4</ele>
        <time>2018-03-26T13:01:47Z</time>
      </trkpt>
      <trkpt lat="44.35525" lon="4.77085">
        <ele>92.4</ele>
        <time>2018-03-26T13:01:49Z</time>
      </trkpt>
      <trkpt lat="44.35521" lon="4.77102">
        <ele>92.3</ele>
        <time>2018-03-26T13:01:52Z</time>
      </trkpt>
      <trkpt lat="44.35516" lon="4.77113">
        <ele>92.3</ele>
        <time>2018-03-26T13:01:54Z</time>
      </trkpt>
      <trkpt lat="44.35511" lon="4.7713">
        <ele>92</ele>
        <time>2018-03-26T13:01:57Z</time>
      </trkpt>
      <trkpt lat="44.35504" lon="4.77141">
        <ele>91.7</ele>
        <time>2018-03-26T13:02:00Z</time>
      </trkpt>
      <trkpt lat="44.35498" lon="4.77151">
        <ele>91.7</ele>
        <time>2018-03-26T13:02:02Z</time>
      </trkpt>
      <trkpt lat="44.35485" lon="4.77155">
        <ele>91.7</ele>
        <time>2018-03-26T13:02:05Z</time>
      </trkpt>
      <trkpt lat="44.35474" lon="4.77161">
        <ele>92.1</ele>
        <time>2018-03-26T13:02:08Z</time>
      </trkpt>
      <trkpt lat="44.35463" lon="4.77167">
        <ele>92.6</ele>
        <time>2018-03-26T13:02:12Z</time>
      </trkpt>
      <trkpt lat="44.35453" lon="4.77172">
        <ele>92.9</ele>
        <time>2018-03-26T13:02:14Z</time>
      </trkpt>
      <trkpt lat="44.35444" lon="4.77176">
        <ele>93.2</ele>
        <time>2018-03-26T13:02:16Z</time>
      </trkpt>
      <trkpt lat="44.35434" lon="4.77177">
        <ele>93.6</ele>
        <time>2018-03-26T13:02:19Z</time>
      </trkpt>
      <trkpt lat="44.35422" lon="4.77176">
        <ele>94.6</ele>
        <time>2018-03-26T13:02:23Z</time>
      </trkpt>
      <trkpt lat="44.35413" lon="4.7717">
        <ele>95.1</ele>
        <time>2018-03-26T13:02:27Z</time>
      </trkpt>
      <trkpt lat="44.35417" lon="4.77157">
        <ele>96.2</ele>
        <time>2018-03-26T13:02:33Z</time>
      </trkpt>
      <trkpt lat="44.35424" lon="4.77148">
        <ele>98.1</ele>
        <time>2018-03-26T13:02:41Z</time>
      </trkpt>
      <trkpt lat="44.35431" lon="4.77137">
        <ele>100.3</ele>
        <time>2018-03-26T13:02:48Z</time>
      </trkpt>
      <trkpt lat="44.35437" lon="4.77124">
        <ele>102.1</ele>
        <time>2018-03-26T13:02:54Z</time>
      </trkpt>
      <trkpt lat="44.35443" lon="4.77114">
        <ele>103.5</ele>
        <time>2018-03-26T13:02:59Z</time>
      </trkpt>
      <trkpt lat="44.35444" lon="4.77101">
        <ele>104.9</ele>
        <time>2018-03-26T13:03:04Z</time>
      </trkpt>
      <trkpt lat="44.35447" lon="4.77088">
        <ele>106.5</ele>
        <time>2018-03-26T13:03:09Z</time>
      </trkpt>
      <trkpt lat="44.35449" lon="4.77074">
        <ele>107.7</ele>
        <time>2018-03-26T13:03:15Z</time>
      </trkpt>
      <trkpt lat="44.3545" lon="4.77061">
        <ele>108.2</ele>
        <time>2018-03-26T13:03:21Z</time>
      </trkpt>
      <trkpt lat="44.35448" lon="4.77046">
        <ele>108.5</ele>
        <time>2018-03-26T13:03:25Z</time>
      </trkpt>
      <trkpt lat="44.35445" lon="4.77031">
        <ele>108.6</ele>
        <time>2018-03-26T13:03:29Z</time>
      </trkpt>
      <trkpt lat="44.35439" lon="4.77019">
        <ele>108.7</ele>
        <time>2018-03-26T13:03:34Z</time>
      </trkpt>
      <trkpt lat="44.35434" lon="4.77007">
        <ele>108.6</ele>
        <time>2018-03-26T13:03:37Z</time>
      </trkpt>
      <trkpt lat="44.35429" lon="4.76995">
        <ele>108.5</ele>
        <time>2018-03-26T13:03:40Z</time>
      </trkpt>
      <trkpt lat="44.35423" lon="4.76982">
        <ele>107.5</ele>
        <time>2018-03-26T13:03:44Z</time>
      </trkpt>
      <trkpt lat="44.35417" lon="4.76969">
        <ele>106.3</ele>
        <time>2018-03-26T13:03:50Z</time>
      </trkpt>
      <trkpt lat="44.35412" lon="4.76959">
        <ele>105.9</ele>
        <time>2018-03-26T13:03:53Z</time>
      </trkpt>
      <trkpt lat="44.35406" lon="4.76946">
        <ele>105.3</ele>
        <time>2018-03-26T13:03:56Z</time>
      </trkpt>
      <trkpt lat="44.35401" lon="4.76933">
        <ele>104.5</ele>
        <time>2018-03-26T13:03:59Z</time>
      </trkpt>
      <trkpt lat="44.35397" lon="4.7692">
        <ele>102.7</ele>
        <time>2018-03-26T13:04:03Z</time>
      </trkpt>
      <trkpt lat="44.35398" lon="4.76905">
        <ele>100.5</ele>
        <time>2018-03-26T13:04:06Z</time>
      </trkpt>
      <trkpt lat="44.35395" lon="4.7689">
        <ele>98.3</ele>
        <time>2018-03-26T13:04:09Z</time>
      </trkpt>
      <trkpt lat="44.35388" lon="4.76879">
        <ele>96.6</ele>
        <time>2018-03-26T13:04:11Z</time>
      </trkpt>
      <trkpt lat="44.35379" lon="4.76869">
        <ele>95</ele>
        <time>2018-03-26T13:04:13Z</time>
      </trkpt>
      <trkpt lat="44.35366" lon="4.76862">
        <ele>93.7</ele>
        <time>2018-03-26T13:04:15Z</time>
      </trkpt>
      <trkpt lat="44.35352" lon="4.76859">
        <ele>92.5</ele>
        <time>2018-03-26T13:04:17Z</time>
      </trkpt>
      <trkpt lat="44.35336" lon="4.76856">
        <ele>91.1</ele>
        <time>2018-03-26T13:04:19Z</time>
      </trkpt>
      <trkpt lat="44.3532" lon="4.76854">
        <ele>89.7</ele>
        <time>2018-03-26T13:04:21Z</time>
      </trkpt>
      <trkpt lat="44.35303" lon="4.76851">
        <ele>88.5</ele>
        <time>2018-03-26T13:04:23Z</time>
      </trkpt>
      <trkpt lat="44.35287" lon="4.76846">
        <ele>87.4</ele>
        <time>2018-03-26T13:04:25Z</time>
      </trkpt>
      <trkpt lat="44.3527" lon="4.76843">
        <ele>86.6</ele>
        <time>2018-03-26T13:04:27Z</time>
      </trkpt>
      <trkpt lat="44.35253" lon="4.76841">
        <ele>85.9</ele>
        <time>2018-03-26T13:04:29Z</time>
      </trkpt>
      <trkpt lat="44.35235" lon="4.76839">
        <ele>85.1</ele>
        <time>2018-03-26T13:04:31Z</time>
      </trkpt>
      <trkpt lat="44.35218" lon="4.76838">
        <ele>84.3</ele>
        <time>2018-03-26T13:04:33Z</time>
      </trkpt>
      <trkpt lat="44.35201" lon="4.76838">
        <ele>83.6</ele>
        <time>2018-03-26T13:04:35Z</time>
      </trkpt>
      <trkpt lat="44.35185" lon="4.76837">
        <ele>83.1</ele>
        <time>2018-03-26T13:04:37Z</time>
      </trkpt>
      <trkpt lat="44.35171" lon="4.76836">
        <ele>82.7</ele>
        <time>2018-03-26T13:04:39Z</time>
      </trkpt>
      <trkpt lat="44.35161" lon="4.76835">
        <ele>82.4</ele>
        <time>2018-03-26T13:04:41Z</time>
      </trkpt>
      <trkpt lat="44.35152" lon="4.76844">
        <ele>81.2</ele>
        <time>2018-03-26T13:04:47Z</time>
      </trkpt>
      <trkpt lat="44.35148" lon="4.7686">
        <ele>81.1</ele>
        <time>2018-03-26T13:04:50Z</time>
      </trkpt>
      <trkpt lat="44.35146" lon="4.76873">
        <ele>80.7</ele>
        <time>2018-03-26T13:04:52Z</time>
      </trkpt>
      <trkpt lat="44.35144" lon="4.76886">
        <ele>80.7</ele>
        <time>2018-03-26T13:04:54Z</time>
      </trkpt>
      <trkpt lat="44.35143" lon="4.76899">
        <ele>80.5</ele>
        <time>2018-03-26T13:04:56Z</time>
      </trkpt>
      <trkpt lat="44.35133" lon="4.7691">
        <ele>80.3</ele>
        <time>2018-03-26T13:04:59Z</time>
      </trkpt>
      <trkpt lat="44.35119" lon="4.76909">
        <ele>80.3</ele>
        <time>2018-03-26T13:05:02Z</time>
      </trkpt>
      <trkpt lat="44.3511" lon="4.76906">
        <ele>80.3</ele>
        <time>2018-03-26T13:05:04Z</time>
      </trkpt>
      <trkpt lat="44.35098" lon="4.76901">
        <ele>80.4</ele>
        <time>2018-03-26T13:05:07Z</time>
      </trkpt>
      <trkpt lat="44.35088" lon="4.76903">
        <ele>80.7</ele>
        <time>2018-03-26T13:05:11Z</time>
      </trkpt>
      <trkpt lat="44.35083" lon="4.76919">
        <ele>80.8</ele>
        <time>2018-03-26T13:05:14Z</time>
      </trkpt>
      <trkpt lat="44.35079" lon="4.76933">
        <ele>80.7</ele>
        <time>2018-03-26T13:05:16Z</time>
      </trkpt>
      <trkpt lat="44.35076" lon="4.76948">
        <ele>80.4</ele>
        <time>2018-03-26T13:05:18Z</time>
      </trkpt>
      <trkpt lat="44.35073" lon="4.76964">
        <ele>80.3</ele>
        <time>2018-03-26T13:05:20Z</time>
      </trkpt>
      <trkpt lat="44.35072" lon="4.7698">
        <ele>80.2</ele>
        <time>2018-03-26T13:05:22Z</time>
      </trkpt>
      <trkpt lat="44.35071" lon="4.76996">
        <ele>80.1</ele>
        <time>2018-03-26T13:05:24Z</time>
      </trkpt>
      <trkpt lat="44.35069" lon="4.77012">
        <ele>80.2</ele>
        <time>2018-03-26T13:05:26Z</time>
      </trkpt>
      <trkpt lat="44.35068" lon="4.77027">
        <ele>80.4</ele>
        <time>2018-03-26T13:05:28Z</time>
      </trkpt>
      <trkpt lat="44.35067" lon="4.77042">
        <ele>80.6</ele>
        <time>2018-03-26T13:05:30Z</time>
      </trkpt>
      <trkpt lat="44.35067" lon="4.77058">
        <ele>80.8</ele>
        <time>2018-03-26T13:05:32Z</time>
      </trkpt>
      <trkpt lat="44.35068" lon="4.77073">
        <ele>81</ele>
        <time>2018-03-26T13:05:34Z</time>
      </trkpt>
      <trkpt lat="44.35069" lon="4.77088">
        <ele>81.2</ele>
        <time>2018-03-26T13:05:36Z</time>
      </trkpt>
      <trkpt lat="44.35071" lon="4.77101">
        <ele>81.3</ele>
        <time>2018-03-26T13:05:38Z</time>
      </trkpt>
      <trkpt lat="44.35072" lon="4.77117">
        <ele>81.5</ele>
        <time>2018-03-26T13:05:41Z</time>
      </trkpt>
      <trkpt lat="44.35066" lon="4.77128">
        <ele>82</ele>
        <time>2018-03-26T13:05:48Z</time>
      </trkpt>
      <trkpt lat="44.35057" lon="4.77134">
        <ele>82.3</ele>
        <time>2018-03-26T13:05:53Z</time>
      </trkpt>
      <trkpt lat="44.35047" lon="4.7713">
        <ele>82.4</ele>
        <time>2018-03-26T13:05:56Z</time>
      </trkpt>
      <trkpt lat="44.35036" lon="4.77139">
        <ele>82.4</ele>
        <time>2018-03-26T13:05:59Z</time>
      </trkpt>
      <trkpt lat="44.35031" lon="4.77151">
        <ele>82.4</ele>
        <time>2018-03-26T13:06:01Z</time>
      </trkpt>
      <trkpt lat="44.35026" lon="4.77163">
        <ele>82.3</ele>
        <time>2018-03-26T13:06:03Z</time>
      </trkpt>
      <trkpt lat="44.35022" lon="4.77175">
        <ele>82</ele>
        <time>2018-03-26T13:06:05Z</time>
      </trkpt>
      <trkpt lat="44.35018" lon="4.77187">
        <ele>81.9</ele>
        <time>2018-03-26T13:06:07Z</time>
      </trkpt>
      <trkpt lat="44.35014" lon="4.772">
        <ele>81.9</ele>
        <time>2018-03-26T13:06:09Z</time>
      </trkpt>
      <trkpt lat="44.35009" lon="4.77215">
        <ele>81.9</ele>
        <time>2018-03-26T13:06:12Z</time>
      </trkpt>
      <trkpt lat="44.34998" lon="4.77212">
        <ele>82.1</ele>
        <time>2018-03-26T13:06:16Z</time>
      </trkpt>
      <trkpt lat="44.34991" lon="4.77204">
        <ele>82</ele>
        <time>2018-03-26T13:06:18Z</time>
      </trkpt>
      <trkpt lat="44.34984" lon="4.77195">
        <ele>82</ele>
        <time>2018-03-26T13:06:20Z</time>
      </trkpt>
      <trkpt lat="44.34977" lon="4.77186">
        <ele>82</ele>
        <time>2018-03-26T13:06:22Z</time>
      </trkpt>
      <trkpt lat="44.34965" lon="4.77177">
        <ele>82.1</ele>
        <time>2018-03-26T13:06:25Z</time>
      </trkpt>
      <trkpt lat="44.34957" lon="4.7717">
        <ele>82.2</ele>
        <time>2018-03-26T13:06:28Z</time>
      </trkpt>
      <trkpt lat="44.34959" lon="4.77156">
        <ele>82.4</ele>
        <time>2018-03-26T13:06:32Z</time>
      </trkpt>
      <trkpt lat="44.34961" lon="4.77144">
        <ele>82.4</ele>
        <time>2018-03-26T13:06:35Z</time>
      </trkpt>
      <trkpt lat="44.34956" lon="4.77131">
        <ele>82.8</ele>
        <time>2018-03-26T13:06:38Z</time>
      </trkpt>
      <trkpt lat="44.34949" lon="4.77118">
        <ele>83.3</ele>
        <time>2018-03-26T13:06:41Z</time>
      </trkpt>
      <trkpt lat="44.34938" lon="4.77112">
        <ele>84.1</ele>
        <time>2018-03-26T13:06:44Z</time>
      </trkpt>
      <trkpt lat="44.34926" lon="4.7711">
        <ele>84.6</ele>
        <time>2018-03-26T13:06:47Z</time>
      </trkpt>
      <trkpt lat="44.34918" lon="4.77101">
        <ele>85.3</ele>
        <time>2018-03-26T13:06:50Z</time>
      </trkpt>
      <trkpt lat="44.34919" lon="4.77088">
        <ele>86</ele>
        <time>2018-03-26T13:06:53Z</time>
      </trkpt>
      <trkpt lat="44.34918" lon="4.77075">
        <ele>86.8</ele>
        <time>2018-03-26T13:06:57Z</time>
      </trkpt>
      <trkpt lat="44.34909" lon="4.7707">
        <ele>87.4</ele>
        <time>2018-03-26T13:07:00Z</time>
      </trkpt>
      <trkpt lat="44.34896" lon="4.77067">
        <ele>87.8</ele>
        <time>2018-03-26T13:07:03Z</time>
      </trkpt>
      <trkpt lat="44.34886" lon="4.77065">
        <ele>87.9</ele>
        <time>2018-03-26T13:07:05Z</time>
      </trkpt>
      <trkpt lat="44.34876" lon="4.77061">
        <ele>87</ele>
        <time>2018-03-26T13:07:07Z</time>
      </trkpt>
      <trkpt lat="44.34863" lon="4.77052">
        <ele>88.2</ele>
        <time>2018-03-26T13:07:10Z</time>
      </trkpt>
      <trkpt lat="44.34856" lon="4.77043">
        <ele>88.3</ele>
        <time>2018-03-26T13:07:12Z</time>
      </trkpt>
      <trkpt lat="44.34849" lon="4.77032">
        <ele>88.3</ele>
        <time>2018-03-26T13:07:14Z</time>
      </trkpt>
      <trkpt lat="44.34842" lon="4.77021">
        <ele>88.4</ele>
        <time>2018-03-26T13:07:16Z</time>
      </trkpt>
      <trkpt lat="44.34836" lon="4.7701">
        <ele>88.4</ele>
        <time>2018-03-26T13:07:18Z</time>
      </trkpt>
      <trkpt lat="44.34829" lon="4.77">
        <ele>88.4</ele>
        <time>2018-03-26T13:07:20Z</time>
      </trkpt>
      <trkpt lat="44.34822" lon="4.7699">
        <ele>88.3</ele>
        <time>2018-03-26T13:07:22Z</time>
      </trkpt>
      <trkpt lat="44.34814" lon="4.76981">
        <ele>88.3</ele>
        <time>2018-03-26T13:07:24Z</time>
      </trkpt>
      <trkpt lat="44.34808" lon="4.76971">
        <ele>88.2</ele>
        <time>2018-03-26T13:07:26Z</time>
      </trkpt>
      <trkpt lat="44.34798" lon="4.76966">
        <ele>88</ele>
        <time>2018-03-26T13:07:29Z</time>
      </trkpt>
      <trkpt lat="44.34791" lon="4.76976">
        <ele>87.8</ele>
        <time>2018-03-26T13:07:33Z</time>
      </trkpt>
      <trkpt lat="44.34785" lon="4.76987">
        <ele>87.6</ele>
        <time>2018-03-26T13:07:38Z</time>
      </trkpt>
      <trkpt lat="44.3478" lon="4.77">
        <ele>87.4</ele>
        <time>2018-03-26T13:07:45Z</time>
      </trkpt>
      <trkpt lat="44.3478" lon="4.77002">
        <ele>87.2</ele>
        <time>2018-03-26T13:07:46Z</time>
      </trkpt>
    </trkseg>
  </trk>
</gpx>